<?xml version="1.0" encoding="UTF-8" standalone="no" ?>
<gpx xmlns="http://www.topografix.com/GPX/1/1" xmlns:xsi="http://www.w3.org/2001/XMLSchema-instance" xsi:schemaLocation="http://www.topografix.com/GPX/1/1 http://www.topografix.com/GPX/1/1/gpx.xsd" version="1.1" creator="VisuGPX - https://www.visugpx.com">
  <metadata>
    <name>GR 441, GR 30, étape 14</name>
    <desc><![CDATA[Du sommet de la Grande Cascade à la Bourboule.]]></desc>
  </metadata>
  <trk>
    <name><![CDATA[GR 441 - GR 30 étape 14_1]]></name>
    <extensions>
      <line xmlns="http://www.topografix.com/GPX/gpx_style/0/2">
        <color>0000FF</color>
        <width>4</width>
      </line>
    </extensions>
    <trkseg>
      <trkpt lat="45.56638" lon="2.82049">
        <ele>1335</ele>
        <time>2021-09-07T04:56:44.000Z</time>
      </trkpt>
      <trkpt lat="45.56614" lon="2.82051">
        <ele>1340.3</ele>
        <time>2021-09-07T04:56:50.000Z</time>
      </trkpt>
      <trkpt lat="45.56607" lon="2.82054">
        <ele>1341.9</ele>
        <time>2021-09-07T04:57:29.000Z</time>
      </trkpt>
      <trkpt lat="45.56603" lon="2.82062">
        <ele>1342.8</ele>
        <time>2021-09-07T04:57:36.000Z</time>
      </trkpt>
      <trkpt lat="45.56601" lon="2.82072">
        <ele>1343.3</ele>
        <time>2021-09-07T04:57:53.000Z</time>
      </trkpt>
      <trkpt lat="45.56599" lon="2.82081">
        <ele>1343.8</ele>
        <time>2021-09-07T04:57:59.000Z</time>
      </trkpt>
      <trkpt lat="45.56594" lon="2.82088">
        <ele>1344.7</ele>
        <time>2021-09-07T04:58:06.000Z</time>
      </trkpt>
      <trkpt lat="45.56591" lon="2.82097">
        <ele>1345.1</ele>
        <time>2021-09-07T04:58:15.000Z</time>
      </trkpt>
      <trkpt lat="45.56597" lon="2.82103">
        <ele>1344</ele>
        <time>2021-09-07T04:58:22.000Z</time>
      </trkpt>
      <trkpt lat="45.56604" lon="2.82103">
        <ele>1342.8</ele>
        <time>2021-09-07T04:58:27.000Z</time>
      </trkpt>
      <trkpt lat="45.56611" lon="2.82102">
        <ele>1341.6</ele>
        <time>2021-09-07T04:58:33.000Z</time>
      </trkpt>
      <trkpt lat="45.56617" lon="2.82099">
        <ele>1340.5</ele>
        <time>2021-09-07T04:58:40.000Z</time>
      </trkpt>
      <trkpt lat="45.56621" lon="2.82091">
        <ele>1339.5</ele>
        <time>2021-09-07T04:58:58.000Z</time>
      </trkpt>
      <trkpt lat="45.56627" lon="2.82086">
        <ele>1338.2</ele>
        <time>2021-09-07T04:59:12.000Z</time>
      </trkpt>
      <trkpt lat="45.56633" lon="2.82081">
        <ele>1336.8</ele>
        <time>2021-09-07T04:59:26.000Z</time>
      </trkpt>
      <trkpt lat="45.56639" lon="2.8208">
        <ele>1335.6</ele>
        <time>2021-09-07T04:59:58.000Z</time>
      </trkpt>
      <trkpt lat="45.56645" lon="2.82074">
        <ele>1334.2</ele>
        <time>2021-09-07T05:00:09.000Z</time>
      </trkpt>
      <trkpt lat="45.56651" lon="2.82069">
        <ele>1332.8</ele>
        <time>2021-09-07T05:00:18.000Z</time>
      </trkpt>
      <trkpt lat="45.56658" lon="2.82067">
        <ele>1331.2</ele>
        <time>2021-09-07T05:00:26.000Z</time>
      </trkpt>
      <trkpt lat="45.56664" lon="2.82063">
        <ele>1329.8</ele>
        <time>2021-09-07T05:00:34.000Z</time>
      </trkpt>
      <trkpt lat="45.5667" lon="2.82059">
        <ele>1329.2</ele>
        <time>2021-09-07T05:01:07.000Z</time>
      </trkpt>
      <trkpt lat="45.56677" lon="2.82056">
        <ele>1329.2</ele>
        <time>2021-09-07T05:01:18.000Z</time>
      </trkpt>
      <trkpt lat="45.56683" lon="2.82052">
        <ele>1329</ele>
        <time>2021-09-07T05:01:29.000Z</time>
      </trkpt>
      <trkpt lat="45.5669" lon="2.8205">
        <ele>1328.7</ele>
        <time>2021-09-07T05:01:41.000Z</time>
      </trkpt>
      <trkpt lat="45.56696" lon="2.82047">
        <ele>1328.3</ele>
        <time>2021-09-07T05:01:57.000Z</time>
      </trkpt>
      <trkpt lat="45.56704" lon="2.82046">
        <ele>1328</ele>
        <time>2021-09-07T05:03:15.000Z</time>
      </trkpt>
      <trkpt lat="45.56697" lon="2.82046">
        <ele>1328.1</ele>
        <time>2021-09-07T05:03:54.000Z</time>
      </trkpt>
      <trkpt lat="45.56691" lon="2.82048">
        <ele>1328.5</ele>
        <time>2021-09-07T05:04:01.000Z</time>
      </trkpt>
      <trkpt lat="45.56684" lon="2.82052">
        <ele>1329</ele>
        <time>2021-09-07T05:04:08.000Z</time>
      </trkpt>
      <trkpt lat="45.56677" lon="2.82054">
        <ele>1329.1</ele>
        <time>2021-09-07T05:04:17.000Z</time>
      </trkpt>
      <trkpt lat="45.56671" lon="2.82056">
        <ele>1329.1</ele>
        <time>2021-09-07T05:04:24.000Z</time>
      </trkpt>
      <trkpt lat="45.56664" lon="2.8206">
        <ele>1329.7</ele>
        <time>2021-09-07T05:04:31.000Z</time>
      </trkpt>
      <trkpt lat="45.56658" lon="2.82064">
        <ele>1331.1</ele>
        <time>2021-09-07T05:04:37.000Z</time>
      </trkpt>
      <trkpt lat="45.56652" lon="2.82068">
        <ele>1332.5</ele>
        <time>2021-09-07T05:04:43.000Z</time>
      </trkpt>
      <trkpt lat="45.56645" lon="2.8207">
        <ele>1334.1</ele>
        <time>2021-09-07T05:04:50.000Z</time>
      </trkpt>
      <trkpt lat="45.56639" lon="2.82073">
        <ele>1335.4</ele>
        <time>2021-09-07T05:04:57.000Z</time>
      </trkpt>
      <trkpt lat="45.56633" lon="2.82079">
        <ele>1336.8</ele>
        <time>2021-09-07T05:05:04.000Z</time>
      </trkpt>
      <trkpt lat="45.56628" lon="2.82084">
        <ele>1337.9</ele>
        <time>2021-09-07T05:05:11.000Z</time>
      </trkpt>
      <trkpt lat="45.56621" lon="2.82088">
        <ele>1339.5</ele>
        <time>2021-09-07T05:05:19.000Z</time>
      </trkpt>
      <trkpt lat="45.56615" lon="2.82093">
        <ele>1340.7</ele>
        <time>2021-09-07T05:05:25.000Z</time>
      </trkpt>
      <trkpt lat="45.56608" lon="2.82095">
        <ele>1342</ele>
        <time>2021-09-07T05:05:30.000Z</time>
      </trkpt>
      <trkpt lat="45.566" lon="2.82097">
        <ele>1343.5</ele>
        <time>2021-09-07T05:05:36.000Z</time>
      </trkpt>
      <trkpt lat="45.56592" lon="2.82099">
        <ele>1344.9</ele>
        <time>2021-09-07T05:05:42.000Z</time>
      </trkpt>
      <trkpt lat="45.56586" lon="2.82104">
        <ele>1345.8</ele>
        <time>2021-09-07T05:05:48.000Z</time>
      </trkpt>
      <trkpt lat="45.56583" lon="2.82113">
        <ele>1346</ele>
        <time>2021-09-07T05:05:56.000Z</time>
      </trkpt>
      <trkpt lat="45.56573" lon="2.82118">
        <ele>1348.3</ele>
        <time>2021-09-07T05:06:19.000Z</time>
      </trkpt>
      <trkpt lat="45.56566" lon="2.82122">
        <ele>1349.9</ele>
        <time>2021-09-07T05:06:25.000Z</time>
      </trkpt>
      <trkpt lat="45.5656" lon="2.82116">
        <ele>1351.5</ele>
        <time>2021-09-07T05:06:34.000Z</time>
      </trkpt>
      <trkpt lat="45.5656" lon="2.82105">
        <ele>1351.7</ele>
        <time>2021-09-07T05:06:41.000Z</time>
      </trkpt>
      <trkpt lat="45.56562" lon="2.82095">
        <ele>1351.4</ele>
        <time>2021-09-07T05:06:47.000Z</time>
      </trkpt>
      <trkpt lat="45.56558" lon="2.82087">
        <ele>1352.4</ele>
        <time>2021-09-07T05:07:24.000Z</time>
      </trkpt>
      <trkpt lat="45.56547" lon="2.82082">
        <ele>1354.8</ele>
        <time>2021-09-07T05:08:58.000Z</time>
      </trkpt>
      <trkpt lat="45.56542" lon="2.82077">
        <ele>1355.9</ele>
        <time>2021-09-07T05:09:10.000Z</time>
      </trkpt>
      <trkpt lat="45.56535" lon="2.82082">
        <ele>1357.4</ele>
        <time>2021-09-07T05:09:36.000Z</time>
      </trkpt>
      <trkpt lat="45.56528" lon="2.8208">
        <ele>1358.9</ele>
        <time>2021-09-07T05:09:49.000Z</time>
      </trkpt>
      <trkpt lat="45.56518" lon="2.82092">
        <ele>1361.3</ele>
        <time>2021-09-07T05:10:24.000Z</time>
      </trkpt>
      <trkpt lat="45.56512" lon="2.82096">
        <ele>1362.7</ele>
        <time>2021-09-07T05:10:37.000Z</time>
      </trkpt>
      <trkpt lat="45.56505" lon="2.82099">
        <ele>1364.4</ele>
        <time>2021-09-07T05:10:51.000Z</time>
      </trkpt>
      <trkpt lat="45.56499" lon="2.82103">
        <ele>1365.9</ele>
        <time>2021-09-07T05:11:43.000Z</time>
      </trkpt>
      <trkpt lat="45.56492" lon="2.821">
        <ele>1367.1</ele>
        <time>2021-09-07T05:11:52.000Z</time>
      </trkpt>
      <trkpt lat="45.56486" lon="2.82098">
        <ele>1368.2</ele>
        <time>2021-09-07T05:12:02.000Z</time>
      </trkpt>
      <trkpt lat="45.56479" lon="2.82101">
        <ele>1369.7</ele>
        <time>2021-09-07T05:12:11.000Z</time>
      </trkpt>
      <trkpt lat="45.56473" lon="2.82105">
        <ele>1371</ele>
        <time>2021-09-07T05:12:23.000Z</time>
      </trkpt>
      <trkpt lat="45.56468" lon="2.82111">
        <ele>1372.1</ele>
        <time>2021-09-07T05:12:34.000Z</time>
      </trkpt>
      <trkpt lat="45.56469" lon="2.8212">
        <ele>1372.3</ele>
        <time>2021-09-07T05:12:41.000Z</time>
      </trkpt>
      <trkpt lat="45.56465" lon="2.82128">
        <ele>1373.3</ele>
        <time>2021-09-07T05:12:52.000Z</time>
      </trkpt>
      <trkpt lat="45.56459" lon="2.82133">
        <ele>1374.7</ele>
        <time>2021-09-07T05:13:01.000Z</time>
      </trkpt>
      <trkpt lat="45.56453" lon="2.82136">
        <ele>1375.9</ele>
        <time>2021-09-07T05:13:10.000Z</time>
      </trkpt>
      <trkpt lat="45.56446" lon="2.82138">
        <ele>1377.3</ele>
        <time>2021-09-07T05:13:20.000Z</time>
      </trkpt>
      <trkpt lat="45.56439" lon="2.82139">
        <ele>1378.7</ele>
        <time>2021-09-07T05:13:31.000Z</time>
      </trkpt>
      <trkpt lat="45.56432" lon="2.82143">
        <ele>1380.2</ele>
        <time>2021-09-07T05:14:13.000Z</time>
      </trkpt>
      <trkpt lat="45.56427" lon="2.82149">
        <ele>1381.4</ele>
        <time>2021-09-07T05:14:52.000Z</time>
      </trkpt>
      <trkpt lat="45.56421" lon="2.82153">
        <ele>1382.7</ele>
        <time>2021-09-07T05:15:01.000Z</time>
      </trkpt>
      <trkpt lat="45.56415" lon="2.82158">
        <ele>1384.2</ele>
        <time>2021-09-07T05:15:10.000Z</time>
      </trkpt>
      <trkpt lat="45.56408" lon="2.82161">
        <ele>1386.3</ele>
        <time>2021-09-07T05:15:19.000Z</time>
      </trkpt>
      <trkpt lat="45.56402" lon="2.82165">
        <ele>1388.3</ele>
        <time>2021-09-07T05:15:31.000Z</time>
      </trkpt>
      <trkpt lat="45.56395" lon="2.8217">
        <ele>1391</ele>
        <time>2021-09-07T05:15:48.000Z</time>
      </trkpt>
      <trkpt lat="45.56389" lon="2.82172">
        <ele>1393.1</ele>
        <time>2021-09-07T05:16:26.000Z</time>
      </trkpt>
      <trkpt lat="45.56382" lon="2.82176">
        <ele>1395.8</ele>
        <time>2021-09-07T05:16:37.000Z</time>
      </trkpt>
      <trkpt lat="45.5638" lon="2.82185">
        <ele>1397.8</ele>
        <time>2021-09-07T05:16:48.000Z</time>
      </trkpt>
      <trkpt lat="45.56379" lon="2.82194">
        <ele>1399.5</ele>
        <time>2021-09-07T05:17:24.000Z</time>
      </trkpt>
      <trkpt lat="45.56379" lon="2.82204">
        <ele>1401.1</ele>
        <time>2021-09-07T05:17:33.000Z</time>
      </trkpt>
      <trkpt lat="45.56373" lon="2.8221">
        <ele>1403.9</ele>
        <time>2021-09-07T05:17:45.000Z</time>
      </trkpt>
      <trkpt lat="45.56367" lon="2.82204">
        <ele>1404.8</ele>
        <time>2021-09-07T05:17:53.000Z</time>
      </trkpt>
      <trkpt lat="45.5636" lon="2.82205">
        <ele>1407.1</ele>
        <time>2021-09-07T05:18:02.000Z</time>
      </trkpt>
      <trkpt lat="45.5636" lon="2.82215">
        <ele>1408.7</ele>
        <time>2021-09-07T05:18:11.000Z</time>
      </trkpt>
      <trkpt lat="45.56361" lon="2.82225">
        <ele>1410</ele>
        <time>2021-09-07T05:18:23.000Z</time>
      </trkpt>
      <trkpt lat="45.56362" lon="2.82236">
        <ele>1411.5</ele>
        <time>2021-09-07T05:23:33.000Z</time>
      </trkpt>
      <trkpt lat="45.56358" lon="2.82256">
        <ele>1415.5</ele>
        <time>2021-09-07T05:24:37.000Z</time>
      </trkpt>
      <trkpt lat="45.56353" lon="2.82269">
        <ele>1418.1</ele>
        <time>2021-09-07T05:25:27.000Z</time>
      </trkpt>
      <trkpt lat="45.56347" lon="2.82276">
        <ele>1420.7</ele>
        <time>2021-09-07T05:25:58.000Z</time>
      </trkpt>
      <trkpt lat="45.56345" lon="2.82285">
        <ele>1422</ele>
        <time>2021-09-07T05:26:52.000Z</time>
      </trkpt>
      <trkpt lat="45.5634" lon="2.82291">
        <ele>1424.2</ele>
        <time>2021-09-07T05:27:08.000Z</time>
      </trkpt>
      <trkpt lat="45.56336" lon="2.82299">
        <ele>1426.2</ele>
        <time>2021-09-07T05:27:30.000Z</time>
      </trkpt>
      <trkpt lat="45.56331" lon="2.82306">
        <ele>1428</ele>
        <time>2021-09-07T05:28:00.000Z</time>
      </trkpt>
      <trkpt lat="45.5633" lon="2.82315">
        <ele>1428.9</ele>
        <time>2021-09-07T05:28:43.000Z</time>
      </trkpt>
      <trkpt lat="45.56324" lon="2.82323">
        <ele>1430.3</ele>
        <time>2021-09-07T05:29:29.000Z</time>
      </trkpt>
      <trkpt lat="45.56321" lon="2.82332">
        <ele>1431.4</ele>
        <time>2021-09-07T05:29:44.000Z</time>
      </trkpt>
      <trkpt lat="45.56318" lon="2.8234">
        <ele>1432.1</ele>
        <time>2021-09-07T05:30:02.000Z</time>
      </trkpt>
      <trkpt lat="45.56313" lon="2.82345">
        <ele>1432.9</ele>
        <time>2021-09-07T05:30:22.000Z</time>
      </trkpt>
      <trkpt lat="45.5631" lon="2.82354">
        <ele>1433.6</ele>
        <time>2021-09-07T05:30:36.000Z</time>
      </trkpt>
      <trkpt lat="45.56308" lon="2.82363">
        <ele>1434.3</ele>
        <time>2021-09-07T05:31:23.000Z</time>
      </trkpt>
      <trkpt lat="45.56302" lon="2.82368">
        <ele>1435.4</ele>
        <time>2021-09-07T05:32:14.000Z</time>
      </trkpt>
      <trkpt lat="45.563" lon="2.82377">
        <ele>1436.1</ele>
        <time>2021-09-07T05:32:24.000Z</time>
      </trkpt>
      <trkpt lat="45.563" lon="2.82387">
        <ele>1436.6</ele>
        <time>2021-09-07T05:32:34.000Z</time>
      </trkpt>
      <trkpt lat="45.56299" lon="2.82396">
        <ele>1437.2</ele>
        <time>2021-09-07T05:32:45.000Z</time>
      </trkpt>
      <trkpt lat="45.56296" lon="2.82405">
        <ele>1438.1</ele>
        <time>2021-09-07T05:32:57.000Z</time>
      </trkpt>
      <trkpt lat="45.56292" lon="2.82413">
        <ele>1439.2</ele>
        <time>2021-09-07T05:33:07.000Z</time>
      </trkpt>
      <trkpt lat="45.56289" lon="2.82422">
        <ele>1440</ele>
        <time>2021-09-07T05:33:19.000Z</time>
      </trkpt>
      <trkpt lat="45.56285" lon="2.8243">
        <ele>1440.7</ele>
        <time>2021-09-07T05:33:29.000Z</time>
      </trkpt>
      <trkpt lat="45.56282" lon="2.82438">
        <ele>1441.2</ele>
        <time>2021-09-07T05:33:41.000Z</time>
      </trkpt>
      <trkpt lat="45.56277" lon="2.82445">
        <ele>1442.1</ele>
        <time>2021-09-07T05:33:54.000Z</time>
      </trkpt>
      <trkpt lat="45.56273" lon="2.82453">
        <ele>1442.9</ele>
        <time>2021-09-07T05:34:05.000Z</time>
      </trkpt>
      <trkpt lat="45.56269" lon="2.82461">
        <ele>1443.6</ele>
        <time>2021-09-07T05:34:14.000Z</time>
      </trkpt>
      <trkpt lat="45.56265" lon="2.82469">
        <ele>1444.3</ele>
        <time>2021-09-07T05:34:22.000Z</time>
      </trkpt>
      <trkpt lat="45.56262" lon="2.82478">
        <ele>1444.8</ele>
        <time>2021-09-07T05:34:30.000Z</time>
      </trkpt>
      <trkpt lat="45.56258" lon="2.82486">
        <ele>1445.6</ele>
        <time>2021-09-07T05:34:43.000Z</time>
      </trkpt>
      <trkpt lat="45.56254" lon="2.82494">
        <ele>1446.3</ele>
        <time>2021-09-07T05:34:52.000Z</time>
      </trkpt>
      <trkpt lat="45.56251" lon="2.82503">
        <ele>1446.6</ele>
        <time>2021-09-07T05:35:00.000Z</time>
      </trkpt>
      <trkpt lat="45.56247" lon="2.8251">
        <ele>1446.8</ele>
        <time>2021-09-07T05:35:09.000Z</time>
      </trkpt>
      <trkpt lat="45.56242" lon="2.82516">
        <ele>1447.1</ele>
        <time>2021-09-07T05:35:21.000Z</time>
      </trkpt>
      <trkpt lat="45.56238" lon="2.82524">
        <ele>1447.1</ele>
        <time>2021-09-07T05:35:29.000Z</time>
      </trkpt>
      <trkpt lat="45.56235" lon="2.82533">
        <ele>1447</ele>
        <time>2021-09-07T05:35:37.000Z</time>
      </trkpt>
      <trkpt lat="45.56232" lon="2.82541">
        <ele>1446.9</ele>
        <time>2021-09-07T05:35:44.000Z</time>
      </trkpt>
      <trkpt lat="45.56228" lon="2.8255">
        <ele>1446.9</ele>
        <time>2021-09-07T05:35:51.000Z</time>
      </trkpt>
      <trkpt lat="45.56223" lon="2.82557">
        <ele>1447.1</ele>
        <time>2021-09-07T05:36:01.000Z</time>
      </trkpt>
      <trkpt lat="45.56218" lon="2.82563">
        <ele>1447.4</ele>
        <time>2021-09-07T05:36:10.000Z</time>
      </trkpt>
      <trkpt lat="45.56212" lon="2.82568">
        <ele>1447.9</ele>
        <time>2021-09-07T05:36:19.000Z</time>
      </trkpt>
      <trkpt lat="45.56207" lon="2.82576">
        <ele>1448.1</ele>
        <time>2021-09-07T05:36:26.000Z</time>
      </trkpt>
      <trkpt lat="45.56204" lon="2.82585">
        <ele>1447.9</ele>
        <time>2021-09-07T05:36:32.000Z</time>
      </trkpt>
      <trkpt lat="45.56199" lon="2.82591">
        <ele>1448.1</ele>
        <time>2021-09-07T05:36:39.000Z</time>
      </trkpt>
      <trkpt lat="45.56193" lon="2.82597">
        <ele>1448.4</ele>
        <time>2021-09-07T05:36:46.000Z</time>
      </trkpt>
      <trkpt lat="45.56189" lon="2.82604">
        <ele>1448.4</ele>
        <time>2021-09-07T05:36:52.000Z</time>
      </trkpt>
      <trkpt lat="45.56185" lon="2.82612">
        <ele>1448.3</ele>
        <time>2021-09-07T05:36:59.000Z</time>
      </trkpt>
      <trkpt lat="45.56179" lon="2.82619">
        <ele>1448.6</ele>
        <time>2021-09-07T05:37:06.000Z</time>
      </trkpt>
      <trkpt lat="45.56174" lon="2.82626">
        <ele>1448.8</ele>
        <time>2021-09-07T05:37:13.000Z</time>
      </trkpt>
      <trkpt lat="45.56169" lon="2.82632">
        <ele>1449.1</ele>
        <time>2021-09-07T05:37:20.000Z</time>
      </trkpt>
      <trkpt lat="45.56164" lon="2.82639">
        <ele>1449.2</ele>
        <time>2021-09-07T05:37:27.000Z</time>
      </trkpt>
      <trkpt lat="45.56159" lon="2.82647">
        <ele>1449.2</ele>
        <time>2021-09-07T05:37:34.000Z</time>
      </trkpt>
      <trkpt lat="45.56154" lon="2.82654">
        <ele>1449.2</ele>
        <time>2021-09-07T05:37:40.000Z</time>
      </trkpt>
      <trkpt lat="45.5615" lon="2.82661">
        <ele>1449.2</ele>
        <time>2021-09-07T05:37:46.000Z</time>
      </trkpt>
      <trkpt lat="45.56146" lon="2.8267">
        <ele>1449.2</ele>
        <time>2021-09-07T05:37:53.000Z</time>
      </trkpt>
      <trkpt lat="45.56141" lon="2.82675">
        <ele>1449.6</ele>
        <time>2021-09-07T05:38:02.000Z</time>
      </trkpt>
      <trkpt lat="45.56135" lon="2.82681">
        <ele>1450.1</ele>
        <time>2021-09-07T05:38:10.000Z</time>
      </trkpt>
      <trkpt lat="45.56131" lon="2.82688">
        <ele>1450.3</ele>
        <time>2021-09-07T05:38:19.000Z</time>
      </trkpt>
      <trkpt lat="45.56129" lon="2.82697">
        <ele>1450.3</ele>
        <time>2021-09-07T05:41:26.000Z</time>
      </trkpt>
      <trkpt lat="45.56125" lon="2.82704">
        <ele>1450.6</ele>
        <time>2021-09-07T05:41:35.000Z</time>
      </trkpt>
      <trkpt lat="45.5612" lon="2.8271">
        <ele>1451</ele>
        <time>2021-09-07T05:41:42.000Z</time>
      </trkpt>
      <trkpt lat="45.56115" lon="2.82717">
        <ele>1451.4</ele>
        <time>2021-09-07T05:41:52.000Z</time>
      </trkpt>
      <trkpt lat="45.5611" lon="2.82724">
        <ele>1451.7</ele>
        <time>2021-09-07T05:42:00.000Z</time>
      </trkpt>
      <trkpt lat="45.56105" lon="2.82732">
        <ele>1452.1</ele>
        <time>2021-09-07T05:42:09.000Z</time>
      </trkpt>
      <trkpt lat="45.561" lon="2.82739">
        <ele>1452.5</ele>
        <time>2021-09-07T05:42:17.000Z</time>
      </trkpt>
      <trkpt lat="45.56096" lon="2.82747">
        <ele>1452.7</ele>
        <time>2021-09-07T05:42:26.000Z</time>
      </trkpt>
      <trkpt lat="45.56092" lon="2.82754">
        <ele>1452.9</ele>
        <time>2021-09-07T05:42:35.000Z</time>
      </trkpt>
      <trkpt lat="45.56087" lon="2.82762">
        <ele>1453.2</ele>
        <time>2021-09-07T05:42:49.000Z</time>
      </trkpt>
      <trkpt lat="45.56082" lon="2.82769">
        <ele>1453.5</ele>
        <time>2021-09-07T05:42:57.000Z</time>
      </trkpt>
      <trkpt lat="45.56077" lon="2.82777">
        <ele>1453.9</ele>
        <time>2021-09-07T05:43:06.000Z</time>
      </trkpt>
      <trkpt lat="45.56074" lon="2.82785">
        <ele>1454</ele>
        <time>2021-09-07T05:43:16.000Z</time>
      </trkpt>
      <trkpt lat="45.56068" lon="2.8279">
        <ele>1454.7</ele>
        <time>2021-09-07T05:43:23.000Z</time>
      </trkpt>
      <trkpt lat="45.56063" lon="2.82798">
        <ele>1455.1</ele>
        <time>2021-09-07T05:43:30.000Z</time>
      </trkpt>
      <trkpt lat="45.56059" lon="2.82805">
        <ele>1455.5</ele>
        <time>2021-09-07T05:43:38.000Z</time>
      </trkpt>
      <trkpt lat="45.56054" lon="2.82813">
        <ele>1456.1</ele>
        <time>2021-09-07T05:43:45.000Z</time>
      </trkpt>
      <trkpt lat="45.5605" lon="2.8282">
        <ele>1456.5</ele>
        <time>2021-09-07T05:43:53.000Z</time>
      </trkpt>
      <trkpt lat="45.56046" lon="2.82829">
        <ele>1456.9</ele>
        <time>2021-09-07T05:43:59.000Z</time>
      </trkpt>
      <trkpt lat="45.56043" lon="2.82839">
        <ele>1457.4</ele>
        <time>2021-09-07T05:44:05.000Z</time>
      </trkpt>
      <trkpt lat="45.5604" lon="2.82847">
        <ele>1457.9</ele>
        <time>2021-09-07T05:44:11.000Z</time>
      </trkpt>
      <trkpt lat="45.56037" lon="2.82856">
        <ele>1458.5</ele>
        <time>2021-09-07T05:44:20.000Z</time>
      </trkpt>
      <trkpt lat="45.56037" lon="2.82867">
        <ele>1458.6</ele>
        <time>2021-09-07T05:44:29.000Z</time>
      </trkpt>
      <trkpt lat="45.56038" lon="2.82877">
        <ele>1458.5</ele>
        <time>2021-09-07T05:44:36.000Z</time>
      </trkpt>
      <trkpt lat="45.56039" lon="2.82886">
        <ele>1458.5</ele>
        <time>2021-09-07T05:44:42.000Z</time>
      </trkpt>
      <trkpt lat="45.5604" lon="2.82895">
        <ele>1458.5</ele>
        <time>2021-09-07T05:44:49.000Z</time>
      </trkpt>
      <trkpt lat="45.56042" lon="2.82904">
        <ele>1458.3</ele>
        <time>2021-09-07T05:44:56.000Z</time>
      </trkpt>
      <trkpt lat="45.56044" lon="2.82914">
        <ele>1458.2</ele>
        <time>2021-09-07T05:45:03.000Z</time>
      </trkpt>
      <trkpt lat="45.56046" lon="2.82924">
        <ele>1458</ele>
        <time>2021-09-07T05:45:10.000Z</time>
      </trkpt>
      <trkpt lat="45.56049" lon="2.82933">
        <ele>1457.8</ele>
        <time>2021-09-07T05:45:18.000Z</time>
      </trkpt>
      <trkpt lat="45.56053" lon="2.82941">
        <ele>1457.5</ele>
        <time>2021-09-07T05:46:13.000Z</time>
      </trkpt>
      <trkpt lat="45.56055" lon="2.8295">
        <ele>1457.4</ele>
        <time>2021-09-07T05:46:47.000Z</time>
      </trkpt>
      <trkpt lat="45.56058" lon="2.82959">
        <ele>1457.3</ele>
        <time>2021-09-07T05:46:57.000Z</time>
      </trkpt>
      <trkpt lat="45.56063" lon="2.82968">
        <ele>1456.9</ele>
        <time>2021-09-07T05:47:04.000Z</time>
      </trkpt>
      <trkpt lat="45.56065" lon="2.82977">
        <ele>1457</ele>
        <time>2021-09-07T05:47:11.000Z</time>
      </trkpt>
      <trkpt lat="45.56064" lon="2.82987">
        <ele>1457.3</ele>
        <time>2021-09-07T05:47:18.000Z</time>
      </trkpt>
      <trkpt lat="45.56063" lon="2.82997">
        <ele>1457.6</ele>
        <time>2021-09-07T05:47:28.000Z</time>
      </trkpt>
      <trkpt lat="45.56059" lon="2.83005">
        <ele>1458.3</ele>
        <time>2021-09-07T05:47:35.000Z</time>
      </trkpt>
      <trkpt lat="45.56054" lon="2.83012">
        <ele>1459.2</ele>
        <time>2021-09-07T05:48:35.000Z</time>
      </trkpt>
      <trkpt lat="45.5605" lon="2.83021">
        <ele>1460.1</ele>
        <time>2021-09-07T05:48:44.000Z</time>
      </trkpt>
      <trkpt lat="45.56046" lon="2.83028">
        <ele>1460.8</ele>
        <time>2021-09-07T05:48:52.000Z</time>
      </trkpt>
      <trkpt lat="45.56042" lon="2.83035">
        <ele>1461.6</ele>
        <time>2021-09-07T05:48:59.000Z</time>
      </trkpt>
      <trkpt lat="45.56038" lon="2.83043">
        <ele>1462.4</ele>
        <time>2021-09-07T05:49:04.000Z</time>
      </trkpt>
      <trkpt lat="45.56035" lon="2.83051">
        <ele>1463.1</ele>
        <time>2021-09-07T05:49:11.000Z</time>
      </trkpt>
      <trkpt lat="45.56034" lon="2.83061">
        <ele>1463.8</ele>
        <time>2021-09-07T05:49:19.000Z</time>
      </trkpt>
      <trkpt lat="45.56033" lon="2.83071">
        <ele>1464.5</ele>
        <time>2021-09-07T05:49:26.000Z</time>
      </trkpt>
      <trkpt lat="45.56031" lon="2.8308">
        <ele>1465.2</ele>
        <time>2021-09-07T05:49:33.000Z</time>
      </trkpt>
      <trkpt lat="45.56031" lon="2.8309">
        <ele>1465.7</ele>
        <time>2021-09-07T05:50:29.000Z</time>
      </trkpt>
      <trkpt lat="45.56029" lon="2.831">
        <ele>1466.4</ele>
        <time>2021-09-07T05:50:36.000Z</time>
      </trkpt>
      <trkpt lat="45.56028" lon="2.83109">
        <ele>1467</ele>
        <time>2021-09-07T05:50:42.000Z</time>
      </trkpt>
      <trkpt lat="45.56029" lon="2.83118">
        <ele>1467.4</ele>
        <time>2021-09-07T05:50:48.000Z</time>
      </trkpt>
      <trkpt lat="45.5603" lon="2.83128">
        <ele>1467.8</ele>
        <time>2021-09-07T05:50:54.000Z</time>
      </trkpt>
      <trkpt lat="45.56032" lon="2.83137">
        <ele>1468</ele>
        <time>2021-09-07T05:51:00.000Z</time>
      </trkpt>
      <trkpt lat="45.56033" lon="2.83146">
        <ele>1468.4</ele>
        <time>2021-09-07T05:51:06.000Z</time>
      </trkpt>
      <trkpt lat="45.56036" lon="2.83155">
        <ele>1468.5</ele>
        <time>2021-09-07T05:51:12.000Z</time>
      </trkpt>
      <trkpt lat="45.56039" lon="2.83163">
        <ele>1468.6</ele>
        <time>2021-09-07T05:51:19.000Z</time>
      </trkpt>
      <trkpt lat="45.56046" lon="2.83166">
        <ele>1468</ele>
        <time>2021-09-07T05:51:38.000Z</time>
      </trkpt>
      <trkpt lat="45.56053" lon="2.83167">
        <ele>1467.3</ele>
        <time>2021-09-07T05:51:46.000Z</time>
      </trkpt>
      <trkpt lat="45.56058" lon="2.83173">
        <ele>1467.1</ele>
        <time>2021-09-07T05:53:01.000Z</time>
      </trkpt>
      <trkpt lat="45.56064" lon="2.83179">
        <ele>1466.7</ele>
        <time>2021-09-07T05:53:55.000Z</time>
      </trkpt>
      <trkpt lat="45.56063" lon="2.83189">
        <ele>1467.3</ele>
        <time>2021-09-07T05:54:08.000Z</time>
      </trkpt>
      <trkpt lat="45.56069" lon="2.83185">
        <ele>1466.4</ele>
        <time>2021-09-07T05:54:31.000Z</time>
      </trkpt>
      <trkpt lat="45.56076" lon="2.83179">
        <ele>1465.3</ele>
        <time>2021-09-07T05:54:38.000Z</time>
      </trkpt>
      <trkpt lat="45.56081" lon="2.83174">
        <ele>1464.5</ele>
        <time>2021-09-07T05:54:43.000Z</time>
      </trkpt>
      <trkpt lat="45.56088" lon="2.83171">
        <ele>1463.8</ele>
        <time>2021-09-07T05:54:48.000Z</time>
      </trkpt>
      <trkpt lat="45.56094" lon="2.83167">
        <ele>1463.1</ele>
        <time>2021-09-07T05:54:53.000Z</time>
      </trkpt>
      <trkpt lat="45.56101" lon="2.83163">
        <ele>1462.4</ele>
        <time>2021-09-07T05:54:59.000Z</time>
      </trkpt>
      <trkpt lat="45.56107" lon="2.83157">
        <ele>1461.6</ele>
        <time>2021-09-07T05:55:05.000Z</time>
      </trkpt>
      <trkpt lat="45.56113" lon="2.83155">
        <ele>1461</ele>
        <time>2021-09-07T05:55:10.000Z</time>
      </trkpt>
      <trkpt lat="45.5612" lon="2.83153">
        <ele>1460.4</ele>
        <time>2021-09-07T05:55:15.000Z</time>
      </trkpt>
      <trkpt lat="45.56127" lon="2.83151">
        <ele>1459.7</ele>
        <time>2021-09-07T05:55:21.000Z</time>
      </trkpt>
      <trkpt lat="45.56136" lon="2.83149">
        <ele>1458.8</ele>
        <time>2021-09-07T05:55:27.000Z</time>
      </trkpt>
      <trkpt lat="45.56145" lon="2.8315">
        <ele>1458.1</ele>
        <time>2021-09-07T05:55:33.000Z</time>
      </trkpt>
      <trkpt lat="45.56152" lon="2.83149">
        <ele>1457.4</ele>
        <time>2021-09-07T05:55:39.000Z</time>
      </trkpt>
      <trkpt lat="45.5616" lon="2.83146">
        <ele>1456.6</ele>
        <time>2021-09-07T05:55:45.000Z</time>
      </trkpt>
      <trkpt lat="45.56168" lon="2.83145">
        <ele>1455.8</ele>
        <time>2021-09-07T05:55:51.000Z</time>
      </trkpt>
      <trkpt lat="45.56176" lon="2.83143">
        <ele>1455.1</ele>
        <time>2021-09-07T05:55:57.000Z</time>
      </trkpt>
      <trkpt lat="45.56184" lon="2.83142">
        <ele>1454.3</ele>
        <time>2021-09-07T05:56:03.000Z</time>
      </trkpt>
      <trkpt lat="45.56191" lon="2.83139">
        <ele>1453.6</ele>
        <time>2021-09-07T05:56:15.000Z</time>
      </trkpt>
      <trkpt lat="45.562" lon="2.83138">
        <ele>1452.8</ele>
        <time>2021-09-07T05:56:21.000Z</time>
      </trkpt>
      <trkpt lat="45.56208" lon="2.83136">
        <ele>1452.1</ele>
        <time>2021-09-07T05:56:27.000Z</time>
      </trkpt>
      <trkpt lat="45.56217" lon="2.83133">
        <ele>1451.3</ele>
        <time>2021-09-07T05:56:33.000Z</time>
      </trkpt>
      <trkpt lat="45.56225" lon="2.83131">
        <ele>1450.6</ele>
        <time>2021-09-07T05:56:39.000Z</time>
      </trkpt>
      <trkpt lat="45.56233" lon="2.83129">
        <ele>1449.9</ele>
        <time>2021-09-07T05:56:45.000Z</time>
      </trkpt>
      <trkpt lat="45.56241" lon="2.83127">
        <ele>1449.2</ele>
        <time>2021-09-07T05:56:51.000Z</time>
      </trkpt>
      <trkpt lat="45.5625" lon="2.83124">
        <ele>1448.5</ele>
        <time>2021-09-07T05:56:57.000Z</time>
      </trkpt>
      <trkpt lat="45.56258" lon="2.83122">
        <ele>1448</ele>
        <time>2021-09-07T05:57:03.000Z</time>
      </trkpt>
      <trkpt lat="45.56266" lon="2.8312">
        <ele>1447.5</ele>
        <time>2021-09-07T05:57:09.000Z</time>
      </trkpt>
      <trkpt lat="45.56274" lon="2.83117">
        <ele>1447</ele>
        <time>2021-09-07T05:57:15.000Z</time>
      </trkpt>
      <trkpt lat="45.56281" lon="2.83117">
        <ele>1446.5</ele>
        <time>2021-09-07T05:57:27.000Z</time>
      </trkpt>
      <trkpt lat="45.56289" lon="2.83115">
        <ele>1446</ele>
        <time>2021-09-07T05:57:33.000Z</time>
      </trkpt>
      <trkpt lat="45.56298" lon="2.83113">
        <ele>1445.5</ele>
        <time>2021-09-07T05:57:39.000Z</time>
      </trkpt>
      <trkpt lat="45.56306" lon="2.8311">
        <ele>1445</ele>
        <time>2021-09-07T05:57:45.000Z</time>
      </trkpt>
      <trkpt lat="45.56314" lon="2.83108">
        <ele>1444.5</ele>
        <time>2021-09-07T05:57:51.000Z</time>
      </trkpt>
      <trkpt lat="45.56323" lon="2.83107">
        <ele>1443.9</ele>
        <time>2021-09-07T05:57:57.000Z</time>
      </trkpt>
      <trkpt lat="45.56332" lon="2.83105">
        <ele>1443.3</ele>
        <time>2021-09-07T05:58:03.000Z</time>
      </trkpt>
      <trkpt lat="45.5634" lon="2.83105">
        <ele>1442.8</ele>
        <time>2021-09-07T05:58:09.000Z</time>
      </trkpt>
      <trkpt lat="45.56348" lon="2.83103">
        <ele>1442.3</ele>
        <time>2021-09-07T05:58:15.000Z</time>
      </trkpt>
      <trkpt lat="45.56355" lon="2.83099">
        <ele>1441.7</ele>
        <time>2021-09-07T05:58:21.000Z</time>
      </trkpt>
      <trkpt lat="45.56361" lon="2.83094">
        <ele>1441.2</ele>
        <time>2021-09-07T05:58:30.000Z</time>
      </trkpt>
      <trkpt lat="45.56368" lon="2.8309">
        <ele>1440.7</ele>
        <time>2021-09-07T05:58:36.000Z</time>
      </trkpt>
      <trkpt lat="45.56373" lon="2.83083">
        <ele>1440.1</ele>
        <time>2021-09-07T05:58:42.000Z</time>
      </trkpt>
      <trkpt lat="45.56381" lon="2.83083">
        <ele>1439.6</ele>
        <time>2021-09-07T05:59:28.000Z</time>
      </trkpt>
      <trkpt lat="45.56387" lon="2.83086">
        <ele>1439.2</ele>
        <time>2021-09-07T05:59:39.000Z</time>
      </trkpt>
      <trkpt lat="45.56394" lon="2.83088">
        <ele>1438.8</ele>
        <time>2021-09-07T06:00:07.000Z</time>
      </trkpt>
      <trkpt lat="45.56397" lon="2.8308">
        <ele>1438.3</ele>
        <time>2021-09-07T06:01:04.000Z</time>
      </trkpt>
      <trkpt lat="45.56404" lon="2.83084">
        <ele>1437.9</ele>
        <time>2021-09-07T06:01:11.000Z</time>
      </trkpt>
      <trkpt lat="45.56407" lon="2.83093">
        <ele>1438</ele>
        <time>2021-09-07T06:01:19.000Z</time>
      </trkpt>
      <trkpt lat="45.56411" lon="2.83101">
        <ele>1438</ele>
        <time>2021-09-07T06:01:25.000Z</time>
      </trkpt>
      <trkpt lat="45.56416" lon="2.83107">
        <ele>1437.9</ele>
        <time>2021-09-07T06:01:34.000Z</time>
      </trkpt>
      <trkpt lat="45.56421" lon="2.83115">
        <ele>1438.1</ele>
        <time>2021-09-07T06:01:43.000Z</time>
      </trkpt>
      <trkpt lat="45.56428" lon="2.83118">
        <ele>1438.2</ele>
        <time>2021-09-07T06:01:49.000Z</time>
      </trkpt>
      <trkpt lat="45.56434" lon="2.83122">
        <ele>1438.4</ele>
        <time>2021-09-07T06:01:58.000Z</time>
      </trkpt>
      <trkpt lat="45.5644" lon="2.83126">
        <ele>1438.5</ele>
        <time>2021-09-07T06:02:04.000Z</time>
      </trkpt>
      <trkpt lat="45.56446" lon="2.8313">
        <ele>1438.7</ele>
        <time>2021-09-07T06:02:11.000Z</time>
      </trkpt>
      <trkpt lat="45.56453" lon="2.83134">
        <ele>1438.8</ele>
        <time>2021-09-07T06:02:18.000Z</time>
      </trkpt>
      <trkpt lat="45.56459" lon="2.83138">
        <ele>1439</ele>
        <time>2021-09-07T06:02:24.000Z</time>
      </trkpt>
      <trkpt lat="45.56466" lon="2.83142">
        <ele>1439.1</ele>
        <time>2021-09-07T06:02:30.000Z</time>
      </trkpt>
      <trkpt lat="45.56472" lon="2.83146">
        <ele>1439.3</ele>
        <time>2021-09-07T06:02:36.000Z</time>
      </trkpt>
      <trkpt lat="45.56479" lon="2.8315">
        <ele>1439.4</ele>
        <time>2021-09-07T06:02:43.000Z</time>
      </trkpt>
      <trkpt lat="45.56486" lon="2.83154">
        <ele>1439.5</ele>
        <time>2021-09-07T06:02:52.000Z</time>
      </trkpt>
      <trkpt lat="45.56492" lon="2.83158">
        <ele>1439.7</ele>
        <time>2021-09-07T06:02:59.000Z</time>
      </trkpt>
      <trkpt lat="45.56499" lon="2.83161">
        <ele>1439.8</ele>
        <time>2021-09-07T06:03:06.000Z</time>
      </trkpt>
      <trkpt lat="45.56506" lon="2.83165">
        <ele>1440.2</ele>
        <time>2021-09-07T06:03:14.000Z</time>
      </trkpt>
      <trkpt lat="45.56513" lon="2.83168">
        <ele>1440.7</ele>
        <time>2021-09-07T06:03:21.000Z</time>
      </trkpt>
      <trkpt lat="45.56519" lon="2.83173">
        <ele>1441.1</ele>
        <time>2021-09-07T06:03:29.000Z</time>
      </trkpt>
      <trkpt lat="45.56525" lon="2.83177">
        <ele>1441.5</ele>
        <time>2021-09-07T06:03:36.000Z</time>
      </trkpt>
      <trkpt lat="45.56531" lon="2.83181">
        <ele>1441.9</ele>
        <time>2021-09-07T06:03:45.000Z</time>
      </trkpt>
      <trkpt lat="45.56538" lon="2.83185">
        <ele>1442.3</ele>
        <time>2021-09-07T06:03:54.000Z</time>
      </trkpt>
      <trkpt lat="45.56543" lon="2.83189">
        <ele>1442.6</ele>
        <time>2021-09-07T06:04:08.000Z</time>
      </trkpt>
      <trkpt lat="45.5655" lon="2.83191">
        <ele>1442.9</ele>
        <time>2021-09-07T06:04:20.000Z</time>
      </trkpt>
      <trkpt lat="45.56557" lon="2.83196">
        <ele>1443.3</ele>
        <time>2021-09-07T06:04:33.000Z</time>
      </trkpt>
      <trkpt lat="45.56563" lon="2.83201">
        <ele>1443.6</ele>
        <time>2021-09-07T06:04:42.000Z</time>
      </trkpt>
      <trkpt lat="45.56569" lon="2.83205">
        <ele>1443.9</ele>
        <time>2021-09-07T06:04:49.000Z</time>
      </trkpt>
      <trkpt lat="45.56575" lon="2.83209">
        <ele>1444.2</ele>
        <time>2021-09-07T06:04:57.000Z</time>
      </trkpt>
      <trkpt lat="45.56581" lon="2.83211">
        <ele>1444.4</ele>
        <time>2021-09-07T06:05:06.000Z</time>
      </trkpt>
      <trkpt lat="45.56588" lon="2.83215">
        <ele>1445.1</ele>
        <time>2021-09-07T06:05:15.000Z</time>
      </trkpt>
      <trkpt lat="45.56594" lon="2.83218">
        <ele>1445.9</ele>
        <time>2021-09-07T06:05:23.000Z</time>
      </trkpt>
      <trkpt lat="45.566" lon="2.83222">
        <ele>1446.7</ele>
        <time>2021-09-07T06:05:35.000Z</time>
      </trkpt>
      <trkpt lat="45.56607" lon="2.83226">
        <ele>1447.6</ele>
        <time>2021-09-07T06:07:09.000Z</time>
      </trkpt>
      <trkpt lat="45.56613" lon="2.83231">
        <ele>1448.3</ele>
        <time>2021-09-07T06:07:20.000Z</time>
      </trkpt>
      <trkpt lat="45.5662" lon="2.83235">
        <ele>1449.2</ele>
        <time>2021-09-07T06:07:28.000Z</time>
      </trkpt>
      <trkpt lat="45.56627" lon="2.83237">
        <ele>1450.1</ele>
        <time>2021-09-07T06:07:35.000Z</time>
      </trkpt>
      <trkpt lat="45.56633" lon="2.83241">
        <ele>1450.9</ele>
        <time>2021-09-07T06:07:42.000Z</time>
      </trkpt>
      <trkpt lat="45.56639" lon="2.83244">
        <ele>1451.6</ele>
        <time>2021-09-07T06:07:55.000Z</time>
      </trkpt>
      <trkpt lat="45.56645" lon="2.83249">
        <ele>1452.4</ele>
        <time>2021-09-07T06:08:11.000Z</time>
      </trkpt>
      <trkpt lat="45.56651" lon="2.83253">
        <ele>1453.2</ele>
        <time>2021-09-07T06:08:23.000Z</time>
      </trkpt>
      <trkpt lat="45.56658" lon="2.83257">
        <ele>1454.1</ele>
        <time>2021-09-07T06:08:33.000Z</time>
      </trkpt>
      <trkpt lat="45.56664" lon="2.83262">
        <ele>1455</ele>
        <time>2021-09-07T06:08:44.000Z</time>
      </trkpt>
      <trkpt lat="45.56671" lon="2.83266">
        <ele>1455.9</ele>
        <time>2021-09-07T06:08:53.000Z</time>
      </trkpt>
      <trkpt lat="45.56677" lon="2.8327">
        <ele>1456.7</ele>
        <time>2021-09-07T06:09:04.000Z</time>
      </trkpt>
      <trkpt lat="45.56684" lon="2.83273">
        <ele>1457.5</ele>
        <time>2021-09-07T06:09:12.000Z</time>
      </trkpt>
      <trkpt lat="45.5669" lon="2.83278">
        <ele>1458.4</ele>
        <time>2021-09-07T06:09:22.000Z</time>
      </trkpt>
      <trkpt lat="45.56697" lon="2.8328">
        <ele>1459.3</ele>
        <time>2021-09-07T06:09:31.000Z</time>
      </trkpt>
      <trkpt lat="45.56703" lon="2.83283">
        <ele>1460.1</ele>
        <time>2021-09-07T06:09:40.000Z</time>
      </trkpt>
      <trkpt lat="45.56709" lon="2.83289">
        <ele>1461</ele>
        <time>2021-09-07T06:09:51.000Z</time>
      </trkpt>
      <trkpt lat="45.56715" lon="2.83295">
        <ele>1461.9</ele>
        <time>2021-09-07T06:10:03.000Z</time>
      </trkpt>
      <trkpt lat="45.5672" lon="2.83302">
        <ele>1462.8</ele>
        <time>2021-09-07T06:10:14.000Z</time>
      </trkpt>
      <trkpt lat="45.56725" lon="2.83307">
        <ele>1463.6</ele>
        <time>2021-09-07T06:10:23.000Z</time>
      </trkpt>
      <trkpt lat="45.56731" lon="2.83311">
        <ele>1464.5</ele>
        <time>2021-09-07T06:10:31.000Z</time>
      </trkpt>
      <trkpt lat="45.56737" lon="2.83317">
        <ele>1465.6</ele>
        <time>2021-09-07T06:10:42.000Z</time>
      </trkpt>
      <trkpt lat="45.56742" lon="2.83322">
        <ele>1466.4</ele>
        <time>2021-09-07T06:10:53.000Z</time>
      </trkpt>
      <trkpt lat="45.56747" lon="2.83329">
        <ele>1467.4</ele>
        <time>2021-09-07T06:11:08.000Z</time>
      </trkpt>
      <trkpt lat="45.56753" lon="2.83335">
        <ele>1468.7</ele>
        <time>2021-09-07T06:11:18.000Z</time>
      </trkpt>
      <trkpt lat="45.56759" lon="2.83341">
        <ele>1470.3</ele>
        <time>2021-09-07T06:11:29.000Z</time>
      </trkpt>
      <trkpt lat="45.56764" lon="2.83346">
        <ele>1471.6</ele>
        <time>2021-09-07T06:11:42.000Z</time>
      </trkpt>
      <trkpt lat="45.5677" lon="2.83351">
        <ele>1473.2</ele>
        <time>2021-09-07T06:11:57.000Z</time>
      </trkpt>
      <trkpt lat="45.56775" lon="2.83358">
        <ele>1474.7</ele>
        <time>2021-09-07T06:12:12.000Z</time>
      </trkpt>
      <trkpt lat="45.5678" lon="2.83353">
        <ele>1475.4</ele>
        <time>2021-09-07T06:12:50.000Z</time>
      </trkpt>
      <trkpt lat="45.56787" lon="2.83355">
        <ele>1477</ele>
        <time>2021-09-07T06:13:33.000Z</time>
      </trkpt>
      <trkpt lat="45.56793" lon="2.83351">
        <ele>1477.9</ele>
        <time>2021-09-07T06:13:42.000Z</time>
      </trkpt>
      <trkpt lat="45.56799" lon="2.83348">
        <ele>1479</ele>
        <time>2021-09-07T06:13:50.000Z</time>
      </trkpt>
      <trkpt lat="45.56806" lon="2.83345">
        <ele>1480.2</ele>
        <time>2021-09-07T06:13:59.000Z</time>
      </trkpt>
      <trkpt lat="45.56812" lon="2.83344">
        <ele>1481.4</ele>
        <time>2021-09-07T06:14:08.000Z</time>
      </trkpt>
      <trkpt lat="45.56818" lon="2.83339">
        <ele>1482.3</ele>
        <time>2021-09-07T06:14:32.000Z</time>
      </trkpt>
      <trkpt lat="45.56824" lon="2.83334">
        <ele>1483.1</ele>
        <time>2021-09-07T06:14:41.000Z</time>
      </trkpt>
      <trkpt lat="45.56829" lon="2.83328">
        <ele>1483.9</ele>
        <time>2021-09-07T06:14:52.000Z</time>
      </trkpt>
      <trkpt lat="45.56836" lon="2.83324">
        <ele>1485.3</ele>
        <time>2021-09-07T06:14:59.000Z</time>
      </trkpt>
      <trkpt lat="45.56842" lon="2.83319">
        <ele>1486.6</ele>
        <time>2021-09-07T06:15:09.000Z</time>
      </trkpt>
      <trkpt lat="45.56849" lon="2.83314">
        <ele>1488.2</ele>
        <time>2021-09-07T06:15:18.000Z</time>
      </trkpt>
      <trkpt lat="45.56855" lon="2.83309">
        <ele>1489.6</ele>
        <time>2021-09-07T06:15:27.000Z</time>
      </trkpt>
      <trkpt lat="45.5686" lon="2.83303">
        <ele>1490.7</ele>
        <time>2021-09-07T06:15:35.000Z</time>
      </trkpt>
      <trkpt lat="45.56866" lon="2.83298">
        <ele>1492.1</ele>
        <time>2021-09-07T06:15:44.000Z</time>
      </trkpt>
      <trkpt lat="45.56869" lon="2.8329">
        <ele>1492.7</ele>
        <time>2021-09-07T06:16:02.000Z</time>
      </trkpt>
      <trkpt lat="45.56873" lon="2.83281">
        <ele>1493.5</ele>
        <time>2021-09-07T06:16:14.000Z</time>
      </trkpt>
      <trkpt lat="45.56879" lon="2.83277">
        <ele>1495</ele>
        <time>2021-09-07T06:16:21.000Z</time>
      </trkpt>
      <trkpt lat="45.56886" lon="2.83274">
        <ele>1496.9</ele>
        <time>2021-09-07T06:16:27.000Z</time>
      </trkpt>
      <trkpt lat="45.56892" lon="2.83269">
        <ele>1498.4</ele>
        <time>2021-09-07T06:16:48.000Z</time>
      </trkpt>
      <trkpt lat="45.56898" lon="2.83266">
        <ele>1500</ele>
        <time>2021-09-07T06:17:01.000Z</time>
      </trkpt>
      <trkpt lat="45.56905" lon="2.83262">
        <ele>1501.8</ele>
        <time>2021-09-07T06:17:15.000Z</time>
      </trkpt>
      <trkpt lat="45.56911" lon="2.83262">
        <ele>1503.5</ele>
        <time>2021-09-07T06:17:21.000Z</time>
      </trkpt>
      <trkpt lat="45.56919" lon="2.8326">
        <ele>1505.6</ele>
        <time>2021-09-07T06:17:30.000Z</time>
      </trkpt>
      <trkpt lat="45.56925" lon="2.83257">
        <ele>1507.1</ele>
        <time>2021-09-07T06:17:40.000Z</time>
      </trkpt>
      <trkpt lat="45.5693" lon="2.83251">
        <ele>1508.4</ele>
        <time>2021-09-07T06:17:59.000Z</time>
      </trkpt>
      <trkpt lat="45.56936" lon="2.83247">
        <ele>1510.4</ele>
        <time>2021-09-07T06:18:11.000Z</time>
      </trkpt>
      <trkpt lat="45.56942" lon="2.83249">
        <ele>1511.6</ele>
        <time>2021-09-07T06:18:21.000Z</time>
      </trkpt>
      <trkpt lat="45.5695" lon="2.83251">
        <ele>1513.4</ele>
        <time>2021-09-07T06:18:42.000Z</time>
      </trkpt>
      <trkpt lat="45.56955" lon="2.83257">
        <ele>1514.7</ele>
        <time>2021-09-07T06:18:50.000Z</time>
      </trkpt>
      <trkpt lat="45.56957" lon="2.83267">
        <ele>1515.4</ele>
        <time>2021-09-07T06:19:00.000Z</time>
      </trkpt>
      <trkpt lat="45.56962" lon="2.83272">
        <ele>1516.7</ele>
        <time>2021-09-07T06:19:41.000Z</time>
      </trkpt>
      <trkpt lat="45.56963" lon="2.83282">
        <ele>1517.1</ele>
        <time>2021-09-07T06:19:52.000Z</time>
      </trkpt>
      <trkpt lat="45.56963" lon="2.83292">
        <ele>1517.2</ele>
        <time>2021-09-07T06:20:03.000Z</time>
      </trkpt>
      <trkpt lat="45.56963" lon="2.83302">
        <ele>1517.4</ele>
        <time>2021-09-07T06:20:10.000Z</time>
      </trkpt>
      <trkpt lat="45.56967" lon="2.83309">
        <ele>1518.5</ele>
        <time>2021-09-07T06:20:20.000Z</time>
      </trkpt>
      <trkpt lat="45.56967" lon="2.83319">
        <ele>1518.7</ele>
        <time>2021-09-07T06:20:32.000Z</time>
      </trkpt>
      <trkpt lat="45.56968" lon="2.83329">
        <ele>1519.1</ele>
        <time>2021-09-07T06:20:42.000Z</time>
      </trkpt>
      <trkpt lat="45.56973" lon="2.83336">
        <ele>1520.7</ele>
        <time>2021-09-07T06:21:28.000Z</time>
      </trkpt>
      <trkpt lat="45.56974" lon="2.83345">
        <ele>1521.6</ele>
        <time>2021-09-07T06:21:44.000Z</time>
      </trkpt>
      <trkpt lat="45.56979" lon="2.83352">
        <ele>1523.5</ele>
        <time>2021-09-07T06:21:57.000Z</time>
      </trkpt>
      <trkpt lat="45.56983" lon="2.83361">
        <ele>1525.2</ele>
        <time>2021-09-07T06:22:09.000Z</time>
      </trkpt>
      <trkpt lat="45.56985" lon="2.8337">
        <ele>1526.4</ele>
        <time>2021-09-07T06:22:22.000Z</time>
      </trkpt>
      <trkpt lat="45.56989" lon="2.8338">
        <ele>1528.3</ele>
        <time>2021-09-07T06:22:42.000Z</time>
      </trkpt>
      <trkpt lat="45.56996" lon="2.83384">
        <ele>1530.5</ele>
        <time>2021-09-07T06:22:52.000Z</time>
      </trkpt>
      <trkpt lat="45.57003" lon="2.83389">
        <ele>1532.7</ele>
        <time>2021-09-07T06:23:19.000Z</time>
      </trkpt>
      <trkpt lat="45.57006" lon="2.83397">
        <ele>1534.1</ele>
        <time>2021-09-07T06:23:39.000Z</time>
      </trkpt>
      <trkpt lat="45.57012" lon="2.83403">
        <ele>1536.2</ele>
        <time>2021-09-07T06:23:55.000Z</time>
      </trkpt>
      <trkpt lat="45.57018" lon="2.83407">
        <ele>1538.2</ele>
        <time>2021-09-07T06:24:19.000Z</time>
      </trkpt>
      <trkpt lat="45.57021" lon="2.83415">
        <ele>1539.9</ele>
        <time>2021-09-07T06:24:34.000Z</time>
      </trkpt>
      <trkpt lat="45.57028" lon="2.8342">
        <ele>1542.4</ele>
        <time>2021-09-07T06:24:59.000Z</time>
      </trkpt>
      <trkpt lat="45.57032" lon="2.83431">
        <ele>1544.5</ele>
        <time>2021-09-07T06:25:58.000Z</time>
      </trkpt>
      <trkpt lat="45.57037" lon="2.83437">
        <ele>1546.6</ele>
        <time>2021-09-07T06:28:04.000Z</time>
      </trkpt>
      <trkpt lat="45.57043" lon="2.83443">
        <ele>1548.9</ele>
        <time>2021-09-07T06:28:42.000Z</time>
      </trkpt>
      <trkpt lat="45.57046" lon="2.83452">
        <ele>1550.7</ele>
        <time>2021-09-07T06:28:54.000Z</time>
      </trkpt>
      <trkpt lat="45.57049" lon="2.8346">
        <ele>1552.5</ele>
        <time>2021-09-07T06:29:06.000Z</time>
      </trkpt>
      <trkpt lat="45.57054" lon="2.83467">
        <ele>1554.7</ele>
        <time>2021-09-07T06:29:18.000Z</time>
      </trkpt>
      <trkpt lat="45.5706" lon="2.83472">
        <ele>1557.2</ele>
        <time>2021-09-07T06:29:30.000Z</time>
      </trkpt>
      <trkpt lat="45.57065" lon="2.83479">
        <ele>1559.5</ele>
        <time>2021-09-07T06:29:41.000Z</time>
      </trkpt>
      <trkpt lat="45.57071" lon="2.83482">
        <ele>1561.8</ele>
        <time>2021-09-07T06:29:56.000Z</time>
      </trkpt>
      <trkpt lat="45.57078" lon="2.83484">
        <ele>1564.3</ele>
        <time>2021-09-07T06:30:09.000Z</time>
      </trkpt>
      <trkpt lat="45.57083" lon="2.83489">
        <ele>1566.6</ele>
        <time>2021-09-07T06:30:29.000Z</time>
      </trkpt>
      <trkpt lat="45.5709" lon="2.83493">
        <ele>1568.6</ele>
        <time>2021-09-07T06:30:47.000Z</time>
      </trkpt>
      <trkpt lat="45.57096" lon="2.83497">
        <ele>1570.6</ele>
        <time>2021-09-07T06:31:04.000Z</time>
      </trkpt>
      <trkpt lat="45.57102" lon="2.83502">
        <ele>1572.7</ele>
        <time>2021-09-07T06:31:18.000Z</time>
      </trkpt>
      <trkpt lat="45.57108" lon="2.83504">
        <ele>1574.4</ele>
        <time>2021-09-07T06:31:31.000Z</time>
      </trkpt>
      <trkpt lat="45.57114" lon="2.83507">
        <ele>1576.2</ele>
        <time>2021-09-07T06:31:42.000Z</time>
      </trkpt>
      <trkpt lat="45.5712" lon="2.83512">
        <ele>1578.4</ele>
        <time>2021-09-07T06:31:56.000Z</time>
      </trkpt>
      <trkpt lat="45.57124" lon="2.83519">
        <ele>1580.5</ele>
        <time>2021-09-07T06:32:10.000Z</time>
      </trkpt>
      <trkpt lat="45.5713" lon="2.83523">
        <ele>1582.7</ele>
        <time>2021-09-07T06:32:22.000Z</time>
      </trkpt>
      <trkpt lat="45.57136" lon="2.83529">
        <ele>1585.4</ele>
        <time>2021-09-07T06:32:35.000Z</time>
      </trkpt>
      <trkpt lat="45.57143" lon="2.83533">
        <ele>1588.1</ele>
        <time>2021-09-07T06:33:07.000Z</time>
      </trkpt>
      <trkpt lat="45.57149" lon="2.83539">
        <ele>1591</ele>
        <time>2021-09-07T06:33:17.000Z</time>
      </trkpt>
      <trkpt lat="45.57154" lon="2.83544">
        <ele>1593.5</ele>
        <time>2021-09-07T06:33:28.000Z</time>
      </trkpt>
      <trkpt lat="45.5716" lon="2.83548">
        <ele>1596.2</ele>
        <time>2021-09-07T06:33:39.000Z</time>
      </trkpt>
      <trkpt lat="45.57167" lon="2.83552">
        <ele>1599.3</ele>
        <time>2021-09-07T06:33:49.000Z</time>
      </trkpt>
      <trkpt lat="45.57172" lon="2.83557">
        <ele>1600.9</ele>
        <time>2021-09-07T06:34:00.000Z</time>
      </trkpt>
      <trkpt lat="45.57179" lon="2.8356">
        <ele>1602.4</ele>
        <time>2021-09-07T06:34:19.000Z</time>
      </trkpt>
      <trkpt lat="45.57185" lon="2.83563">
        <ele>1603.8</ele>
        <time>2021-09-07T06:34:31.000Z</time>
      </trkpt>
      <trkpt lat="45.57192" lon="2.83568">
        <ele>1606</ele>
        <time>2021-09-07T06:34:40.000Z</time>
      </trkpt>
      <trkpt lat="45.57198" lon="2.83573">
        <ele>1608.3</ele>
        <time>2021-09-07T06:34:53.000Z</time>
      </trkpt>
      <trkpt lat="45.57203" lon="2.83579">
        <ele>1610.8</ele>
        <time>2021-09-07T06:35:05.000Z</time>
      </trkpt>
      <trkpt lat="45.5721" lon="2.83581">
        <ele>1612.5</ele>
        <time>2021-09-07T06:35:17.000Z</time>
      </trkpt>
      <trkpt lat="45.57216" lon="2.83586">
        <ele>1615</ele>
        <time>2021-09-07T06:35:29.000Z</time>
      </trkpt>
      <trkpt lat="45.57221" lon="2.83592">
        <ele>1617.6</ele>
        <time>2021-09-07T06:35:41.000Z</time>
      </trkpt>
      <trkpt lat="45.57214" lon="2.83596">
        <ele>1617.4</ele>
        <time>2021-09-07T06:37:18.000Z</time>
      </trkpt>
      <trkpt lat="45.57208" lon="2.83598">
        <ele>1616.7</ele>
        <time>2021-09-07T06:37:34.000Z</time>
      </trkpt>
      <trkpt lat="45.57201" lon="2.83602">
        <ele>1616.2</ele>
        <time>2021-09-07T06:37:47.000Z</time>
      </trkpt>
      <trkpt lat="45.57195" lon="2.83605">
        <ele>1615.6</ele>
        <time>2021-09-07T06:37:55.000Z</time>
      </trkpt>
      <trkpt lat="45.57188" lon="2.83606">
        <ele>1614.3</ele>
        <time>2021-09-07T06:38:05.000Z</time>
      </trkpt>
      <trkpt lat="45.57182" lon="2.83609">
        <ele>1613.5</ele>
        <time>2021-09-07T06:38:14.000Z</time>
      </trkpt>
      <trkpt lat="45.57175" lon="2.83614">
        <ele>1612.8</ele>
        <time>2021-09-07T06:38:27.000Z</time>
      </trkpt>
      <trkpt lat="45.5717" lon="2.83619">
        <ele>1612.4</ele>
        <time>2021-09-07T06:38:34.000Z</time>
      </trkpt>
      <trkpt lat="45.57165" lon="2.83626">
        <ele>1611.9</ele>
        <time>2021-09-07T06:38:42.000Z</time>
      </trkpt>
      <trkpt lat="45.57161" lon="2.83634">
        <ele>1611.4</ele>
        <time>2021-09-07T06:38:53.000Z</time>
      </trkpt>
      <trkpt lat="45.57159" lon="2.83643">
        <ele>1611.8</ele>
        <time>2021-09-07T06:39:06.000Z</time>
      </trkpt>
      <trkpt lat="45.57157" lon="2.83652">
        <ele>1612.2</ele>
        <time>2021-09-07T06:39:15.000Z</time>
      </trkpt>
      <trkpt lat="45.57154" lon="2.8366">
        <ele>1612</ele>
        <time>2021-09-07T06:39:25.000Z</time>
      </trkpt>
      <trkpt lat="45.57154" lon="2.83669">
        <ele>1613.1</ele>
        <time>2021-09-07T06:39:38.000Z</time>
      </trkpt>
      <trkpt lat="45.57154" lon="2.83679">
        <ele>1614</ele>
        <time>2021-09-07T06:39:52.000Z</time>
      </trkpt>
      <trkpt lat="45.57154" lon="2.83689">
        <ele>1614.9</ele>
        <time>2021-09-07T06:40:07.000Z</time>
      </trkpt>
      <trkpt lat="45.57156" lon="2.83698">
        <ele>1616.6</ele>
        <time>2021-09-07T06:40:20.000Z</time>
      </trkpt>
      <trkpt lat="45.57152" lon="2.83706">
        <ele>1615.3</ele>
        <time>2021-09-07T06:40:32.000Z</time>
      </trkpt>
      <trkpt lat="45.57154" lon="2.83716">
        <ele>1617.2</ele>
        <time>2021-09-07T06:40:45.000Z</time>
      </trkpt>
      <trkpt lat="45.57156" lon="2.83724">
        <ele>1618.9</ele>
        <time>2021-09-07T06:41:03.000Z</time>
      </trkpt>
      <trkpt lat="45.57154" lon="2.83734">
        <ele>1618.8</ele>
        <time>2021-09-07T06:41:19.000Z</time>
      </trkpt>
      <trkpt lat="45.57154" lon="2.83743">
        <ele>1619.6</ele>
        <time>2021-09-07T06:41:35.000Z</time>
      </trkpt>
      <trkpt lat="45.57156" lon="2.83752">
        <ele>1621.2</ele>
        <time>2021-09-07T06:41:50.000Z</time>
      </trkpt>
      <trkpt lat="45.57156" lon="2.83762">
        <ele>1621.3</ele>
        <time>2021-09-07T06:42:01.000Z</time>
      </trkpt>
      <trkpt lat="45.57157" lon="2.83774">
        <ele>1621.8</ele>
        <time>2021-09-07T06:42:21.000Z</time>
      </trkpt>
      <trkpt lat="45.57156" lon="2.83784">
        <ele>1621.3</ele>
        <time>2021-09-07T06:42:32.000Z</time>
      </trkpt>
      <trkpt lat="45.57157" lon="2.83793">
        <ele>1621.9</ele>
        <time>2021-09-07T06:42:45.000Z</time>
      </trkpt>
      <trkpt lat="45.57161" lon="2.83801">
        <ele>1624</ele>
        <time>2021-09-07T06:42:58.000Z</time>
      </trkpt>
      <trkpt lat="45.57164" lon="2.83809">
        <ele>1625.6</ele>
        <time>2021-09-07T06:43:19.000Z</time>
      </trkpt>
      <trkpt lat="45.57165" lon="2.83818">
        <ele>1626.1</ele>
        <time>2021-09-07T06:43:30.000Z</time>
      </trkpt>
      <trkpt lat="45.57169" lon="2.83826">
        <ele>1628.4</ele>
        <time>2021-09-07T06:43:44.000Z</time>
      </trkpt>
      <trkpt lat="45.57171" lon="2.83835">
        <ele>1629.4</ele>
        <time>2021-09-07T06:43:57.000Z</time>
      </trkpt>
      <trkpt lat="45.57175" lon="2.83842">
        <ele>1631.3</ele>
        <time>2021-09-07T06:44:14.000Z</time>
      </trkpt>
      <trkpt lat="45.57178" lon="2.83852">
        <ele>1632.5</ele>
        <time>2021-09-07T06:44:26.000Z</time>
      </trkpt>
      <trkpt lat="45.57179" lon="2.83861">
        <ele>1632.6</ele>
        <time>2021-09-07T06:44:39.000Z</time>
      </trkpt>
      <trkpt lat="45.57183" lon="2.8387">
        <ele>1634.5</ele>
        <time>2021-09-07T06:45:25.000Z</time>
      </trkpt>
      <trkpt lat="45.57185" lon="2.83879">
        <ele>1635.2</ele>
        <time>2021-09-07T06:45:36.000Z</time>
      </trkpt>
      <trkpt lat="45.57188" lon="2.83887">
        <ele>1636.7</ele>
        <time>2021-09-07T06:45:47.000Z</time>
      </trkpt>
      <trkpt lat="45.5719" lon="2.83878">
        <ele>1638.4</ele>
        <time>2021-09-07T06:46:21.000Z</time>
      </trkpt>
      <trkpt lat="45.5719" lon="2.83869">
        <ele>1638.9</ele>
        <time>2021-09-07T06:46:36.000Z</time>
      </trkpt>
      <trkpt lat="45.57194" lon="2.8386">
        <ele>1641.8</ele>
        <time>2021-09-07T06:46:45.000Z</time>
      </trkpt>
      <trkpt lat="45.57197" lon="2.83851">
        <ele>1644</ele>
        <time>2021-09-07T06:46:55.000Z</time>
      </trkpt>
      <trkpt lat="45.57198" lon="2.83841">
        <ele>1645.1</ele>
        <time>2021-09-07T06:47:04.000Z</time>
      </trkpt>
      <trkpt lat="45.57202" lon="2.83833">
        <ele>1647.8</ele>
        <time>2021-09-07T06:47:12.000Z</time>
      </trkpt>
      <trkpt lat="45.57206" lon="2.83825">
        <ele>1649.9</ele>
        <time>2021-09-07T06:47:21.000Z</time>
      </trkpt>
      <trkpt lat="45.57208" lon="2.83815">
        <ele>1650.8</ele>
        <time>2021-09-07T06:47:31.000Z</time>
      </trkpt>
      <trkpt lat="45.57211" lon="2.83806">
        <ele>1652.2</ele>
        <time>2021-09-07T06:47:41.000Z</time>
      </trkpt>
      <trkpt lat="45.57215" lon="2.83798">
        <ele>1654.2</ele>
        <time>2021-09-07T06:47:50.000Z</time>
      </trkpt>
      <trkpt lat="45.57219" lon="2.8379">
        <ele>1656.1</ele>
        <time>2021-09-07T06:48:02.000Z</time>
      </trkpt>
      <trkpt lat="45.57222" lon="2.83782">
        <ele>1657.5</ele>
        <time>2021-09-07T06:48:12.000Z</time>
      </trkpt>
      <trkpt lat="45.57229" lon="2.83781">
        <ele>1661.3</ele>
        <time>2021-09-07T06:48:43.000Z</time>
      </trkpt>
      <trkpt lat="45.57233" lon="2.83797">
        <ele>1664.3</ele>
        <time>2021-09-07T06:49:12.000Z</time>
      </trkpt>
      <trkpt lat="45.57233" lon="2.83807">
        <ele>1664.7</ele>
        <time>2021-09-07T06:49:23.000Z</time>
      </trkpt>
      <trkpt lat="45.57236" lon="2.83817">
        <ele>1667</ele>
        <time>2021-09-07T06:50:01.000Z</time>
      </trkpt>
      <trkpt lat="45.57238" lon="2.83826">
        <ele>1668.6</ele>
        <time>2021-09-07T06:50:12.000Z</time>
      </trkpt>
      <trkpt lat="45.57241" lon="2.83835">
        <ele>1670.7</ele>
        <time>2021-09-07T06:50:21.000Z</time>
      </trkpt>
      <trkpt lat="45.57243" lon="2.83845">
        <ele>1671.8</ele>
        <time>2021-09-07T06:50:33.000Z</time>
      </trkpt>
      <trkpt lat="45.57244" lon="2.83855">
        <ele>1672.4</ele>
        <time>2021-09-07T06:50:42.000Z</time>
      </trkpt>
      <trkpt lat="45.57248" lon="2.83863">
        <ele>1674.8</ele>
        <time>2021-09-07T06:50:57.000Z</time>
      </trkpt>
      <trkpt lat="45.57251" lon="2.83871">
        <ele>1676.4</ele>
        <time>2021-09-07T06:51:11.000Z</time>
      </trkpt>
      <trkpt lat="45.57251" lon="2.83883">
        <ele>1676.4</ele>
        <time>2021-09-07T06:51:28.000Z</time>
      </trkpt>
      <trkpt lat="45.57256" lon="2.8389">
        <ele>1678.5</ele>
        <time>2021-09-07T06:52:35.000Z</time>
      </trkpt>
      <trkpt lat="45.5726" lon="2.83898">
        <ele>1680.3</ele>
        <time>2021-09-07T06:52:44.000Z</time>
      </trkpt>
      <trkpt lat="45.57263" lon="2.83907">
        <ele>1681.7</ele>
        <time>2021-09-07T06:52:52.000Z</time>
      </trkpt>
      <trkpt lat="45.57267" lon="2.83916">
        <ele>1683.7</ele>
        <time>2021-09-07T06:53:01.000Z</time>
      </trkpt>
      <trkpt lat="45.5727" lon="2.83925">
        <ele>1684.6</ele>
        <time>2021-09-07T06:53:08.000Z</time>
      </trkpt>
      <trkpt lat="45.57274" lon="2.83933">
        <ele>1685.9</ele>
        <time>2021-09-07T06:53:16.000Z</time>
      </trkpt>
      <trkpt lat="45.57277" lon="2.83941">
        <ele>1686.8</ele>
        <time>2021-09-07T06:53:24.000Z</time>
      </trkpt>
      <trkpt lat="45.5728" lon="2.83951">
        <ele>1687.7</ele>
        <time>2021-09-07T06:53:31.000Z</time>
      </trkpt>
      <trkpt lat="45.57282" lon="2.8396">
        <ele>1688.2</ele>
        <time>2021-09-07T06:53:37.000Z</time>
      </trkpt>
      <trkpt lat="45.57285" lon="2.83969">
        <ele>1689.1</ele>
        <time>2021-09-07T06:53:44.000Z</time>
      </trkpt>
      <trkpt lat="45.57288" lon="2.83979">
        <ele>1690.1</ele>
        <time>2021-09-07T06:53:51.000Z</time>
      </trkpt>
      <trkpt lat="45.57292" lon="2.83986">
        <ele>1691.8</ele>
        <time>2021-09-07T06:53:58.000Z</time>
      </trkpt>
      <trkpt lat="45.57295" lon="2.83995">
        <ele>1693</ele>
        <time>2021-09-07T06:54:08.000Z</time>
      </trkpt>
      <trkpt lat="45.57301" lon="2.83991">
        <ele>1696.3</ele>
        <time>2021-09-07T07:01:00.000Z</time>
      </trkpt>
      <trkpt lat="45.57306" lon="2.83985">
        <ele>1699.1</ele>
        <time>2021-09-07T07:01:43.000Z</time>
      </trkpt>
      <trkpt lat="45.57313" lon="2.83985">
        <ele>1702.7</ele>
        <time>2021-09-07T07:01:50.000Z</time>
      </trkpt>
      <trkpt lat="45.5732" lon="2.83983">
        <ele>1706.4</ele>
        <time>2021-09-07T07:01:58.000Z</time>
      </trkpt>
      <trkpt lat="45.57326" lon="2.8398">
        <ele>1709.5</ele>
        <time>2021-09-07T07:02:09.000Z</time>
      </trkpt>
      <trkpt lat="45.57333" lon="2.83978">
        <ele>1713.1</ele>
        <time>2021-09-07T07:02:22.000Z</time>
      </trkpt>
      <trkpt lat="45.5734" lon="2.83978">
        <ele>1713.4</ele>
        <time>2021-09-07T07:02:36.000Z</time>
      </trkpt>
      <trkpt lat="45.57347" lon="2.83978">
        <ele>1713.6</ele>
        <time>2021-09-07T07:02:44.000Z</time>
      </trkpt>
      <trkpt lat="45.57354" lon="2.83979">
        <ele>1713.9</ele>
        <time>2021-09-07T07:02:52.000Z</time>
      </trkpt>
      <trkpt lat="45.5736" lon="2.8398">
        <ele>1714.1</ele>
        <time>2021-09-07T07:02:58.000Z</time>
      </trkpt>
      <trkpt lat="45.57368" lon="2.8398">
        <ele>1714.3</ele>
        <time>2021-09-07T07:03:05.000Z</time>
      </trkpt>
      <trkpt lat="45.57374" lon="2.8398">
        <ele>1714.5</ele>
        <time>2021-09-07T07:03:13.000Z</time>
      </trkpt>
      <trkpt lat="45.57381" lon="2.83978">
        <ele>1714.6</ele>
        <time>2021-09-07T07:03:24.000Z</time>
      </trkpt>
      <trkpt lat="45.57387" lon="2.83979">
        <ele>1714.8</ele>
        <time>2021-09-07T07:03:35.000Z</time>
      </trkpt>
      <trkpt lat="45.57394" lon="2.83979">
        <ele>1715.1</ele>
        <time>2021-09-07T07:03:46.000Z</time>
      </trkpt>
      <trkpt lat="45.57401" lon="2.83981">
        <ele>1715.5</ele>
        <time>2021-09-07T07:03:54.000Z</time>
      </trkpt>
      <trkpt lat="45.57408" lon="2.83981">
        <ele>1715.7</ele>
        <time>2021-09-07T07:04:15.000Z</time>
      </trkpt>
      <trkpt lat="45.57415" lon="2.83978">
        <ele>1715.5</ele>
        <time>2021-09-07T07:04:22.000Z</time>
      </trkpt>
      <trkpt lat="45.57421" lon="2.83977">
        <ele>1714.3</ele>
        <time>2021-09-07T07:04:31.000Z</time>
      </trkpt>
      <trkpt lat="45.57429" lon="2.83978">
        <ele>1712.3</ele>
        <time>2021-09-07T07:04:40.000Z</time>
      </trkpt>
      <trkpt lat="45.57436" lon="2.83976">
        <ele>1710.2</ele>
        <time>2021-09-07T07:04:47.000Z</time>
      </trkpt>
      <trkpt lat="45.57442" lon="2.83974">
        <ele>1708.3</ele>
        <time>2021-09-07T07:04:57.000Z</time>
      </trkpt>
      <trkpt lat="45.57449" lon="2.83973">
        <ele>1706.3</ele>
        <time>2021-09-07T07:05:04.000Z</time>
      </trkpt>
      <trkpt lat="45.57456" lon="2.83973">
        <ele>1704.4</ele>
        <time>2021-09-07T07:05:11.000Z</time>
      </trkpt>
      <trkpt lat="45.57462" lon="2.83974">
        <ele>1703</ele>
        <time>2021-09-07T07:05:20.000Z</time>
      </trkpt>
      <trkpt lat="45.5747" lon="2.83975">
        <ele>1701</ele>
        <time>2021-09-07T07:05:26.000Z</time>
      </trkpt>
      <trkpt lat="45.57476" lon="2.83974">
        <ele>1699.3</ele>
        <time>2021-09-07T07:05:33.000Z</time>
      </trkpt>
      <trkpt lat="45.57484" lon="2.83972">
        <ele>1696.9</ele>
        <time>2021-09-07T07:05:39.000Z</time>
      </trkpt>
      <trkpt lat="45.57492" lon="2.83972">
        <ele>1694.7</ele>
        <time>2021-09-07T07:05:45.000Z</time>
      </trkpt>
      <trkpt lat="45.57499" lon="2.83971">
        <ele>1692.7</ele>
        <time>2021-09-07T07:05:51.000Z</time>
      </trkpt>
      <trkpt lat="45.57506" lon="2.83969">
        <ele>1691.1</ele>
        <time>2021-09-07T07:05:57.000Z</time>
      </trkpt>
      <trkpt lat="45.57514" lon="2.83969">
        <ele>1689.7</ele>
        <time>2021-09-07T07:06:10.000Z</time>
      </trkpt>
      <trkpt lat="45.57521" lon="2.83968">
        <ele>1688.3</ele>
        <time>2021-09-07T07:06:16.000Z</time>
      </trkpt>
      <trkpt lat="45.57528" lon="2.83968">
        <ele>1687.1</ele>
        <time>2021-09-07T07:06:22.000Z</time>
      </trkpt>
      <trkpt lat="45.57535" lon="2.83968">
        <ele>1685.9</ele>
        <time>2021-09-07T07:06:50.000Z</time>
      </trkpt>
      <trkpt lat="45.57542" lon="2.83967">
        <ele>1684.5</ele>
        <time>2021-09-07T07:06:55.000Z</time>
      </trkpt>
      <trkpt lat="45.57549" lon="2.83964">
        <ele>1682.8</ele>
        <time>2021-09-07T07:07:00.000Z</time>
      </trkpt>
      <trkpt lat="45.57556" lon="2.83964">
        <ele>1681.6</ele>
        <time>2021-09-07T07:07:06.000Z</time>
      </trkpt>
      <trkpt lat="45.57563" lon="2.83963">
        <ele>1680.2</ele>
        <time>2021-09-07T07:07:13.000Z</time>
      </trkpt>
      <trkpt lat="45.57571" lon="2.83962">
        <ele>1678.7</ele>
        <time>2021-09-07T07:07:18.000Z</time>
      </trkpt>
      <trkpt lat="45.57577" lon="2.8396">
        <ele>1677.3</ele>
        <time>2021-09-07T07:07:23.000Z</time>
      </trkpt>
      <trkpt lat="45.57585" lon="2.83958">
        <ele>1675.9</ele>
        <time>2021-09-07T07:07:28.000Z</time>
      </trkpt>
      <trkpt lat="45.57593" lon="2.83956">
        <ele>1675.3</ele>
        <time>2021-09-07T07:07:33.000Z</time>
      </trkpt>
      <trkpt lat="45.57601" lon="2.83955">
        <ele>1674.8</ele>
        <time>2021-09-07T07:07:39.000Z</time>
      </trkpt>
      <trkpt lat="45.57607" lon="2.83953">
        <ele>1674.3</ele>
        <time>2021-09-07T07:07:45.000Z</time>
      </trkpt>
      <trkpt lat="45.57616" lon="2.83952">
        <ele>1673.8</ele>
        <time>2021-09-07T07:07:51.000Z</time>
      </trkpt>
      <trkpt lat="45.57624" lon="2.83948">
        <ele>1673</ele>
        <time>2021-09-07T07:07:57.000Z</time>
      </trkpt>
      <trkpt lat="45.57632" lon="2.83946">
        <ele>1672.4</ele>
        <time>2021-09-07T07:08:03.000Z</time>
      </trkpt>
      <trkpt lat="45.57639" lon="2.83944">
        <ele>1671.9</ele>
        <time>2021-09-07T07:08:09.000Z</time>
      </trkpt>
      <trkpt lat="45.57647" lon="2.83942">
        <ele>1671.4</ele>
        <time>2021-09-07T07:08:15.000Z</time>
      </trkpt>
      <trkpt lat="45.57656" lon="2.83941">
        <ele>1671</ele>
        <time>2021-09-07T07:08:21.000Z</time>
      </trkpt>
      <trkpt lat="45.57663" lon="2.83939">
        <ele>1670.5</ele>
        <time>2021-09-07T07:08:28.000Z</time>
      </trkpt>
      <trkpt lat="45.5767" lon="2.83938">
        <ele>1670.4</ele>
        <time>2021-09-07T07:08:40.000Z</time>
      </trkpt>
      <trkpt lat="45.57677" lon="2.83935">
        <ele>1670.4</ele>
        <time>2021-09-07T07:08:46.000Z</time>
      </trkpt>
      <trkpt lat="45.57683" lon="2.83933">
        <ele>1670.4</ele>
        <time>2021-09-07T07:08:53.000Z</time>
      </trkpt>
      <trkpt lat="45.5769" lon="2.8393">
        <ele>1670.4</ele>
        <time>2021-09-07T07:09:04.000Z</time>
      </trkpt>
      <trkpt lat="45.57697" lon="2.83928">
        <ele>1670.5</ele>
        <time>2021-09-07T07:09:12.000Z</time>
      </trkpt>
      <trkpt lat="45.57703" lon="2.83924">
        <ele>1670.4</ele>
        <time>2021-09-07T07:09:59.000Z</time>
      </trkpt>
      <trkpt lat="45.5771" lon="2.83923">
        <ele>1670.6</ele>
        <time>2021-09-07T07:10:06.000Z</time>
      </trkpt>
      <trkpt lat="45.57716" lon="2.8392">
        <ele>1670.6</ele>
        <time>2021-09-07T07:10:17.000Z</time>
      </trkpt>
      <trkpt lat="45.57723" lon="2.83917">
        <ele>1670.7</ele>
        <time>2021-09-07T07:10:24.000Z</time>
      </trkpt>
      <trkpt lat="45.5773" lon="2.83915">
        <ele>1670.6</ele>
        <time>2021-09-07T07:10:33.000Z</time>
      </trkpt>
      <trkpt lat="45.57737" lon="2.83914">
        <ele>1670.7</ele>
        <time>2021-09-07T07:10:47.000Z</time>
      </trkpt>
      <trkpt lat="45.57744" lon="2.83911">
        <ele>1670.4</ele>
        <time>2021-09-07T07:10:59.000Z</time>
      </trkpt>
      <trkpt lat="45.57751" lon="2.83912">
        <ele>1671.1</ele>
        <time>2021-09-07T07:11:10.000Z</time>
      </trkpt>
      <trkpt lat="45.57757" lon="2.8391">
        <ele>1671.8</ele>
        <time>2021-09-07T07:11:19.000Z</time>
      </trkpt>
      <trkpt lat="45.57764" lon="2.83909">
        <ele>1672.8</ele>
        <time>2021-09-07T07:11:27.000Z</time>
      </trkpt>
      <trkpt lat="45.57771" lon="2.83909">
        <ele>1674.1</ele>
        <time>2021-09-07T07:11:37.000Z</time>
      </trkpt>
      <trkpt lat="45.57777" lon="2.83914">
        <ele>1676.3</ele>
        <time>2021-09-07T07:11:46.000Z</time>
      </trkpt>
      <trkpt lat="45.57784" lon="2.8392">
        <ele>1678.2</ele>
        <time>2021-09-07T07:11:55.000Z</time>
      </trkpt>
      <trkpt lat="45.57789" lon="2.83926">
        <ele>1679.3</ele>
        <time>2021-09-07T07:12:10.000Z</time>
      </trkpt>
      <trkpt lat="45.57794" lon="2.83934">
        <ele>1680.4</ele>
        <time>2021-09-07T07:12:17.000Z</time>
      </trkpt>
      <trkpt lat="45.578" lon="2.83939">
        <ele>1681.5</ele>
        <time>2021-09-07T07:12:23.000Z</time>
      </trkpt>
      <trkpt lat="45.57805" lon="2.83947">
        <ele>1682.5</ele>
        <time>2021-09-07T07:12:29.000Z</time>
      </trkpt>
      <trkpt lat="45.5781" lon="2.83954">
        <ele>1683.4</ele>
        <time>2021-09-07T07:12:37.000Z</time>
      </trkpt>
      <trkpt lat="45.57813" lon="2.83962">
        <ele>1684</ele>
        <time>2021-09-07T07:12:44.000Z</time>
      </trkpt>
      <trkpt lat="45.57818" lon="2.83969">
        <ele>1684.8</ele>
        <time>2021-09-07T07:13:24.000Z</time>
      </trkpt>
      <trkpt lat="45.57824" lon="2.83974">
        <ele>1685.7</ele>
        <time>2021-09-07T07:15:37.000Z</time>
      </trkpt>
      <trkpt lat="45.57831" lon="2.83973">
        <ele>1686.7</ele>
        <time>2021-09-07T07:15:57.000Z</time>
      </trkpt>
      <trkpt lat="45.57837" lon="2.83977">
        <ele>1687</ele>
        <time>2021-09-07T07:16:09.000Z</time>
      </trkpt>
      <trkpt lat="45.57843" lon="2.83983">
        <ele>1687.2</ele>
        <time>2021-09-07T07:16:15.000Z</time>
      </trkpt>
      <trkpt lat="45.57848" lon="2.83989">
        <ele>1687.3</ele>
        <time>2021-09-07T07:16:21.000Z</time>
      </trkpt>
      <trkpt lat="45.57853" lon="2.83996">
        <ele>1687.6</ele>
        <time>2021-09-07T07:16:29.000Z</time>
      </trkpt>
      <trkpt lat="45.57859" lon="2.84001">
        <ele>1687.9</ele>
        <time>2021-09-07T07:16:36.000Z</time>
      </trkpt>
      <trkpt lat="45.57865" lon="2.84006">
        <ele>1687.8</ele>
        <time>2021-09-07T07:16:44.000Z</time>
      </trkpt>
      <trkpt lat="45.5787" lon="2.84012">
        <ele>1687.6</ele>
        <time>2021-09-07T07:16:51.000Z</time>
      </trkpt>
      <trkpt lat="45.57876" lon="2.84017">
        <ele>1687.5</ele>
        <time>2021-09-07T07:16:57.000Z</time>
      </trkpt>
      <trkpt lat="45.57883" lon="2.84022">
        <ele>1687.5</ele>
        <time>2021-09-07T07:17:03.000Z</time>
      </trkpt>
      <trkpt lat="45.57888" lon="2.8403">
        <ele>1687.2</ele>
        <time>2021-09-07T07:17:09.000Z</time>
      </trkpt>
      <trkpt lat="45.57894" lon="2.84035">
        <ele>1687.1</ele>
        <time>2021-09-07T07:17:32.000Z</time>
      </trkpt>
      <trkpt lat="45.579" lon="2.8404">
        <ele>1687</ele>
        <time>2021-09-07T07:17:37.000Z</time>
      </trkpt>
      <trkpt lat="45.57907" lon="2.84045">
        <ele>1687</ele>
        <time>2021-09-07T07:17:43.000Z</time>
      </trkpt>
      <trkpt lat="45.57913" lon="2.84051">
        <ele>1686.8</ele>
        <time>2021-09-07T07:17:49.000Z</time>
      </trkpt>
      <trkpt lat="45.57918" lon="2.84057">
        <ele>1686.3</ele>
        <time>2021-09-07T07:17:54.000Z</time>
      </trkpt>
      <trkpt lat="45.57923" lon="2.84064">
        <ele>1685</ele>
        <time>2021-09-07T07:18:02.000Z</time>
      </trkpt>
      <trkpt lat="45.5793" lon="2.84069">
        <ele>1683.6</ele>
        <time>2021-09-07T07:18:08.000Z</time>
      </trkpt>
      <trkpt lat="45.57935" lon="2.84074">
        <ele>1682.6</ele>
        <time>2021-09-07T07:18:13.000Z</time>
      </trkpt>
      <trkpt lat="45.57942" lon="2.84078">
        <ele>1681.4</ele>
        <time>2021-09-07T07:18:18.000Z</time>
      </trkpt>
      <trkpt lat="45.57948" lon="2.84083">
        <ele>1680.5</ele>
        <time>2021-09-07T07:18:23.000Z</time>
      </trkpt>
      <trkpt lat="45.57954" lon="2.84088">
        <ele>1678.9</ele>
        <time>2021-09-07T07:18:28.000Z</time>
      </trkpt>
      <trkpt lat="45.5796" lon="2.84092">
        <ele>1677.4</ele>
        <time>2021-09-07T07:18:33.000Z</time>
      </trkpt>
      <trkpt lat="45.57966" lon="2.84097">
        <ele>1675.6</ele>
        <time>2021-09-07T07:18:39.000Z</time>
      </trkpt>
      <trkpt lat="45.57974" lon="2.841">
        <ele>1673.8</ele>
        <time>2021-09-07T07:18:46.000Z</time>
      </trkpt>
      <trkpt lat="45.57982" lon="2.84102">
        <ele>1672</ele>
        <time>2021-09-07T07:18:51.000Z</time>
      </trkpt>
      <trkpt lat="45.57988" lon="2.84106">
        <ele>1670.2</ele>
        <time>2021-09-07T07:18:57.000Z</time>
      </trkpt>
      <trkpt lat="45.57995" lon="2.84109">
        <ele>1668.4</ele>
        <time>2021-09-07T07:19:04.000Z</time>
      </trkpt>
      <trkpt lat="45.58003" lon="2.84111">
        <ele>1666.5</ele>
        <time>2021-09-07T07:19:10.000Z</time>
      </trkpt>
      <trkpt lat="45.58009" lon="2.84115">
        <ele>1664.7</ele>
        <time>2021-09-07T07:19:17.000Z</time>
      </trkpt>
      <trkpt lat="45.58015" lon="2.8412">
        <ele>1662.7</ele>
        <time>2021-09-07T07:19:23.000Z</time>
      </trkpt>
      <trkpt lat="45.58021" lon="2.84126">
        <ele>1660.7</ele>
        <time>2021-09-07T07:19:29.000Z</time>
      </trkpt>
      <trkpt lat="45.58026" lon="2.84132">
        <ele>1658.9</ele>
        <time>2021-09-07T07:19:35.000Z</time>
      </trkpt>
      <trkpt lat="45.58032" lon="2.84137">
        <ele>1657.2</ele>
        <time>2021-09-07T07:19:41.000Z</time>
      </trkpt>
      <trkpt lat="45.58038" lon="2.84143">
        <ele>1655.5</ele>
        <time>2021-09-07T07:19:47.000Z</time>
      </trkpt>
      <trkpt lat="45.58043" lon="2.84149">
        <ele>1654</ele>
        <time>2021-09-07T07:19:53.000Z</time>
      </trkpt>
      <trkpt lat="45.58048" lon="2.84156">
        <ele>1652.5</ele>
        <time>2021-09-07T07:19:58.000Z</time>
      </trkpt>
      <trkpt lat="45.58052" lon="2.84163">
        <ele>1651.1</ele>
        <time>2021-09-07T07:20:04.000Z</time>
      </trkpt>
      <trkpt lat="45.58055" lon="2.84173">
        <ele>1648.3</ele>
        <time>2021-09-07T07:20:10.000Z</time>
      </trkpt>
      <trkpt lat="45.58059" lon="2.84181">
        <ele>1645.5</ele>
        <time>2021-09-07T07:20:15.000Z</time>
      </trkpt>
      <trkpt lat="45.58062" lon="2.8419">
        <ele>1642.6</ele>
        <time>2021-09-07T07:20:23.000Z</time>
      </trkpt>
      <trkpt lat="45.58065" lon="2.842">
        <ele>1639.4</ele>
        <time>2021-09-07T07:20:29.000Z</time>
      </trkpt>
      <trkpt lat="45.58068" lon="2.8421">
        <ele>1636.3</ele>
        <time>2021-09-07T07:20:35.000Z</time>
      </trkpt>
      <trkpt lat="45.58069" lon="2.84219">
        <ele>1633.6</ele>
        <time>2021-09-07T07:20:41.000Z</time>
      </trkpt>
      <trkpt lat="45.58071" lon="2.84229">
        <ele>1630.6</ele>
        <time>2021-09-07T07:20:48.000Z</time>
      </trkpt>
      <trkpt lat="45.58076" lon="2.84237">
        <ele>1628.4</ele>
        <time>2021-09-07T07:21:05.000Z</time>
      </trkpt>
      <trkpt lat="45.58078" lon="2.84247">
        <ele>1625.6</ele>
        <time>2021-09-07T07:21:11.000Z</time>
      </trkpt>
      <trkpt lat="45.58082" lon="2.84254">
        <ele>1624</ele>
        <time>2021-09-07T07:21:16.000Z</time>
      </trkpt>
      <trkpt lat="45.58085" lon="2.84263">
        <ele>1622.3</ele>
        <time>2021-09-07T07:21:21.000Z</time>
      </trkpt>
      <trkpt lat="45.58087" lon="2.84276">
        <ele>1619.7</ele>
        <time>2021-09-07T07:21:27.000Z</time>
      </trkpt>
      <trkpt lat="45.5809" lon="2.84285">
        <ele>1618.4</ele>
        <time>2021-09-07T07:21:33.000Z</time>
      </trkpt>
      <trkpt lat="45.58093" lon="2.84295">
        <ele>1617</ele>
        <time>2021-09-07T07:21:39.000Z</time>
      </trkpt>
      <trkpt lat="45.58095" lon="2.84306">
        <ele>1615.2</ele>
        <time>2021-09-07T07:21:45.000Z</time>
      </trkpt>
      <trkpt lat="45.58099" lon="2.84315">
        <ele>1614.6</ele>
        <time>2021-09-07T07:21:52.000Z</time>
      </trkpt>
      <trkpt lat="45.58102" lon="2.84322">
        <ele>1614.1</ele>
        <time>2021-09-07T07:21:58.000Z</time>
      </trkpt>
      <trkpt lat="45.58106" lon="2.84331">
        <ele>1613.7</ele>
        <time>2021-09-07T07:22:25.000Z</time>
      </trkpt>
      <trkpt lat="45.58111" lon="2.84337">
        <ele>1614.6</ele>
        <time>2021-09-07T07:22:32.000Z</time>
      </trkpt>
      <trkpt lat="45.58115" lon="2.84344">
        <ele>1615.2</ele>
        <time>2021-09-07T07:22:39.000Z</time>
      </trkpt>
      <trkpt lat="45.5812" lon="2.84352">
        <ele>1616.1</ele>
        <time>2021-09-07T07:22:46.000Z</time>
      </trkpt>
      <trkpt lat="45.58123" lon="2.8436">
        <ele>1616.4</ele>
        <time>2021-09-07T07:22:53.000Z</time>
      </trkpt>
      <trkpt lat="45.58127" lon="2.84368">
        <ele>1617.1</ele>
        <time>2021-09-07T07:23:01.000Z</time>
      </trkpt>
      <trkpt lat="45.58129" lon="2.84377">
        <ele>1617.1</ele>
        <time>2021-09-07T07:23:09.000Z</time>
      </trkpt>
      <trkpt lat="45.58132" lon="2.84386">
        <ele>1617.5</ele>
        <time>2021-09-07T07:23:18.000Z</time>
      </trkpt>
      <trkpt lat="45.58134" lon="2.84395">
        <ele>1617.6</ele>
        <time>2021-09-07T07:23:36.000Z</time>
      </trkpt>
      <trkpt lat="45.58138" lon="2.84403">
        <ele>1618.6</ele>
        <time>2021-09-07T07:23:46.000Z</time>
      </trkpt>
      <trkpt lat="45.58143" lon="2.84411">
        <ele>1620.2</ele>
        <time>2021-09-07T07:23:54.000Z</time>
      </trkpt>
      <trkpt lat="45.58149" lon="2.84415">
        <ele>1622.5</ele>
        <time>2021-09-07T07:24:00.000Z</time>
      </trkpt>
      <trkpt lat="45.58155" lon="2.84419">
        <ele>1624.6</ele>
        <time>2021-09-07T07:24:05.000Z</time>
      </trkpt>
      <trkpt lat="45.58161" lon="2.84423">
        <ele>1626.7</ele>
        <time>2021-09-07T07:24:12.000Z</time>
      </trkpt>
      <trkpt lat="45.58168" lon="2.84427">
        <ele>1629.1</ele>
        <time>2021-09-07T07:24:21.000Z</time>
      </trkpt>
      <trkpt lat="45.58174" lon="2.84432">
        <ele>1630.4</ele>
        <time>2021-09-07T07:24:29.000Z</time>
      </trkpt>
      <trkpt lat="45.58181" lon="2.84435">
        <ele>1632.4</ele>
        <time>2021-09-07T07:24:37.000Z</time>
      </trkpt>
      <trkpt lat="45.58188" lon="2.84437">
        <ele>1634.5</ele>
        <time>2021-09-07T07:24:42.000Z</time>
      </trkpt>
      <trkpt lat="45.58195" lon="2.84439">
        <ele>1636.8</ele>
        <time>2021-09-07T07:24:48.000Z</time>
      </trkpt>
      <trkpt lat="45.58202" lon="2.8444">
        <ele>1639.1</ele>
        <time>2021-09-07T07:24:53.000Z</time>
      </trkpt>
      <trkpt lat="45.58208" lon="2.84444">
        <ele>1641.1</ele>
        <time>2021-09-07T07:24:59.000Z</time>
      </trkpt>
      <trkpt lat="45.58215" lon="2.84446">
        <ele>1643.5</ele>
        <time>2021-09-07T07:25:33.000Z</time>
      </trkpt>
      <trkpt lat="45.58222" lon="2.84449">
        <ele>1646</ele>
        <time>2021-09-07T07:25:39.000Z</time>
      </trkpt>
      <trkpt lat="45.58229" lon="2.84452">
        <ele>1648.7</ele>
        <time>2021-09-07T07:25:45.000Z</time>
      </trkpt>
      <trkpt lat="45.58235" lon="2.84456">
        <ele>1651.1</ele>
        <time>2021-09-07T07:25:51.000Z</time>
      </trkpt>
      <trkpt lat="45.58241" lon="2.84461">
        <ele>1653.6</ele>
        <time>2021-09-07T07:25:57.000Z</time>
      </trkpt>
      <trkpt lat="45.58246" lon="2.84468">
        <ele>1656</ele>
        <time>2021-09-07T07:26:03.000Z</time>
      </trkpt>
      <trkpt lat="45.58249" lon="2.84476">
        <ele>1657.8</ele>
        <time>2021-09-07T07:26:12.000Z</time>
      </trkpt>
      <trkpt lat="45.58255" lon="2.84481">
        <ele>1658.6</ele>
        <time>2021-09-07T07:26:19.000Z</time>
      </trkpt>
      <trkpt lat="45.5826" lon="2.84488">
        <ele>1659.3</ele>
        <time>2021-09-07T07:26:27.000Z</time>
      </trkpt>
      <trkpt lat="45.58266" lon="2.84492">
        <ele>1660</ele>
        <time>2021-09-07T07:26:33.000Z</time>
      </trkpt>
      <trkpt lat="45.58272" lon="2.84496">
        <ele>1660.9</ele>
        <time>2021-09-07T07:26:39.000Z</time>
      </trkpt>
      <trkpt lat="45.58278" lon="2.84498">
        <ele>1661.6</ele>
        <time>2021-09-07T07:26:45.000Z</time>
      </trkpt>
      <trkpt lat="45.58284" lon="2.84504">
        <ele>1661.9</ele>
        <time>2021-09-07T07:26:52.000Z</time>
      </trkpt>
      <trkpt lat="45.5829" lon="2.8451">
        <ele>1661.8</ele>
        <time>2021-09-07T07:26:58.000Z</time>
      </trkpt>
      <trkpt lat="45.58297" lon="2.84516">
        <ele>1662.1</ele>
        <time>2021-09-07T07:27:04.000Z</time>
      </trkpt>
      <trkpt lat="45.58303" lon="2.84521">
        <ele>1662.5</ele>
        <time>2021-09-07T07:27:09.000Z</time>
      </trkpt>
      <trkpt lat="45.58309" lon="2.84526">
        <ele>1663.2</ele>
        <time>2021-09-07T07:27:16.000Z</time>
      </trkpt>
      <trkpt lat="45.58316" lon="2.84529">
        <ele>1664.3</ele>
        <time>2021-09-07T07:27:26.000Z</time>
      </trkpt>
      <trkpt lat="45.5832" lon="2.84536">
        <ele>1665</ele>
        <time>2021-09-07T07:27:34.000Z</time>
      </trkpt>
      <trkpt lat="45.58325" lon="2.84543">
        <ele>1666.2</ele>
        <time>2021-09-07T07:27:41.000Z</time>
      </trkpt>
      <trkpt lat="45.58332" lon="2.84548">
        <ele>1668</ele>
        <time>2021-09-07T07:27:47.000Z</time>
      </trkpt>
      <trkpt lat="45.58339" lon="2.84552">
        <ele>1666.8</ele>
        <time>2021-09-07T07:27:53.000Z</time>
      </trkpt>
      <trkpt lat="45.58345" lon="2.84557">
        <ele>1665.4</ele>
        <time>2021-09-07T07:27:59.000Z</time>
      </trkpt>
      <trkpt lat="45.5835" lon="2.84562">
        <ele>1664.3</ele>
        <time>2021-09-07T07:28:05.000Z</time>
      </trkpt>
      <trkpt lat="45.58358" lon="2.84565">
        <ele>1662.3</ele>
        <time>2021-09-07T07:28:11.000Z</time>
      </trkpt>
      <trkpt lat="45.58364" lon="2.8457">
        <ele>1661</ele>
        <time>2021-09-07T07:28:18.000Z</time>
      </trkpt>
      <trkpt lat="45.5837" lon="2.84576">
        <ele>1660</ele>
        <time>2021-09-07T07:28:26.000Z</time>
      </trkpt>
      <trkpt lat="45.58375" lon="2.84582">
        <ele>1659.4</ele>
        <time>2021-09-07T07:28:34.000Z</time>
      </trkpt>
      <trkpt lat="45.58382" lon="2.84581">
        <ele>1657.5</ele>
        <time>2021-09-07T07:29:05.000Z</time>
      </trkpt>
      <trkpt lat="45.58389" lon="2.84584">
        <ele>1655.7</ele>
        <time>2021-09-07T07:29:12.000Z</time>
      </trkpt>
      <trkpt lat="45.58396" lon="2.84586">
        <ele>1653.3</ele>
        <time>2021-09-07T07:29:17.000Z</time>
      </trkpt>
      <trkpt lat="45.58403" lon="2.84586">
        <ele>1651.6</ele>
        <time>2021-09-07T07:29:23.000Z</time>
      </trkpt>
      <trkpt lat="45.5841" lon="2.84586">
        <ele>1649.8</ele>
        <time>2021-09-07T07:29:30.000Z</time>
      </trkpt>
      <trkpt lat="45.58416" lon="2.84586">
        <ele>1648.4</ele>
        <time>2021-09-07T07:29:36.000Z</time>
      </trkpt>
      <trkpt lat="45.58423" lon="2.84585">
        <ele>1647.9</ele>
        <time>2021-09-07T07:29:41.000Z</time>
      </trkpt>
      <trkpt lat="45.5843" lon="2.84587">
        <ele>1646.6</ele>
        <time>2021-09-07T07:29:48.000Z</time>
      </trkpt>
      <trkpt lat="45.58436" lon="2.8459">
        <ele>1645.2</ele>
        <time>2021-09-07T07:29:55.000Z</time>
      </trkpt>
      <trkpt lat="45.58443" lon="2.84594">
        <ele>1643.4</ele>
        <time>2021-09-07T07:30:02.000Z</time>
      </trkpt>
      <trkpt lat="45.58449" lon="2.84597">
        <ele>1642</ele>
        <time>2021-09-07T07:30:09.000Z</time>
      </trkpt>
      <trkpt lat="45.58455" lon="2.84601">
        <ele>1640.3</ele>
        <time>2021-09-07T07:30:16.000Z</time>
      </trkpt>
      <trkpt lat="45.58462" lon="2.84604">
        <ele>1638.9</ele>
        <time>2021-09-07T07:30:56.000Z</time>
      </trkpt>
      <trkpt lat="45.58468" lon="2.84606">
        <ele>1637.8</ele>
        <time>2021-09-07T07:31:02.000Z</time>
      </trkpt>
      <trkpt lat="45.58475" lon="2.84607">
        <ele>1636.9</ele>
        <time>2021-09-07T07:31:11.000Z</time>
      </trkpt>
      <trkpt lat="45.58482" lon="2.84609">
        <ele>1635.8</ele>
        <time>2021-09-07T07:31:23.000Z</time>
      </trkpt>
      <trkpt lat="45.58488" lon="2.84607">
        <ele>1635.8</ele>
        <time>2021-09-07T07:31:35.000Z</time>
      </trkpt>
      <trkpt lat="45.58495" lon="2.84607">
        <ele>1635.2</ele>
        <time>2021-09-07T07:31:47.000Z</time>
      </trkpt>
      <trkpt lat="45.58499" lon="2.84599">
        <ele>1637</ele>
        <time>2021-09-07T07:32:02.000Z</time>
      </trkpt>
      <trkpt lat="45.58499" lon="2.84589">
        <ele>1639.6</ele>
        <time>2021-09-07T07:32:11.000Z</time>
      </trkpt>
      <trkpt lat="45.58495" lon="2.84581">
        <ele>1640.8</ele>
        <time>2021-09-07T07:32:20.000Z</time>
      </trkpt>
      <trkpt lat="45.58495" lon="2.84572">
        <ele>1638.3</ele>
        <time>2021-09-07T07:32:33.000Z</time>
      </trkpt>
      <trkpt lat="45.58501" lon="2.84574">
        <ele>1638.2</ele>
        <time>2021-09-07T07:32:47.000Z</time>
      </trkpt>
      <trkpt lat="45.58508" lon="2.84575">
        <ele>1637.3</ele>
        <time>2021-09-07T07:32:57.000Z</time>
      </trkpt>
      <trkpt lat="45.58515" lon="2.84576">
        <ele>1636.5</ele>
        <time>2021-09-07T07:33:07.000Z</time>
      </trkpt>
      <trkpt lat="45.58522" lon="2.84577">
        <ele>1635.6</ele>
        <time>2021-09-07T07:33:18.000Z</time>
      </trkpt>
      <trkpt lat="45.58528" lon="2.8458">
        <ele>1635.4</ele>
        <time>2021-09-07T07:33:29.000Z</time>
      </trkpt>
      <trkpt lat="45.58533" lon="2.84573">
        <ele>1632.8</ele>
        <time>2021-09-07T07:33:54.000Z</time>
      </trkpt>
      <trkpt lat="45.58533" lon="2.84563">
        <ele>1630.3</ele>
        <time>2021-09-07T07:34:08.000Z</time>
      </trkpt>
      <trkpt lat="45.58532" lon="2.84554">
        <ele>1628.1</ele>
        <time>2021-09-07T07:34:17.000Z</time>
      </trkpt>
      <trkpt lat="45.58529" lon="2.84545">
        <ele>1626.2</ele>
        <time>2021-09-07T07:34:26.000Z</time>
      </trkpt>
      <trkpt lat="45.58529" lon="2.84535">
        <ele>1623.6</ele>
        <time>2021-09-07T07:34:35.000Z</time>
      </trkpt>
      <trkpt lat="45.58524" lon="2.84526">
        <ele>1621.8</ele>
        <time>2021-09-07T07:34:44.000Z</time>
      </trkpt>
      <trkpt lat="45.58531" lon="2.84525">
        <ele>1620.8</ele>
        <time>2021-09-07T07:35:00.000Z</time>
      </trkpt>
      <trkpt lat="45.58538" lon="2.84527">
        <ele>1620.5</ele>
        <time>2021-09-07T07:35:07.000Z</time>
      </trkpt>
      <trkpt lat="45.58545" lon="2.84528">
        <ele>1620</ele>
        <time>2021-09-07T07:35:16.000Z</time>
      </trkpt>
      <trkpt lat="45.58551" lon="2.84524">
        <ele>1618.4</ele>
        <time>2021-09-07T07:35:31.000Z</time>
      </trkpt>
      <trkpt lat="45.58551" lon="2.84515">
        <ele>1616.3</ele>
        <time>2021-09-07T07:35:41.000Z</time>
      </trkpt>
      <trkpt lat="45.58548" lon="2.84506">
        <ele>1614.4</ele>
        <time>2021-09-07T07:35:51.000Z</time>
      </trkpt>
      <trkpt lat="45.58544" lon="2.84498">
        <ele>1612.4</ele>
        <time>2021-09-07T07:35:58.000Z</time>
      </trkpt>
      <trkpt lat="45.58539" lon="2.8449">
        <ele>1609.1</ele>
        <time>2021-09-07T07:36:05.000Z</time>
      </trkpt>
      <trkpt lat="45.58533" lon="2.84484">
        <ele>1606.9</ele>
        <time>2021-09-07T07:36:10.000Z</time>
      </trkpt>
      <trkpt lat="45.58528" lon="2.84477">
        <ele>1604.1</ele>
        <time>2021-09-07T07:36:17.000Z</time>
      </trkpt>
      <trkpt lat="45.58536" lon="2.84477">
        <ele>1603.4</ele>
        <time>2021-09-07T07:36:27.000Z</time>
      </trkpt>
      <trkpt lat="45.58543" lon="2.84477">
        <ele>1602.8</ele>
        <time>2021-09-07T07:36:33.000Z</time>
      </trkpt>
      <trkpt lat="45.5855" lon="2.8448">
        <ele>1603.5</ele>
        <time>2021-09-07T07:36:40.000Z</time>
      </trkpt>
      <trkpt lat="45.58558" lon="2.84481">
        <ele>1603.3</ele>
        <time>2021-09-07T07:36:47.000Z</time>
      </trkpt>
      <trkpt lat="45.58564" lon="2.84483">
        <ele>1603.7</ele>
        <time>2021-09-07T07:36:54.000Z</time>
      </trkpt>
      <trkpt lat="45.58574" lon="2.84483">
        <ele>1602.9</ele>
        <time>2021-09-07T07:37:24.000Z</time>
      </trkpt>
      <trkpt lat="45.5858" lon="2.84483">
        <ele>1602.3</ele>
        <time>2021-09-07T07:37:31.000Z</time>
      </trkpt>
      <trkpt lat="45.58587" lon="2.84484">
        <ele>1601.7</ele>
        <time>2021-09-07T07:37:41.000Z</time>
      </trkpt>
      <trkpt lat="45.58594" lon="2.84486">
        <ele>1601</ele>
        <time>2021-09-07T07:37:48.000Z</time>
      </trkpt>
      <trkpt lat="45.58601" lon="2.84488">
        <ele>1600.2</ele>
        <time>2021-09-07T07:37:56.000Z</time>
      </trkpt>
      <trkpt lat="45.58608" lon="2.8449">
        <ele>1599.4</ele>
        <time>2021-09-07T07:38:02.000Z</time>
      </trkpt>
      <trkpt lat="45.58614" lon="2.84492">
        <ele>1598.8</ele>
        <time>2021-09-07T07:38:08.000Z</time>
      </trkpt>
      <trkpt lat="45.58621" lon="2.84495">
        <ele>1598.4</ele>
        <time>2021-09-07T07:39:22.000Z</time>
      </trkpt>
      <trkpt lat="45.58627" lon="2.84498">
        <ele>1598.2</ele>
        <time>2021-09-07T07:39:28.000Z</time>
      </trkpt>
      <trkpt lat="45.58634" lon="2.84502">
        <ele>1597.6</ele>
        <time>2021-09-07T07:39:35.000Z</time>
      </trkpt>
      <trkpt lat="45.5864" lon="2.84504">
        <ele>1596.3</ele>
        <time>2021-09-07T07:39:41.000Z</time>
      </trkpt>
      <trkpt lat="45.58646" lon="2.84507">
        <ele>1595.3</ele>
        <time>2021-09-07T07:39:46.000Z</time>
      </trkpt>
      <trkpt lat="45.58653" lon="2.84511">
        <ele>1594</ele>
        <time>2021-09-07T07:39:52.000Z</time>
      </trkpt>
      <trkpt lat="45.58659" lon="2.84515">
        <ele>1593</ele>
        <time>2021-09-07T07:39:59.000Z</time>
      </trkpt>
      <trkpt lat="45.58666" lon="2.84514">
        <ele>1591</ele>
        <time>2021-09-07T07:43:04.000Z</time>
      </trkpt>
      <trkpt lat="45.58673" lon="2.84515">
        <ele>1589.2</ele>
        <time>2021-09-07T07:43:10.000Z</time>
      </trkpt>
      <trkpt lat="45.58681" lon="2.84514">
        <ele>1586.8</ele>
        <time>2021-09-07T07:43:17.000Z</time>
      </trkpt>
      <trkpt lat="45.58688" lon="2.84516">
        <ele>1585</ele>
        <time>2021-09-07T07:43:23.000Z</time>
      </trkpt>
      <trkpt lat="45.58695" lon="2.84515">
        <ele>1582.9</ele>
        <time>2021-09-07T07:43:29.000Z</time>
      </trkpt>
      <trkpt lat="45.58701" lon="2.84513">
        <ele>1581</ele>
        <time>2021-09-07T07:43:35.000Z</time>
      </trkpt>
      <trkpt lat="45.58708" lon="2.84515">
        <ele>1579.2</ele>
        <time>2021-09-07T07:43:40.000Z</time>
      </trkpt>
      <trkpt lat="45.58715" lon="2.84515">
        <ele>1577.2</ele>
        <time>2021-09-07T07:43:46.000Z</time>
      </trkpt>
      <trkpt lat="45.58722" lon="2.84513">
        <ele>1575.1</ele>
        <time>2021-09-07T07:43:52.000Z</time>
      </trkpt>
      <trkpt lat="45.58728" lon="2.84511">
        <ele>1573.3</ele>
        <time>2021-09-07T07:43:57.000Z</time>
      </trkpt>
      <trkpt lat="45.58735" lon="2.84508">
        <ele>1571.2</ele>
        <time>2021-09-07T07:44:03.000Z</time>
      </trkpt>
      <trkpt lat="45.58743" lon="2.84507">
        <ele>1569</ele>
        <time>2021-09-07T07:44:09.000Z</time>
      </trkpt>
      <trkpt lat="45.58751" lon="2.84507">
        <ele>1566.9</ele>
        <time>2021-09-07T07:44:15.000Z</time>
      </trkpt>
      <trkpt lat="45.58759" lon="2.84507">
        <ele>1565.4</ele>
        <time>2021-09-07T07:44:22.000Z</time>
      </trkpt>
      <trkpt lat="45.58766" lon="2.84507">
        <ele>1564.1</ele>
        <time>2021-09-07T07:44:28.000Z</time>
      </trkpt>
      <trkpt lat="45.58773" lon="2.8451">
        <ele>1562.7</ele>
        <time>2021-09-07T07:44:34.000Z</time>
      </trkpt>
      <trkpt lat="45.5878" lon="2.84508">
        <ele>1561.4</ele>
        <time>2021-09-07T07:44:43.000Z</time>
      </trkpt>
      <trkpt lat="45.58787" lon="2.84506">
        <ele>1560.1</ele>
        <time>2021-09-07T07:44:55.000Z</time>
      </trkpt>
      <trkpt lat="45.58794" lon="2.84503">
        <ele>1558.9</ele>
        <time>2021-09-07T07:45:11.000Z</time>
      </trkpt>
      <trkpt lat="45.58801" lon="2.84502">
        <ele>1557.7</ele>
        <time>2021-09-07T07:45:20.000Z</time>
      </trkpt>
      <trkpt lat="45.58807" lon="2.845">
        <ele>1556.7</ele>
        <time>2021-09-07T07:45:36.000Z</time>
      </trkpt>
      <trkpt lat="45.58813" lon="2.84495">
        <ele>1554.5</ele>
        <time>2021-09-07T07:45:53.000Z</time>
      </trkpt>
      <trkpt lat="45.58822" lon="2.84494">
        <ele>1552.8</ele>
        <time>2021-09-07T07:46:24.000Z</time>
      </trkpt>
      <trkpt lat="45.58828" lon="2.84491">
        <ele>1551.2</ele>
        <time>2021-09-07T07:46:51.000Z</time>
      </trkpt>
      <trkpt lat="45.58835" lon="2.84489">
        <ele>1550.3</ele>
        <time>2021-09-07T07:47:05.000Z</time>
      </trkpt>
      <trkpt lat="45.58841" lon="2.84489">
        <ele>1551.1</ele>
        <time>2021-09-07T07:47:18.000Z</time>
      </trkpt>
      <trkpt lat="45.58848" lon="2.84488">
        <ele>1551.9</ele>
        <time>2021-09-07T07:47:25.000Z</time>
      </trkpt>
      <trkpt lat="45.58854" lon="2.84487">
        <ele>1552.6</ele>
        <time>2021-09-07T07:47:33.000Z</time>
      </trkpt>
      <trkpt lat="45.58861" lon="2.84487">
        <ele>1553.6</ele>
        <time>2021-09-07T07:47:55.000Z</time>
      </trkpt>
      <trkpt lat="45.58869" lon="2.84485">
        <ele>1554.5</ele>
        <time>2021-09-07T07:48:01.000Z</time>
      </trkpt>
      <trkpt lat="45.58875" lon="2.84484">
        <ele>1555.2</ele>
        <time>2021-09-07T07:48:09.000Z</time>
      </trkpt>
      <trkpt lat="45.58882" lon="2.84485">
        <ele>1556.4</ele>
        <time>2021-09-07T07:48:22.000Z</time>
      </trkpt>
      <trkpt lat="45.58889" lon="2.84483">
        <ele>1557.1</ele>
        <time>2021-09-07T07:48:34.000Z</time>
      </trkpt>
      <trkpt lat="45.58896" lon="2.84486">
        <ele>1558.5</ele>
        <time>2021-09-07T07:48:47.000Z</time>
      </trkpt>
      <trkpt lat="45.58903" lon="2.84488">
        <ele>1559.8</ele>
        <time>2021-09-07T07:49:00.000Z</time>
      </trkpt>
      <trkpt lat="45.58909" lon="2.84491">
        <ele>1561</ele>
        <time>2021-09-07T07:49:18.000Z</time>
      </trkpt>
      <trkpt lat="45.58916" lon="2.84494">
        <ele>1562.3</ele>
        <time>2021-09-07T07:49:30.000Z</time>
      </trkpt>
      <trkpt lat="45.58924" lon="2.84495">
        <ele>1564</ele>
        <time>2021-09-07T07:49:37.000Z</time>
      </trkpt>
      <trkpt lat="45.58931" lon="2.84498">
        <ele>1565.7</ele>
        <time>2021-09-07T07:49:43.000Z</time>
      </trkpt>
      <trkpt lat="45.58939" lon="2.84498">
        <ele>1567.3</ele>
        <time>2021-09-07T07:49:48.000Z</time>
      </trkpt>
      <trkpt lat="45.58945" lon="2.84497">
        <ele>1568.5</ele>
        <time>2021-09-07T07:49:52.000Z</time>
      </trkpt>
      <trkpt lat="45.58952" lon="2.84498">
        <ele>1570</ele>
        <time>2021-09-07T07:49:58.000Z</time>
      </trkpt>
      <trkpt lat="45.58959" lon="2.84501">
        <ele>1571.4</ele>
        <time>2021-09-07T07:50:05.000Z</time>
      </trkpt>
      <trkpt lat="45.58966" lon="2.84505">
        <ele>1571.8</ele>
        <time>2021-09-07T07:50:13.000Z</time>
      </trkpt>
      <trkpt lat="45.58971" lon="2.84511">
        <ele>1571.3</ele>
        <time>2021-09-07T07:50:21.000Z</time>
      </trkpt>
      <trkpt lat="45.58976" lon="2.84519">
        <ele>1570.3</ele>
        <time>2021-09-07T07:50:30.000Z</time>
      </trkpt>
      <trkpt lat="45.5898" lon="2.84526">
        <ele>1569.5</ele>
        <time>2021-09-07T07:50:38.000Z</time>
      </trkpt>
      <trkpt lat="45.58985" lon="2.84533">
        <ele>1568.8</ele>
        <time>2021-09-07T07:50:46.000Z</time>
      </trkpt>
      <trkpt lat="45.5899" lon="2.84539">
        <ele>1568.4</ele>
        <time>2021-09-07T07:50:55.000Z</time>
      </trkpt>
      <trkpt lat="45.58996" lon="2.84544">
        <ele>1568.5</ele>
        <time>2021-09-07T07:51:03.000Z</time>
      </trkpt>
      <trkpt lat="45.59003" lon="2.84548">
        <ele>1569.2</ele>
        <time>2021-09-07T07:51:13.000Z</time>
      </trkpt>
      <trkpt lat="45.59007" lon="2.84556">
        <ele>1568.5</ele>
        <time>2021-09-07T07:51:22.000Z</time>
      </trkpt>
      <trkpt lat="45.59014" lon="2.84558">
        <ele>1570.1</ele>
        <time>2021-09-07T07:51:37.000Z</time>
      </trkpt>
      <trkpt lat="45.59018" lon="2.84566">
        <ele>1569.9</ele>
        <time>2021-09-07T07:52:06.000Z</time>
      </trkpt>
      <trkpt lat="45.59024" lon="2.84574">
        <ele>1570.6</ele>
        <time>2021-09-07T07:52:12.000Z</time>
      </trkpt>
      <trkpt lat="45.59029" lon="2.84581">
        <ele>1571.4</ele>
        <time>2021-09-07T07:52:18.000Z</time>
      </trkpt>
      <trkpt lat="45.59035" lon="2.84586">
        <ele>1572.7</ele>
        <time>2021-09-07T07:52:24.000Z</time>
      </trkpt>
      <trkpt lat="45.59041" lon="2.8459">
        <ele>1574</ele>
        <time>2021-09-07T07:52:30.000Z</time>
      </trkpt>
      <trkpt lat="45.59047" lon="2.84595">
        <ele>1575</ele>
        <time>2021-09-07T07:52:35.000Z</time>
      </trkpt>
      <trkpt lat="45.59053" lon="2.84599">
        <ele>1576.3</ele>
        <time>2021-09-07T07:52:40.000Z</time>
      </trkpt>
      <trkpt lat="45.5906" lon="2.84601">
        <ele>1578.5</ele>
        <time>2021-09-07T07:52:46.000Z</time>
      </trkpt>
      <trkpt lat="45.59067" lon="2.84601">
        <ele>1581.2</ele>
        <time>2021-09-07T07:52:52.000Z</time>
      </trkpt>
      <trkpt lat="45.59074" lon="2.846">
        <ele>1584.2</ele>
        <time>2021-09-07T07:52:58.000Z</time>
      </trkpt>
      <trkpt lat="45.59082" lon="2.84601">
        <ele>1587</ele>
        <time>2021-09-07T07:53:04.000Z</time>
      </trkpt>
      <trkpt lat="45.59088" lon="2.84601">
        <ele>1587.9</ele>
        <time>2021-09-07T07:53:09.000Z</time>
      </trkpt>
      <trkpt lat="45.59096" lon="2.84601">
        <ele>1588.5</ele>
        <time>2021-09-07T07:53:17.000Z</time>
      </trkpt>
      <trkpt lat="45.59102" lon="2.84601">
        <ele>1588.9</ele>
        <time>2021-09-07T07:53:22.000Z</time>
      </trkpt>
      <trkpt lat="45.59109" lon="2.84599">
        <ele>1589.9</ele>
        <time>2021-09-07T07:53:28.000Z</time>
      </trkpt>
      <trkpt lat="45.59116" lon="2.84596">
        <ele>1591.1</ele>
        <time>2021-09-07T07:53:35.000Z</time>
      </trkpt>
      <trkpt lat="45.59122" lon="2.84592">
        <ele>1592.4</ele>
        <time>2021-09-07T07:53:41.000Z</time>
      </trkpt>
      <trkpt lat="45.59129" lon="2.8459">
        <ele>1593.3</ele>
        <time>2021-09-07T07:53:51.000Z</time>
      </trkpt>
      <trkpt lat="45.59136" lon="2.84588">
        <ele>1594.2</ele>
        <time>2021-09-07T07:53:59.000Z</time>
      </trkpt>
      <trkpt lat="45.59143" lon="2.84587">
        <ele>1594.8</ele>
        <time>2021-09-07T07:54:06.000Z</time>
      </trkpt>
      <trkpt lat="45.5915" lon="2.84584">
        <ele>1595.9</ele>
        <time>2021-09-07T07:54:12.000Z</time>
      </trkpt>
      <trkpt lat="45.59157" lon="2.84583">
        <ele>1596.4</ele>
        <time>2021-09-07T07:54:18.000Z</time>
      </trkpt>
      <trkpt lat="45.59164" lon="2.84581">
        <ele>1596.4</ele>
        <time>2021-09-07T07:54:26.000Z</time>
      </trkpt>
      <trkpt lat="45.5917" lon="2.84579">
        <ele>1596.5</ele>
        <time>2021-09-07T07:54:33.000Z</time>
      </trkpt>
      <trkpt lat="45.59177" lon="2.84575">
        <ele>1596.6</ele>
        <time>2021-09-07T07:54:41.000Z</time>
      </trkpt>
      <trkpt lat="45.59183" lon="2.8457">
        <ele>1596.6</ele>
        <time>2021-09-07T07:54:54.000Z</time>
      </trkpt>
      <trkpt lat="45.59189" lon="2.84565">
        <ele>1596.7</ele>
        <time>2021-09-07T07:55:07.000Z</time>
      </trkpt>
      <trkpt lat="45.59194" lon="2.84559">
        <ele>1596.6</ele>
        <time>2021-09-07T07:55:17.000Z</time>
      </trkpt>
      <trkpt lat="45.59195" lon="2.8455">
        <ele>1595.6</ele>
        <time>2021-09-07T07:55:28.000Z</time>
      </trkpt>
      <trkpt lat="45.59195" lon="2.8454">
        <ele>1594.2</ele>
        <time>2021-09-07T07:56:09.000Z</time>
      </trkpt>
      <trkpt lat="45.59201" lon="2.84536">
        <ele>1595</ele>
        <time>2021-09-07T07:56:40.000Z</time>
      </trkpt>
      <trkpt lat="45.592" lon="2.84546">
        <ele>1596</ele>
        <time>2021-09-07T07:57:30.000Z</time>
      </trkpt>
      <trkpt lat="45.592" lon="2.84536">
        <ele>1594.8</ele>
        <time>2021-09-07T07:58:06.000Z</time>
      </trkpt>
      <trkpt lat="45.59203" lon="2.84525">
        <ele>1594.2</ele>
        <time>2021-09-07T07:58:12.000Z</time>
      </trkpt>
      <trkpt lat="45.59202" lon="2.84515">
        <ele>1592.8</ele>
        <time>2021-09-07T07:58:18.000Z</time>
      </trkpt>
      <trkpt lat="45.59206" lon="2.84508">
        <ele>1593.1</ele>
        <time>2021-09-07T07:58:25.000Z</time>
      </trkpt>
      <trkpt lat="45.5921" lon="2.845">
        <ele>1593.5</ele>
        <time>2021-09-07T07:58:32.000Z</time>
      </trkpt>
      <trkpt lat="45.59213" lon="2.8449">
        <ele>1592.8</ele>
        <time>2021-09-07T07:58:38.000Z</time>
      </trkpt>
      <trkpt lat="45.59218" lon="2.84484">
        <ele>1593.4</ele>
        <time>2021-09-07T07:59:42.000Z</time>
      </trkpt>
      <trkpt lat="45.59221" lon="2.84475">
        <ele>1593.1</ele>
        <time>2021-09-07T07:59:51.000Z</time>
      </trkpt>
      <trkpt lat="45.59226" lon="2.84468">
        <ele>1593.9</ele>
        <time>2021-09-07T08:00:01.000Z</time>
      </trkpt>
      <trkpt lat="45.59232" lon="2.84461">
        <ele>1595.2</ele>
        <time>2021-09-07T08:00:21.000Z</time>
      </trkpt>
      <trkpt lat="45.59238" lon="2.84455">
        <ele>1596.8</ele>
        <time>2021-09-07T08:00:26.000Z</time>
      </trkpt>
      <trkpt lat="45.59242" lon="2.84448">
        <ele>1597.7</ele>
        <time>2021-09-07T08:00:32.000Z</time>
      </trkpt>
      <trkpt lat="45.59248" lon="2.84441">
        <ele>1599.5</ele>
        <time>2021-09-07T08:00:38.000Z</time>
      </trkpt>
      <trkpt lat="45.59254" lon="2.84434">
        <ele>1599.9</ele>
        <time>2021-09-07T08:00:44.000Z</time>
      </trkpt>
      <trkpt lat="45.5926" lon="2.84429">
        <ele>1599.9</ele>
        <time>2021-09-07T08:01:06.000Z</time>
      </trkpt>
      <trkpt lat="45.59265" lon="2.84423">
        <ele>1599.8</ele>
        <time>2021-09-07T08:01:14.000Z</time>
      </trkpt>
      <trkpt lat="45.59271" lon="2.84418">
        <ele>1599.9</ele>
        <time>2021-09-07T08:01:24.000Z</time>
      </trkpt>
      <trkpt lat="45.59273" lon="2.84409">
        <ele>1598.4</ele>
        <time>2021-09-07T08:01:31.000Z</time>
      </trkpt>
      <trkpt lat="45.59276" lon="2.844">
        <ele>1596.7</ele>
        <time>2021-09-07T08:01:44.000Z</time>
      </trkpt>
      <trkpt lat="45.59283" lon="2.844">
        <ele>1597.1</ele>
        <time>2021-09-07T08:02:01.000Z</time>
      </trkpt>
      <trkpt lat="45.59288" lon="2.84393">
        <ele>1595.8</ele>
        <time>2021-09-07T08:02:09.000Z</time>
      </trkpt>
      <trkpt lat="45.59291" lon="2.84384">
        <ele>1593.8</ele>
        <time>2021-09-07T08:02:19.000Z</time>
      </trkpt>
      <trkpt lat="45.59297" lon="2.84381">
        <ele>1593.3</ele>
        <time>2021-09-07T08:02:31.000Z</time>
      </trkpt>
      <trkpt lat="45.59297" lon="2.84371">
        <ele>1590.9</ele>
        <time>2021-09-07T08:02:41.000Z</time>
      </trkpt>
      <trkpt lat="45.59304" lon="2.84368">
        <ele>1590.2</ele>
        <time>2021-09-07T08:02:51.000Z</time>
      </trkpt>
      <trkpt lat="45.59303" lon="2.84359">
        <ele>1587.9</ele>
        <time>2021-09-07T08:03:05.000Z</time>
      </trkpt>
      <trkpt lat="45.59309" lon="2.84353">
        <ele>1586.3</ele>
        <time>2021-09-07T08:03:15.000Z</time>
      </trkpt>
      <trkpt lat="45.59311" lon="2.84344">
        <ele>1583.9</ele>
        <time>2021-09-07T08:03:27.000Z</time>
      </trkpt>
      <trkpt lat="45.59313" lon="2.84335">
        <ele>1581.4</ele>
        <time>2021-09-07T08:03:36.000Z</time>
      </trkpt>
      <trkpt lat="45.59316" lon="2.84325">
        <ele>1577.8</ele>
        <time>2021-09-07T08:03:46.000Z</time>
      </trkpt>
      <trkpt lat="45.59321" lon="2.84317">
        <ele>1574.7</ele>
        <time>2021-09-07T08:03:53.000Z</time>
      </trkpt>
      <trkpt lat="45.59328" lon="2.84311">
        <ele>1572</ele>
        <time>2021-09-07T08:05:13.000Z</time>
      </trkpt>
      <trkpt lat="45.59333" lon="2.84305">
        <ele>1569.5</ele>
        <time>2021-09-07T08:05:21.000Z</time>
      </trkpt>
      <trkpt lat="45.59337" lon="2.84297">
        <ele>1566.4</ele>
        <time>2021-09-07T08:06:17.000Z</time>
      </trkpt>
      <trkpt lat="45.59342" lon="2.84292">
        <ele>1564.4</ele>
        <time>2021-09-07T08:06:33.000Z</time>
      </trkpt>
      <trkpt lat="45.59349" lon="2.84289">
        <ele>1563.2</ele>
        <time>2021-09-07T08:06:40.000Z</time>
      </trkpt>
      <trkpt lat="45.59349" lon="2.84279">
        <ele>1559.9</ele>
        <time>2021-09-07T08:06:50.000Z</time>
      </trkpt>
      <trkpt lat="45.5935" lon="2.84268">
        <ele>1556.2</ele>
        <time>2021-09-07T08:06:57.000Z</time>
      </trkpt>
      <trkpt lat="45.59352" lon="2.84259">
        <ele>1553.3</ele>
        <time>2021-09-07T08:07:04.000Z</time>
      </trkpt>
      <trkpt lat="45.59358" lon="2.84263">
        <ele>1554.9</ele>
        <time>2021-09-07T08:07:11.000Z</time>
      </trkpt>
      <trkpt lat="45.59363" lon="2.8427">
        <ele>1557.2</ele>
        <time>2021-09-07T08:07:17.000Z</time>
      </trkpt>
      <trkpt lat="45.59368" lon="2.84275">
        <ele>1558.8</ele>
        <time>2021-09-07T08:07:23.000Z</time>
      </trkpt>
      <trkpt lat="45.59373" lon="2.84282">
        <ele>1560.8</ele>
        <time>2021-09-07T08:07:30.000Z</time>
      </trkpt>
      <trkpt lat="45.59378" lon="2.84289">
        <ele>1562.7</ele>
        <time>2021-09-07T08:07:40.000Z</time>
      </trkpt>
      <trkpt lat="45.5938" lon="2.84298">
        <ele>1565.1</ele>
        <time>2021-09-07T08:07:46.000Z</time>
      </trkpt>
      <trkpt lat="45.59382" lon="2.84307">
        <ele>1567.3</ele>
        <time>2021-09-07T08:07:51.000Z</time>
      </trkpt>
      <trkpt lat="45.59384" lon="2.84317">
        <ele>1569.8</ele>
        <time>2021-09-07T08:08:40.000Z</time>
      </trkpt>
      <trkpt lat="45.59385" lon="2.84327">
        <ele>1572.2</ele>
        <time>2021-09-07T08:08:46.000Z</time>
      </trkpt>
      <trkpt lat="45.59388" lon="2.84335">
        <ele>1573.6</ele>
        <time>2021-09-07T08:08:51.000Z</time>
      </trkpt>
      <trkpt lat="45.59389" lon="2.84347">
        <ele>1574.9</ele>
        <time>2021-09-07T08:08:57.000Z</time>
      </trkpt>
      <trkpt lat="45.59388" lon="2.84359">
        <ele>1576.5</ele>
        <time>2021-09-07T08:09:03.000Z</time>
      </trkpt>
      <trkpt lat="45.59389" lon="2.84369">
        <ele>1577.4</ele>
        <time>2021-09-07T08:09:09.000Z</time>
      </trkpt>
      <trkpt lat="45.59388" lon="2.84379">
        <ele>1578.9</ele>
        <time>2021-09-07T08:09:16.000Z</time>
      </trkpt>
      <trkpt lat="45.59389" lon="2.84389">
        <ele>1579.8</ele>
        <time>2021-09-07T08:09:22.000Z</time>
      </trkpt>
      <trkpt lat="45.59387" lon="2.844">
        <ele>1581.7</ele>
        <time>2021-09-07T08:09:28.000Z</time>
      </trkpt>
      <trkpt lat="45.59388" lon="2.8441">
        <ele>1582.6</ele>
        <time>2021-09-07T08:09:33.000Z</time>
      </trkpt>
      <trkpt lat="45.59389" lon="2.84421">
        <ele>1582.6</ele>
        <time>2021-09-07T08:09:40.000Z</time>
      </trkpt>
      <trkpt lat="45.59389" lon="2.84431">
        <ele>1581.7</ele>
        <time>2021-09-07T08:09:46.000Z</time>
      </trkpt>
      <trkpt lat="45.59388" lon="2.84441">
        <ele>1581.3</ele>
        <time>2021-09-07T08:09:53.000Z</time>
      </trkpt>
      <trkpt lat="45.59387" lon="2.84452">
        <ele>1580.9</ele>
        <time>2021-09-07T08:09:59.000Z</time>
      </trkpt>
      <trkpt lat="45.59387" lon="2.84463">
        <ele>1580</ele>
        <time>2021-09-07T08:10:05.000Z</time>
      </trkpt>
      <trkpt lat="45.59388" lon="2.84474">
        <ele>1578.6</ele>
        <time>2021-09-07T08:10:10.000Z</time>
      </trkpt>
      <trkpt lat="45.59387" lon="2.84485">
        <ele>1578.2</ele>
        <time>2021-09-07T08:10:17.000Z</time>
      </trkpt>
      <trkpt lat="45.59388" lon="2.84494">
        <ele>1577</ele>
        <time>2021-09-07T08:10:24.000Z</time>
      </trkpt>
      <trkpt lat="45.59392" lon="2.84487">
        <ele>1575.5</ele>
        <time>2021-09-07T08:10:32.000Z</time>
      </trkpt>
      <trkpt lat="45.59396" lon="2.84478">
        <ele>1574.3</ele>
        <time>2021-09-07T08:10:38.000Z</time>
      </trkpt>
      <trkpt lat="45.59397" lon="2.84468">
        <ele>1574.8</ele>
        <time>2021-09-07T08:10:45.000Z</time>
      </trkpt>
      <trkpt lat="45.59403" lon="2.84466">
        <ele>1572.1</ele>
        <time>2021-09-07T08:10:54.000Z</time>
      </trkpt>
      <trkpt lat="45.59408" lon="2.8446">
        <ele>1570.4</ele>
        <time>2021-09-07T08:11:17.000Z</time>
      </trkpt>
      <trkpt lat="45.59412" lon="2.84452">
        <ele>1569.5</ele>
        <time>2021-09-07T08:11:23.000Z</time>
      </trkpt>
      <trkpt lat="45.59417" lon="2.84445">
        <ele>1568.1</ele>
        <time>2021-09-07T08:11:27.000Z</time>
      </trkpt>
      <trkpt lat="45.59423" lon="2.84435">
        <ele>1566</ele>
        <time>2021-09-07T08:11:33.000Z</time>
      </trkpt>
      <trkpt lat="45.59426" lon="2.84427">
        <ele>1565.4</ele>
        <time>2021-09-07T08:11:39.000Z</time>
      </trkpt>
      <trkpt lat="45.5943" lon="2.84419">
        <ele>1564.2</ele>
        <time>2021-09-07T08:11:46.000Z</time>
      </trkpt>
      <trkpt lat="45.59434" lon="2.84411">
        <ele>1562.2</ele>
        <time>2021-09-07T08:11:52.000Z</time>
      </trkpt>
      <trkpt lat="45.59437" lon="2.84403">
        <ele>1560.6</ele>
        <time>2021-09-07T08:11:57.000Z</time>
      </trkpt>
      <trkpt lat="45.59441" lon="2.84394">
        <ele>1558.6</ele>
        <time>2021-09-07T08:12:03.000Z</time>
      </trkpt>
      <trkpt lat="45.59446" lon="2.84386">
        <ele>1556.1</ele>
        <time>2021-09-07T08:12:10.000Z</time>
      </trkpt>
      <trkpt lat="45.59449" lon="2.84378">
        <ele>1554.8</ele>
        <time>2021-09-07T08:12:17.000Z</time>
      </trkpt>
      <trkpt lat="45.59455" lon="2.84374">
        <ele>1551.9</ele>
        <time>2021-09-07T08:12:32.000Z</time>
      </trkpt>
      <trkpt lat="45.59454" lon="2.84384">
        <ele>1552.1</ele>
        <time>2021-09-07T08:12:50.000Z</time>
      </trkpt>
      <trkpt lat="45.59455" lon="2.84394">
        <ele>1551.2</ele>
        <time>2021-09-07T08:12:57.000Z</time>
      </trkpt>
      <trkpt lat="45.59456" lon="2.84404">
        <ele>1550.3</ele>
        <time>2021-09-07T08:13:03.000Z</time>
      </trkpt>
      <trkpt lat="45.59457" lon="2.84415">
        <ele>1549.3</ele>
        <time>2021-09-07T08:13:11.000Z</time>
      </trkpt>
      <trkpt lat="45.59456" lon="2.84424">
        <ele>1548.9</ele>
        <time>2021-09-07T08:13:17.000Z</time>
      </trkpt>
      <trkpt lat="45.59456" lon="2.84435">
        <ele>1547.5</ele>
        <time>2021-09-07T08:13:24.000Z</time>
      </trkpt>
      <trkpt lat="45.59456" lon="2.84445">
        <ele>1546.2</ele>
        <time>2021-09-07T08:13:31.000Z</time>
      </trkpt>
      <trkpt lat="45.59455" lon="2.84455">
        <ele>1545.5</ele>
        <time>2021-09-07T08:13:42.000Z</time>
      </trkpt>
      <trkpt lat="45.59457" lon="2.84466">
        <ele>1543</ele>
        <time>2021-09-07T08:13:53.000Z</time>
      </trkpt>
      <trkpt lat="45.59457" lon="2.84476">
        <ele>1541.8</ele>
        <time>2021-09-07T08:13:58.000Z</time>
      </trkpt>
      <trkpt lat="45.59456" lon="2.84487">
        <ele>1540.9</ele>
        <time>2021-09-07T08:14:04.000Z</time>
      </trkpt>
      <trkpt lat="45.59455" lon="2.84497">
        <ele>1540.2</ele>
        <time>2021-09-07T08:14:09.000Z</time>
      </trkpt>
      <trkpt lat="45.59455" lon="2.84508">
        <ele>1538.6</ele>
        <time>2021-09-07T08:14:15.000Z</time>
      </trkpt>
      <trkpt lat="45.59457" lon="2.84519">
        <ele>1535.8</ele>
        <time>2021-09-07T08:14:21.000Z</time>
      </trkpt>
      <trkpt lat="45.59458" lon="2.84528">
        <ele>1533.8</ele>
        <time>2021-09-07T08:14:27.000Z</time>
      </trkpt>
      <trkpt lat="45.59457" lon="2.84538">
        <ele>1532.8</ele>
        <time>2021-09-07T08:14:36.000Z</time>
      </trkpt>
      <trkpt lat="45.59459" lon="2.84547">
        <ele>1530.3</ele>
        <time>2021-09-07T08:14:41.000Z</time>
      </trkpt>
      <trkpt lat="45.59459" lon="2.84558">
        <ele>1528.6</ele>
        <time>2021-09-07T08:14:47.000Z</time>
      </trkpt>
      <trkpt lat="45.59457" lon="2.84568">
        <ele>1528.1</ele>
        <time>2021-09-07T08:14:52.000Z</time>
      </trkpt>
      <trkpt lat="45.59456" lon="2.84578">
        <ele>1527.1</ele>
        <time>2021-09-07T08:14:57.000Z</time>
      </trkpt>
      <trkpt lat="45.59452" lon="2.84588">
        <ele>1527.8</ele>
        <time>2021-09-07T08:15:03.000Z</time>
      </trkpt>
      <trkpt lat="45.5945" lon="2.846">
        <ele>1527.1</ele>
        <time>2021-09-07T08:15:09.000Z</time>
      </trkpt>
      <trkpt lat="45.59449" lon="2.84611">
        <ele>1526</ele>
        <time>2021-09-07T08:15:15.000Z</time>
      </trkpt>
      <trkpt lat="45.59452" lon="2.8462">
        <ele>1523.1</ele>
        <time>2021-09-07T08:15:21.000Z</time>
      </trkpt>
      <trkpt lat="45.5945" lon="2.84629">
        <ele>1522.8</ele>
        <time>2021-09-07T08:15:27.000Z</time>
      </trkpt>
      <trkpt lat="45.59449" lon="2.8464">
        <ele>1521.7</ele>
        <time>2021-09-07T08:15:33.000Z</time>
      </trkpt>
      <trkpt lat="45.59452" lon="2.8465">
        <ele>1518.7</ele>
        <time>2021-09-07T08:15:39.000Z</time>
      </trkpt>
      <trkpt lat="45.59455" lon="2.84661">
        <ele>1515.5</ele>
        <time>2021-09-07T08:15:45.000Z</time>
      </trkpt>
      <trkpt lat="45.59455" lon="2.84671">
        <ele>1514.1</ele>
        <time>2021-09-07T08:15:51.000Z</time>
      </trkpt>
      <trkpt lat="45.59453" lon="2.84681">
        <ele>1513.7</ele>
        <time>2021-09-07T08:15:57.000Z</time>
      </trkpt>
      <trkpt lat="45.59452" lon="2.84692">
        <ele>1512.7</ele>
        <time>2021-09-07T08:16:03.000Z</time>
      </trkpt>
      <trkpt lat="45.59455" lon="2.84703">
        <ele>1509.8</ele>
        <time>2021-09-07T08:16:09.000Z</time>
      </trkpt>
      <trkpt lat="45.59456" lon="2.84714">
        <ele>1507.8</ele>
        <time>2021-09-07T08:16:15.000Z</time>
      </trkpt>
      <trkpt lat="45.59457" lon="2.84723">
        <ele>1506.2</ele>
        <time>2021-09-07T08:16:24.000Z</time>
      </trkpt>
      <trkpt lat="45.59463" lon="2.84728">
        <ele>1502.8</ele>
        <time>2021-09-07T08:16:38.000Z</time>
      </trkpt>
      <trkpt lat="45.59469" lon="2.84725">
        <ele>1500.5</ele>
        <time>2021-09-07T08:16:47.000Z</time>
      </trkpt>
      <trkpt lat="45.59475" lon="2.8472">
        <ele>1498.3</ele>
        <time>2021-09-07T08:16:54.000Z</time>
      </trkpt>
      <trkpt lat="45.59481" lon="2.84715">
        <ele>1496.1</ele>
        <time>2021-09-07T08:17:04.000Z</time>
      </trkpt>
      <trkpt lat="45.59487" lon="2.8471">
        <ele>1493.9</ele>
        <time>2021-09-07T08:17:14.000Z</time>
      </trkpt>
      <trkpt lat="45.59493" lon="2.84709">
        <ele>1491.2</ele>
        <time>2021-09-07T08:17:31.000Z</time>
      </trkpt>
      <trkpt lat="45.59499" lon="2.84702">
        <ele>1489.1</ele>
        <time>2021-09-07T08:17:45.000Z</time>
      </trkpt>
      <trkpt lat="45.59505" lon="2.84699">
        <ele>1486.7</ele>
        <time>2021-09-07T08:17:52.000Z</time>
      </trkpt>
      <trkpt lat="45.59511" lon="2.84696">
        <ele>1484.3</ele>
        <time>2021-09-07T08:18:00.000Z</time>
      </trkpt>
      <trkpt lat="45.59514" lon="2.84705">
        <ele>1482.1</ele>
        <time>2021-09-07T08:18:09.000Z</time>
      </trkpt>
      <trkpt lat="45.59517" lon="2.84714">
        <ele>1479.9</ele>
        <time>2021-09-07T08:18:17.000Z</time>
      </trkpt>
      <trkpt lat="45.59518" lon="2.84724">
        <ele>1478.5</ele>
        <time>2021-09-07T08:18:25.000Z</time>
      </trkpt>
      <trkpt lat="45.59521" lon="2.84732">
        <ele>1476.4</ele>
        <time>2021-09-07T08:18:32.000Z</time>
      </trkpt>
      <trkpt lat="45.59524" lon="2.84742">
        <ele>1474.1</ele>
        <time>2021-09-07T08:18:40.000Z</time>
      </trkpt>
      <trkpt lat="45.59526" lon="2.84751">
        <ele>1472.3</ele>
        <time>2021-09-07T08:18:47.000Z</time>
      </trkpt>
      <trkpt lat="45.59528" lon="2.8476">
        <ele>1470.3</ele>
        <time>2021-09-07T08:18:54.000Z</time>
      </trkpt>
      <trkpt lat="45.59533" lon="2.84768">
        <ele>1467.2</ele>
        <time>2021-09-07T08:19:01.000Z</time>
      </trkpt>
      <trkpt lat="45.59536" lon="2.84776">
        <ele>1464.9</ele>
        <time>2021-09-07T08:19:08.000Z</time>
      </trkpt>
      <trkpt lat="45.5954" lon="2.84785">
        <ele>1462.2</ele>
        <time>2021-09-07T08:19:15.000Z</time>
      </trkpt>
      <trkpt lat="45.59544" lon="2.84793">
        <ele>1459.6</ele>
        <time>2021-09-07T08:19:24.000Z</time>
      </trkpt>
      <trkpt lat="45.59547" lon="2.84802">
        <ele>1457.4</ele>
        <time>2021-09-07T08:19:34.000Z</time>
      </trkpt>
      <trkpt lat="45.59551" lon="2.84812">
        <ele>1454.7</ele>
        <time>2021-09-07T08:19:40.000Z</time>
      </trkpt>
      <trkpt lat="45.59552" lon="2.84821">
        <ele>1453.3</ele>
        <time>2021-09-07T08:19:46.000Z</time>
      </trkpt>
      <trkpt lat="45.59554" lon="2.84831">
        <ele>1451.5</ele>
        <time>2021-09-07T08:19:54.000Z</time>
      </trkpt>
      <trkpt lat="45.59556" lon="2.84841">
        <ele>1449.5</ele>
        <time>2021-09-07T08:20:01.000Z</time>
      </trkpt>
      <trkpt lat="45.59561" lon="2.84849">
        <ele>1446.6</ele>
        <time>2021-09-07T08:20:07.000Z</time>
      </trkpt>
      <trkpt lat="45.59565" lon="2.84856">
        <ele>1444.2</ele>
        <time>2021-09-07T08:20:15.000Z</time>
      </trkpt>
      <trkpt lat="45.59569" lon="2.84864">
        <ele>1441.8</ele>
        <time>2021-09-07T08:20:22.000Z</time>
      </trkpt>
      <trkpt lat="45.59572" lon="2.84873">
        <ele>1439.7</ele>
        <time>2021-09-07T08:20:30.000Z</time>
      </trkpt>
      <trkpt lat="45.59577" lon="2.8488">
        <ele>1437.1</ele>
        <time>2021-09-07T08:20:37.000Z</time>
      </trkpt>
      <trkpt lat="45.5958" lon="2.84889">
        <ele>1435.1</ele>
        <time>2021-09-07T08:20:44.000Z</time>
      </trkpt>
      <trkpt lat="45.59582" lon="2.84899">
        <ele>1433.3</ele>
        <time>2021-09-07T08:20:58.000Z</time>
      </trkpt>
      <trkpt lat="45.59587" lon="2.84907">
        <ele>1431.1</ele>
        <time>2021-09-07T08:21:05.000Z</time>
      </trkpt>
      <trkpt lat="45.59593" lon="2.84913">
        <ele>1429</ele>
        <time>2021-09-07T08:21:13.000Z</time>
      </trkpt>
      <trkpt lat="45.59599" lon="2.8492">
        <ele>1426.3</ele>
        <time>2021-09-07T08:21:19.000Z</time>
      </trkpt>
      <trkpt lat="45.59604" lon="2.84925">
        <ele>1424</ele>
        <time>2021-09-07T08:21:25.000Z</time>
      </trkpt>
      <trkpt lat="45.59611" lon="2.84932">
        <ele>1421</ele>
        <time>2021-09-07T08:21:31.000Z</time>
      </trkpt>
      <trkpt lat="45.59616" lon="2.84937">
        <ele>1418.8</ele>
        <time>2021-09-07T08:21:36.000Z</time>
      </trkpt>
      <trkpt lat="45.59622" lon="2.84943">
        <ele>1416.4</ele>
        <time>2021-09-07T08:21:42.000Z</time>
      </trkpt>
      <trkpt lat="45.59627" lon="2.8495">
        <ele>1414.1</ele>
        <time>2021-09-07T08:21:47.000Z</time>
      </trkpt>
      <trkpt lat="45.59632" lon="2.84957">
        <ele>1411.9</ele>
        <time>2021-09-07T08:21:53.000Z</time>
      </trkpt>
      <trkpt lat="45.59638" lon="2.84963">
        <ele>1409.8</ele>
        <time>2021-09-07T08:21:58.000Z</time>
      </trkpt>
      <trkpt lat="45.59642" lon="2.84972">
        <ele>1407.6</ele>
        <time>2021-09-07T08:22:03.000Z</time>
      </trkpt>
      <trkpt lat="45.59648" lon="2.8498">
        <ele>1405.4</ele>
        <time>2021-09-07T08:22:09.000Z</time>
      </trkpt>
      <trkpt lat="45.59653" lon="2.84988">
        <ele>1403.5</ele>
        <time>2021-09-07T08:22:15.000Z</time>
      </trkpt>
      <trkpt lat="45.59657" lon="2.84996">
        <ele>1401.8</ele>
        <time>2021-09-07T08:22:21.000Z</time>
      </trkpt>
      <trkpt lat="45.59662" lon="2.85005">
        <ele>1400.2</ele>
        <time>2021-09-07T08:22:27.000Z</time>
      </trkpt>
      <trkpt lat="45.59666" lon="2.85012">
        <ele>1399.2</ele>
        <time>2021-09-07T08:22:34.000Z</time>
      </trkpt>
      <trkpt lat="45.59665" lon="2.85022">
        <ele>1398.6</ele>
        <time>2021-09-07T08:22:52.000Z</time>
      </trkpt>
      <trkpt lat="45.59666" lon="2.85031">
        <ele>1397.8</ele>
        <time>2021-09-07T08:22:58.000Z</time>
      </trkpt>
      <trkpt lat="45.59668" lon="2.85042">
        <ele>1397</ele>
        <time>2021-09-07T08:23:04.000Z</time>
      </trkpt>
      <trkpt lat="45.59669" lon="2.85051">
        <ele>1396.4</ele>
        <time>2021-09-07T08:23:10.000Z</time>
      </trkpt>
      <trkpt lat="45.59671" lon="2.85061">
        <ele>1395.8</ele>
        <time>2021-09-07T08:23:16.000Z</time>
      </trkpt>
      <trkpt lat="45.59673" lon="2.85071">
        <ele>1395.3</ele>
        <time>2021-09-07T08:23:21.000Z</time>
      </trkpt>
      <trkpt lat="45.59677" lon="2.85081">
        <ele>1394.9</ele>
        <time>2021-09-07T08:23:27.000Z</time>
      </trkpt>
      <trkpt lat="45.59679" lon="2.85092">
        <ele>1394.8</ele>
        <time>2021-09-07T08:23:33.000Z</time>
      </trkpt>
      <trkpt lat="45.59682" lon="2.85103">
        <ele>1395</ele>
        <time>2021-09-07T08:23:39.000Z</time>
      </trkpt>
      <trkpt lat="45.59684" lon="2.85113">
        <ele>1395</ele>
        <time>2021-09-07T08:23:45.000Z</time>
      </trkpt>
      <trkpt lat="45.59681" lon="2.85122">
        <ele>1394.7</ele>
        <time>2021-09-07T08:23:53.000Z</time>
      </trkpt>
      <trkpt lat="45.5968" lon="2.85133">
        <ele>1394.6</ele>
        <time>2021-09-07T08:24:01.000Z</time>
      </trkpt>
      <trkpt lat="45.59677" lon="2.85142">
        <ele>1394.2</ele>
        <time>2021-09-07T08:24:06.000Z</time>
      </trkpt>
      <trkpt lat="45.59674" lon="2.85151">
        <ele>1393.9</ele>
        <time>2021-09-07T08:24:22.000Z</time>
      </trkpt>
      <trkpt lat="45.59681" lon="2.85156">
        <ele>1394.5</ele>
        <time>2021-09-07T08:25:53.000Z</time>
      </trkpt>
      <trkpt lat="45.59676" lon="2.85163">
        <ele>1393.9</ele>
        <time>2021-09-07T08:29:54.000Z</time>
      </trkpt>
      <trkpt lat="45.5968" lon="2.8515">
        <ele>1394.4</ele>
        <time>2021-09-07T08:29:59.000Z</time>
      </trkpt>
      <trkpt lat="45.59687" lon="2.8515">
        <ele>1395.1</ele>
        <time>2021-09-07T08:30:13.000Z</time>
      </trkpt>
      <trkpt lat="45.59682" lon="2.85143">
        <ele>1394.7</ele>
        <time>2021-09-07T08:30:21.000Z</time>
      </trkpt>
      <trkpt lat="45.59678" lon="2.8515">
        <ele>1394.2</ele>
        <time>2021-09-07T08:30:27.000Z</time>
      </trkpt>
      <trkpt lat="45.59684" lon="2.85156">
        <ele>1394.7</ele>
        <time>2021-09-07T08:31:05.000Z</time>
      </trkpt>
      <trkpt lat="45.59686" lon="2.85167">
        <ele>1394.9</ele>
        <time>2021-09-07T08:32:04.000Z</time>
      </trkpt>
      <trkpt lat="45.59683" lon="2.85155">
        <ele>1394.7</ele>
        <time>2021-09-07T08:33:26.000Z</time>
      </trkpt>
      <trkpt lat="45.59684" lon="2.85165">
        <ele>1394.7</ele>
        <time>2021-09-07T08:33:40.000Z</time>
      </trkpt>
      <trkpt lat="45.59688" lon="2.85156">
        <ele>1395.1</ele>
        <time>2021-09-07T08:34:04.000Z</time>
      </trkpt>
      <trkpt lat="45.59686" lon="2.85147">
        <ele>1395</ele>
        <time>2021-09-07T08:34:11.000Z</time>
      </trkpt>
      <trkpt lat="45.59691" lon="2.8514">
        <ele>1395.5</ele>
        <time>2021-09-07T08:36:32.000Z</time>
      </trkpt>
      <trkpt lat="45.59696" lon="2.85133">
        <ele>1395.9</ele>
        <time>2021-09-07T08:36:38.000Z</time>
      </trkpt>
      <trkpt lat="45.59701" lon="2.85124">
        <ele>1396.4</ele>
        <time>2021-09-07T08:36:43.000Z</time>
      </trkpt>
      <trkpt lat="45.59704" lon="2.85115">
        <ele>1396.6</ele>
        <time>2021-09-07T08:36:48.000Z</time>
      </trkpt>
      <trkpt lat="45.59707" lon="2.85106">
        <ele>1396.9</ele>
        <time>2021-09-07T08:36:53.000Z</time>
      </trkpt>
      <trkpt lat="45.59711" lon="2.85097">
        <ele>1397.2</ele>
        <time>2021-09-07T08:36:58.000Z</time>
      </trkpt>
      <trkpt lat="45.59713" lon="2.85087">
        <ele>1397.3</ele>
        <time>2021-09-07T08:37:04.000Z</time>
      </trkpt>
      <trkpt lat="45.59717" lon="2.85075">
        <ele>1397.8</ele>
        <time>2021-09-07T08:37:09.000Z</time>
      </trkpt>
      <trkpt lat="45.59721" lon="2.85064">
        <ele>1398.2</ele>
        <time>2021-09-07T08:37:15.000Z</time>
      </trkpt>
      <trkpt lat="45.59726" lon="2.85055">
        <ele>1398.6</ele>
        <time>2021-09-07T08:37:21.000Z</time>
      </trkpt>
      <trkpt lat="45.5973" lon="2.85044">
        <ele>1398.9</ele>
        <time>2021-09-07T08:37:27.000Z</time>
      </trkpt>
      <trkpt lat="45.59735" lon="2.85035">
        <ele>1399.1</ele>
        <time>2021-09-07T08:37:33.000Z</time>
      </trkpt>
      <trkpt lat="45.59738" lon="2.85024">
        <ele>1399.1</ele>
        <time>2021-09-07T08:37:39.000Z</time>
      </trkpt>
      <trkpt lat="45.59743" lon="2.85015">
        <ele>1399.2</ele>
        <time>2021-09-07T08:37:45.000Z</time>
      </trkpt>
      <trkpt lat="45.59747" lon="2.85005">
        <ele>1399.1</ele>
        <time>2021-09-07T08:37:51.000Z</time>
      </trkpt>
      <trkpt lat="45.59751" lon="2.84993">
        <ele>1399</ele>
        <time>2021-09-07T08:37:57.000Z</time>
      </trkpt>
      <trkpt lat="45.59755" lon="2.84982">
        <ele>1398.9</ele>
        <time>2021-09-07T08:38:03.000Z</time>
      </trkpt>
      <trkpt lat="45.59759" lon="2.84971">
        <ele>1398.7</ele>
        <time>2021-09-07T08:38:09.000Z</time>
      </trkpt>
      <trkpt lat="45.59764" lon="2.8496">
        <ele>1398.3</ele>
        <time>2021-09-07T08:38:15.000Z</time>
      </trkpt>
      <trkpt lat="45.59768" lon="2.84949">
        <ele>1398</ele>
        <time>2021-09-07T08:38:21.000Z</time>
      </trkpt>
      <trkpt lat="45.59773" lon="2.8494">
        <ele>1397.5</ele>
        <time>2021-09-07T08:38:27.000Z</time>
      </trkpt>
      <trkpt lat="45.59775" lon="2.84929">
        <ele>1397.3</ele>
        <time>2021-09-07T08:38:33.000Z</time>
      </trkpt>
      <trkpt lat="45.59779" lon="2.8492">
        <ele>1396.9</ele>
        <time>2021-09-07T08:38:39.000Z</time>
      </trkpt>
      <trkpt lat="45.59783" lon="2.84909">
        <ele>1396.4</ele>
        <time>2021-09-07T08:38:45.000Z</time>
      </trkpt>
      <trkpt lat="45.59788" lon="2.84898">
        <ele>1395.8</ele>
        <time>2021-09-07T08:38:51.000Z</time>
      </trkpt>
      <trkpt lat="45.59793" lon="2.84888">
        <ele>1395.2</ele>
        <time>2021-09-07T08:38:57.000Z</time>
      </trkpt>
      <trkpt lat="45.59798" lon="2.84876">
        <ele>1394.5</ele>
        <time>2021-09-07T08:39:03.000Z</time>
      </trkpt>
      <trkpt lat="45.59802" lon="2.84865">
        <ele>1393.8</ele>
        <time>2021-09-07T08:39:09.000Z</time>
      </trkpt>
      <trkpt lat="45.59806" lon="2.84855">
        <ele>1393.2</ele>
        <time>2021-09-07T08:39:15.000Z</time>
      </trkpt>
      <trkpt lat="45.59811" lon="2.84845">
        <ele>1392.4</ele>
        <time>2021-09-07T08:39:21.000Z</time>
      </trkpt>
      <trkpt lat="45.59815" lon="2.84834">
        <ele>1391.7</ele>
        <time>2021-09-07T08:39:27.000Z</time>
      </trkpt>
      <trkpt lat="45.59819" lon="2.84823">
        <ele>1391.1</ele>
        <time>2021-09-07T08:39:33.000Z</time>
      </trkpt>
      <trkpt lat="45.59823" lon="2.84811">
        <ele>1390.6</ele>
        <time>2021-09-07T08:39:39.000Z</time>
      </trkpt>
      <trkpt lat="45.59828" lon="2.84801">
        <ele>1389.9</ele>
        <time>2021-09-07T08:39:45.000Z</time>
      </trkpt>
      <trkpt lat="45.59832" lon="2.8479">
        <ele>1389.2</ele>
        <time>2021-09-07T08:39:51.000Z</time>
      </trkpt>
      <trkpt lat="45.59836" lon="2.8478">
        <ele>1388.7</ele>
        <time>2021-09-07T08:39:57.000Z</time>
      </trkpt>
      <trkpt lat="45.59841" lon="2.8477">
        <ele>1388.1</ele>
        <time>2021-09-07T08:40:03.000Z</time>
      </trkpt>
      <trkpt lat="45.59844" lon="2.84759">
        <ele>1387.7</ele>
        <time>2021-09-07T08:40:09.000Z</time>
      </trkpt>
      <trkpt lat="45.59847" lon="2.84749">
        <ele>1387.2</ele>
        <time>2021-09-07T08:40:15.000Z</time>
      </trkpt>
      <trkpt lat="45.59853" lon="2.8474">
        <ele>1386.5</ele>
        <time>2021-09-07T08:40:21.000Z</time>
      </trkpt>
      <trkpt lat="45.59857" lon="2.84729">
        <ele>1386</ele>
        <time>2021-09-07T08:40:27.000Z</time>
      </trkpt>
      <trkpt lat="45.5986" lon="2.84717">
        <ele>1385.6</ele>
        <time>2021-09-07T08:40:33.000Z</time>
      </trkpt>
      <trkpt lat="45.59865" lon="2.84707">
        <ele>1384.9</ele>
        <time>2021-09-07T08:40:39.000Z</time>
      </trkpt>
      <trkpt lat="45.59869" lon="2.84697">
        <ele>1384.4</ele>
        <time>2021-09-07T08:40:45.000Z</time>
      </trkpt>
      <trkpt lat="45.59873" lon="2.84685">
        <ele>1383.8</ele>
        <time>2021-09-07T08:40:51.000Z</time>
      </trkpt>
      <trkpt lat="45.59876" lon="2.84677">
        <ele>1383.3</ele>
        <time>2021-09-07T08:40:57.000Z</time>
      </trkpt>
      <trkpt lat="45.59881" lon="2.84665">
        <ele>1382.6</ele>
        <time>2021-09-07T08:41:03.000Z</time>
      </trkpt>
      <trkpt lat="45.59884" lon="2.84655">
        <ele>1382.2</ele>
        <time>2021-09-07T08:41:09.000Z</time>
      </trkpt>
      <trkpt lat="45.59889" lon="2.84644">
        <ele>1381.5</ele>
        <time>2021-09-07T08:41:15.000Z</time>
      </trkpt>
      <trkpt lat="45.59892" lon="2.84633">
        <ele>1381.1</ele>
        <time>2021-09-07T08:41:21.000Z</time>
      </trkpt>
      <trkpt lat="45.59896" lon="2.84622">
        <ele>1380.6</ele>
        <time>2021-09-07T08:41:27.000Z</time>
      </trkpt>
      <trkpt lat="45.59902" lon="2.84611">
        <ele>1379.8</ele>
        <time>2021-09-07T08:41:33.000Z</time>
      </trkpt>
      <trkpt lat="45.59905" lon="2.84601">
        <ele>1379.5</ele>
        <time>2021-09-07T08:41:39.000Z</time>
      </trkpt>
      <trkpt lat="45.5991" lon="2.8459">
        <ele>1378.9</ele>
        <time>2021-09-07T08:41:45.000Z</time>
      </trkpt>
      <trkpt lat="45.59914" lon="2.84579">
        <ele>1378.5</ele>
        <time>2021-09-07T08:41:51.000Z</time>
      </trkpt>
      <trkpt lat="45.59917" lon="2.84568">
        <ele>1378.5</ele>
        <time>2021-09-07T08:41:57.000Z</time>
      </trkpt>
      <trkpt lat="45.59922" lon="2.84558">
        <ele>1378.2</ele>
        <time>2021-09-07T08:42:03.000Z</time>
      </trkpt>
      <trkpt lat="45.59926" lon="2.84547">
        <ele>1377.9</ele>
        <time>2021-09-07T08:42:09.000Z</time>
      </trkpt>
      <trkpt lat="45.5993" lon="2.84537">
        <ele>1377.6</ele>
        <time>2021-09-07T08:42:15.000Z</time>
      </trkpt>
      <trkpt lat="45.59935" lon="2.84527">
        <ele>1377.1</ele>
        <time>2021-09-07T08:42:21.000Z</time>
      </trkpt>
      <trkpt lat="45.5994" lon="2.84515">
        <ele>1376.5</ele>
        <time>2021-09-07T08:42:27.000Z</time>
      </trkpt>
      <trkpt lat="45.59943" lon="2.84506">
        <ele>1376.2</ele>
        <time>2021-09-07T08:42:33.000Z</time>
      </trkpt>
      <trkpt lat="45.5995" lon="2.84501">
        <ele>1375</ele>
        <time>2021-09-07T08:42:39.000Z</time>
      </trkpt>
      <trkpt lat="45.59954" lon="2.8451">
        <ele>1374.2</ele>
        <time>2021-09-07T08:42:45.000Z</time>
      </trkpt>
      <trkpt lat="45.59956" lon="2.84519">
        <ele>1373.8</ele>
        <time>2021-09-07T08:42:51.000Z</time>
      </trkpt>
      <trkpt lat="45.59958" lon="2.84528">
        <ele>1373.4</ele>
        <time>2021-09-07T08:44:12.000Z</time>
      </trkpt>
      <trkpt lat="45.59964" lon="2.84532">
        <ele>1372.4</ele>
        <time>2021-09-07T08:44:37.000Z</time>
      </trkpt>
      <trkpt lat="45.5997" lon="2.84526">
        <ele>1371.5</ele>
        <time>2021-09-07T08:44:43.000Z</time>
      </trkpt>
      <trkpt lat="45.59975" lon="2.8452">
        <ele>1370.6</ele>
        <time>2021-09-07T08:45:08.000Z</time>
      </trkpt>
      <trkpt lat="45.59981" lon="2.84514">
        <ele>1369.6</ele>
        <time>2021-09-07T08:45:13.000Z</time>
      </trkpt>
      <trkpt lat="45.59986" lon="2.84508">
        <ele>1368.6</ele>
        <time>2021-09-07T08:45:18.000Z</time>
      </trkpt>
      <trkpt lat="45.59991" lon="2.845">
        <ele>1367.6</ele>
        <time>2021-09-07T08:45:23.000Z</time>
      </trkpt>
      <trkpt lat="45.59996" lon="2.84494">
        <ele>1367</ele>
        <time>2021-09-07T08:45:28.000Z</time>
      </trkpt>
      <trkpt lat="45.6" lon="2.84487">
        <ele>1366.6</ele>
        <time>2021-09-07T08:45:33.000Z</time>
      </trkpt>
      <trkpt lat="45.60005" lon="2.84478">
        <ele>1366.3</ele>
        <time>2021-09-07T08:45:39.000Z</time>
      </trkpt>
      <trkpt lat="45.6001" lon="2.84471">
        <ele>1365.9</ele>
        <time>2021-09-07T08:45:45.000Z</time>
      </trkpt>
      <trkpt lat="45.60014" lon="2.84463">
        <ele>1365.6</ele>
        <time>2021-09-07T08:45:51.000Z</time>
      </trkpt>
      <trkpt lat="45.6002" lon="2.84456">
        <ele>1364.8</ele>
        <time>2021-09-07T08:45:57.000Z</time>
      </trkpt>
      <trkpt lat="45.60025" lon="2.84449">
        <ele>1364.2</ele>
        <time>2021-09-07T08:46:03.000Z</time>
      </trkpt>
      <trkpt lat="45.60028" lon="2.84439">
        <ele>1364</ele>
        <time>2021-09-07T08:46:09.000Z</time>
      </trkpt>
      <trkpt lat="45.6003" lon="2.84429">
        <ele>1363.9</ele>
        <time>2021-09-07T08:46:15.000Z</time>
      </trkpt>
      <trkpt lat="45.60034" lon="2.84422">
        <ele>1363.3</ele>
        <time>2021-09-07T08:46:50.000Z</time>
      </trkpt>
      <trkpt lat="45.60038" lon="2.84413">
        <ele>1362.7</ele>
        <time>2021-09-07T08:47:03.000Z</time>
      </trkpt>
      <trkpt lat="45.6004" lon="2.84403">
        <ele>1362.3</ele>
        <time>2021-09-07T08:47:10.000Z</time>
      </trkpt>
      <trkpt lat="45.60045" lon="2.84397">
        <ele>1361.4</ele>
        <time>2021-09-07T08:47:15.000Z</time>
      </trkpt>
      <trkpt lat="45.60052" lon="2.84389">
        <ele>1360</ele>
        <time>2021-09-07T08:47:21.000Z</time>
      </trkpt>
      <trkpt lat="45.60057" lon="2.8438">
        <ele>1359.1</ele>
        <time>2021-09-07T08:47:27.000Z</time>
      </trkpt>
      <trkpt lat="45.60058" lon="2.84371">
        <ele>1358.9</ele>
        <time>2021-09-07T08:47:33.000Z</time>
      </trkpt>
      <trkpt lat="45.60059" lon="2.84361">
        <ele>1358.7</ele>
        <time>2021-09-07T08:47:40.000Z</time>
      </trkpt>
      <trkpt lat="45.6006" lon="2.84351">
        <ele>1358.5</ele>
        <time>2021-09-07T08:48:32.000Z</time>
      </trkpt>
      <trkpt lat="45.6006" lon="2.84341">
        <ele>1358.5</ele>
        <time>2021-09-07T08:48:38.000Z</time>
      </trkpt>
      <trkpt lat="45.60059" lon="2.84331">
        <ele>1358.7</ele>
        <time>2021-09-07T08:48:46.000Z</time>
      </trkpt>
      <trkpt lat="45.60059" lon="2.8432">
        <ele>1358.7</ele>
        <time>2021-09-07T08:48:54.000Z</time>
      </trkpt>
      <trkpt lat="45.60057" lon="2.8431">
        <ele>1359.1</ele>
        <time>2021-09-07T08:49:00.000Z</time>
      </trkpt>
      <trkpt lat="45.60053" lon="2.84301">
        <ele>1360</ele>
        <time>2021-09-07T08:49:06.000Z</time>
      </trkpt>
      <trkpt lat="45.60047" lon="2.84295">
        <ele>1361.2</ele>
        <time>2021-09-07T08:49:15.000Z</time>
      </trkpt>
      <trkpt lat="45.60048" lon="2.84285">
        <ele>1361</ele>
        <time>2021-09-07T08:49:24.000Z</time>
      </trkpt>
      <trkpt lat="45.60052" lon="2.84277">
        <ele>1360.3</ele>
        <time>2021-09-07T08:49:40.000Z</time>
      </trkpt>
      <trkpt lat="45.60058" lon="2.84273">
        <ele>1359.1</ele>
        <time>2021-09-07T08:49:48.000Z</time>
      </trkpt>
      <trkpt lat="45.60064" lon="2.84267">
        <ele>1357.9</ele>
        <time>2021-09-07T08:49:58.000Z</time>
      </trkpt>
      <trkpt lat="45.60069" lon="2.8426">
        <ele>1356.9</ele>
        <time>2021-09-07T08:50:04.000Z</time>
      </trkpt>
      <trkpt lat="45.60075" lon="2.84253">
        <ele>1355.7</ele>
        <time>2021-09-07T08:50:10.000Z</time>
      </trkpt>
      <trkpt lat="45.60081" lon="2.84245">
        <ele>1354.4</ele>
        <time>2021-09-07T08:50:16.000Z</time>
      </trkpt>
      <trkpt lat="45.60083" lon="2.84236">
        <ele>1353.9</ele>
        <time>2021-09-07T08:50:24.000Z</time>
      </trkpt>
      <trkpt lat="45.60086" lon="2.84227">
        <ele>1353.1</ele>
        <time>2021-09-07T08:50:31.000Z</time>
      </trkpt>
      <trkpt lat="45.60087" lon="2.84218">
        <ele>1352.7</ele>
        <time>2021-09-07T08:50:39.000Z</time>
      </trkpt>
      <trkpt lat="45.60084" lon="2.84209">
        <ele>1353.3</ele>
        <time>2021-09-07T08:50:46.000Z</time>
      </trkpt>
      <trkpt lat="45.60086" lon="2.84198">
        <ele>1352.7</ele>
        <time>2021-09-07T08:50:53.000Z</time>
      </trkpt>
      <trkpt lat="45.60089" lon="2.84188">
        <ele>1351.8</ele>
        <time>2021-09-07T08:50:59.000Z</time>
      </trkpt>
      <trkpt lat="45.60089" lon="2.84178">
        <ele>1351.6</ele>
        <time>2021-09-07T08:51:05.000Z</time>
      </trkpt>
      <trkpt lat="45.60091" lon="2.8416">
        <ele>1350.4</ele>
        <time>2021-09-07T08:51:31.000Z</time>
      </trkpt>
      <trkpt lat="45.60088" lon="2.8415">
        <ele>1350.5</ele>
        <time>2021-09-07T08:51:37.000Z</time>
      </trkpt>
      <trkpt lat="45.60088" lon="2.84139">
        <ele>1349.7</ele>
        <time>2021-09-07T08:51:45.000Z</time>
      </trkpt>
      <trkpt lat="45.60086" lon="2.8413">
        <ele>1349.6</ele>
        <time>2021-09-07T08:51:52.000Z</time>
      </trkpt>
      <trkpt lat="45.60086" lon="2.84119">
        <ele>1348.9</ele>
        <time>2021-09-07T08:51:59.000Z</time>
      </trkpt>
      <trkpt lat="45.60088" lon="2.84109">
        <ele>1347.6</ele>
        <time>2021-09-07T08:52:05.000Z</time>
      </trkpt>
      <trkpt lat="45.60091" lon="2.841">
        <ele>1346.2</ele>
        <time>2021-09-07T08:52:10.000Z</time>
      </trkpt>
      <trkpt lat="45.60094" lon="2.84092">
        <ele>1344.8</ele>
        <time>2021-09-07T08:52:17.000Z</time>
      </trkpt>
      <trkpt lat="45.60096" lon="2.84083">
        <ele>1343.6</ele>
        <time>2021-09-07T08:52:24.000Z</time>
      </trkpt>
      <trkpt lat="45.60096" lon="2.84073">
        <ele>1342.7</ele>
        <time>2021-09-07T08:52:30.000Z</time>
      </trkpt>
      <trkpt lat="45.60093" lon="2.84063">
        <ele>1342.5</ele>
        <time>2021-09-07T08:52:34.000Z</time>
      </trkpt>
      <trkpt lat="45.60093" lon="2.84053">
        <ele>1341.6</ele>
        <time>2021-09-07T08:52:51.000Z</time>
      </trkpt>
      <trkpt lat="45.60093" lon="2.84041">
        <ele>1340.4</ele>
        <time>2021-09-07T08:52:57.000Z</time>
      </trkpt>
      <trkpt lat="45.60091" lon="2.84029">
        <ele>1339.8</ele>
        <time>2021-09-07T08:53:03.000Z</time>
      </trkpt>
      <trkpt lat="45.60086" lon="2.84019">
        <ele>1340.1</ele>
        <time>2021-09-07T08:53:27.000Z</time>
      </trkpt>
      <trkpt lat="45.60082" lon="2.84005">
        <ele>1339.9</ele>
        <time>2021-09-07T08:53:33.000Z</time>
      </trkpt>
      <trkpt lat="45.60078" lon="2.83992">
        <ele>1339.5</ele>
        <time>2021-09-07T08:53:39.000Z</time>
      </trkpt>
      <trkpt lat="45.60076" lon="2.8398">
        <ele>1338.3</ele>
        <time>2021-09-07T08:53:45.000Z</time>
      </trkpt>
      <trkpt lat="45.60071" lon="2.8397">
        <ele>1338.3</ele>
        <time>2021-09-07T08:54:08.000Z</time>
      </trkpt>
      <trkpt lat="45.60067" lon="2.83961">
        <ele>1338.1</ele>
        <time>2021-09-07T08:54:14.000Z</time>
      </trkpt>
      <trkpt lat="45.60064" lon="2.83952">
        <ele>1337.6</ele>
        <time>2021-09-07T08:54:22.000Z</time>
      </trkpt>
      <trkpt lat="45.60064" lon="2.83942">
        <ele>1336</ele>
        <time>2021-09-07T08:54:30.000Z</time>
      </trkpt>
      <trkpt lat="45.60065" lon="2.83932">
        <ele>1334</ele>
        <time>2021-09-07T08:54:37.000Z</time>
      </trkpt>
      <trkpt lat="45.60066" lon="2.83922">
        <ele>1332.1</ele>
        <time>2021-09-07T08:54:45.000Z</time>
      </trkpt>
      <trkpt lat="45.6007" lon="2.83914">
        <ele>1329.6</ele>
        <time>2021-09-07T08:54:53.000Z</time>
      </trkpt>
      <trkpt lat="45.60069" lon="2.83904">
        <ele>1328.6</ele>
        <time>2021-09-07T08:55:01.000Z</time>
      </trkpt>
      <trkpt lat="45.60071" lon="2.83896">
        <ele>1326.9</ele>
        <time>2021-09-07T08:55:07.000Z</time>
      </trkpt>
      <trkpt lat="45.60068" lon="2.83886">
        <ele>1326.4</ele>
        <time>2021-09-07T08:55:12.000Z</time>
      </trkpt>
      <trkpt lat="45.60066" lon="2.83877">
        <ele>1325.6</ele>
        <time>2021-09-07T08:55:17.000Z</time>
      </trkpt>
      <trkpt lat="45.60063" lon="2.83868">
        <ele>1325.1</ele>
        <time>2021-09-07T08:55:22.000Z</time>
      </trkpt>
      <trkpt lat="45.60059" lon="2.83857">
        <ele>1324.5</ele>
        <time>2021-09-07T08:55:27.000Z</time>
      </trkpt>
      <trkpt lat="45.60059" lon="2.83847">
        <ele>1323</ele>
        <time>2021-09-07T08:55:33.000Z</time>
      </trkpt>
      <trkpt lat="45.60056" lon="2.83839">
        <ele>1322.4</ele>
        <time>2021-09-07T08:55:41.000Z</time>
      </trkpt>
      <trkpt lat="45.60053" lon="2.8383">
        <ele>1321.8</ele>
        <time>2021-09-07T08:55:46.000Z</time>
      </trkpt>
      <trkpt lat="45.60051" lon="2.83821">
        <ele>1321.1</ele>
        <time>2021-09-07T08:55:51.000Z</time>
      </trkpt>
      <trkpt lat="45.6005" lon="2.8381">
        <ele>1319.9</ele>
        <time>2021-09-07T08:55:59.000Z</time>
      </trkpt>
      <trkpt lat="45.60048" lon="2.83801">
        <ele>1319.2</ele>
        <time>2021-09-07T08:56:05.000Z</time>
      </trkpt>
      <trkpt lat="45.60051" lon="2.83792">
        <ele>1317.4</ele>
        <time>2021-09-07T08:56:12.000Z</time>
      </trkpt>
      <trkpt lat="45.60052" lon="2.83782">
        <ele>1316</ele>
        <time>2021-09-07T08:56:20.000Z</time>
      </trkpt>
      <trkpt lat="45.60045" lon="2.83768">
        <ele>1315.6</ele>
        <time>2021-09-07T08:57:48.000Z</time>
      </trkpt>
      <trkpt lat="45.6005" lon="2.83762">
        <ele>1313.9</ele>
        <time>2021-09-07T08:59:25.000Z</time>
      </trkpt>
      <trkpt lat="45.60043" lon="2.83762">
        <ele>1315.3</ele>
        <time>2021-09-07T09:00:57.000Z</time>
      </trkpt>
      <trkpt lat="45.60037" lon="2.83763">
        <ele>1316.5</ele>
        <time>2021-09-07T09:02:12.000Z</time>
      </trkpt>
      <trkpt lat="45.60042" lon="2.83769">
        <ele>1316.3</ele>
        <time>2021-09-07T09:02:21.000Z</time>
      </trkpt>
      <trkpt lat="45.60059" lon="2.83786">
        <ele>1315.1</ele>
        <time>2021-09-07T09:02:27.000Z</time>
      </trkpt>
      <trkpt lat="45.60051" lon="2.83772">
        <ele>1315</ele>
        <time>2021-09-07T09:02:33.000Z</time>
      </trkpt>
      <trkpt lat="45.60047" lon="2.83758">
        <ele>1314</ele>
        <time>2021-09-07T09:02:39.000Z</time>
      </trkpt>
      <trkpt lat="45.60045" lon="2.83748">
        <ele>1313.1</ele>
        <time>2021-09-07T09:02:45.000Z</time>
      </trkpt>
      <trkpt lat="45.60043" lon="2.83738">
        <ele>1312.5</ele>
        <time>2021-09-07T09:02:53.000Z</time>
      </trkpt>
      <trkpt lat="45.60038" lon="2.83731">
        <ele>1312.6</ele>
        <time>2021-09-07T09:02:58.000Z</time>
      </trkpt>
      <trkpt lat="45.60034" lon="2.83723">
        <ele>1312.5</ele>
        <time>2021-09-07T09:03:06.000Z</time>
      </trkpt>
      <trkpt lat="45.60033" lon="2.83714">
        <ele>1311.7</ele>
        <time>2021-09-07T09:03:15.000Z</time>
      </trkpt>
      <trkpt lat="45.60032" lon="2.83704">
        <ele>1310.8</ele>
        <time>2021-09-07T09:03:22.000Z</time>
      </trkpt>
      <trkpt lat="45.60027" lon="2.83689">
        <ele>1310</ele>
        <time>2021-09-07T09:03:27.000Z</time>
      </trkpt>
      <trkpt lat="45.60025" lon="2.83678">
        <ele>1309.1</ele>
        <time>2021-09-07T09:03:33.000Z</time>
      </trkpt>
      <trkpt lat="45.60021" lon="2.83669">
        <ele>1308.7</ele>
        <time>2021-09-07T09:03:41.000Z</time>
      </trkpt>
      <trkpt lat="45.60017" lon="2.83662">
        <ele>1308.6</ele>
        <time>2021-09-07T09:03:48.000Z</time>
      </trkpt>
      <trkpt lat="45.60014" lon="2.83653">
        <ele>1308</ele>
        <time>2021-09-07T09:03:53.000Z</time>
      </trkpt>
      <trkpt lat="45.60012" lon="2.83643">
        <ele>1307.1</ele>
        <time>2021-09-07T09:03:58.000Z</time>
      </trkpt>
      <trkpt lat="45.60011" lon="2.83633">
        <ele>1306.1</ele>
        <time>2021-09-07T09:04:04.000Z</time>
      </trkpt>
      <trkpt lat="45.6001" lon="2.83623">
        <ele>1305.1</ele>
        <time>2021-09-07T09:04:11.000Z</time>
      </trkpt>
      <trkpt lat="45.60006" lon="2.83614">
        <ele>1304.7</ele>
        <time>2021-09-07T09:04:16.000Z</time>
      </trkpt>
      <trkpt lat="45.60004" lon="2.83605">
        <ele>1303.9</ele>
        <time>2021-09-07T09:04:21.000Z</time>
      </trkpt>
      <trkpt lat="45.6" lon="2.83593">
        <ele>1303.2</ele>
        <time>2021-09-07T09:04:27.000Z</time>
      </trkpt>
      <trkpt lat="45.59995" lon="2.83585">
        <ele>1302.7</ele>
        <time>2021-09-07T09:04:33.000Z</time>
      </trkpt>
      <trkpt lat="45.59992" lon="2.83577">
        <ele>1302</ele>
        <time>2021-09-07T09:04:39.000Z</time>
      </trkpt>
      <trkpt lat="45.59989" lon="2.83564">
        <ele>1300.5</ele>
        <time>2021-09-07T09:04:45.000Z</time>
      </trkpt>
      <trkpt lat="45.59985" lon="2.8355">
        <ele>1299</ele>
        <time>2021-09-07T09:04:51.000Z</time>
      </trkpt>
      <trkpt lat="45.59982" lon="2.8354">
        <ele>1297.9</ele>
        <time>2021-09-07T09:04:57.000Z</time>
      </trkpt>
      <trkpt lat="45.59977" lon="2.83529">
        <ele>1297</ele>
        <time>2021-09-07T09:05:03.000Z</time>
      </trkpt>
      <trkpt lat="45.59975" lon="2.8352">
        <ele>1296</ele>
        <time>2021-09-07T09:05:10.000Z</time>
      </trkpt>
      <trkpt lat="45.5997" lon="2.83513">
        <ele>1295.7</ele>
        <time>2021-09-07T09:05:16.000Z</time>
      </trkpt>
      <trkpt lat="45.59968" lon="2.83502">
        <ele>1294.5</ele>
        <time>2021-09-07T09:05:23.000Z</time>
      </trkpt>
      <trkpt lat="45.5997" lon="2.83492">
        <ele>1293.1</ele>
        <time>2021-09-07T09:05:27.000Z</time>
      </trkpt>
      <trkpt lat="45.59966" lon="2.83484">
        <ele>1292.8</ele>
        <time>2021-09-07T09:05:42.000Z</time>
      </trkpt>
      <trkpt lat="45.59959" lon="2.8348">
        <ele>1293.3</ele>
        <time>2021-09-07T09:05:47.000Z</time>
      </trkpt>
      <trkpt lat="45.59954" lon="2.83473">
        <ele>1293.1</ele>
        <time>2021-09-07T09:05:53.000Z</time>
      </trkpt>
      <trkpt lat="45.59949" lon="2.83464">
        <ele>1292.7</ele>
        <time>2021-09-07T09:05:59.000Z</time>
      </trkpt>
      <trkpt lat="45.59947" lon="2.83452">
        <ele>1291.7</ele>
        <time>2021-09-07T09:06:03.000Z</time>
      </trkpt>
      <trkpt lat="45.59944" lon="2.83433">
        <ele>1289.9</ele>
        <time>2021-09-07T09:06:09.000Z</time>
      </trkpt>
      <trkpt lat="45.59941" lon="2.83424">
        <ele>1289.2</ele>
        <time>2021-09-07T09:06:15.000Z</time>
      </trkpt>
      <trkpt lat="45.59938" lon="2.83416">
        <ele>1288.6</ele>
        <time>2021-09-07T09:06:21.000Z</time>
      </trkpt>
      <trkpt lat="45.59935" lon="2.83404">
        <ele>1287.2</ele>
        <time>2021-09-07T09:06:27.000Z</time>
      </trkpt>
      <trkpt lat="45.59932" lon="2.83392">
        <ele>1285.7</ele>
        <time>2021-09-07T09:06:33.000Z</time>
      </trkpt>
      <trkpt lat="45.59925" lon="2.83377">
        <ele>1284.3</ele>
        <time>2021-09-07T09:06:39.000Z</time>
      </trkpt>
      <trkpt lat="45.59921" lon="2.83365">
        <ele>1283.1</ele>
        <time>2021-09-07T09:06:45.000Z</time>
      </trkpt>
      <trkpt lat="45.59916" lon="2.83352">
        <ele>1281.7</ele>
        <time>2021-09-07T09:06:51.000Z</time>
      </trkpt>
      <trkpt lat="45.59911" lon="2.8334">
        <ele>1279.8</ele>
        <time>2021-09-07T09:06:57.000Z</time>
      </trkpt>
      <trkpt lat="45.59907" lon="2.83328">
        <ele>1277.9</ele>
        <time>2021-09-07T09:07:03.000Z</time>
      </trkpt>
      <trkpt lat="45.59903" lon="2.83315">
        <ele>1275.8</ele>
        <time>2021-09-07T09:07:09.000Z</time>
      </trkpt>
      <trkpt lat="45.59899" lon="2.83304">
        <ele>1274.1</ele>
        <time>2021-09-07T09:07:15.000Z</time>
      </trkpt>
      <trkpt lat="45.59895" lon="2.83293">
        <ele>1272.3</ele>
        <time>2021-09-07T09:07:21.000Z</time>
      </trkpt>
      <trkpt lat="45.59891" lon="2.83281">
        <ele>1270.3</ele>
        <time>2021-09-07T09:07:27.000Z</time>
      </trkpt>
      <trkpt lat="45.59887" lon="2.83269">
        <ele>1268.4</ele>
        <time>2021-09-07T09:07:33.000Z</time>
      </trkpt>
      <trkpt lat="45.59884" lon="2.83258">
        <ele>1266.6</ele>
        <time>2021-09-07T09:07:39.000Z</time>
      </trkpt>
      <trkpt lat="45.5988" lon="2.83249">
        <ele>1265.1</ele>
        <time>2021-09-07T09:07:45.000Z</time>
      </trkpt>
      <trkpt lat="45.59876" lon="2.83239">
        <ele>1263.7</ele>
        <time>2021-09-07T09:07:51.000Z</time>
      </trkpt>
      <trkpt lat="45.59872" lon="2.8323">
        <ele>1262.5</ele>
        <time>2021-09-07T09:07:57.000Z</time>
      </trkpt>
      <trkpt lat="45.59869" lon="2.83218">
        <ele>1260.9</ele>
        <time>2021-09-07T09:08:03.000Z</time>
      </trkpt>
      <trkpt lat="45.59866" lon="2.83208">
        <ele>1259.5</ele>
        <time>2021-09-07T09:08:09.000Z</time>
      </trkpt>
      <trkpt lat="45.59863" lon="2.83199">
        <ele>1258.3</ele>
        <time>2021-09-07T09:08:15.000Z</time>
      </trkpt>
      <trkpt lat="45.59858" lon="2.83188">
        <ele>1256.7</ele>
        <time>2021-09-07T09:08:21.000Z</time>
      </trkpt>
      <trkpt lat="45.59855" lon="2.83179">
        <ele>1255.5</ele>
        <time>2021-09-07T09:08:27.000Z</time>
      </trkpt>
      <trkpt lat="45.5985" lon="2.8317">
        <ele>1254.2</ele>
        <time>2021-09-07T09:08:33.000Z</time>
      </trkpt>
      <trkpt lat="45.59846" lon="2.83162">
        <ele>1253.2</ele>
        <time>2021-09-07T09:08:39.000Z</time>
      </trkpt>
      <trkpt lat="45.59841" lon="2.83154">
        <ele>1252.3</ele>
        <time>2021-09-07T09:08:45.000Z</time>
      </trkpt>
      <trkpt lat="45.59838" lon="2.83145">
        <ele>1251.4</ele>
        <time>2021-09-07T09:08:57.000Z</time>
      </trkpt>
      <trkpt lat="45.59834" lon="2.83138">
        <ele>1250.6</ele>
        <time>2021-09-07T09:09:11.000Z</time>
      </trkpt>
      <trkpt lat="45.59829" lon="2.83132">
        <ele>1249.6</ele>
        <time>2021-09-07T09:09:16.000Z</time>
      </trkpt>
      <trkpt lat="45.59823" lon="2.83125">
        <ele>1248.4</ele>
        <time>2021-09-07T09:09:21.000Z</time>
      </trkpt>
      <trkpt lat="45.59817" lon="2.83119">
        <ele>1247.2</ele>
        <time>2021-09-07T09:09:27.000Z</time>
      </trkpt>
      <trkpt lat="45.5981" lon="2.83113">
        <ele>1245.8</ele>
        <time>2021-09-07T09:09:33.000Z</time>
      </trkpt>
      <trkpt lat="45.59802" lon="2.83107">
        <ele>1244.3</ele>
        <time>2021-09-07T09:09:39.000Z</time>
      </trkpt>
      <trkpt lat="45.59796" lon="2.83103">
        <ele>1243.1</ele>
        <time>2021-09-07T09:10:06.000Z</time>
      </trkpt>
      <trkpt lat="45.59789" lon="2.83103">
        <ele>1242.3</ele>
        <time>2021-09-07T09:10:11.000Z</time>
      </trkpt>
      <trkpt lat="45.59781" lon="2.83104">
        <ele>1241.5</ele>
        <time>2021-09-07T09:10:16.000Z</time>
      </trkpt>
      <trkpt lat="45.59774" lon="2.83105">
        <ele>1240.7</ele>
        <time>2021-09-07T09:10:21.000Z</time>
      </trkpt>
      <trkpt lat="45.59765" lon="2.83106">
        <ele>1239.8</ele>
        <time>2021-09-07T09:10:27.000Z</time>
      </trkpt>
      <trkpt lat="45.59757" lon="2.83106">
        <ele>1238.8</ele>
        <time>2021-09-07T09:10:33.000Z</time>
      </trkpt>
      <trkpt lat="45.59749" lon="2.83105">
        <ele>1237.9</ele>
        <time>2021-09-07T09:10:39.000Z</time>
      </trkpt>
      <trkpt lat="45.59746" lon="2.83096">
        <ele>1236.7</ele>
        <time>2021-09-07T09:10:46.000Z</time>
      </trkpt>
      <trkpt lat="45.59748" lon="2.83087">
        <ele>1235.5</ele>
        <time>2021-09-07T09:10:51.000Z</time>
      </trkpt>
      <trkpt lat="45.59754" lon="2.83078">
        <ele>1235</ele>
        <time>2021-09-07T09:10:57.000Z</time>
      </trkpt>
      <trkpt lat="45.59759" lon="2.83069">
        <ele>1234.6</ele>
        <time>2021-09-07T09:11:03.000Z</time>
      </trkpt>
      <trkpt lat="45.59762" lon="2.83059">
        <ele>1234</ele>
        <time>2021-09-07T09:11:09.000Z</time>
      </trkpt>
      <trkpt lat="45.59766" lon="2.83048">
        <ele>1233.3</ele>
        <time>2021-09-07T09:11:15.000Z</time>
      </trkpt>
      <trkpt lat="45.59769" lon="2.83037">
        <ele>1232.5</ele>
        <time>2021-09-07T09:11:21.000Z</time>
      </trkpt>
      <trkpt lat="45.59774" lon="2.83025">
        <ele>1231.9</ele>
        <time>2021-09-07T09:11:27.000Z</time>
      </trkpt>
      <trkpt lat="45.59778" lon="2.83014">
        <ele>1231.2</ele>
        <time>2021-09-07T09:11:33.000Z</time>
      </trkpt>
      <trkpt lat="45.59782" lon="2.83003">
        <ele>1230.5</ele>
        <time>2021-09-07T09:11:39.000Z</time>
      </trkpt>
      <trkpt lat="45.59787" lon="2.82992">
        <ele>1230.6</ele>
        <time>2021-09-07T09:11:45.000Z</time>
      </trkpt>
      <trkpt lat="45.5979" lon="2.82983">
        <ele>1230.8</ele>
        <time>2021-09-07T09:11:51.000Z</time>
      </trkpt>
      <trkpt lat="45.5979" lon="2.8297">
        <ele>1230.4</ele>
        <time>2021-09-07T09:11:57.000Z</time>
      </trkpt>
      <trkpt lat="45.59786" lon="2.8296">
        <ele>1229.5</ele>
        <time>2021-09-07T09:12:03.000Z</time>
      </trkpt>
      <trkpt lat="45.59782" lon="2.82951">
        <ele>1228.7</ele>
        <time>2021-09-07T09:12:09.000Z</time>
      </trkpt>
      <trkpt lat="45.59777" lon="2.82941">
        <ele>1227.7</ele>
        <time>2021-09-07T09:12:15.000Z</time>
      </trkpt>
      <trkpt lat="45.59775" lon="2.82929">
        <ele>1227</ele>
        <time>2021-09-07T09:12:21.000Z</time>
      </trkpt>
      <trkpt lat="45.59773" lon="2.82918">
        <ele>1226.4</ele>
        <time>2021-09-07T09:12:27.000Z</time>
      </trkpt>
      <trkpt lat="45.59766" lon="2.82913">
        <ele>1225.3</ele>
        <time>2021-09-07T09:15:28.000Z</time>
      </trkpt>
      <trkpt lat="45.59761" lon="2.82907">
        <ele>1224.5</ele>
        <time>2021-09-07T09:15:38.000Z</time>
      </trkpt>
      <trkpt lat="45.59756" lon="2.829">
        <ele>1223.7</ele>
        <time>2021-09-07T09:15:43.000Z</time>
      </trkpt>
      <trkpt lat="45.59751" lon="2.82894">
        <ele>1222.9</ele>
        <time>2021-09-07T09:15:48.000Z</time>
      </trkpt>
      <trkpt lat="45.59747" lon="2.82886">
        <ele>1222.1</ele>
        <time>2021-09-07T09:15:54.000Z</time>
      </trkpt>
      <trkpt lat="45.59742" lon="2.8288">
        <ele>1221.2</ele>
        <time>2021-09-07T09:15:59.000Z</time>
      </trkpt>
      <trkpt lat="45.59737" lon="2.82872">
        <ele>1220.1</ele>
        <time>2021-09-07T09:16:05.000Z</time>
      </trkpt>
      <trkpt lat="45.59732" lon="2.82863">
        <ele>1218.9</ele>
        <time>2021-09-07T09:16:10.000Z</time>
      </trkpt>
      <trkpt lat="45.59728" lon="2.82855">
        <ele>1217.9</ele>
        <time>2021-09-07T09:16:15.000Z</time>
      </trkpt>
      <trkpt lat="45.59721" lon="2.82851">
        <ele>1216.4</ele>
        <time>2021-09-07T09:16:21.000Z</time>
      </trkpt>
      <trkpt lat="45.59714" lon="2.82845">
        <ele>1214.7</ele>
        <time>2021-09-07T09:16:27.000Z</time>
      </trkpt>
      <trkpt lat="45.59709" lon="2.82838">
        <ele>1213.4</ele>
        <time>2021-09-07T09:16:33.000Z</time>
      </trkpt>
      <trkpt lat="45.59704" lon="2.8283">
        <ele>1212.1</ele>
        <time>2021-09-07T09:16:40.000Z</time>
      </trkpt>
      <trkpt lat="45.59698" lon="2.82824">
        <ele>1210.9</ele>
        <time>2021-09-07T09:16:45.000Z</time>
      </trkpt>
      <trkpt lat="45.59691" lon="2.82818">
        <ele>1209.5</ele>
        <time>2021-09-07T09:16:51.000Z</time>
      </trkpt>
      <trkpt lat="45.59686" lon="2.82808">
        <ele>1208.5</ele>
        <time>2021-09-07T09:16:57.000Z</time>
      </trkpt>
      <trkpt lat="45.59678" lon="2.82801">
        <ele>1206.7</ele>
        <time>2021-09-07T09:17:03.000Z</time>
      </trkpt>
      <trkpt lat="45.59673" lon="2.8279">
        <ele>1205.5</ele>
        <time>2021-09-07T09:17:09.000Z</time>
      </trkpt>
      <trkpt lat="45.59669" lon="2.8278">
        <ele>1204.6</ele>
        <time>2021-09-07T09:17:15.000Z</time>
      </trkpt>
      <trkpt lat="45.59663" lon="2.82771">
        <ele>1203.2</ele>
        <time>2021-09-07T09:17:21.000Z</time>
      </trkpt>
      <trkpt lat="45.59657" lon="2.82763">
        <ele>1201.9</ele>
        <time>2021-09-07T09:17:27.000Z</time>
      </trkpt>
      <trkpt lat="45.5965" lon="2.82751">
        <ele>1200.2</ele>
        <time>2021-09-07T09:17:33.000Z</time>
      </trkpt>
      <trkpt lat="45.59646" lon="2.82741">
        <ele>1199.5</ele>
        <time>2021-09-07T09:17:39.000Z</time>
      </trkpt>
      <trkpt lat="45.59641" lon="2.82731">
        <ele>1198.4</ele>
        <time>2021-09-07T09:17:45.000Z</time>
      </trkpt>
      <trkpt lat="45.59637" lon="2.82716">
        <ele>1197.5</ele>
        <time>2021-09-07T09:17:51.000Z</time>
      </trkpt>
      <trkpt lat="45.59631" lon="2.82705">
        <ele>1195.8</ele>
        <time>2021-09-07T09:17:57.000Z</time>
      </trkpt>
      <trkpt lat="45.59625" lon="2.82695">
        <ele>1193.8</ele>
        <time>2021-09-07T09:18:03.000Z</time>
      </trkpt>
      <trkpt lat="45.59619" lon="2.82686">
        <ele>1191.7</ele>
        <time>2021-09-07T09:18:09.000Z</time>
      </trkpt>
      <trkpt lat="45.59615" lon="2.82674">
        <ele>1190</ele>
        <time>2021-09-07T09:18:15.000Z</time>
      </trkpt>
      <trkpt lat="45.59608" lon="2.82665">
        <ele>1187.3</ele>
        <time>2021-09-07T09:18:21.000Z</time>
      </trkpt>
      <trkpt lat="45.59605" lon="2.82654">
        <ele>1187.1</ele>
        <time>2021-09-07T09:18:27.000Z</time>
      </trkpt>
      <trkpt lat="45.596" lon="2.82644">
        <ele>1186</ele>
        <time>2021-09-07T09:18:33.000Z</time>
      </trkpt>
      <trkpt lat="45.59596" lon="2.82634">
        <ele>1185.2</ele>
        <time>2021-09-07T09:18:39.000Z</time>
      </trkpt>
      <trkpt lat="45.59593" lon="2.82622">
        <ele>1185</ele>
        <time>2021-09-07T09:18:45.000Z</time>
      </trkpt>
      <trkpt lat="45.59586" lon="2.82615">
        <ele>1182.8</ele>
        <time>2021-09-07T09:18:51.000Z</time>
      </trkpt>
      <trkpt lat="45.59578" lon="2.82609">
        <ele>1181.5</ele>
        <time>2021-09-07T09:18:57.000Z</time>
      </trkpt>
      <trkpt lat="45.59573" lon="2.82599">
        <ele>1181.2</ele>
        <time>2021-09-07T09:19:03.000Z</time>
      </trkpt>
      <trkpt lat="45.59571" lon="2.82583">
        <ele>1181.2</ele>
        <time>2021-09-07T09:19:09.000Z</time>
      </trkpt>
      <trkpt lat="45.59572" lon="2.8257">
        <ele>1183.3</ele>
        <time>2021-09-07T09:19:15.000Z</time>
      </trkpt>
      <trkpt lat="45.59569" lon="2.82561">
        <ele>1183.7</ele>
        <time>2021-09-07T09:19:23.000Z</time>
      </trkpt>
      <trkpt lat="45.59562" lon="2.82555">
        <ele>1182.5</ele>
        <time>2021-09-07T09:19:27.000Z</time>
      </trkpt>
      <trkpt lat="45.59552" lon="2.82546">
        <ele>1180.4</ele>
        <time>2021-09-07T09:19:33.000Z</time>
      </trkpt>
      <trkpt lat="45.59549" lon="2.82535">
        <ele>1180.5</ele>
        <time>2021-09-07T09:19:39.000Z</time>
      </trkpt>
      <trkpt lat="45.59546" lon="2.82526">
        <ele>1180.2</ele>
        <time>2021-09-07T09:19:46.000Z</time>
      </trkpt>
      <trkpt lat="45.59543" lon="2.82516">
        <ele>1179.9</ele>
        <time>2021-09-07T09:19:53.000Z</time>
      </trkpt>
      <trkpt lat="45.59537" lon="2.82511">
        <ele>1177.9</ele>
        <time>2021-09-07T09:19:59.000Z</time>
      </trkpt>
      <trkpt lat="45.59531" lon="2.82505">
        <ele>1175.8</ele>
        <time>2021-09-07T09:20:04.000Z</time>
      </trkpt>
      <trkpt lat="45.59526" lon="2.82497">
        <ele>1174.2</ele>
        <time>2021-09-07T09:20:11.000Z</time>
      </trkpt>
      <trkpt lat="45.59522" lon="2.82489">
        <ele>1173.3</ele>
        <time>2021-09-07T09:20:18.000Z</time>
      </trkpt>
      <trkpt lat="45.59518" lon="2.82482">
        <ele>1172.3</ele>
        <time>2021-09-07T09:20:24.000Z</time>
      </trkpt>
      <trkpt lat="45.59511" lon="2.82476">
        <ele>1169.8</ele>
        <time>2021-09-07T09:20:29.000Z</time>
      </trkpt>
      <trkpt lat="45.59504" lon="2.82472">
        <ele>1167.1</ele>
        <time>2021-09-07T09:20:34.000Z</time>
      </trkpt>
      <trkpt lat="45.59497" lon="2.82467">
        <ele>1165.6</ele>
        <time>2021-09-07T09:20:39.000Z</time>
      </trkpt>
      <trkpt lat="45.59485" lon="2.8245">
        <ele>1165.8</ele>
        <time>2021-09-07T09:20:45.000Z</time>
      </trkpt>
      <trkpt lat="45.5948" lon="2.82437">
        <ele>1165.6</ele>
        <time>2021-09-07T09:20:51.000Z</time>
      </trkpt>
      <trkpt lat="45.59477" lon="2.82423">
        <ele>1165.5</ele>
        <time>2021-09-07T09:20:57.000Z</time>
      </trkpt>
      <trkpt lat="45.59475" lon="2.82413">
        <ele>1165.4</ele>
        <time>2021-09-07T09:21:04.000Z</time>
      </trkpt>
      <trkpt lat="45.59468" lon="2.82409">
        <ele>1164.2</ele>
        <time>2021-09-07T09:21:14.000Z</time>
      </trkpt>
      <trkpt lat="45.59462" lon="2.82414">
        <ele>1162.8</ele>
        <time>2021-09-07T09:21:21.000Z</time>
      </trkpt>
      <trkpt lat="45.59455" lon="2.82418">
        <ele>1161.4</ele>
        <time>2021-09-07T09:21:27.000Z</time>
      </trkpt>
      <trkpt lat="45.59443" lon="2.82422">
        <ele>1159.5</ele>
        <time>2021-09-07T09:21:33.000Z</time>
      </trkpt>
      <trkpt lat="45.59438" lon="2.82416">
        <ele>1158.1</ele>
        <time>2021-09-07T09:21:43.000Z</time>
      </trkpt>
      <trkpt lat="45.59437" lon="2.82406">
        <ele>1157.6</ele>
        <time>2021-09-07T09:21:57.000Z</time>
      </trkpt>
      <trkpt lat="45.59435" lon="2.82397">
        <ele>1156.8</ele>
        <time>2021-09-07T09:22:03.000Z</time>
      </trkpt>
      <trkpt lat="45.59431" lon="2.8239">
        <ele>1155.5</ele>
        <time>2021-09-07T09:22:09.000Z</time>
      </trkpt>
      <trkpt lat="45.59427" lon="2.82381">
        <ele>1153.9</ele>
        <time>2021-09-07T09:22:15.000Z</time>
      </trkpt>
      <trkpt lat="45.5942" lon="2.82363">
        <ele>1150.6</ele>
        <time>2021-09-07T09:22:21.000Z</time>
      </trkpt>
      <trkpt lat="45.59412" lon="2.82351">
        <ele>1148.6</ele>
        <time>2021-09-07T09:22:27.000Z</time>
      </trkpt>
      <trkpt lat="45.59406" lon="2.82345">
        <ele>1148.2</ele>
        <time>2021-09-07T09:22:33.000Z</time>
      </trkpt>
      <trkpt lat="45.59404" lon="2.82336">
        <ele>1147.3</ele>
        <time>2021-09-07T09:22:39.000Z</time>
      </trkpt>
      <trkpt lat="45.59405" lon="2.82326">
        <ele>1147.1</ele>
        <time>2021-09-07T09:22:45.000Z</time>
      </trkpt>
      <trkpt lat="45.59404" lon="2.82315">
        <ele>1147.1</ele>
        <time>2021-09-07T09:22:51.000Z</time>
      </trkpt>
      <trkpt lat="45.59397" lon="2.82311">
        <ele>1146.8</ele>
        <time>2021-09-07T09:22:57.000Z</time>
      </trkpt>
      <trkpt lat="45.59388" lon="2.82305">
        <ele>1146.1</ele>
        <time>2021-09-07T09:23:03.000Z</time>
      </trkpt>
      <trkpt lat="45.59389" lon="2.82295">
        <ele>1145.9</ele>
        <time>2021-09-07T09:23:16.000Z</time>
      </trkpt>
      <trkpt lat="45.59388" lon="2.82285">
        <ele>1145.5</ele>
        <time>2021-09-07T09:23:27.000Z</time>
      </trkpt>
      <trkpt lat="45.59384" lon="2.82278">
        <ele>1144.8</ele>
        <time>2021-09-07T09:23:37.000Z</time>
      </trkpt>
      <trkpt lat="45.5938" lon="2.82268">
        <ele>1143.8</ele>
        <time>2021-09-07T09:23:41.000Z</time>
      </trkpt>
      <trkpt lat="45.59378" lon="2.82258">
        <ele>1143</ele>
        <time>2021-09-07T09:23:49.000Z</time>
      </trkpt>
      <trkpt lat="45.59376" lon="2.82248">
        <ele>1142.1</ele>
        <time>2021-09-07T09:23:55.000Z</time>
      </trkpt>
      <trkpt lat="45.59374" lon="2.82239">
        <ele>1141.1</ele>
        <time>2021-09-07T09:24:02.000Z</time>
      </trkpt>
      <trkpt lat="45.59373" lon="2.82228">
        <ele>1140.1</ele>
        <time>2021-09-07T09:24:07.000Z</time>
      </trkpt>
      <trkpt lat="45.59371" lon="2.82217">
        <ele>1139</ele>
        <time>2021-09-07T09:24:11.000Z</time>
      </trkpt>
      <trkpt lat="45.59369" lon="2.82206">
        <ele>1137.8</ele>
        <time>2021-09-07T09:24:17.000Z</time>
      </trkpt>
      <trkpt lat="45.59363" lon="2.82197">
        <ele>1135.7</ele>
        <time>2021-09-07T09:24:22.000Z</time>
      </trkpt>
      <trkpt lat="45.59361" lon="2.82187">
        <ele>1134.5</ele>
        <time>2021-09-07T09:24:27.000Z</time>
      </trkpt>
      <trkpt lat="45.59355" lon="2.82177">
        <ele>1132.3</ele>
        <time>2021-09-07T09:24:33.000Z</time>
      </trkpt>
      <trkpt lat="45.5935" lon="2.82167">
        <ele>1130.2</ele>
        <time>2021-09-07T09:24:39.000Z</time>
      </trkpt>
      <trkpt lat="45.59347" lon="2.82157">
        <ele>1128.7</ele>
        <time>2021-09-07T09:24:45.000Z</time>
      </trkpt>
      <trkpt lat="45.59343" lon="2.82148">
        <ele>1127</ele>
        <time>2021-09-07T09:24:51.000Z</time>
      </trkpt>
      <trkpt lat="45.5934" lon="2.8214">
        <ele>1125.5</ele>
        <time>2021-09-07T09:24:57.000Z</time>
      </trkpt>
      <trkpt lat="45.59334" lon="2.82129">
        <ele>1123</ele>
        <time>2021-09-07T09:25:03.000Z</time>
      </trkpt>
      <trkpt lat="45.59333" lon="2.8212">
        <ele>1122.1</ele>
        <time>2021-09-07T09:25:09.000Z</time>
      </trkpt>
      <trkpt lat="45.59332" lon="2.8211">
        <ele>1121.3</ele>
        <time>2021-09-07T09:25:20.000Z</time>
      </trkpt>
      <trkpt lat="45.5933" lon="2.82101">
        <ele>1120.6</ele>
        <time>2021-09-07T09:25:24.000Z</time>
      </trkpt>
      <trkpt lat="45.59325" lon="2.82093">
        <ele>1120</ele>
        <time>2021-09-07T09:25:28.000Z</time>
      </trkpt>
      <trkpt lat="45.59321" lon="2.82085">
        <ele>1119.3</ele>
        <time>2021-09-07T09:25:34.000Z</time>
      </trkpt>
      <trkpt lat="45.59322" lon="2.82075">
        <ele>1118.3</ele>
        <time>2021-09-07T09:25:40.000Z</time>
      </trkpt>
      <trkpt lat="45.59328" lon="2.82067">
        <ele>1117.5</ele>
        <time>2021-09-07T09:25:45.000Z</time>
      </trkpt>
      <trkpt lat="45.59332" lon="2.82057">
        <ele>1116.5</ele>
        <time>2021-09-07T09:25:51.000Z</time>
      </trkpt>
      <trkpt lat="45.59331" lon="2.82043">
        <ele>1115.1</ele>
        <time>2021-09-07T09:25:57.000Z</time>
      </trkpt>
      <trkpt lat="45.59325" lon="2.82036">
        <ele>1114.5</ele>
        <time>2021-09-07T09:26:03.000Z</time>
      </trkpt>
      <trkpt lat="45.5932" lon="2.82029">
        <ele>1113.8</ele>
        <time>2021-09-07T09:26:09.000Z</time>
      </trkpt>
      <trkpt lat="45.59318" lon="2.8202">
        <ele>1113</ele>
        <time>2021-09-07T09:26:15.000Z</time>
      </trkpt>
      <trkpt lat="45.59321" lon="2.82012">
        <ele>1112.2</ele>
        <time>2021-09-07T09:26:23.000Z</time>
      </trkpt>
      <trkpt lat="45.59325" lon="2.82">
        <ele>1111</ele>
        <time>2021-09-07T09:26:27.000Z</time>
      </trkpt>
      <trkpt lat="45.59323" lon="2.81986">
        <ele>1110.4</ele>
        <time>2021-09-07T09:26:33.000Z</time>
      </trkpt>
      <trkpt lat="45.59322" lon="2.81977">
        <ele>1110</ele>
        <time>2021-09-07T09:26:51.000Z</time>
      </trkpt>
      <trkpt lat="45.59325" lon="2.81967">
        <ele>1109.5</ele>
        <time>2021-09-07T09:26:59.000Z</time>
      </trkpt>
      <trkpt lat="45.59327" lon="2.81956">
        <ele>1109</ele>
        <time>2021-09-07T09:27:05.000Z</time>
      </trkpt>
      <trkpt lat="45.5933" lon="2.81946">
        <ele>1108.5</ele>
        <time>2021-09-07T09:27:10.000Z</time>
      </trkpt>
      <trkpt lat="45.59333" lon="2.81937">
        <ele>1108</ele>
        <time>2021-09-07T09:27:16.000Z</time>
      </trkpt>
      <trkpt lat="45.59332" lon="2.81927">
        <ele>1107.5</ele>
        <time>2021-09-07T09:27:23.000Z</time>
      </trkpt>
      <trkpt lat="45.59331" lon="2.81918">
        <ele>1107.1</ele>
        <time>2021-09-07T09:27:30.000Z</time>
      </trkpt>
      <trkpt lat="45.59329" lon="2.81908">
        <ele>1106.8</ele>
        <time>2021-09-07T09:27:41.000Z</time>
      </trkpt>
      <trkpt lat="45.59332" lon="2.81898">
        <ele>1106.4</ele>
        <time>2021-09-07T09:28:05.000Z</time>
      </trkpt>
      <trkpt lat="45.59339" lon="2.81901">
        <ele>1107.2</ele>
        <time>2021-09-07T09:28:12.000Z</time>
      </trkpt>
      <trkpt lat="45.59346" lon="2.81904">
        <ele>1108.4</ele>
        <time>2021-09-07T09:28:22.000Z</time>
      </trkpt>
      <trkpt lat="45.59339" lon="2.81904">
        <ele>1107.4</ele>
        <time>2021-09-07T09:28:32.000Z</time>
      </trkpt>
      <trkpt lat="45.59333" lon="2.81909">
        <ele>1106.7</ele>
        <time>2021-09-07T09:28:36.000Z</time>
      </trkpt>
      <trkpt lat="45.59331" lon="2.81917">
        <ele>1107.1</ele>
        <time>2021-09-07T09:28:46.000Z</time>
      </trkpt>
      <trkpt lat="45.59325" lon="2.81926">
        <ele>1107.6</ele>
        <time>2021-09-07T09:28:52.000Z</time>
      </trkpt>
      <trkpt lat="45.5932" lon="2.81934">
        <ele>1108.1</ele>
        <time>2021-09-07T09:28:57.000Z</time>
      </trkpt>
      <trkpt lat="45.59318" lon="2.81943">
        <ele>1108.5</ele>
        <time>2021-09-07T09:29:03.000Z</time>
      </trkpt>
      <trkpt lat="45.59317" lon="2.81956">
        <ele>1109.1</ele>
        <time>2021-09-07T09:29:09.000Z</time>
      </trkpt>
      <trkpt lat="45.59311" lon="2.8197">
        <ele>1109.8</ele>
        <time>2021-09-07T09:29:15.000Z</time>
      </trkpt>
      <trkpt lat="45.59313" lon="2.81983">
        <ele>1110.3</ele>
        <time>2021-09-07T09:29:21.000Z</time>
      </trkpt>
      <trkpt lat="45.59301" lon="2.8201">
        <ele>1112</ele>
        <time>2021-09-07T09:29:27.000Z</time>
      </trkpt>
      <trkpt lat="45.59285" lon="2.82033">
        <ele>1114.4</ele>
        <time>2021-09-07T09:29:33.000Z</time>
      </trkpt>
      <trkpt lat="45.59278" lon="2.82038">
        <ele>1115</ele>
        <time>2021-09-07T09:29:39.000Z</time>
      </trkpt>
      <trkpt lat="45.59276" lon="2.82027">
        <ele>1113.8</ele>
        <time>2021-09-07T09:29:48.000Z</time>
      </trkpt>
      <trkpt lat="45.59277" lon="2.82017">
        <ele>1112.8</ele>
        <time>2021-09-07T09:29:56.000Z</time>
      </trkpt>
      <trkpt lat="45.59273" lon="2.82007">
        <ele>1111.7</ele>
        <time>2021-09-07T09:30:01.000Z</time>
      </trkpt>
      <trkpt lat="45.59272" lon="2.81996">
        <ele>1110.9</ele>
        <time>2021-09-07T09:30:07.000Z</time>
      </trkpt>
      <trkpt lat="45.5927" lon="2.81984">
        <ele>1110.5</ele>
        <time>2021-09-07T09:30:12.000Z</time>
      </trkpt>
      <trkpt lat="45.59268" lon="2.81974">
        <ele>1110.2</ele>
        <time>2021-09-07T09:30:16.000Z</time>
      </trkpt>
      <trkpt lat="45.59266" lon="2.81965">
        <ele>1110</ele>
        <time>2021-09-07T09:30:21.000Z</time>
      </trkpt>
      <trkpt lat="45.5926" lon="2.81954">
        <ele>1109.8</ele>
        <time>2021-09-07T09:30:27.000Z</time>
      </trkpt>
      <trkpt lat="45.59256" lon="2.81946">
        <ele>1109.6</ele>
        <time>2021-09-07T09:30:33.000Z</time>
      </trkpt>
      <trkpt lat="45.59254" lon="2.81936">
        <ele>1109.4</ele>
        <time>2021-09-07T09:30:40.000Z</time>
      </trkpt>
      <trkpt lat="45.59252" lon="2.81923">
        <ele>1109.1</ele>
        <time>2021-09-07T09:30:45.000Z</time>
      </trkpt>
      <trkpt lat="45.5925" lon="2.81914">
        <ele>1108.8</ele>
        <time>2021-09-07T09:30:51.000Z</time>
      </trkpt>
      <trkpt lat="45.59245" lon="2.81907">
        <ele>1109.9</ele>
        <time>2021-09-07T09:30:58.000Z</time>
      </trkpt>
      <trkpt lat="45.5924" lon="2.819">
        <ele>1111</ele>
        <time>2021-09-07T09:31:05.000Z</time>
      </trkpt>
      <trkpt lat="45.59237" lon="2.8189">
        <ele>1111.4</ele>
        <time>2021-09-07T09:31:11.000Z</time>
      </trkpt>
      <trkpt lat="45.59236" lon="2.81879">
        <ele>1111.2</ele>
        <time>2021-09-07T09:31:31.000Z</time>
      </trkpt>
      <trkpt lat="45.59234" lon="2.81869">
        <ele>1111.4</ele>
        <time>2021-09-07T09:31:36.000Z</time>
      </trkpt>
      <trkpt lat="45.59235" lon="2.81859">
        <ele>1110.6</ele>
        <time>2021-09-07T09:31:40.000Z</time>
      </trkpt>
      <trkpt lat="45.59232" lon="2.81848">
        <ele>1111.1</ele>
        <time>2021-09-07T09:31:45.000Z</time>
      </trkpt>
      <trkpt lat="45.5923" lon="2.81839">
        <ele>1111.4</ele>
        <time>2021-09-07T09:31:51.000Z</time>
      </trkpt>
      <trkpt lat="45.59227" lon="2.81829">
        <ele>1111.8</ele>
        <time>2021-09-07T09:31:59.000Z</time>
      </trkpt>
      <trkpt lat="45.59224" lon="2.81814">
        <ele>1111.4</ele>
        <time>2021-09-07T09:32:03.000Z</time>
      </trkpt>
      <trkpt lat="45.59219" lon="2.81799">
        <ele>1111.8</ele>
        <time>2021-09-07T09:32:09.000Z</time>
      </trkpt>
      <trkpt lat="45.59218" lon="2.81784">
        <ele>1110.7</ele>
        <time>2021-09-07T09:32:15.000Z</time>
      </trkpt>
      <trkpt lat="45.59216" lon="2.81774">
        <ele>1110.6</ele>
        <time>2021-09-07T09:32:21.000Z</time>
      </trkpt>
      <trkpt lat="45.59214" lon="2.81762">
        <ele>1110.2</ele>
        <time>2021-09-07T09:32:27.000Z</time>
      </trkpt>
      <trkpt lat="45.59216" lon="2.81751">
        <ele>1108.4</ele>
        <time>2021-09-07T09:32:36.000Z</time>
      </trkpt>
      <trkpt lat="45.59219" lon="2.81742">
        <ele>1105.9</ele>
        <time>2021-09-07T09:32:42.000Z</time>
      </trkpt>
      <trkpt lat="45.59219" lon="2.81732">
        <ele>1104.5</ele>
        <time>2021-09-07T09:32:48.000Z</time>
      </trkpt>
      <trkpt lat="45.59217" lon="2.8172">
        <ele>1103.5</ele>
        <time>2021-09-07T09:32:55.000Z</time>
      </trkpt>
      <trkpt lat="45.59215" lon="2.81709">
        <ele>1102.7</ele>
        <time>2021-09-07T09:33:00.000Z</time>
      </trkpt>
      <trkpt lat="45.59218" lon="2.81701">
        <ele>1100.4</ele>
        <time>2021-09-07T09:33:10.000Z</time>
      </trkpt>
      <trkpt lat="45.59216" lon="2.8169">
        <ele>1099.6</ele>
        <time>2021-09-07T09:33:15.000Z</time>
      </trkpt>
      <trkpt lat="45.59208" lon="2.81681">
        <ele>1101.3</ele>
        <time>2021-09-07T09:33:21.000Z</time>
      </trkpt>
      <trkpt lat="45.59204" lon="2.81674">
        <ele>1101.7</ele>
        <time>2021-09-07T09:33:27.000Z</time>
      </trkpt>
      <trkpt lat="45.59196" lon="2.81663">
        <ele>1102.8</ele>
        <time>2021-09-07T09:33:33.000Z</time>
      </trkpt>
      <trkpt lat="45.59194" lon="2.81653">
        <ele>1101.6</ele>
        <time>2021-09-07T09:33:40.000Z</time>
      </trkpt>
      <trkpt lat="45.59191" lon="2.81644">
        <ele>1100.8</ele>
        <time>2021-09-07T09:33:51.000Z</time>
      </trkpt>
      <trkpt lat="45.59184" lon="2.81641">
        <ele>1102.4</ele>
        <time>2021-09-07T09:34:01.000Z</time>
      </trkpt>
      <trkpt lat="45.59178" lon="2.81637">
        <ele>1103.4</ele>
        <time>2021-09-07T09:34:07.000Z</time>
      </trkpt>
      <trkpt lat="45.59171" lon="2.81634">
        <ele>1104.9</ele>
        <time>2021-09-07T09:34:12.000Z</time>
      </trkpt>
      <trkpt lat="45.59167" lon="2.81626">
        <ele>1104.1</ele>
        <time>2021-09-07T09:34:16.000Z</time>
      </trkpt>
      <trkpt lat="45.59162" lon="2.81618">
        <ele>1102.9</ele>
        <time>2021-09-07T09:34:21.000Z</time>
      </trkpt>
      <trkpt lat="45.59162" lon="2.81606">
        <ele>1100.1</ele>
        <time>2021-09-07T09:34:27.000Z</time>
      </trkpt>
      <trkpt lat="45.59159" lon="2.81593">
        <ele>1097.5</ele>
        <time>2021-09-07T09:34:33.000Z</time>
      </trkpt>
      <trkpt lat="45.59156" lon="2.81585">
        <ele>1096.2</ele>
        <time>2021-09-07T09:34:39.000Z</time>
      </trkpt>
      <trkpt lat="45.59153" lon="2.81571">
        <ele>1093.5</ele>
        <time>2021-09-07T09:34:45.000Z</time>
      </trkpt>
      <trkpt lat="45.59146" lon="2.81573">
        <ele>1095.1</ele>
        <time>2021-09-07T09:35:00.000Z</time>
      </trkpt>
      <trkpt lat="45.59148" lon="2.81563">
        <ele>1092.4</ele>
        <time>2021-09-07T09:35:10.000Z</time>
      </trkpt>
      <trkpt lat="45.59143" lon="2.81553">
        <ele>1090.8</ele>
        <time>2021-09-07T09:35:15.000Z</time>
      </trkpt>
      <trkpt lat="45.59138" lon="2.81543">
        <ele>1089.1</ele>
        <time>2021-09-07T09:35:21.000Z</time>
      </trkpt>
      <trkpt lat="45.59134" lon="2.81532">
        <ele>1087</ele>
        <time>2021-09-07T09:35:27.000Z</time>
      </trkpt>
      <trkpt lat="45.59132" lon="2.81522">
        <ele>1084.7</ele>
        <time>2021-09-07T09:35:47.000Z</time>
      </trkpt>
      <trkpt lat="45.59127" lon="2.81515">
        <ele>1083.6</ele>
        <time>2021-09-07T09:35:59.000Z</time>
      </trkpt>
      <trkpt lat="45.59123" lon="2.81507">
        <ele>1082</ele>
        <time>2021-09-07T09:36:20.000Z</time>
      </trkpt>
      <trkpt lat="45.59117" lon="2.81502">
        <ele>1081.3</ele>
        <time>2021-09-07T09:36:24.000Z</time>
      </trkpt>
      <trkpt lat="45.59111" lon="2.81498">
        <ele>1081</ele>
        <time>2021-09-07T09:36:28.000Z</time>
      </trkpt>
      <trkpt lat="45.59108" lon="2.81487">
        <ele>1079.2</ele>
        <time>2021-09-07T09:36:33.000Z</time>
      </trkpt>
      <trkpt lat="45.59102" lon="2.81482">
        <ele>1078.6</ele>
        <time>2021-09-07T09:36:45.000Z</time>
      </trkpt>
      <trkpt lat="45.59096" lon="2.81478">
        <ele>1078.2</ele>
        <time>2021-09-07T09:36:55.000Z</time>
      </trkpt>
      <trkpt lat="45.5909" lon="2.81471">
        <ele>1077.1</ele>
        <time>2021-09-07T09:37:01.000Z</time>
      </trkpt>
      <trkpt lat="45.59088" lon="2.81461">
        <ele>1074.9</ele>
        <time>2021-09-07T09:37:12.000Z</time>
      </trkpt>
      <trkpt lat="45.59085" lon="2.81453">
        <ele>1073.2</ele>
        <time>2021-09-07T09:37:23.000Z</time>
      </trkpt>
      <trkpt lat="45.59084" lon="2.81442">
        <ele>1070.8</ele>
        <time>2021-09-07T09:37:29.000Z</time>
      </trkpt>
      <trkpt lat="45.59078" lon="2.81431">
        <ele>1069</ele>
        <time>2021-09-07T09:37:33.000Z</time>
      </trkpt>
      <trkpt lat="45.59074" lon="2.8142">
        <ele>1066.8</ele>
        <time>2021-09-07T09:37:39.000Z</time>
      </trkpt>
      <trkpt lat="45.5907" lon="2.81411">
        <ele>1066</ele>
        <time>2021-09-07T09:37:46.000Z</time>
      </trkpt>
      <trkpt lat="45.59068" lon="2.81402">
        <ele>1065.6</ele>
        <time>2021-09-07T09:37:51.000Z</time>
      </trkpt>
      <trkpt lat="45.59065" lon="2.81388">
        <ele>1064.8</ele>
        <time>2021-09-07T09:37:57.000Z</time>
      </trkpt>
      <trkpt lat="45.59062" lon="2.8138">
        <ele>1064.4</ele>
        <time>2021-09-07T09:38:09.000Z</time>
      </trkpt>
      <trkpt lat="45.59056" lon="2.81372">
        <ele>1064.2</ele>
        <time>2021-09-07T09:38:18.000Z</time>
      </trkpt>
      <trkpt lat="45.5905" lon="2.81367">
        <ele>1064.2</ele>
        <time>2021-09-07T09:38:24.000Z</time>
      </trkpt>
      <trkpt lat="45.59046" lon="2.81359">
        <ele>1063.7</ele>
        <time>2021-09-07T09:38:30.000Z</time>
      </trkpt>
      <trkpt lat="45.59042" lon="2.8135">
        <ele>1063.1</ele>
        <time>2021-09-07T09:38:37.000Z</time>
      </trkpt>
      <trkpt lat="45.59036" lon="2.81343">
        <ele>1062.7</ele>
        <time>2021-09-07T09:38:44.000Z</time>
      </trkpt>
      <trkpt lat="45.59032" lon="2.81336">
        <ele>1062.1</ele>
        <time>2021-09-07T09:38:51.000Z</time>
      </trkpt>
      <trkpt lat="45.5904" lon="2.81338">
        <ele>1062</ele>
        <time>2021-09-07T09:39:03.000Z</time>
      </trkpt>
      <trkpt lat="45.59047" lon="2.81334">
        <ele>1061.4</ele>
        <time>2021-09-07T09:39:09.000Z</time>
      </trkpt>
      <trkpt lat="45.59058" lon="2.81321">
        <ele>1060</ele>
        <time>2021-09-07T09:39:15.000Z</time>
      </trkpt>
      <trkpt lat="45.59065" lon="2.8132">
        <ele>1059.6</ele>
        <time>2021-09-07T09:39:21.000Z</time>
      </trkpt>
      <trkpt lat="45.59073" lon="2.81319">
        <ele>1059.1</ele>
        <time>2021-09-07T09:39:28.000Z</time>
      </trkpt>
      <trkpt lat="45.5908" lon="2.81318">
        <ele>1058.7</ele>
        <time>2021-09-07T09:39:34.000Z</time>
      </trkpt>
      <trkpt lat="45.59085" lon="2.81324">
        <ele>1059.1</ele>
        <time>2021-09-07T09:39:44.000Z</time>
      </trkpt>
      <trkpt lat="45.5909" lon="2.81333">
        <ele>1059.9</ele>
        <time>2021-09-07T09:39:51.000Z</time>
      </trkpt>
      <trkpt lat="45.59095" lon="2.81341">
        <ele>1060.4</ele>
        <time>2021-09-07T09:39:57.000Z</time>
      </trkpt>
      <trkpt lat="45.59094" lon="2.81352">
        <ele>1061.1</ele>
        <time>2021-09-07T09:40:03.000Z</time>
      </trkpt>
      <trkpt lat="45.59095" lon="2.81362">
        <ele>1061.8</ele>
        <time>2021-09-07T09:40:11.000Z</time>
      </trkpt>
      <trkpt lat="45.59096" lon="2.81372">
        <ele>1062.5</ele>
        <time>2021-09-07T09:40:22.000Z</time>
      </trkpt>
      <trkpt lat="45.59098" lon="2.8138">
        <ele>1063</ele>
        <time>2021-09-07T09:40:31.000Z</time>
      </trkpt>
      <trkpt lat="45.59101" lon="2.8139">
        <ele>1063.8</ele>
        <time>2021-09-07T09:40:36.000Z</time>
      </trkpt>
      <trkpt lat="45.59106" lon="2.81397">
        <ele>1064.4</ele>
        <time>2021-09-07T09:40:40.000Z</time>
      </trkpt>
      <trkpt lat="45.59098" lon="2.81396">
        <ele>1064.1</ele>
        <time>2021-09-07T09:40:47.000Z</time>
      </trkpt>
      <trkpt lat="45.59099" lon="2.81407">
        <ele>1064.9</ele>
        <time>2021-09-07T09:40:58.000Z</time>
      </trkpt>
      <trkpt lat="45.59095" lon="2.81399">
        <ele>1064.2</ele>
        <time>2021-09-07T09:41:23.000Z</time>
      </trkpt>
      <trkpt lat="45.59091" lon="2.81391">
        <ele>1063.6</ele>
        <time>2021-09-07T09:41:46.000Z</time>
      </trkpt>
      <trkpt lat="45.59098" lon="2.81393">
        <ele>1063.9</ele>
        <time>2021-09-07T09:42:18.000Z</time>
      </trkpt>
      <trkpt lat="45.59093" lon="2.81386">
        <ele>1063.3</ele>
        <time>2021-09-07T09:42:23.000Z</time>
      </trkpt>
      <trkpt lat="45.59088" lon="2.81377">
        <ele>1062.7</ele>
        <time>2021-09-07T09:42:28.000Z</time>
      </trkpt>
      <trkpt lat="45.59087" lon="2.81368">
        <ele>1062.1</ele>
        <time>2021-09-07T09:42:37.000Z</time>
      </trkpt>
      <trkpt lat="45.59089" lon="2.81359">
        <ele>1061.6</ele>
        <time>2021-09-07T09:42:44.000Z</time>
      </trkpt>
      <trkpt lat="45.5909" lon="2.8135">
        <ele>1061</ele>
        <time>2021-09-07T09:42:49.000Z</time>
      </trkpt>
      <trkpt lat="45.59089" lon="2.8134">
        <ele>1060.4</ele>
        <time>2021-09-07T09:42:54.000Z</time>
      </trkpt>
      <trkpt lat="45.59088" lon="2.8133">
        <ele>1059.6</ele>
        <time>2021-09-07T09:43:01.000Z</time>
      </trkpt>
      <trkpt lat="45.59087" lon="2.8132">
        <ele>1058.7</ele>
        <time>2021-09-07T09:43:13.000Z</time>
      </trkpt>
      <trkpt lat="45.59081" lon="2.81315">
        <ele>1058.4</ele>
        <time>2021-09-07T09:43:22.000Z</time>
      </trkpt>
      <trkpt lat="45.59074" lon="2.81315">
        <ele>1058.7</ele>
        <time>2021-09-07T09:43:39.000Z</time>
      </trkpt>
      <trkpt lat="45.59068" lon="2.81319">
        <ele>1059.3</ele>
        <time>2021-09-07T09:43:52.000Z</time>
      </trkpt>
      <trkpt lat="45.59063" lon="2.81325">
        <ele>1060.1</ele>
        <time>2021-09-07T09:44:06.000Z</time>
      </trkpt>
      <trkpt lat="45.59055" lon="2.81325">
        <ele>1060.4</ele>
        <time>2021-09-07T09:44:10.000Z</time>
      </trkpt>
      <trkpt lat="45.59044" lon="2.81324">
        <ele>1060.8</ele>
        <time>2021-09-07T09:44:15.000Z</time>
      </trkpt>
      <trkpt lat="45.59034" lon="2.81318">
        <ele>1060.8</ele>
        <time>2021-09-07T09:44:21.000Z</time>
      </trkpt>
      <trkpt lat="45.59027" lon="2.81321">
        <ele>1061.3</ele>
        <time>2021-09-07T09:44:29.000Z</time>
      </trkpt>
      <trkpt lat="45.59024" lon="2.81312">
        <ele>1061</ele>
        <time>2021-09-07T09:44:44.000Z</time>
      </trkpt>
      <trkpt lat="45.59029" lon="2.81306">
        <ele>1060.4</ele>
        <time>2021-09-07T09:44:54.000Z</time>
      </trkpt>
      <trkpt lat="45.59024" lon="2.81299">
        <ele>1060.3</ele>
        <time>2021-09-07T09:45:03.000Z</time>
      </trkpt>
      <trkpt lat="45.59021" lon="2.8129">
        <ele>1060</ele>
        <time>2021-09-07T09:45:09.000Z</time>
      </trkpt>
      <trkpt lat="45.59016" lon="2.81283">
        <ele>1060</ele>
        <time>2021-09-07T09:45:22.000Z</time>
      </trkpt>
      <trkpt lat="45.59011" lon="2.81278">
        <ele>1060.2</ele>
        <time>2021-09-07T09:45:28.000Z</time>
      </trkpt>
      <trkpt lat="45.59004" lon="2.81274">
        <ele>1060.5</ele>
        <time>2021-09-07T09:45:33.000Z</time>
      </trkpt>
      <trkpt lat="45.59001" lon="2.81264">
        <ele>1060.4</ele>
        <time>2021-09-07T09:45:40.000Z</time>
      </trkpt>
      <trkpt lat="45.58995" lon="2.81259">
        <ele>1061.2</ele>
        <time>2021-09-07T09:45:47.000Z</time>
      </trkpt>
      <trkpt lat="45.58992" lon="2.81251">
        <ele>1061.5</ele>
        <time>2021-09-07T09:45:52.000Z</time>
      </trkpt>
      <trkpt lat="45.5899" lon="2.8124">
        <ele>1060.8</ele>
        <time>2021-09-07T09:45:59.000Z</time>
      </trkpt>
      <trkpt lat="45.58997" lon="2.8124">
        <ele>1059.6</ele>
        <time>2021-09-07T09:46:18.000Z</time>
      </trkpt>
      <trkpt lat="45.58993" lon="2.81249">
        <ele>1061.2</ele>
        <time>2021-09-07T09:46:41.000Z</time>
      </trkpt>
      <trkpt lat="45.58989" lon="2.81256">
        <ele>1062.2</ele>
        <time>2021-09-07T09:46:48.000Z</time>
      </trkpt>
      <trkpt lat="45.58994" lon="2.81262">
        <ele>1061.5</ele>
        <time>2021-09-07T09:47:22.000Z</time>
      </trkpt>
      <trkpt lat="45.59" lon="2.81267">
        <ele>1060.6</ele>
        <time>2021-09-07T09:47:34.000Z</time>
      </trkpt>
      <trkpt lat="45.59003" lon="2.81275">
        <ele>1060.7</ele>
        <time>2021-09-07T09:47:40.000Z</time>
      </trkpt>
      <trkpt lat="45.58999" lon="2.81283">
        <ele>1061.4</ele>
        <time>2021-09-07T09:47:45.000Z</time>
      </trkpt>
      <trkpt lat="45.58998" lon="2.81293">
        <ele>1061.9</ele>
        <time>2021-09-07T09:47:52.000Z</time>
      </trkpt>
      <trkpt lat="45.58997" lon="2.81302">
        <ele>1062.4</ele>
        <time>2021-09-07T09:47:58.000Z</time>
      </trkpt>
      <trkpt lat="45.58994" lon="2.81312">
        <ele>1063.2</ele>
        <time>2021-09-07T09:48:03.000Z</time>
      </trkpt>
      <trkpt lat="45.58991" lon="2.81323">
        <ele>1064.1</ele>
        <time>2021-09-07T09:48:09.000Z</time>
      </trkpt>
      <trkpt lat="45.58987" lon="2.81333">
        <ele>1065</ele>
        <time>2021-09-07T09:48:15.000Z</time>
      </trkpt>
      <trkpt lat="45.58983" lon="2.81343">
        <ele>1066.7</ele>
        <time>2021-09-07T09:48:21.000Z</time>
      </trkpt>
      <trkpt lat="45.58982" lon="2.81353">
        <ele>1068</ele>
        <time>2021-09-07T09:48:27.000Z</time>
      </trkpt>
      <trkpt lat="45.58977" lon="2.81363">
        <ele>1069.7</ele>
        <time>2021-09-07T09:48:33.000Z</time>
      </trkpt>
      <trkpt lat="45.58973" lon="2.81372">
        <ele>1071.1</ele>
        <time>2021-09-07T09:48:39.000Z</time>
      </trkpt>
      <trkpt lat="45.58967" lon="2.81376">
        <ele>1072.2</ele>
        <time>2021-09-07T09:48:45.000Z</time>
      </trkpt>
      <trkpt lat="45.5896" lon="2.81374">
        <ele>1072.7</ele>
        <time>2021-09-07T09:48:52.000Z</time>
      </trkpt>
      <trkpt lat="45.58953" lon="2.81376">
        <ele>1073.7</ele>
        <time>2021-09-07T09:49:00.000Z</time>
      </trkpt>
      <trkpt lat="45.58947" lon="2.81378">
        <ele>1074.4</ele>
        <time>2021-09-07T09:49:09.000Z</time>
      </trkpt>
      <trkpt lat="45.58941" lon="2.81385">
        <ele>1075.5</ele>
        <time>2021-09-07T09:49:18.000Z</time>
      </trkpt>
      <trkpt lat="45.58934" lon="2.81385">
        <ele>1076.2</ele>
        <time>2021-09-07T09:49:26.000Z</time>
      </trkpt>
      <trkpt lat="45.58927" lon="2.81387">
        <ele>1077</ele>
        <time>2021-09-07T09:49:30.000Z</time>
      </trkpt>
      <trkpt lat="45.5892" lon="2.81391">
        <ele>1077.8</ele>
        <time>2021-09-07T09:49:34.000Z</time>
      </trkpt>
      <trkpt lat="45.58907" lon="2.8139">
        <ele>1079.3</ele>
        <time>2021-09-07T09:49:39.000Z</time>
      </trkpt>
      <trkpt lat="45.589" lon="2.81389">
        <ele>1080.1</ele>
        <time>2021-09-07T09:49:45.000Z</time>
      </trkpt>
      <trkpt lat="45.58901" lon="2.81403">
        <ele>1080.7</ele>
        <time>2021-09-07T09:49:53.000Z</time>
      </trkpt>
      <trkpt lat="45.58899" lon="2.81412">
        <ele>1081.5</ele>
        <time>2021-09-07T09:49:57.000Z</time>
      </trkpt>
      <trkpt lat="45.58889" lon="2.8142">
        <ele>1084.2</ele>
        <time>2021-09-07T09:50:03.000Z</time>
      </trkpt>
      <trkpt lat="45.58882" lon="2.81424">
        <ele>1086.4</ele>
        <time>2021-09-07T09:50:12.000Z</time>
      </trkpt>
      <trkpt lat="45.58876" lon="2.81423">
        <ele>1087</ele>
        <time>2021-09-07T09:50:24.000Z</time>
      </trkpt>
      <trkpt lat="45.58868" lon="2.81421">
        <ele>1087.7</ele>
        <time>2021-09-07T09:50:32.000Z</time>
      </trkpt>
      <trkpt lat="45.58862" lon="2.81416">
        <ele>1087.5</ele>
        <time>2021-09-07T09:50:36.000Z</time>
      </trkpt>
      <trkpt lat="45.58857" lon="2.81409">
        <ele>1087.5</ele>
        <time>2021-09-07T09:50:47.000Z</time>
      </trkpt>
      <trkpt lat="45.58854" lon="2.814">
        <ele>1087</ele>
        <time>2021-09-07T09:50:55.000Z</time>
      </trkpt>
      <trkpt lat="45.58848" lon="2.81393">
        <ele>1087</ele>
        <time>2021-09-07T09:51:11.000Z</time>
      </trkpt>
      <trkpt lat="45.58842" lon="2.81388">
        <ele>1087.2</ele>
        <time>2021-09-07T09:51:16.000Z</time>
      </trkpt>
      <trkpt lat="45.58836" lon="2.81384">
        <ele>1087.4</ele>
        <time>2021-09-07T09:51:23.000Z</time>
      </trkpt>
      <trkpt lat="45.58828" lon="2.81383">
        <ele>1088.8</ele>
        <time>2021-09-07T09:51:34.000Z</time>
      </trkpt>
      <trkpt lat="45.58821" lon="2.81384">
        <ele>1090.7</ele>
        <time>2021-09-07T09:51:40.000Z</time>
      </trkpt>
      <trkpt lat="45.58812" lon="2.81389">
        <ele>1093.5</ele>
        <time>2021-09-07T09:51:45.000Z</time>
      </trkpt>
      <trkpt lat="45.58804" lon="2.81398">
        <ele>1096.5</ele>
        <time>2021-09-07T09:51:51.000Z</time>
      </trkpt>
      <trkpt lat="45.58798" lon="2.81404">
        <ele>1098.6</ele>
        <time>2021-09-07T09:52:00.000Z</time>
      </trkpt>
      <trkpt lat="45.58792" lon="2.81409">
        <ele>1100.5</ele>
        <time>2021-09-07T09:52:07.000Z</time>
      </trkpt>
      <trkpt lat="45.58792" lon="2.81419">
        <ele>1102</ele>
        <time>2021-09-07T09:52:18.000Z</time>
      </trkpt>
      <trkpt lat="45.58795" lon="2.81428">
        <ele>1103.3</ele>
        <time>2021-09-07T09:52:28.000Z</time>
      </trkpt>
      <trkpt lat="45.58801" lon="2.81432">
        <ele>1102.9</ele>
        <time>2021-09-07T09:52:49.000Z</time>
      </trkpt>
      <trkpt lat="45.58799" lon="2.81441">
        <ele>1105.4</ele>
        <time>2021-09-07T09:53:03.000Z</time>
      </trkpt>
      <trkpt lat="45.58799" lon="2.81452">
        <ele>1108</ele>
        <time>2021-09-07T09:53:14.000Z</time>
      </trkpt>
      <trkpt lat="45.58798" lon="2.81464">
        <ele>1110.9</ele>
        <time>2021-09-07T09:53:20.000Z</time>
      </trkpt>
      <trkpt lat="45.58795" lon="2.81473">
        <ele>1113.6</ele>
        <time>2021-09-07T09:53:24.000Z</time>
      </trkpt>
      <trkpt lat="45.58793" lon="2.81484">
        <ele>1116.6</ele>
        <time>2021-09-07T09:53:35.000Z</time>
      </trkpt>
      <trkpt lat="45.5879" lon="2.81493">
        <ele>1119.2</ele>
        <time>2021-09-07T09:53:43.000Z</time>
      </trkpt>
      <trkpt lat="45.58792" lon="2.81512">
        <ele>1122.4</ele>
        <time>2021-09-07T09:53:55.000Z</time>
      </trkpt>
      <trkpt lat="45.58783" lon="2.81514">
        <ele>1124.6</ele>
        <time>2021-09-07T09:54:05.000Z</time>
      </trkpt>
      <trkpt lat="45.58787" lon="2.81506">
        <ele>1122.5</ele>
        <time>2021-09-07T09:54:09.000Z</time>
      </trkpt>
      <trkpt lat="45.58791" lon="2.81497">
        <ele>1120</ele>
        <time>2021-09-07T09:54:16.000Z</time>
      </trkpt>
      <trkpt lat="45.58794" lon="2.81488">
        <ele>1117.3</ele>
        <time>2021-09-07T09:54:25.000Z</time>
      </trkpt>
      <trkpt lat="45.58791" lon="2.81478">
        <ele>1115.6</ele>
        <time>2021-09-07T09:54:35.000Z</time>
      </trkpt>
      <trkpt lat="45.58798" lon="2.81481">
        <ele>1114.8</ele>
        <time>2021-09-07T09:54:44.000Z</time>
      </trkpt>
      <trkpt lat="45.58804" lon="2.81484">
        <ele>1114.3</ele>
        <time>2021-09-07T09:54:50.000Z</time>
      </trkpt>
      <trkpt lat="45.58811" lon="2.81482">
        <ele>1112.4</ele>
        <time>2021-09-07T09:54:55.000Z</time>
      </trkpt>
      <trkpt lat="45.58818" lon="2.81478">
        <ele>1109.9</ele>
        <time>2021-09-07T09:54:59.000Z</time>
      </trkpt>
      <trkpt lat="45.58804" lon="2.81475">
        <ele>1112.2</ele>
        <time>2021-09-07T09:55:03.000Z</time>
      </trkpt>
      <trkpt lat="45.58787" lon="2.81464">
        <ele>1113.3</ele>
        <time>2021-09-07T09:55:09.000Z</time>
      </trkpt>
      <trkpt lat="45.58792" lon="2.81446">
        <ele>1108.1</ele>
        <time>2021-09-07T09:55:15.000Z</time>
      </trkpt>
      <trkpt lat="45.58782" lon="2.81431">
        <ele>1106.9</ele>
        <time>2021-09-07T09:55:21.000Z</time>
      </trkpt>
      <trkpt lat="45.58777" lon="2.81424">
        <ele>1106.5</ele>
        <time>2021-09-07T09:55:27.000Z</time>
      </trkpt>
      <trkpt lat="45.58776" lon="2.81414">
        <ele>1104.8</ele>
        <time>2021-09-07T09:55:47.000Z</time>
      </trkpt>
      <trkpt lat="45.58777" lon="2.81404">
        <ele>1103.5</ele>
        <time>2021-09-07T09:55:53.000Z</time>
      </trkpt>
      <trkpt lat="45.58777" lon="2.81394">
        <ele>1102.4</ele>
        <time>2021-09-07T09:56:01.000Z</time>
      </trkpt>
      <trkpt lat="45.58773" lon="2.81384">
        <ele>1102.3</ele>
        <time>2021-09-07T09:56:07.000Z</time>
      </trkpt>
      <trkpt lat="45.58768" lon="2.81378">
        <ele>1102.9</ele>
        <time>2021-09-07T09:56:13.000Z</time>
      </trkpt>
      <trkpt lat="45.58768" lon="2.81368">
        <ele>1101.8</ele>
        <time>2021-09-07T09:56:25.000Z</time>
      </trkpt>
      <trkpt lat="45.58764" lon="2.8136">
        <ele>1102</ele>
        <time>2021-09-07T09:56:35.000Z</time>
      </trkpt>
      <trkpt lat="45.58758" lon="2.81365">
        <ele>1104</ele>
        <time>2021-09-07T09:56:48.000Z</time>
      </trkpt>
      <trkpt lat="45.58754" lon="2.81373">
        <ele>1105.8</ele>
        <time>2021-09-07T09:56:58.000Z</time>
      </trkpt>
      <trkpt lat="45.58751" lon="2.81391">
        <ele>1108.3</ele>
        <time>2021-09-07T09:57:25.000Z</time>
      </trkpt>
      <trkpt lat="45.58744" lon="2.81403">
        <ele>1111.6</ele>
        <time>2021-09-07T09:57:40.000Z</time>
      </trkpt>
      <trkpt lat="45.58733" lon="2.81412">
        <ele>1115.6</ele>
        <time>2021-09-07T09:57:45.000Z</time>
      </trkpt>
      <trkpt lat="45.5873" lon="2.8142">
        <ele>1117.4</ele>
        <time>2021-09-07T09:57:54.000Z</time>
      </trkpt>
      <trkpt lat="45.58727" lon="2.81431">
        <ele>1120.2</ele>
        <time>2021-09-07T09:57:59.000Z</time>
      </trkpt>
      <trkpt lat="45.58726" lon="2.8144">
        <ele>1122.1</ele>
        <time>2021-09-07T09:58:11.000Z</time>
      </trkpt>
      <trkpt lat="45.58728" lon="2.8145">
        <ele>1123.5</ele>
        <time>2021-09-07T09:58:24.000Z</time>
      </trkpt>
      <trkpt lat="45.58721" lon="2.81453">
        <ele>1125.7</ele>
        <time>2021-09-07T09:58:29.000Z</time>
      </trkpt>
      <trkpt lat="45.58722" lon="2.81462">
        <ele>1127</ele>
        <time>2021-09-07T09:58:39.000Z</time>
      </trkpt>
      <trkpt lat="45.58729" lon="2.81468">
        <ele>1126.6</ele>
        <time>2021-09-07T09:58:46.000Z</time>
      </trkpt>
      <trkpt lat="45.58731" lon="2.81478">
        <ele>1128</ele>
        <time>2021-09-07T09:58:55.000Z</time>
      </trkpt>
      <trkpt lat="45.58729" lon="2.81487">
        <ele>1130.1</ele>
        <time>2021-09-07T09:59:02.000Z</time>
      </trkpt>
      <trkpt lat="45.58732" lon="2.81502">
        <ele>1132.3</ele>
        <time>2021-09-07T09:59:11.000Z</time>
      </trkpt>
      <trkpt lat="45.58737" lon="2.81508">
        <ele>1132.3</ele>
        <time>2021-09-07T09:59:20.000Z</time>
      </trkpt>
      <trkpt lat="45.58742" lon="2.81516">
        <ele>1132.7</ele>
        <time>2021-09-07T09:59:28.000Z</time>
      </trkpt>
      <trkpt lat="45.58735" lon="2.81518">
        <ele>1134</ele>
        <time>2021-09-07T09:59:36.000Z</time>
      </trkpt>
      <trkpt lat="45.58736" lon="2.81528">
        <ele>1135.2</ele>
        <time>2021-09-07T09:59:42.000Z</time>
      </trkpt>
      <trkpt lat="45.58743" lon="2.81533">
        <ele>1135</ele>
        <time>2021-09-07T09:59:45.000Z</time>
      </trkpt>
      <trkpt lat="45.58751" lon="2.81523">
        <ele>1132.4</ele>
        <time>2021-09-07T09:59:51.000Z</time>
      </trkpt>
      <trkpt lat="45.58759" lon="2.81529">
        <ele>1131.8</ele>
        <time>2021-09-07T09:59:57.000Z</time>
      </trkpt>
      <trkpt lat="45.58765" lon="2.81527">
        <ele>1130.3</ele>
        <time>2021-09-07T10:00:30.000Z</time>
      </trkpt>
      <trkpt lat="45.58772" lon="2.81529">
        <ele>1129.2</ele>
        <time>2021-09-07T10:00:46.000Z</time>
      </trkpt>
      <trkpt lat="45.58777" lon="2.81535">
        <ele>1129.2</ele>
        <time>2021-09-07T10:00:56.000Z</time>
      </trkpt>
      <trkpt lat="45.58778" lon="2.81546">
        <ele>1130.8</ele>
        <time>2021-09-07T10:01:07.000Z</time>
      </trkpt>
      <trkpt lat="45.58772" lon="2.8155">
        <ele>1132.6</ele>
        <time>2021-09-07T10:01:53.000Z</time>
      </trkpt>
      <trkpt lat="45.58765" lon="2.81554">
        <ele>1134.6</ele>
        <time>2021-09-07T10:02:05.000Z</time>
      </trkpt>
      <trkpt lat="45.58758" lon="2.81555">
        <ele>1136.1</ele>
        <time>2021-09-07T10:02:13.000Z</time>
      </trkpt>
      <trkpt lat="45.58751" lon="2.81553">
        <ele>1137.1</ele>
        <time>2021-09-07T10:02:25.000Z</time>
      </trkpt>
      <trkpt lat="45.58745" lon="2.81556">
        <ele>1138.2</ele>
        <time>2021-09-07T10:02:38.000Z</time>
      </trkpt>
      <trkpt lat="45.58742" lon="2.81565">
        <ele>1139.8</ele>
        <time>2021-09-07T10:02:45.000Z</time>
      </trkpt>
      <trkpt lat="45.58738" lon="2.81572">
        <ele>1141.1</ele>
        <time>2021-09-07T10:02:56.000Z</time>
      </trkpt>
      <trkpt lat="45.58731" lon="2.81572">
        <ele>1141.7</ele>
        <time>2021-09-07T10:03:08.000Z</time>
      </trkpt>
      <trkpt lat="45.58725" lon="2.81579">
        <ele>1143</ele>
        <time>2021-09-07T10:03:30.000Z</time>
      </trkpt>
      <trkpt lat="45.58719" lon="2.81583">
        <ele>1143.8</ele>
        <time>2021-09-07T10:03:43.000Z</time>
      </trkpt>
      <trkpt lat="45.58715" lon="2.8159">
        <ele>1143.8</ele>
        <time>2021-09-07T10:03:53.000Z</time>
      </trkpt>
      <trkpt lat="45.5871" lon="2.81597">
        <ele>1143.8</ele>
        <time>2021-09-07T10:03:59.000Z</time>
      </trkpt>
      <trkpt lat="45.58706" lon="2.81606">
        <ele>1143.5</ele>
        <time>2021-09-07T10:04:06.000Z</time>
      </trkpt>
      <trkpt lat="45.58704" lon="2.81616">
        <ele>1143.2</ele>
        <time>2021-09-07T10:04:12.000Z</time>
      </trkpt>
      <trkpt lat="45.58701" lon="2.81625">
        <ele>1142.9</ele>
        <time>2021-09-07T10:04:18.000Z</time>
      </trkpt>
      <trkpt lat="45.58696" lon="2.81633">
        <ele>1142.7</ele>
        <time>2021-09-07T10:04:23.000Z</time>
      </trkpt>
      <trkpt lat="45.58694" lon="2.81642">
        <ele>1142.3</ele>
        <time>2021-09-07T10:04:29.000Z</time>
      </trkpt>
      <trkpt lat="45.58691" lon="2.81651">
        <ele>1142</ele>
        <time>2021-09-07T10:04:35.000Z</time>
      </trkpt>
      <trkpt lat="45.58687" lon="2.81658">
        <ele>1141.7</ele>
        <time>2021-09-07T10:04:41.000Z</time>
      </trkpt>
      <trkpt lat="45.58681" lon="2.81664">
        <ele>1141.6</ele>
        <time>2021-09-07T10:04:48.000Z</time>
      </trkpt>
      <trkpt lat="45.58677" lon="2.81672">
        <ele>1141</ele>
        <time>2021-09-07T10:05:11.000Z</time>
      </trkpt>
      <trkpt lat="45.5867" lon="2.81679">
        <ele>1140.4</ele>
        <time>2021-09-07T10:05:17.000Z</time>
      </trkpt>
      <trkpt lat="45.58664" lon="2.81684">
        <ele>1139.9</ele>
        <time>2021-09-07T10:05:23.000Z</time>
      </trkpt>
      <trkpt lat="45.58657" lon="2.81686">
        <ele>1139.8</ele>
        <time>2021-09-07T10:05:32.000Z</time>
      </trkpt>
      <trkpt lat="45.58653" lon="2.81694">
        <ele>1138.9</ele>
        <time>2021-09-07T10:05:41.000Z</time>
      </trkpt>
      <trkpt lat="45.58646" lon="2.81696">
        <ele>1138.8</ele>
        <time>2021-09-07T10:05:51.000Z</time>
      </trkpt>
      <trkpt lat="45.58638" lon="2.81694">
        <ele>1139.2</ele>
        <time>2021-09-07T10:05:56.000Z</time>
      </trkpt>
      <trkpt lat="45.58631" lon="2.81697">
        <ele>1139</ele>
        <time>2021-09-07T10:06:00.000Z</time>
      </trkpt>
      <trkpt lat="45.58623" lon="2.81696">
        <ele>1139.2</ele>
        <time>2021-09-07T10:06:06.000Z</time>
      </trkpt>
      <trkpt lat="45.58614" lon="2.81692">
        <ele>1139.7</ele>
        <time>2021-09-07T10:06:12.000Z</time>
      </trkpt>
      <trkpt lat="45.58607" lon="2.81689">
        <ele>1139.9</ele>
        <time>2021-09-07T10:06:18.000Z</time>
      </trkpt>
      <trkpt lat="45.586" lon="2.81689">
        <ele>1140</ele>
        <time>2021-09-07T10:06:25.000Z</time>
      </trkpt>
      <trkpt lat="45.58594" lon="2.81685">
        <ele>1140.3</ele>
        <time>2021-09-07T10:06:31.000Z</time>
      </trkpt>
      <trkpt lat="45.58588" lon="2.8168">
        <ele>1140.5</ele>
        <time>2021-09-07T10:06:39.000Z</time>
      </trkpt>
      <trkpt lat="45.58587" lon="2.81671">
        <ele>1140.9</ele>
        <time>2021-09-07T10:06:45.000Z</time>
      </trkpt>
      <trkpt lat="45.58588" lon="2.81658">
        <ele>1141.6</ele>
        <time>2021-09-07T10:06:51.000Z</time>
      </trkpt>
      <trkpt lat="45.5859" lon="2.81649">
        <ele>1142.1</ele>
        <time>2021-09-07T10:06:59.000Z</time>
      </trkpt>
      <trkpt lat="45.58594" lon="2.81642">
        <ele>1142.6</ele>
        <time>2021-09-07T10:07:05.000Z</time>
      </trkpt>
      <trkpt lat="45.58599" lon="2.81632">
        <ele>1143.3</ele>
        <time>2021-09-07T10:07:11.000Z</time>
      </trkpt>
      <trkpt lat="45.58596" lon="2.81623">
        <ele>1143.8</ele>
        <time>2021-09-07T10:07:19.000Z</time>
      </trkpt>
      <trkpt lat="45.58591" lon="2.81617">
        <ele>1144.1</ele>
        <time>2021-09-07T10:07:25.000Z</time>
      </trkpt>
      <trkpt lat="45.58586" lon="2.81612">
        <ele>1144.3</ele>
        <time>2021-09-07T10:07:32.000Z</time>
      </trkpt>
      <trkpt lat="45.58585" lon="2.81601">
        <ele>1145</ele>
        <time>2021-09-07T10:07:42.000Z</time>
      </trkpt>
      <trkpt lat="45.58579" lon="2.81597">
        <ele>1145.8</ele>
        <time>2021-09-07T10:08:26.000Z</time>
      </trkpt>
      <trkpt lat="45.58574" lon="2.81591">
        <ele>1146.9</ele>
        <time>2021-09-07T10:08:33.000Z</time>
      </trkpt>
      <trkpt lat="45.58569" lon="2.81585">
        <ele>1148.1</ele>
        <time>2021-09-07T10:09:18.000Z</time>
      </trkpt>
      <trkpt lat="45.58563" lon="2.81578">
        <ele>1149.7</ele>
        <time>2021-09-07T10:09:29.000Z</time>
      </trkpt>
      <trkpt lat="45.58563" lon="2.81567">
        <ele>1150.6</ele>
        <time>2021-09-07T10:09:47.000Z</time>
      </trkpt>
      <trkpt lat="45.58556" lon="2.81565">
        <ele>1151.9</ele>
        <time>2021-09-07T10:10:15.000Z</time>
      </trkpt>
      <trkpt lat="45.58549" lon="2.81561">
        <ele>1153.5</ele>
        <time>2021-09-07T10:10:22.000Z</time>
      </trkpt>
      <trkpt lat="45.58543" lon="2.81557">
        <ele>1154.8</ele>
        <time>2021-09-07T10:11:06.000Z</time>
      </trkpt>
      <trkpt lat="45.58538" lon="2.8155">
        <ele>1156.3</ele>
        <time>2021-09-07T10:11:16.000Z</time>
      </trkpt>
      <trkpt lat="45.58532" lon="2.81545">
        <ele>1157.8</ele>
        <time>2021-09-07T10:11:24.000Z</time>
      </trkpt>
      <trkpt lat="45.58527" lon="2.81539">
        <ele>1159.2</ele>
        <time>2021-09-07T10:11:33.000Z</time>
      </trkpt>
      <trkpt lat="45.58522" lon="2.81533">
        <ele>1160.7</ele>
        <time>2021-09-07T10:11:41.000Z</time>
      </trkpt>
      <trkpt lat="45.58516" lon="2.81527">
        <ele>1162.3</ele>
        <time>2021-09-07T10:11:46.000Z</time>
      </trkpt>
      <trkpt lat="45.58509" lon="2.8152">
        <ele>1164.3</ele>
        <time>2021-09-07T10:11:52.000Z</time>
      </trkpt>
      <trkpt lat="45.58505" lon="2.81512">
        <ele>1165.8</ele>
        <time>2021-09-07T10:11:59.000Z</time>
      </trkpt>
      <trkpt lat="45.58499" lon="2.81504">
        <ele>1167.7</ele>
        <time>2021-09-07T10:12:18.000Z</time>
      </trkpt>
      <trkpt lat="45.58492" lon="2.815">
        <ele>1168.9</ele>
        <time>2021-09-07T10:12:23.000Z</time>
      </trkpt>
      <trkpt lat="45.58485" lon="2.81498">
        <ele>1169.8</ele>
        <time>2021-09-07T10:12:30.000Z</time>
      </trkpt>
      <trkpt lat="45.58478" lon="2.81497">
        <ele>1170.6</ele>
        <time>2021-09-07T10:12:38.000Z</time>
      </trkpt>
      <trkpt lat="45.58471" lon="2.815">
        <ele>1171.1</ele>
        <time>2021-09-07T10:12:45.000Z</time>
      </trkpt>
      <trkpt lat="45.58465" lon="2.81503">
        <ele>1171.5</ele>
        <time>2021-09-07T10:12:52.000Z</time>
      </trkpt>
      <trkpt lat="45.5846" lon="2.8151">
        <ele>1171.5</ele>
        <time>2021-09-07T10:13:00.000Z</time>
      </trkpt>
      <trkpt lat="45.58457" lon="2.8152">
        <ele>1171</ele>
        <time>2021-09-07T10:13:10.000Z</time>
      </trkpt>
      <trkpt lat="45.58455" lon="2.81529">
        <ele>1170.5</ele>
        <time>2021-09-07T10:13:15.000Z</time>
      </trkpt>
      <trkpt lat="45.58453" lon="2.81538">
        <ele>1170</ele>
        <time>2021-09-07T10:13:21.000Z</time>
      </trkpt>
      <trkpt lat="45.58447" lon="2.81542">
        <ele>1170.5</ele>
        <time>2021-09-07T10:13:30.000Z</time>
      </trkpt>
      <trkpt lat="45.58442" lon="2.81549">
        <ele>1170.6</ele>
        <time>2021-09-07T10:13:40.000Z</time>
      </trkpt>
      <trkpt lat="45.58436" lon="2.81559">
        <ele>1170.7</ele>
        <time>2021-09-07T10:13:47.000Z</time>
      </trkpt>
      <trkpt lat="45.5843" lon="2.81563">
        <ele>1171.3</ele>
        <time>2021-09-07T10:13:51.000Z</time>
      </trkpt>
      <trkpt lat="45.58424" lon="2.81569">
        <ele>1171.8</ele>
        <time>2021-09-07T10:13:57.000Z</time>
      </trkpt>
      <trkpt lat="45.58418" lon="2.81576">
        <ele>1172.2</ele>
        <time>2021-09-07T10:14:03.000Z</time>
      </trkpt>
      <trkpt lat="45.58411" lon="2.81582">
        <ele>1172.8</ele>
        <time>2021-09-07T10:14:09.000Z</time>
      </trkpt>
      <trkpt lat="45.58404" lon="2.81582">
        <ele>1173.8</ele>
        <time>2021-09-07T10:14:15.000Z</time>
      </trkpt>
      <trkpt lat="45.58396" lon="2.81583">
        <ele>1174.8</ele>
        <time>2021-09-07T10:14:21.000Z</time>
      </trkpt>
      <trkpt lat="45.58389" lon="2.81588">
        <ele>1175.2</ele>
        <time>2021-09-07T10:14:27.000Z</time>
      </trkpt>
      <trkpt lat="45.58381" lon="2.81591">
        <ele>1176.1</ele>
        <time>2021-09-07T10:14:33.000Z</time>
      </trkpt>
      <trkpt lat="45.58374" lon="2.81592">
        <ele>1177</ele>
        <time>2021-09-07T10:14:40.000Z</time>
      </trkpt>
      <trkpt lat="45.58366" lon="2.81594">
        <ele>1177.9</ele>
        <time>2021-09-07T10:14:48.000Z</time>
      </trkpt>
      <trkpt lat="45.5836" lon="2.81597">
        <ele>1178.6</ele>
        <time>2021-09-07T10:14:52.000Z</time>
      </trkpt>
      <trkpt lat="45.58354" lon="2.81602">
        <ele>1179.1</ele>
        <time>2021-09-07T10:14:58.000Z</time>
      </trkpt>
      <trkpt lat="45.58347" lon="2.81603">
        <ele>1180.1</ele>
        <time>2021-09-07T10:15:05.000Z</time>
      </trkpt>
      <trkpt lat="45.5834" lon="2.81607">
        <ele>1180.9</ele>
        <time>2021-09-07T10:15:10.000Z</time>
      </trkpt>
      <trkpt lat="45.58334" lon="2.81614">
        <ele>1181.4</ele>
        <time>2021-09-07T10:15:15.000Z</time>
      </trkpt>
      <trkpt lat="45.58325" lon="2.81622">
        <ele>1183.7</ele>
        <time>2021-09-07T10:15:21.000Z</time>
      </trkpt>
      <trkpt lat="45.58319" lon="2.81627">
        <ele>1185.3</ele>
        <time>2021-09-07T10:15:28.000Z</time>
      </trkpt>
      <trkpt lat="45.58312" lon="2.81627">
        <ele>1187.5</ele>
        <time>2021-09-07T10:15:33.000Z</time>
      </trkpt>
      <trkpt lat="45.58304" lon="2.81631">
        <ele>1189.9</ele>
        <time>2021-09-07T10:15:39.000Z</time>
      </trkpt>
      <trkpt lat="45.58297" lon="2.81632">
        <ele>1192</ele>
        <time>2021-09-07T10:15:45.000Z</time>
      </trkpt>
      <trkpt lat="45.58289" lon="2.81635">
        <ele>1194.5</ele>
        <time>2021-09-07T10:15:51.000Z</time>
      </trkpt>
      <trkpt lat="45.58283" lon="2.81635">
        <ele>1196.4</ele>
        <time>2021-09-07T10:16:05.000Z</time>
      </trkpt>
      <trkpt lat="45.58273" lon="2.81634">
        <ele>1199.6</ele>
        <time>2021-09-07T10:16:09.000Z</time>
      </trkpt>
      <trkpt lat="45.58263" lon="2.81631">
        <ele>1202.7</ele>
        <time>2021-09-07T10:16:15.000Z</time>
      </trkpt>
      <trkpt lat="45.58256" lon="2.81627">
        <ele>1204.7</ele>
        <time>2021-09-07T10:16:21.000Z</time>
      </trkpt>
      <trkpt lat="45.5825" lon="2.81626">
        <ele>1206.5</ele>
        <time>2021-09-07T10:16:27.000Z</time>
      </trkpt>
      <trkpt lat="45.58244" lon="2.8163">
        <ele>1207.2</ele>
        <time>2021-09-07T10:16:33.000Z</time>
      </trkpt>
      <trkpt lat="45.58236" lon="2.81633">
        <ele>1208</ele>
        <time>2021-09-07T10:16:41.000Z</time>
      </trkpt>
      <trkpt lat="45.58228" lon="2.81627">
        <ele>1208.5</ele>
        <time>2021-09-07T10:16:48.000Z</time>
      </trkpt>
      <trkpt lat="45.58223" lon="2.81619">
        <ele>1208.8</ele>
        <time>2021-09-07T10:16:52.000Z</time>
      </trkpt>
      <trkpt lat="45.58215" lon="2.81621">
        <ele>1209.6</ele>
        <time>2021-09-07T10:16:57.000Z</time>
      </trkpt>
      <trkpt lat="45.58209" lon="2.81613">
        <ele>1210</ele>
        <time>2021-09-07T10:17:03.000Z</time>
      </trkpt>
      <trkpt lat="45.58202" lon="2.81616">
        <ele>1210.7</ele>
        <time>2021-09-07T10:17:15.000Z</time>
      </trkpt>
      <trkpt lat="45.58205" lon="2.81603">
        <ele>1210.2</ele>
        <time>2021-09-07T10:17:32.000Z</time>
      </trkpt>
      <trkpt lat="45.5821" lon="2.81594">
        <ele>1209.5</ele>
        <time>2021-09-07T10:17:36.000Z</time>
      </trkpt>
      <trkpt lat="45.58214" lon="2.81602">
        <ele>1209.3</ele>
        <time>2021-09-07T10:17:43.000Z</time>
      </trkpt>
      <trkpt lat="45.58212" lon="2.81611">
        <ele>1209.6</ele>
        <time>2021-09-07T10:17:56.000Z</time>
      </trkpt>
      <trkpt lat="45.58201" lon="2.81625">
        <ele>1210.9</ele>
        <time>2021-09-07T10:18:03.000Z</time>
      </trkpt>
      <trkpt lat="45.58192" lon="2.81626">
        <ele>1211.7</ele>
        <time>2021-09-07T10:18:13.000Z</time>
      </trkpt>
      <trkpt lat="45.58187" lon="2.81635">
        <ele>1212.3</ele>
        <time>2021-09-07T10:18:17.000Z</time>
      </trkpt>
      <trkpt lat="45.58178" lon="2.81645">
        <ele>1213.1</ele>
        <time>2021-09-07T10:18:21.000Z</time>
      </trkpt>
      <trkpt lat="45.58168" lon="2.81645">
        <ele>1213.9</ele>
        <time>2021-09-07T10:18:27.000Z</time>
      </trkpt>
      <trkpt lat="45.58163" lon="2.81651">
        <ele>1214.2</ele>
        <time>2021-09-07T10:18:47.000Z</time>
      </trkpt>
      <trkpt lat="45.58166" lon="2.81659">
        <ele>1214</ele>
        <time>2021-09-07T10:18:53.000Z</time>
      </trkpt>
      <trkpt lat="45.58172" lon="2.81664">
        <ele>1213.6</ele>
        <time>2021-09-07T10:18:59.000Z</time>
      </trkpt>
      <trkpt lat="45.58177" lon="2.81656">
        <ele>1213.2</ele>
        <time>2021-09-07T10:19:15.000Z</time>
      </trkpt>
      <trkpt lat="45.58183" lon="2.81648">
        <ele>1212.7</ele>
        <time>2021-09-07T10:19:21.000Z</time>
      </trkpt>
      <trkpt lat="45.58179" lon="2.8164">
        <ele>1213</ele>
        <time>2021-09-07T10:19:27.000Z</time>
      </trkpt>
      <trkpt lat="45.58172" lon="2.81635">
        <ele>1213.5</ele>
        <time>2021-09-07T10:19:33.000Z</time>
      </trkpt>
      <trkpt lat="45.58179" lon="2.81627">
        <ele>1212.9</ele>
        <time>2021-09-07T10:19:47.000Z</time>
      </trkpt>
      <trkpt lat="45.58186" lon="2.81622">
        <ele>1212.2</ele>
        <time>2021-09-07T10:19:51.000Z</time>
      </trkpt>
      <trkpt lat="45.58192" lon="2.81617">
        <ele>1211.6</ele>
        <time>2021-09-07T10:20:02.000Z</time>
      </trkpt>
      <trkpt lat="45.58203" lon="2.81615">
        <ele>1210.6</ele>
        <time>2021-09-07T10:20:36.000Z</time>
      </trkpt>
      <trkpt lat="45.5821" lon="2.81608">
        <ele>1209.8</ele>
        <time>2021-09-07T10:20:39.000Z</time>
      </trkpt>
      <trkpt lat="45.58206" lon="2.81616">
        <ele>1210.3</ele>
        <time>2021-09-07T10:20:49.000Z</time>
      </trkpt>
      <trkpt lat="45.58199" lon="2.81611">
        <ele>1210.9</ele>
        <time>2021-09-07T10:21:08.000Z</time>
      </trkpt>
      <trkpt lat="45.58196" lon="2.8162">
        <ele>1211.3</ele>
        <time>2021-09-07T10:21:17.000Z</time>
      </trkpt>
      <trkpt lat="45.58194" lon="2.81629">
        <ele>1211.6</ele>
        <time>2021-09-07T10:21:29.000Z</time>
      </trkpt>
      <trkpt lat="45.5819" lon="2.81638">
        <ele>1212</ele>
        <time>2021-09-07T10:22:15.000Z</time>
      </trkpt>
      <trkpt lat="45.58188" lon="2.81647">
        <ele>1212.3</ele>
        <time>2021-09-07T10:22:55.000Z</time>
      </trkpt>
      <trkpt lat="45.58195" lon="2.81632">
        <ele>1211.5</ele>
        <time>2021-09-07T10:23:11.000Z</time>
      </trkpt>
      <trkpt lat="45.582" lon="2.81626">
        <ele>1211</ele>
        <time>2021-09-07T10:23:18.000Z</time>
      </trkpt>
      <trkpt lat="45.58207" lon="2.81627">
        <ele>1210.4</ele>
        <time>2021-09-07T10:23:24.000Z</time>
      </trkpt>
      <trkpt lat="45.58213" lon="2.8163">
        <ele>1209.9</ele>
        <time>2021-09-07T10:23:30.000Z</time>
      </trkpt>
      <trkpt lat="45.58219" lon="2.81632">
        <ele>1209.4</ele>
        <time>2021-09-07T10:23:37.000Z</time>
      </trkpt>
      <trkpt lat="45.58226" lon="2.81635">
        <ele>1208.9</ele>
        <time>2021-09-07T10:23:44.000Z</time>
      </trkpt>
      <trkpt lat="45.58234" lon="2.81633">
        <ele>1208.2</ele>
        <time>2021-09-07T10:23:48.000Z</time>
      </trkpt>
      <trkpt lat="45.58246" lon="2.81626">
        <ele>1206.9</ele>
        <time>2021-09-07T10:23:51.000Z</time>
      </trkpt>
      <trkpt lat="45.58253" lon="2.81631">
        <ele>1205.8</ele>
        <time>2021-09-07T10:23:57.000Z</time>
      </trkpt>
      <trkpt lat="45.5826" lon="2.81634">
        <ele>1203.7</ele>
        <time>2021-09-07T10:24:04.000Z</time>
      </trkpt>
      <trkpt lat="45.58268" lon="2.81634">
        <ele>1201.2</ele>
        <time>2021-09-07T10:24:11.000Z</time>
      </trkpt>
      <trkpt lat="45.58279" lon="2.81634">
        <ele>1197.7</ele>
        <time>2021-09-07T10:24:15.000Z</time>
      </trkpt>
      <trkpt lat="45.58287" lon="2.81634">
        <ele>1195.2</ele>
        <time>2021-09-07T10:24:21.000Z</time>
      </trkpt>
      <trkpt lat="45.58293" lon="2.81629">
        <ele>1193.3</ele>
        <time>2021-09-07T10:24:27.000Z</time>
      </trkpt>
      <trkpt lat="45.58301" lon="2.81627">
        <ele>1190.9</ele>
        <time>2021-09-07T10:24:33.000Z</time>
      </trkpt>
      <trkpt lat="45.58309" lon="2.81623">
        <ele>1188.5</ele>
        <time>2021-09-07T10:24:39.000Z</time>
      </trkpt>
      <trkpt lat="45.58319" lon="2.81622">
        <ele>1185.5</ele>
        <time>2021-09-07T10:24:45.000Z</time>
      </trkpt>
      <trkpt lat="45.58327" lon="2.81616">
        <ele>1183.3</ele>
        <time>2021-09-07T10:24:51.000Z</time>
      </trkpt>
      <trkpt lat="45.58333" lon="2.81611">
        <ele>1181.8</ele>
        <time>2021-09-07T10:24:58.000Z</time>
      </trkpt>
      <trkpt lat="45.5834" lon="2.8161">
        <ele>1180.7</ele>
        <time>2021-09-07T10:25:04.000Z</time>
      </trkpt>
      <trkpt lat="45.58347" lon="2.8161">
        <ele>1179.7</ele>
        <time>2021-09-07T10:25:10.000Z</time>
      </trkpt>
      <trkpt lat="45.58356" lon="2.81608">
        <ele>1178.4</ele>
        <time>2021-09-07T10:25:15.000Z</time>
      </trkpt>
      <trkpt lat="45.58365" lon="2.81605">
        <ele>1177.3</ele>
        <time>2021-09-07T10:25:21.000Z</time>
      </trkpt>
      <trkpt lat="45.58373" lon="2.816">
        <ele>1176.5</ele>
        <time>2021-09-07T10:25:27.000Z</time>
      </trkpt>
      <trkpt lat="45.58385" lon="2.81594">
        <ele>1175.3</ele>
        <time>2021-09-07T10:25:33.000Z</time>
      </trkpt>
      <trkpt lat="45.58395" lon="2.81589">
        <ele>1174.3</ele>
        <time>2021-09-07T10:25:39.000Z</time>
      </trkpt>
      <trkpt lat="45.58403" lon="2.81589">
        <ele>1173.2</ele>
        <time>2021-09-07T10:25:45.000Z</time>
      </trkpt>
      <trkpt lat="45.58412" lon="2.81587">
        <ele>1172.2</ele>
        <time>2021-09-07T10:25:51.000Z</time>
      </trkpt>
      <trkpt lat="45.58419" lon="2.81583">
        <ele>1171.7</ele>
        <time>2021-09-07T10:25:57.000Z</time>
      </trkpt>
      <trkpt lat="45.58425" lon="2.81577">
        <ele>1171.1</ele>
        <time>2021-09-07T10:26:03.000Z</time>
      </trkpt>
      <trkpt lat="45.58431" lon="2.8157">
        <ele>1170.7</ele>
        <time>2021-09-07T10:26:09.000Z</time>
      </trkpt>
      <trkpt lat="45.58437" lon="2.81562">
        <ele>1170.4</ele>
        <time>2021-09-07T10:26:15.000Z</time>
      </trkpt>
      <trkpt lat="45.58443" lon="2.81559">
        <ele>1169.7</ele>
        <time>2021-09-07T10:26:27.000Z</time>
      </trkpt>
      <trkpt lat="45.58446" lon="2.8155">
        <ele>1170</ele>
        <time>2021-09-07T10:26:39.000Z</time>
      </trkpt>
      <trkpt lat="45.58448" lon="2.81541">
        <ele>1170.4</ele>
        <time>2021-09-07T10:26:46.000Z</time>
      </trkpt>
      <trkpt lat="45.58453" lon="2.81532">
        <ele>1170.5</ele>
        <time>2021-09-07T10:26:51.000Z</time>
      </trkpt>
      <trkpt lat="45.58456" lon="2.81521">
        <ele>1171</ele>
        <time>2021-09-07T10:26:57.000Z</time>
      </trkpt>
      <trkpt lat="45.58458" lon="2.81511">
        <ele>1171.6</ele>
        <time>2021-09-07T10:27:03.000Z</time>
      </trkpt>
      <trkpt lat="45.58465" lon="2.81507">
        <ele>1171.2</ele>
        <time>2021-09-07T10:27:11.000Z</time>
      </trkpt>
      <trkpt lat="45.58471" lon="2.81502">
        <ele>1170.9</ele>
        <time>2021-09-07T10:27:16.000Z</time>
      </trkpt>
      <trkpt lat="45.58477" lon="2.81506">
        <ele>1169.9</ele>
        <time>2021-09-07T10:27:25.000Z</time>
      </trkpt>
      <trkpt lat="45.58479" lon="2.81515">
        <ele>1168.8</ele>
        <time>2021-09-07T10:27:36.000Z</time>
      </trkpt>
      <trkpt lat="45.58486" lon="2.81515">
        <ele>1168</ele>
        <time>2021-09-07T10:27:41.000Z</time>
      </trkpt>
      <trkpt lat="45.58495" lon="2.81516">
        <ele>1166.9</ele>
        <time>2021-09-07T10:27:45.000Z</time>
      </trkpt>
      <trkpt lat="45.58507" lon="2.81526">
        <ele>1164</ele>
        <time>2021-09-07T10:27:51.000Z</time>
      </trkpt>
      <trkpt lat="45.58516" lon="2.81535">
        <ele>1161.5</ele>
        <time>2021-09-07T10:27:57.000Z</time>
      </trkpt>
      <trkpt lat="45.58521" lon="2.81541">
        <ele>1160</ele>
        <time>2021-09-07T10:28:04.000Z</time>
      </trkpt>
      <trkpt lat="45.58525" lon="2.81549">
        <ele>1158.6</ele>
        <time>2021-09-07T10:28:11.000Z</time>
      </trkpt>
      <trkpt lat="45.5853" lon="2.81556">
        <ele>1157</ele>
        <time>2021-09-07T10:28:16.000Z</time>
      </trkpt>
      <trkpt lat="45.58535" lon="2.81563">
        <ele>1155.5</ele>
        <time>2021-09-07T10:28:22.000Z</time>
      </trkpt>
      <trkpt lat="45.58541" lon="2.81568">
        <ele>1154.1</ele>
        <time>2021-09-07T10:28:29.000Z</time>
      </trkpt>
      <trkpt lat="45.58546" lon="2.81576">
        <ele>1152.5</ele>
        <time>2021-09-07T10:28:37.000Z</time>
      </trkpt>
      <trkpt lat="45.58552" lon="2.81581">
        <ele>1151.1</ele>
        <time>2021-09-07T10:28:43.000Z</time>
      </trkpt>
      <trkpt lat="45.58558" lon="2.81585">
        <ele>1149.8</ele>
        <time>2021-09-07T10:28:46.000Z</time>
      </trkpt>
      <trkpt lat="45.58564" lon="2.81591">
        <ele>1148.4</ele>
        <time>2021-09-07T10:28:51.000Z</time>
      </trkpt>
      <trkpt lat="45.58572" lon="2.81597">
        <ele>1146.8</ele>
        <time>2021-09-07T10:28:57.000Z</time>
      </trkpt>
      <trkpt lat="45.58578" lon="2.81608">
        <ele>1145.3</ele>
        <time>2021-09-07T10:29:03.000Z</time>
      </trkpt>
      <trkpt lat="45.58585" lon="2.81612">
        <ele>1144.3</ele>
        <time>2021-09-07T10:29:09.000Z</time>
      </trkpt>
      <trkpt lat="45.58592" lon="2.8162">
        <ele>1143.9</ele>
        <time>2021-09-07T10:29:15.000Z</time>
      </trkpt>
      <trkpt lat="45.58596" lon="2.81626">
        <ele>1143.6</ele>
        <time>2021-09-07T10:29:23.000Z</time>
      </trkpt>
      <trkpt lat="45.58594" lon="2.81637">
        <ele>1142.9</ele>
        <time>2021-09-07T10:29:37.000Z</time>
      </trkpt>
      <trkpt lat="45.58591" lon="2.81646">
        <ele>1142.3</ele>
        <time>2021-09-07T10:29:43.000Z</time>
      </trkpt>
      <trkpt lat="45.58588" lon="2.81656">
        <ele>1141.7</ele>
        <time>2021-09-07T10:29:49.000Z</time>
      </trkpt>
      <trkpt lat="45.58581" lon="2.8166">
        <ele>1141.6</ele>
        <time>2021-09-07T10:30:00.000Z</time>
      </trkpt>
      <trkpt lat="45.5858" lon="2.81669">
        <ele>1141.2</ele>
        <time>2021-09-07T10:30:10.000Z</time>
      </trkpt>
      <trkpt lat="45.58585" lon="2.81677">
        <ele>1140.6</ele>
        <time>2021-09-07T10:30:15.000Z</time>
      </trkpt>
      <trkpt lat="45.58587" lon="2.81686">
        <ele>1140.3</ele>
        <time>2021-09-07T10:31:03.000Z</time>
      </trkpt>
      <trkpt lat="45.58596" lon="2.81691">
        <ele>1140</ele>
        <time>2021-09-07T10:31:09.000Z</time>
      </trkpt>
      <trkpt lat="45.58603" lon="2.81695">
        <ele>1139.7</ele>
        <time>2021-09-07T10:31:15.000Z</time>
      </trkpt>
      <trkpt lat="45.58611" lon="2.81703">
        <ele>1139</ele>
        <time>2021-09-07T10:31:21.000Z</time>
      </trkpt>
      <trkpt lat="45.58618" lon="2.81702">
        <ele>1138.9</ele>
        <time>2021-09-07T10:31:27.000Z</time>
      </trkpt>
      <trkpt lat="45.58625" lon="2.81703">
        <ele>1138.7</ele>
        <time>2021-09-07T10:31:33.000Z</time>
      </trkpt>
      <trkpt lat="45.58633" lon="2.81703">
        <ele>1138.5</ele>
        <time>2021-09-07T10:31:39.000Z</time>
      </trkpt>
      <trkpt lat="45.58639" lon="2.817">
        <ele>1138.6</ele>
        <time>2021-09-07T10:32:07.000Z</time>
      </trkpt>
      <trkpt lat="45.58645" lon="2.81694">
        <ele>1139.1</ele>
        <time>2021-09-07T10:32:17.000Z</time>
      </trkpt>
      <trkpt lat="45.58652" lon="2.81691">
        <ele>1139.3</ele>
        <time>2021-09-07T10:32:22.000Z</time>
      </trkpt>
      <trkpt lat="45.5866" lon="2.81686">
        <ele>1139.7</ele>
        <time>2021-09-07T10:32:27.000Z</time>
      </trkpt>
      <trkpt lat="45.58665" lon="2.81678">
        <ele>1140.6</ele>
        <time>2021-09-07T10:32:33.000Z</time>
      </trkpt>
      <trkpt lat="45.58674" lon="2.81668">
        <ele>1141.6</ele>
        <time>2021-09-07T10:32:39.000Z</time>
      </trkpt>
      <trkpt lat="45.58681" lon="2.8166">
        <ele>1141.9</ele>
        <time>2021-09-07T10:32:45.000Z</time>
      </trkpt>
      <trkpt lat="45.58686" lon="2.81652">
        <ele>1142.1</ele>
        <time>2021-09-07T10:32:52.000Z</time>
      </trkpt>
      <trkpt lat="45.58688" lon="2.81644">
        <ele>1142.5</ele>
        <time>2021-09-07T10:32:58.000Z</time>
      </trkpt>
      <trkpt lat="45.58691" lon="2.81635">
        <ele>1142.8</ele>
        <time>2021-09-07T10:33:03.000Z</time>
      </trkpt>
      <trkpt lat="45.58698" lon="2.81625">
        <ele>1143</ele>
        <time>2021-09-07T10:33:09.000Z</time>
      </trkpt>
      <trkpt lat="45.58703" lon="2.81614">
        <ele>1143.3</ele>
        <time>2021-09-07T10:33:15.000Z</time>
      </trkpt>
      <trkpt lat="45.58708" lon="2.81606">
        <ele>1143.4</ele>
        <time>2021-09-07T10:33:21.000Z</time>
      </trkpt>
      <trkpt lat="45.58712" lon="2.81599">
        <ele>1143.5</ele>
        <time>2021-09-07T10:33:27.000Z</time>
      </trkpt>
      <trkpt lat="45.58716" lon="2.8159">
        <ele>1143.7</ele>
        <time>2021-09-07T10:33:36.000Z</time>
      </trkpt>
      <trkpt lat="45.58719" lon="2.81581">
        <ele>1143.6</ele>
        <time>2021-09-07T10:33:45.000Z</time>
      </trkpt>
      <trkpt lat="45.58723" lon="2.81573">
        <ele>1142.4</ele>
        <time>2021-09-07T10:33:52.000Z</time>
      </trkpt>
      <trkpt lat="45.58713" lon="2.81562">
        <ele>1141.9</ele>
        <time>2021-09-07T10:34:38.000Z</time>
      </trkpt>
      <trkpt lat="45.58718" lon="2.81567">
        <ele>1142</ele>
        <time>2021-09-07T10:41:29.000Z</time>
      </trkpt>
      <trkpt lat="45.58713" lon="2.81575">
        <ele>1143.3</ele>
        <time>2021-09-07T10:41:59.000Z</time>
      </trkpt>
      <trkpt lat="45.58708" lon="2.81582">
        <ele>1144.4</ele>
        <time>2021-09-07T10:42:05.000Z</time>
      </trkpt>
      <trkpt lat="45.58713" lon="2.81568">
        <ele>1142.6</ele>
        <time>2021-09-07T10:42:09.000Z</time>
      </trkpt>
      <trkpt lat="45.58723" lon="2.81526">
        <ele>1136.7</ele>
        <time>2021-09-07T10:42:15.000Z</time>
      </trkpt>
      <trkpt lat="45.5872" lon="2.81537">
        <ele>1138.4</ele>
        <time>2021-09-07T10:42:21.000Z</time>
      </trkpt>
      <trkpt lat="45.58714" lon="2.81554">
        <ele>1141</ele>
        <time>2021-09-07T10:42:27.000Z</time>
      </trkpt>
      <trkpt lat="45.58723" lon="2.81537">
        <ele>1138</ele>
        <time>2021-09-07T10:42:33.000Z</time>
      </trkpt>
      <trkpt lat="45.58729" lon="2.8154">
        <ele>1137.7</ele>
        <time>2021-09-07T10:42:39.000Z</time>
      </trkpt>
      <trkpt lat="45.58724" lon="2.81568">
        <ele>1141.7</ele>
        <time>2021-09-07T10:42:45.000Z</time>
      </trkpt>
      <trkpt lat="45.5872" lon="2.81579">
        <ele>1143.3</ele>
        <time>2021-09-07T10:42:54.000Z</time>
      </trkpt>
      <trkpt lat="45.58727" lon="2.8158">
        <ele>1143</ele>
        <time>2021-09-07T10:43:05.000Z</time>
      </trkpt>
      <trkpt lat="45.58734" lon="2.8158">
        <ele>1142.5</ele>
        <time>2021-09-07T10:43:12.000Z</time>
      </trkpt>
      <trkpt lat="45.58739" lon="2.81573">
        <ele>1141.2</ele>
        <time>2021-09-07T10:43:23.000Z</time>
      </trkpt>
      <trkpt lat="45.58744" lon="2.81566">
        <ele>1139.8</ele>
        <time>2021-09-07T10:43:29.000Z</time>
      </trkpt>
      <trkpt lat="45.58749" lon="2.81559">
        <ele>1138.3</ele>
        <time>2021-09-07T10:43:37.000Z</time>
      </trkpt>
      <trkpt lat="45.58755" lon="2.81555">
        <ele>1136.6</ele>
        <time>2021-09-07T10:43:49.000Z</time>
      </trkpt>
      <trkpt lat="45.58762" lon="2.81552">
        <ele>1134.8</ele>
        <time>2021-09-07T10:43:56.000Z</time>
      </trkpt>
      <trkpt lat="45.58768" lon="2.81548">
        <ele>1133.1</ele>
        <time>2021-09-07T10:44:02.000Z</time>
      </trkpt>
      <trkpt lat="45.58776" lon="2.81547">
        <ele>1131.4</ele>
        <time>2021-09-07T10:44:08.000Z</time>
      </trkpt>
      <trkpt lat="45.58782" lon="2.81545">
        <ele>1129.9</ele>
        <time>2021-09-07T10:44:18.000Z</time>
      </trkpt>
      <trkpt lat="45.58787" lon="2.81538">
        <ele>1127.8</ele>
        <time>2021-09-07T10:44:39.000Z</time>
      </trkpt>
      <trkpt lat="45.58784" lon="2.81529">
        <ele>1126.9</ele>
        <time>2021-09-07T10:44:47.000Z</time>
      </trkpt>
      <trkpt lat="45.58777" lon="2.81526">
        <ele>1127.8</ele>
        <time>2021-09-07T10:44:59.000Z</time>
      </trkpt>
      <trkpt lat="45.58771" lon="2.81529">
        <ele>1129.4</ele>
        <time>2021-09-07T10:45:13.000Z</time>
      </trkpt>
      <trkpt lat="45.58765" lon="2.81526">
        <ele>1130.1</ele>
        <time>2021-09-07T10:45:24.000Z</time>
      </trkpt>
      <trkpt lat="45.58758" lon="2.81522">
        <ele>1130.9</ele>
        <time>2021-09-07T10:45:29.000Z</time>
      </trkpt>
      <trkpt lat="45.58753" lon="2.81516">
        <ele>1130.9</ele>
        <time>2021-09-07T10:45:39.000Z</time>
      </trkpt>
      <trkpt lat="45.58748" lon="2.81506">
        <ele>1130.3</ele>
        <time>2021-09-07T10:45:50.000Z</time>
      </trkpt>
      <trkpt lat="45.58747" lon="2.81496">
        <ele>1128.7</ele>
        <time>2021-09-07T10:45:58.000Z</time>
      </trkpt>
      <trkpt lat="45.58745" lon="2.81486">
        <ele>1126.9</ele>
        <time>2021-09-07T10:46:04.000Z</time>
      </trkpt>
      <trkpt lat="45.58744" lon="2.81476">
        <ele>1125</ele>
        <time>2021-09-07T10:46:11.000Z</time>
      </trkpt>
      <trkpt lat="45.5874" lon="2.81467">
        <ele>1124</ele>
        <time>2021-09-07T10:46:15.000Z</time>
      </trkpt>
      <trkpt lat="45.58738" lon="2.81458">
        <ele>1122.7</ele>
        <time>2021-09-07T10:46:22.000Z</time>
      </trkpt>
      <trkpt lat="45.58736" lon="2.81446">
        <ele>1120.8</ele>
        <time>2021-09-07T10:46:27.000Z</time>
      </trkpt>
      <trkpt lat="45.58733" lon="2.81437">
        <ele>1119.8</ele>
        <time>2021-09-07T10:46:33.000Z</time>
      </trkpt>
      <trkpt lat="45.58737" lon="2.81429">
        <ele>1117.2</ele>
        <time>2021-09-07T10:46:43.000Z</time>
      </trkpt>
      <trkpt lat="45.58742" lon="2.8142">
        <ele>1114</ele>
        <time>2021-09-07T10:46:47.000Z</time>
      </trkpt>
      <trkpt lat="45.58745" lon="2.81411">
        <ele>1111.9</ele>
        <time>2021-09-07T10:46:51.000Z</time>
      </trkpt>
      <trkpt lat="45.5875" lon="2.81401">
        <ele>1109.5</ele>
        <time>2021-09-07T10:46:57.000Z</time>
      </trkpt>
      <trkpt lat="45.58754" lon="2.81393">
        <ele>1107.8</ele>
        <time>2021-09-07T10:47:03.000Z</time>
      </trkpt>
      <trkpt lat="45.58754" lon="2.81383">
        <ele>1106.8</ele>
        <time>2021-09-07T10:47:12.000Z</time>
      </trkpt>
      <trkpt lat="45.58758" lon="2.81374">
        <ele>1104.9</ele>
        <time>2021-09-07T10:47:19.000Z</time>
      </trkpt>
      <trkpt lat="45.5876" lon="2.81364">
        <ele>1103.4</ele>
        <time>2021-09-07T10:47:23.000Z</time>
      </trkpt>
      <trkpt lat="45.58764" lon="2.81356">
        <ele>1101.6</ele>
        <time>2021-09-07T10:47:27.000Z</time>
      </trkpt>
      <trkpt lat="45.58768" lon="2.81346">
        <ele>1099.6</ele>
        <time>2021-09-07T10:47:33.000Z</time>
      </trkpt>
      <trkpt lat="45.58774" lon="2.81341">
        <ele>1097.5</ele>
        <time>2021-09-07T10:47:39.000Z</time>
      </trkpt>
      <trkpt lat="45.58779" lon="2.81333">
        <ele>1095.3</ele>
        <time>2021-09-07T10:47:51.000Z</time>
      </trkpt>
      <trkpt lat="45.58783" lon="2.81326">
        <ele>1094.1</ele>
        <time>2021-09-07T10:48:03.000Z</time>
      </trkpt>
      <trkpt lat="45.58787" lon="2.81316">
        <ele>1092.7</ele>
        <time>2021-09-07T10:48:09.000Z</time>
      </trkpt>
      <trkpt lat="45.58791" lon="2.81301">
        <ele>1091.2</ele>
        <time>2021-09-07T10:48:15.000Z</time>
      </trkpt>
      <trkpt lat="45.58794" lon="2.81292">
        <ele>1090.1</ele>
        <time>2021-09-07T10:48:21.000Z</time>
      </trkpt>
      <trkpt lat="45.58795" lon="2.81282">
        <ele>1089.6</ele>
        <time>2021-09-07T10:48:30.000Z</time>
      </trkpt>
      <trkpt lat="45.58797" lon="2.81271">
        <ele>1088.7</ele>
        <time>2021-09-07T10:48:35.000Z</time>
      </trkpt>
      <trkpt lat="45.58797" lon="2.81261">
        <ele>1088.4</ele>
        <time>2021-09-07T10:48:42.000Z</time>
      </trkpt>
      <trkpt lat="45.58797" lon="2.8125">
        <ele>1088</ele>
        <time>2021-09-07T10:48:46.000Z</time>
      </trkpt>
      <trkpt lat="45.58796" lon="2.81241">
        <ele>1089.3</ele>
        <time>2021-09-07T10:48:53.000Z</time>
      </trkpt>
      <trkpt lat="45.58799" lon="2.81232">
        <ele>1089.4</ele>
        <time>2021-09-07T10:48:57.000Z</time>
      </trkpt>
      <trkpt lat="45.58802" lon="2.81215">
        <ele>1090.1</ele>
        <time>2021-09-07T10:49:03.000Z</time>
      </trkpt>
      <trkpt lat="45.58809" lon="2.81203">
        <ele>1088.4</ele>
        <time>2021-09-07T10:49:09.000Z</time>
      </trkpt>
      <trkpt lat="45.58812" lon="2.81194">
        <ele>1087.8</ele>
        <time>2021-09-07T10:49:15.000Z</time>
      </trkpt>
      <trkpt lat="45.58815" lon="2.81185">
        <ele>1087.1</ele>
        <time>2021-09-07T10:49:25.000Z</time>
      </trkpt>
      <trkpt lat="45.58823" lon="2.81176">
        <ele>1083.8</ele>
        <time>2021-09-07T10:49:31.000Z</time>
      </trkpt>
      <trkpt lat="45.58824" lon="2.81166">
        <ele>1083.8</ele>
        <time>2021-09-07T10:49:36.000Z</time>
      </trkpt>
      <trkpt lat="45.58825" lon="2.81155">
        <ele>1084.7</ele>
        <time>2021-09-07T10:49:41.000Z</time>
      </trkpt>
      <trkpt lat="45.58825" lon="2.81141">
        <ele>1086.5</ele>
        <time>2021-09-07T10:49:45.000Z</time>
      </trkpt>
      <trkpt lat="45.58825" lon="2.81128">
        <ele>1088.1</ele>
        <time>2021-09-07T10:49:51.000Z</time>
      </trkpt>
      <trkpt lat="45.58825" lon="2.81119">
        <ele>1089.3</ele>
        <time>2021-09-07T10:49:57.000Z</time>
      </trkpt>
      <trkpt lat="45.58817" lon="2.81119">
        <ele>1093.6</ele>
        <time>2021-09-07T10:50:10.000Z</time>
      </trkpt>
      <trkpt lat="45.58814" lon="2.8111">
        <ele>1096.5</ele>
        <time>2021-09-07T10:50:21.000Z</time>
      </trkpt>
      <trkpt lat="45.58815" lon="2.81097">
        <ele>1097.7</ele>
        <time>2021-09-07T10:50:27.000Z</time>
      </trkpt>
      <trkpt lat="45.58814" lon="2.81087">
        <ele>1099.6</ele>
        <time>2021-09-07T10:50:34.000Z</time>
      </trkpt>
      <trkpt lat="45.58815" lon="2.81077">
        <ele>1100.6</ele>
        <time>2021-09-07T10:50:39.000Z</time>
      </trkpt>
      <trkpt lat="45.58822" lon="2.81068">
        <ele>1098.1</ele>
        <time>2021-09-07T10:50:45.000Z</time>
      </trkpt>
      <trkpt lat="45.58828" lon="2.81061">
        <ele>1095.8</ele>
        <time>2021-09-07T10:50:51.000Z</time>
      </trkpt>
      <trkpt lat="45.5883" lon="2.81052">
        <ele>1096.2</ele>
        <time>2021-09-07T10:50:57.000Z</time>
      </trkpt>
      <trkpt lat="45.58834" lon="2.81044">
        <ele>1095.3</ele>
        <time>2021-09-07T10:51:03.000Z</time>
      </trkpt>
      <trkpt lat="45.58835" lon="2.81034">
        <ele>1096.5</ele>
        <time>2021-09-07T10:51:16.000Z</time>
      </trkpt>
      <trkpt lat="45.58842" lon="2.81027">
        <ele>1094.3</ele>
        <time>2021-09-07T10:51:24.000Z</time>
      </trkpt>
      <trkpt lat="45.58843" lon="2.81017">
        <ele>1095.3</ele>
        <time>2021-09-07T10:51:28.000Z</time>
      </trkpt>
      <trkpt lat="45.58843" lon="2.81005">
        <ele>1097.1</ele>
        <time>2021-09-07T10:51:33.000Z</time>
      </trkpt>
      <trkpt lat="45.58843" lon="2.80993">
        <ele>1098.4</ele>
        <time>2021-09-07T10:51:40.000Z</time>
      </trkpt>
      <trkpt lat="45.58846" lon="2.80979">
        <ele>1097.7</ele>
        <time>2021-09-07T10:51:45.000Z</time>
      </trkpt>
      <trkpt lat="45.58845" lon="2.80965">
        <ele>1099.1</ele>
        <time>2021-09-07T10:51:51.000Z</time>
      </trkpt>
      <trkpt lat="45.58842" lon="2.80949">
        <ele>1101.8</ele>
        <time>2021-09-07T10:51:57.000Z</time>
      </trkpt>
      <trkpt lat="45.58841" lon="2.80932">
        <ele>1103.5</ele>
        <time>2021-09-07T10:52:03.000Z</time>
      </trkpt>
      <trkpt lat="45.58843" lon="2.8092">
        <ele>1103.2</ele>
        <time>2021-09-07T10:52:09.000Z</time>
      </trkpt>
      <trkpt lat="45.58846" lon="2.80908">
        <ele>1102</ele>
        <time>2021-09-07T10:52:15.000Z</time>
      </trkpt>
      <trkpt lat="45.58852" lon="2.80898">
        <ele>1098.9</ele>
        <time>2021-09-07T10:52:21.000Z</time>
      </trkpt>
      <trkpt lat="45.58858" lon="2.80892">
        <ele>1095.7</ele>
        <time>2021-09-07T10:52:33.000Z</time>
      </trkpt>
      <trkpt lat="45.58862" lon="2.80884">
        <ele>1093.8</ele>
        <time>2021-09-07T10:52:44.000Z</time>
      </trkpt>
      <trkpt lat="45.58861" lon="2.80874">
        <ele>1094.8</ele>
        <time>2021-09-07T10:52:51.000Z</time>
      </trkpt>
      <trkpt lat="45.58862" lon="2.80864">
        <ele>1094.6</ele>
        <time>2021-09-07T10:52:57.000Z</time>
      </trkpt>
      <trkpt lat="45.58864" lon="2.8085">
        <ele>1094.1</ele>
        <time>2021-09-07T10:53:03.000Z</time>
      </trkpt>
      <trkpt lat="45.58871" lon="2.80837">
        <ele>1090.9</ele>
        <time>2021-09-07T10:53:09.000Z</time>
      </trkpt>
      <trkpt lat="45.58876" lon="2.80822">
        <ele>1088.5</ele>
        <time>2021-09-07T10:53:15.000Z</time>
      </trkpt>
      <trkpt lat="45.58872" lon="2.80813">
        <ele>1090.7</ele>
        <time>2021-09-07T10:53:22.000Z</time>
      </trkpt>
      <trkpt lat="45.5887" lon="2.80805">
        <ele>1091.7</ele>
        <time>2021-09-07T10:53:29.000Z</time>
      </trkpt>
      <trkpt lat="45.58866" lon="2.80796">
        <ele>1093.8</ele>
        <time>2021-09-07T10:53:36.000Z</time>
      </trkpt>
      <trkpt lat="45.58866" lon="2.80786">
        <ele>1093.9</ele>
        <time>2021-09-07T10:53:44.000Z</time>
      </trkpt>
      <trkpt lat="45.58866" lon="2.80776">
        <ele>1093.9</ele>
        <time>2021-09-07T10:53:54.000Z</time>
      </trkpt>
      <trkpt lat="45.58865" lon="2.80767">
        <ele>1094.4</ele>
        <time>2021-09-07T10:54:02.000Z</time>
      </trkpt>
      <trkpt lat="45.58865" lon="2.80757">
        <ele>1094.4</ele>
        <time>2021-09-07T10:54:09.000Z</time>
      </trkpt>
      <trkpt lat="45.58862" lon="2.80748">
        <ele>1095.7</ele>
        <time>2021-09-07T10:54:16.000Z</time>
      </trkpt>
      <trkpt lat="45.58858" lon="2.80736">
        <ele>1096.6</ele>
        <time>2021-09-07T10:54:21.000Z</time>
      </trkpt>
      <trkpt lat="45.58857" lon="2.80726">
        <ele>1096.1</ele>
        <time>2021-09-07T10:54:28.000Z</time>
      </trkpt>
      <trkpt lat="45.58847" lon="2.80695">
        <ele>1097.8</ele>
        <time>2021-09-07T10:54:33.000Z</time>
      </trkpt>
      <trkpt lat="45.58841" lon="2.80682">
        <ele>1099.2</ele>
        <time>2021-09-07T10:54:39.000Z</time>
      </trkpt>
      <trkpt lat="45.5884" lon="2.80668">
        <ele>1098.2</ele>
        <time>2021-09-07T10:54:45.000Z</time>
      </trkpt>
      <trkpt lat="45.58841" lon="2.80655">
        <ele>1096.2</ele>
        <time>2021-09-07T10:54:51.000Z</time>
      </trkpt>
      <trkpt lat="45.58839" lon="2.80645">
        <ele>1095.9</ele>
        <time>2021-09-07T10:55:00.000Z</time>
      </trkpt>
      <trkpt lat="45.58834" lon="2.80637">
        <ele>1097.1</ele>
        <time>2021-09-07T10:55:07.000Z</time>
      </trkpt>
      <trkpt lat="45.5883" lon="2.80629">
        <ele>1098.5</ele>
        <time>2021-09-07T10:55:19.000Z</time>
      </trkpt>
      <trkpt lat="45.58831" lon="2.80618">
        <ele>1096.6</ele>
        <time>2021-09-07T10:55:24.000Z</time>
      </trkpt>
      <trkpt lat="45.58832" lon="2.80607">
        <ele>1094.7</ele>
        <time>2021-09-07T10:55:30.000Z</time>
      </trkpt>
      <trkpt lat="45.58833" lon="2.80597">
        <ele>1092.9</ele>
        <time>2021-09-07T10:55:35.000Z</time>
      </trkpt>
      <trkpt lat="45.58833" lon="2.80586">
        <ele>1091.5</ele>
        <time>2021-09-07T10:55:41.000Z</time>
      </trkpt>
      <trkpt lat="45.58831" lon="2.80578">
        <ele>1091.5</ele>
        <time>2021-09-07T10:55:45.000Z</time>
      </trkpt>
      <trkpt lat="45.58832" lon="2.80563">
        <ele>1088</ele>
        <time>2021-09-07T10:55:51.000Z</time>
      </trkpt>
      <trkpt lat="45.58836" lon="2.80553">
        <ele>1084</ele>
        <time>2021-09-07T10:55:57.000Z</time>
      </trkpt>
      <trkpt lat="45.58836" lon="2.80543">
        <ele>1082.1</ele>
        <time>2021-09-07T10:56:05.000Z</time>
      </trkpt>
      <trkpt lat="45.58834" lon="2.80533">
        <ele>1081</ele>
        <time>2021-09-07T10:56:09.000Z</time>
      </trkpt>
      <trkpt lat="45.58834" lon="2.80519">
        <ele>1078.4</ele>
        <time>2021-09-07T10:56:15.000Z</time>
      </trkpt>
      <trkpt lat="45.58831" lon="2.80503">
        <ele>1077.2</ele>
        <time>2021-09-07T10:56:21.000Z</time>
      </trkpt>
      <trkpt lat="45.58829" lon="2.8049">
        <ele>1076.3</ele>
        <time>2021-09-07T10:56:27.000Z</time>
      </trkpt>
      <trkpt lat="45.58827" lon="2.8048">
        <ele>1075.9</ele>
        <time>2021-09-07T10:56:33.000Z</time>
      </trkpt>
      <trkpt lat="45.58825" lon="2.80469">
        <ele>1075.3</ele>
        <time>2021-09-07T10:56:39.000Z</time>
      </trkpt>
      <trkpt lat="45.58824" lon="2.80457">
        <ele>1073.8</ele>
        <time>2021-09-07T10:56:45.000Z</time>
      </trkpt>
      <trkpt lat="45.58828" lon="2.80448">
        <ele>1069.9</ele>
        <time>2021-09-07T10:56:52.000Z</time>
      </trkpt>
      <trkpt lat="45.58827" lon="2.80438">
        <ele>1068.8</ele>
        <time>2021-09-07T10:56:57.000Z</time>
      </trkpt>
      <trkpt lat="45.58827" lon="2.80423">
        <ele>1066.3</ele>
        <time>2021-09-07T10:57:03.000Z</time>
      </trkpt>
      <trkpt lat="45.58826" lon="2.80411">
        <ele>1064.7</ele>
        <time>2021-09-07T10:57:09.000Z</time>
      </trkpt>
      <trkpt lat="45.58828" lon="2.80401">
        <ele>1062</ele>
        <time>2021-09-07T10:57:15.000Z</time>
      </trkpt>
      <trkpt lat="45.58831" lon="2.8039">
        <ele>1058.9</ele>
        <time>2021-09-07T10:57:21.000Z</time>
      </trkpt>
      <trkpt lat="45.58828" lon="2.80372">
        <ele>1057.1</ele>
        <time>2021-09-07T10:57:27.000Z</time>
      </trkpt>
      <trkpt lat="45.58827" lon="2.8036">
        <ele>1055.5</ele>
        <time>2021-09-07T10:57:33.000Z</time>
      </trkpt>
      <trkpt lat="45.58828" lon="2.80349">
        <ele>1053.2</ele>
        <time>2021-09-07T10:57:40.000Z</time>
      </trkpt>
      <trkpt lat="45.58829" lon="2.80337">
        <ele>1050.9</ele>
        <time>2021-09-07T10:57:46.000Z</time>
      </trkpt>
      <trkpt lat="45.58826" lon="2.80327">
        <ele>1049.5</ele>
        <time>2021-09-07T10:57:53.000Z</time>
      </trkpt>
      <trkpt lat="45.58824" lon="2.80316">
        <ele>1047</ele>
        <time>2021-09-07T10:57:57.000Z</time>
      </trkpt>
      <trkpt lat="45.5882" lon="2.80306">
        <ele>1045.2</ele>
        <time>2021-09-07T10:58:08.000Z</time>
      </trkpt>
      <trkpt lat="45.58818" lon="2.80296">
        <ele>1042.7</ele>
        <time>2021-09-07T10:58:14.000Z</time>
      </trkpt>
      <trkpt lat="45.58816" lon="2.80285">
        <ele>1039.8</ele>
        <time>2021-09-07T10:58:20.000Z</time>
      </trkpt>
      <trkpt lat="45.58812" lon="2.80276">
        <ele>1037.8</ele>
        <time>2021-09-07T10:58:25.000Z</time>
      </trkpt>
      <trkpt lat="45.58807" lon="2.80268">
        <ele>1036</ele>
        <time>2021-09-07T10:58:32.000Z</time>
      </trkpt>
      <trkpt lat="45.58805" lon="2.80257">
        <ele>1032.7</ele>
        <time>2021-09-07T10:58:39.000Z</time>
      </trkpt>
      <trkpt lat="45.58799" lon="2.80248">
        <ele>1030.5</ele>
        <time>2021-09-07T10:58:45.000Z</time>
      </trkpt>
      <trkpt lat="45.58792" lon="2.80242">
        <ele>1029.8</ele>
        <time>2021-09-07T10:58:51.000Z</time>
      </trkpt>
      <trkpt lat="45.58783" lon="2.80236">
        <ele>1029.2</ele>
        <time>2021-09-07T10:58:57.000Z</time>
      </trkpt>
      <trkpt lat="45.58781" lon="2.80224">
        <ele>1026.8</ele>
        <time>2021-09-07T10:59:09.000Z</time>
      </trkpt>
      <trkpt lat="45.58772" lon="2.80207">
        <ele>1023.4</ele>
        <time>2021-09-07T10:59:15.000Z</time>
      </trkpt>
      <trkpt lat="45.58765" lon="2.80197">
        <ele>1021.3</ele>
        <time>2021-09-07T10:59:21.000Z</time>
      </trkpt>
      <trkpt lat="45.58758" lon="2.80196">
        <ele>1021.2</ele>
        <time>2021-09-07T10:59:27.000Z</time>
      </trkpt>
      <trkpt lat="45.58754" lon="2.80204">
        <ele>1023.3</ele>
        <time>2021-09-07T10:59:35.000Z</time>
      </trkpt>
      <trkpt lat="45.58748" lon="2.80198">
        <ele>1021.6</ele>
        <time>2021-09-07T10:59:43.000Z</time>
      </trkpt>
      <trkpt lat="45.58742" lon="2.8019">
        <ele>1018.8</ele>
        <time>2021-09-07T10:59:48.000Z</time>
      </trkpt>
      <trkpt lat="45.58736" lon="2.80181">
        <ele>1015.6</ele>
        <time>2021-09-07T10:59:53.000Z</time>
      </trkpt>
      <trkpt lat="45.5873" lon="2.80175">
        <ele>1013.2</ele>
        <time>2021-09-07T10:59:59.000Z</time>
      </trkpt>
      <trkpt lat="45.58724" lon="2.80172">
        <ele>1011.6</ele>
        <time>2021-09-07T11:00:03.000Z</time>
      </trkpt>
      <trkpt lat="45.58713" lon="2.80167">
        <ele>1008.8</ele>
        <time>2021-09-07T11:00:09.000Z</time>
      </trkpt>
      <trkpt lat="45.58705" lon="2.80165">
        <ele>1007.2</ele>
        <time>2021-09-07T11:00:15.000Z</time>
      </trkpt>
      <trkpt lat="45.58698" lon="2.80166">
        <ele>1006.4</ele>
        <time>2021-09-07T11:00:21.000Z</time>
      </trkpt>
      <trkpt lat="45.58689" lon="2.80162">
        <ele>1004.4</ele>
        <time>2021-09-07T11:00:27.000Z</time>
      </trkpt>
      <trkpt lat="45.58679" lon="2.8016">
        <ele>1002.5</ele>
        <time>2021-09-07T11:00:33.000Z</time>
      </trkpt>
      <trkpt lat="45.58671" lon="2.80157">
        <ele>1000.7</ele>
        <time>2021-09-07T11:00:39.000Z</time>
      </trkpt>
      <trkpt lat="45.58661" lon="2.8016">
        <ele>999.9</ele>
        <time>2021-09-07T11:00:45.000Z</time>
      </trkpt>
      <trkpt lat="45.58653" lon="2.80164">
        <ele>999.6</ele>
        <time>2021-09-07T11:00:51.000Z</time>
      </trkpt>
      <trkpt lat="45.58643" lon="2.80167">
        <ele>998.7</ele>
        <time>2021-09-07T11:00:57.000Z</time>
      </trkpt>
      <trkpt lat="45.58636" lon="2.8017">
        <ele>998.3</ele>
        <time>2021-09-07T11:01:03.000Z</time>
      </trkpt>
      <trkpt lat="45.58629" lon="2.80172">
        <ele>997.7</ele>
        <time>2021-09-07T11:01:10.000Z</time>
      </trkpt>
      <trkpt lat="45.58622" lon="2.80173">
        <ele>996.9</ele>
        <time>2021-09-07T11:01:15.000Z</time>
      </trkpt>
      <trkpt lat="45.58616" lon="2.80179">
        <ele>997.2</ele>
        <time>2021-09-07T11:01:21.000Z</time>
      </trkpt>
      <trkpt lat="45.58608" lon="2.80183">
        <ele>996.6</ele>
        <time>2021-09-07T11:01:27.000Z</time>
      </trkpt>
      <trkpt lat="45.58612" lon="2.80175">
        <ele>995.7</ele>
        <time>2021-09-07T11:01:45.000Z</time>
      </trkpt>
      <trkpt lat="45.58618" lon="2.8017">
        <ele>995.7</ele>
        <time>2021-09-07T11:01:51.000Z</time>
      </trkpt>
      <trkpt lat="45.58626" lon="2.80164">
        <ele>995.8</ele>
        <time>2021-09-07T11:01:57.000Z</time>
      </trkpt>
      <trkpt lat="45.58625" lon="2.80154">
        <ele>994.3</ele>
        <time>2021-09-07T11:02:03.000Z</time>
      </trkpt>
      <trkpt lat="45.58625" lon="2.80143">
        <ele>992.9</ele>
        <time>2021-09-07T11:02:24.000Z</time>
      </trkpt>
      <trkpt lat="45.58629" lon="2.80135">
        <ele>992.2</ele>
        <time>2021-09-07T11:02:29.000Z</time>
      </trkpt>
      <trkpt lat="45.58634" lon="2.80127">
        <ele>991.4</ele>
        <time>2021-09-07T11:02:35.000Z</time>
      </trkpt>
      <trkpt lat="45.58637" lon="2.80118">
        <ele>990.3</ele>
        <time>2021-09-07T11:02:42.000Z</time>
      </trkpt>
      <trkpt lat="45.58639" lon="2.80108">
        <ele>988.9</ele>
        <time>2021-09-07T11:02:48.000Z</time>
      </trkpt>
      <trkpt lat="45.58641" lon="2.80099">
        <ele>987.5</ele>
        <time>2021-09-07T11:02:57.000Z</time>
      </trkpt>
      <trkpt lat="45.58643" lon="2.80086">
        <ele>985.4</ele>
        <time>2021-09-07T11:03:03.000Z</time>
      </trkpt>
      <trkpt lat="45.58646" lon="2.80073">
        <ele>984.6</ele>
        <time>2021-09-07T11:03:09.000Z</time>
      </trkpt>
      <trkpt lat="45.58648" lon="2.8006">
        <ele>984.1</ele>
        <time>2021-09-07T11:03:15.000Z</time>
      </trkpt>
      <trkpt lat="45.58653" lon="2.8005">
        <ele>983.6</ele>
        <time>2021-09-07T11:03:21.000Z</time>
      </trkpt>
      <trkpt lat="45.58656" lon="2.8004">
        <ele>983.1</ele>
        <time>2021-09-07T11:03:28.000Z</time>
      </trkpt>
      <trkpt lat="45.5866" lon="2.80031">
        <ele>982.6</ele>
        <time>2021-09-07T11:03:34.000Z</time>
      </trkpt>
      <trkpt lat="45.58663" lon="2.80021">
        <ele>982.1</ele>
        <time>2021-09-07T11:03:40.000Z</time>
      </trkpt>
      <trkpt lat="45.58666" lon="2.80013">
        <ele>981.6</ele>
        <time>2021-09-07T11:03:49.000Z</time>
      </trkpt>
      <trkpt lat="45.58669" lon="2.80005">
        <ele>981.5</ele>
        <time>2021-09-07T11:03:53.000Z</time>
      </trkpt>
      <trkpt lat="45.58672" lon="2.79995">
        <ele>981.4</ele>
        <time>2021-09-07T11:04:00.000Z</time>
      </trkpt>
      <trkpt lat="45.58677" lon="2.79988">
        <ele>981.7</ele>
        <time>2021-09-07T11:04:06.000Z</time>
      </trkpt>
      <trkpt lat="45.58681" lon="2.7998">
        <ele>981.8</ele>
        <time>2021-09-07T11:04:12.000Z</time>
      </trkpt>
      <trkpt lat="45.58686" lon="2.79974">
        <ele>982</ele>
        <time>2021-09-07T11:04:18.000Z</time>
      </trkpt>
      <trkpt lat="45.58692" lon="2.79965">
        <ele>982</ele>
        <time>2021-09-07T11:04:23.000Z</time>
      </trkpt>
      <trkpt lat="45.587" lon="2.79962">
        <ele>982.3</ele>
        <time>2021-09-07T11:04:27.000Z</time>
      </trkpt>
      <trkpt lat="45.58707" lon="2.79954">
        <ele>982.2</ele>
        <time>2021-09-07T11:04:33.000Z</time>
      </trkpt>
      <trkpt lat="45.58715" lon="2.79951">
        <ele>982.3</ele>
        <time>2021-09-07T11:04:39.000Z</time>
      </trkpt>
      <trkpt lat="45.58718" lon="2.79942">
        <ele>981.8</ele>
        <time>2021-09-07T11:04:45.000Z</time>
      </trkpt>
      <trkpt lat="45.58722" lon="2.79931">
        <ele>981.1</ele>
        <time>2021-09-07T11:04:51.000Z</time>
      </trkpt>
      <trkpt lat="45.58727" lon="2.79917">
        <ele>980</ele>
        <time>2021-09-07T11:04:57.000Z</time>
      </trkpt>
      <trkpt lat="45.58728" lon="2.79901">
        <ele>979.9</ele>
        <time>2021-09-07T11:05:03.000Z</time>
      </trkpt>
      <trkpt lat="45.58725" lon="2.79892">
        <ele>979.8</ele>
        <time>2021-09-07T11:05:09.000Z</time>
      </trkpt>
      <trkpt lat="45.58724" lon="2.79878">
        <ele>979.7</ele>
        <time>2021-09-07T11:05:15.000Z</time>
      </trkpt>
      <trkpt lat="45.58724" lon="2.79861">
        <ele>979.5</ele>
        <time>2021-09-07T11:05:21.000Z</time>
      </trkpt>
      <trkpt lat="45.58724" lon="2.7985">
        <ele>979.4</ele>
        <time>2021-09-07T11:05:27.000Z</time>
      </trkpt>
      <trkpt lat="45.58725" lon="2.7984">
        <ele>979.4</ele>
        <time>2021-09-07T11:05:34.000Z</time>
      </trkpt>
      <trkpt lat="45.58731" lon="2.79834">
        <ele>979.2</ele>
        <time>2021-09-07T11:05:40.000Z</time>
      </trkpt>
      <trkpt lat="45.58734" lon="2.79825">
        <ele>978.9</ele>
        <time>2021-09-07T11:05:46.000Z</time>
      </trkpt>
      <trkpt lat="45.58731" lon="2.79814">
        <ele>978.7</ele>
        <time>2021-09-07T11:05:51.000Z</time>
      </trkpt>
      <trkpt lat="45.58728" lon="2.79802">
        <ele>978.6</ele>
        <time>2021-09-07T11:05:57.000Z</time>
      </trkpt>
      <trkpt lat="45.58726" lon="2.79789">
        <ele>978.4</ele>
        <time>2021-09-07T11:06:03.000Z</time>
      </trkpt>
      <trkpt lat="45.58723" lon="2.79779">
        <ele>978.4</ele>
        <time>2021-09-07T11:06:10.000Z</time>
      </trkpt>
      <trkpt lat="45.58727" lon="2.79771">
        <ele>977.9</ele>
        <time>2021-09-07T11:06:16.000Z</time>
      </trkpt>
      <trkpt lat="45.58731" lon="2.79764">
        <ele>977.4</ele>
        <time>2021-09-07T11:06:22.000Z</time>
      </trkpt>
      <trkpt lat="45.58726" lon="2.79754">
        <ele>977.7</ele>
        <time>2021-09-07T11:06:37.000Z</time>
      </trkpt>
      <trkpt lat="45.5872" lon="2.79748">
        <ele>978.3</ele>
        <time>2021-09-07T11:06:43.000Z</time>
      </trkpt>
      <trkpt lat="45.58716" lon="2.79739">
        <ele>978.8</ele>
        <time>2021-09-07T11:06:49.000Z</time>
      </trkpt>
      <trkpt lat="45.58712" lon="2.7973">
        <ele>979.5</ele>
        <time>2021-09-07T11:06:54.000Z</time>
      </trkpt>
      <trkpt lat="45.5871" lon="2.79719">
        <ele>980</ele>
        <time>2021-09-07T11:06:59.000Z</time>
      </trkpt>
      <trkpt lat="45.5871" lon="2.79709">
        <ele>980.2</ele>
        <time>2021-09-07T11:07:05.000Z</time>
      </trkpt>
      <trkpt lat="45.58708" lon="2.79699">
        <ele>980.8</ele>
        <time>2021-09-07T11:07:11.000Z</time>
      </trkpt>
      <trkpt lat="45.5871" lon="2.79688">
        <ele>980.7</ele>
        <time>2021-09-07T11:07:17.000Z</time>
      </trkpt>
      <trkpt lat="45.5871" lon="2.79679">
        <ele>980.9</ele>
        <time>2021-09-07T11:07:21.000Z</time>
      </trkpt>
      <trkpt lat="45.5871" lon="2.79664">
        <ele>981.3</ele>
        <time>2021-09-07T11:07:27.000Z</time>
      </trkpt>
      <trkpt lat="45.58712" lon="2.79654">
        <ele>981.4</ele>
        <time>2021-09-07T11:07:33.000Z</time>
      </trkpt>
      <trkpt lat="45.58714" lon="2.79641">
        <ele>981.6</ele>
        <time>2021-09-07T11:07:39.000Z</time>
      </trkpt>
      <trkpt lat="45.58716" lon="2.7963">
        <ele>981.6</ele>
        <time>2021-09-07T11:07:45.000Z</time>
      </trkpt>
      <trkpt lat="45.58718" lon="2.79618">
        <ele>981.7</ele>
        <time>2021-09-07T11:07:51.000Z</time>
      </trkpt>
      <trkpt lat="45.5872" lon="2.79607">
        <ele>981.6</ele>
        <time>2021-09-07T11:07:57.000Z</time>
      </trkpt>
      <trkpt lat="45.58722" lon="2.79594">
        <ele>981.6</ele>
        <time>2021-09-07T11:08:03.000Z</time>
      </trkpt>
      <trkpt lat="45.58723" lon="2.79582">
        <ele>981.7</ele>
        <time>2021-09-07T11:08:09.000Z</time>
      </trkpt>
      <trkpt lat="45.58721" lon="2.79572">
        <ele>982.2</ele>
        <time>2021-09-07T11:08:16.000Z</time>
      </trkpt>
      <trkpt lat="45.58718" lon="2.79561">
        <ele>983.1</ele>
        <time>2021-09-07T11:08:21.000Z</time>
      </trkpt>
      <trkpt lat="45.58717" lon="2.79547">
        <ele>983.2</ele>
        <time>2021-09-07T11:08:27.000Z</time>
      </trkpt>
      <trkpt lat="45.58716" lon="2.79536">
        <ele>983.5</ele>
        <time>2021-09-07T11:08:33.000Z</time>
      </trkpt>
      <trkpt lat="45.58713" lon="2.79524">
        <ele>984.4</ele>
        <time>2021-09-07T11:08:39.000Z</time>
      </trkpt>
      <trkpt lat="45.5871" lon="2.79509">
        <ele>985.4</ele>
        <time>2021-09-07T11:08:45.000Z</time>
      </trkpt>
      <trkpt lat="45.58707" lon="2.79499">
        <ele>986.5</ele>
        <time>2021-09-07T11:08:51.000Z</time>
      </trkpt>
      <trkpt lat="45.58705" lon="2.79489">
        <ele>987.5</ele>
        <time>2021-09-07T11:08:57.000Z</time>
      </trkpt>
      <trkpt lat="45.58702" lon="2.7948">
        <ele>988.8</ele>
        <time>2021-09-07T11:09:04.000Z</time>
      </trkpt>
      <trkpt lat="45.58696" lon="2.79471">
        <ele>991.2</ele>
        <time>2021-09-07T11:09:09.000Z</time>
      </trkpt>
      <trkpt lat="45.5869" lon="2.79465">
        <ele>993.6</ele>
        <time>2021-09-07T11:09:15.000Z</time>
      </trkpt>
      <trkpt lat="45.58684" lon="2.79461">
        <ele>995.9</ele>
        <time>2021-09-07T11:09:22.000Z</time>
      </trkpt>
      <trkpt lat="45.58678" lon="2.79454">
        <ele>998.3</ele>
        <time>2021-09-07T11:09:28.000Z</time>
      </trkpt>
      <trkpt lat="45.58674" lon="2.79445">
        <ele>999.9</ele>
        <time>2021-09-07T11:09:36.000Z</time>
      </trkpt>
      <trkpt lat="45.58673" lon="2.79435">
        <ele>1000.4</ele>
        <time>2021-09-07T11:10:36.000Z</time>
      </trkpt>
      <trkpt lat="45.58676" lon="2.79427">
        <ele>999.4</ele>
        <time>2021-09-07T11:10:46.000Z</time>
      </trkpt>
      <trkpt lat="45.5867" lon="2.79431">
        <ele>1001.6</ele>
        <time>2021-09-07T11:11:03.000Z</time>
      </trkpt>
      <trkpt lat="45.58664" lon="2.79424">
        <ele>1004.7</ele>
        <time>2021-09-07T11:11:10.000Z</time>
      </trkpt>
      <trkpt lat="45.58658" lon="2.79415">
        <ele>1008.6</ele>
        <time>2021-09-07T11:11:15.000Z</time>
      </trkpt>
      <trkpt lat="45.5865" lon="2.79409">
        <ele>1013.8</ele>
        <time>2021-09-07T11:11:21.000Z</time>
      </trkpt>
      <trkpt lat="45.58649" lon="2.79397">
        <ele>1014.3</ele>
        <time>2021-09-07T11:11:27.000Z</time>
      </trkpt>
      <trkpt lat="45.58645" lon="2.79388">
        <ele>1016.9</ele>
        <time>2021-09-07T11:11:33.000Z</time>
      </trkpt>
      <trkpt lat="45.58645" lon="2.79377">
        <ele>1016.8</ele>
        <time>2021-09-07T11:11:39.000Z</time>
      </trkpt>
      <trkpt lat="45.58645" lon="2.79366">
        <ele>1016.7</ele>
        <time>2021-09-07T11:11:45.000Z</time>
      </trkpt>
      <trkpt lat="45.58643" lon="2.79355">
        <ele>1017.9</ele>
        <time>2021-09-07T11:11:52.000Z</time>
      </trkpt>
      <trkpt lat="45.58642" lon="2.79346">
        <ele>1018.5</ele>
        <time>2021-09-07T11:12:05.000Z</time>
      </trkpt>
      <trkpt lat="45.58639" lon="2.79336">
        <ele>1020.3</ele>
        <time>2021-09-07T11:12:12.000Z</time>
      </trkpt>
      <trkpt lat="45.58639" lon="2.79327">
        <ele>1020.5</ele>
        <time>2021-09-07T11:12:18.000Z</time>
      </trkpt>
      <trkpt lat="45.58636" lon="2.79316">
        <ele>1022.7</ele>
        <time>2021-09-07T11:12:33.000Z</time>
      </trkpt>
      <trkpt lat="45.58638" lon="2.79306">
        <ele>1021.7</ele>
        <time>2021-09-07T11:12:45.000Z</time>
      </trkpt>
      <trkpt lat="45.58635" lon="2.79295">
        <ele>1023.9</ele>
        <time>2021-09-07T11:12:51.000Z</time>
      </trkpt>
      <trkpt lat="45.58633" lon="2.79285">
        <ele>1025.4</ele>
        <time>2021-09-07T11:13:02.000Z</time>
      </trkpt>
      <trkpt lat="45.58629" lon="2.79277">
        <ele>1028</ele>
        <time>2021-09-07T11:13:13.000Z</time>
      </trkpt>
      <trkpt lat="45.58624" lon="2.79269">
        <ele>1031.1</ele>
        <time>2021-09-07T11:13:21.000Z</time>
      </trkpt>
      <trkpt lat="45.58618" lon="2.79264">
        <ele>1034.8</ele>
        <time>2021-09-07T11:13:31.000Z</time>
      </trkpt>
      <trkpt lat="45.58621" lon="2.79255">
        <ele>1033.2</ele>
        <time>2021-09-07T11:13:39.000Z</time>
      </trkpt>
      <trkpt lat="45.58616" lon="2.79245">
        <ele>1035.8</ele>
        <time>2021-09-07T11:13:45.000Z</time>
      </trkpt>
      <trkpt lat="45.58621" lon="2.79239">
        <ele>1032.4</ele>
        <time>2021-09-07T11:13:56.000Z</time>
      </trkpt>
      <trkpt lat="45.58619" lon="2.7923">
        <ele>1032.8</ele>
        <time>2021-09-07T11:14:08.000Z</time>
      </trkpt>
      <trkpt lat="45.58621" lon="2.79221">
        <ele>1031</ele>
        <time>2021-09-07T11:14:24.000Z</time>
      </trkpt>
      <trkpt lat="45.58625" lon="2.79213">
        <ele>1028.1</ele>
        <time>2021-09-07T11:14:30.000Z</time>
      </trkpt>
      <trkpt lat="45.58622" lon="2.79204">
        <ele>1029.1</ele>
        <time>2021-09-07T11:14:41.000Z</time>
      </trkpt>
      <trkpt lat="45.58618" lon="2.79195">
        <ele>1030.6</ele>
        <time>2021-09-07T11:14:47.000Z</time>
      </trkpt>
      <trkpt lat="45.58615" lon="2.79186">
        <ele>1031.5</ele>
        <time>2021-09-07T11:14:52.000Z</time>
      </trkpt>
      <trkpt lat="45.58611" lon="2.79175">
        <ele>1032.8</ele>
        <time>2021-09-07T11:14:57.000Z</time>
      </trkpt>
      <trkpt lat="45.5861" lon="2.79162">
        <ele>1031.8</ele>
        <time>2021-09-07T11:15:03.000Z</time>
      </trkpt>
      <trkpt lat="45.5861" lon="2.79146">
        <ele>1029.1</ele>
        <time>2021-09-07T11:15:09.000Z</time>
      </trkpt>
      <trkpt lat="45.5861" lon="2.79133">
        <ele>1026.9</ele>
        <time>2021-09-07T11:15:15.000Z</time>
      </trkpt>
      <trkpt lat="45.58606" lon="2.79123">
        <ele>1027.2</ele>
        <time>2021-09-07T11:15:21.000Z</time>
      </trkpt>
      <trkpt lat="45.58605" lon="2.79112">
        <ele>1025.8</ele>
        <time>2021-09-07T11:15:27.000Z</time>
      </trkpt>
      <trkpt lat="45.58604" lon="2.79101">
        <ele>1024.4</ele>
        <time>2021-09-07T11:15:33.000Z</time>
      </trkpt>
      <trkpt lat="45.5861" lon="2.79097">
        <ele>1020.8</ele>
        <time>2021-09-07T11:15:42.000Z</time>
      </trkpt>
      <trkpt lat="45.58607" lon="2.79088">
        <ele>1020.7</ele>
        <time>2021-09-07T11:15:47.000Z</time>
      </trkpt>
      <trkpt lat="45.58605" lon="2.79079">
        <ele>1020.2</ele>
        <time>2021-09-07T11:15:53.000Z</time>
      </trkpt>
      <trkpt lat="45.58605" lon="2.79069">
        <ele>1018.8</ele>
        <time>2021-09-07T11:15:59.000Z</time>
      </trkpt>
      <trkpt lat="45.58603" lon="2.7906">
        <ele>1018.3</ele>
        <time>2021-09-07T11:16:04.000Z</time>
      </trkpt>
      <trkpt lat="45.58601" lon="2.7905">
        <ele>1017.7</ele>
        <time>2021-09-07T11:16:09.000Z</time>
      </trkpt>
      <trkpt lat="45.58602" lon="2.79041">
        <ele>1015.9</ele>
        <time>2021-09-07T11:16:15.000Z</time>
      </trkpt>
      <trkpt lat="45.58599" lon="2.79027">
        <ele>1015.1</ele>
        <time>2021-09-07T11:16:21.000Z</time>
      </trkpt>
      <trkpt lat="45.58598" lon="2.79016">
        <ele>1013.8</ele>
        <time>2021-09-07T11:16:31.000Z</time>
      </trkpt>
      <trkpt lat="45.58603" lon="2.79011">
        <ele>1011.1</ele>
        <time>2021-09-07T11:16:42.000Z</time>
      </trkpt>
      <trkpt lat="45.58607" lon="2.78999">
        <ele>1007.9</ele>
        <time>2021-09-07T11:17:05.000Z</time>
      </trkpt>
      <trkpt lat="45.58604" lon="2.78986">
        <ele>1008.6</ele>
        <time>2021-09-07T11:17:09.000Z</time>
      </trkpt>
      <trkpt lat="45.58598" lon="2.78975">
        <ele>1010.6</ele>
        <time>2021-09-07T11:17:15.000Z</time>
      </trkpt>
      <trkpt lat="45.58594" lon="2.78968">
        <ele>1012</ele>
        <time>2021-09-07T11:17:22.000Z</time>
      </trkpt>
      <trkpt lat="45.58591" lon="2.78959">
        <ele>1012.9</ele>
        <time>2021-09-07T11:17:29.000Z</time>
      </trkpt>
      <trkpt lat="45.58593" lon="2.7895">
        <ele>1011.9</ele>
        <time>2021-09-07T11:17:37.000Z</time>
      </trkpt>
      <trkpt lat="45.58591" lon="2.78941">
        <ele>1012.4</ele>
        <time>2021-09-07T11:17:40.000Z</time>
      </trkpt>
      <trkpt lat="45.58588" lon="2.78931">
        <ele>1013.4</ele>
        <time>2021-09-07T11:17:45.000Z</time>
      </trkpt>
      <trkpt lat="45.58582" lon="2.78923">
        <ele>1015.9</ele>
        <time>2021-09-07T11:17:51.000Z</time>
      </trkpt>
      <trkpt lat="45.58579" lon="2.78914">
        <ele>1017.1</ele>
        <time>2021-09-07T11:17:57.000Z</time>
      </trkpt>
      <trkpt lat="45.58572" lon="2.78911">
        <ele>1020.5</ele>
        <time>2021-09-07T11:18:09.000Z</time>
      </trkpt>
      <trkpt lat="45.58565" lon="2.78912">
        <ele>1024.2</ele>
        <time>2021-09-07T11:18:18.000Z</time>
      </trkpt>
      <trkpt lat="45.58561" lon="2.78905">
        <ele>1025.5</ele>
        <time>2021-09-07T11:18:26.000Z</time>
      </trkpt>
      <trkpt lat="45.58554" lon="2.789">
        <ele>1028.4</ele>
        <time>2021-09-07T11:18:33.000Z</time>
      </trkpt>
      <trkpt lat="45.58547" lon="2.78895">
        <ele>1031.1</ele>
        <time>2021-09-07T11:18:40.000Z</time>
      </trkpt>
      <trkpt lat="45.58544" lon="2.78886">
        <ele>1031.1</ele>
        <time>2021-09-07T11:19:00.000Z</time>
      </trkpt>
      <trkpt lat="45.58542" lon="2.78877">
        <ele>1030.7</ele>
        <time>2021-09-07T11:19:06.000Z</time>
      </trkpt>
      <trkpt lat="45.58541" lon="2.78867">
        <ele>1029.5</ele>
        <time>2021-09-07T11:19:12.000Z</time>
      </trkpt>
      <trkpt lat="45.58539" lon="2.78858">
        <ele>1028.9</ele>
        <time>2021-09-07T11:19:19.000Z</time>
      </trkpt>
      <trkpt lat="45.58543" lon="2.7885">
        <ele>1026.1</ele>
        <time>2021-09-07T11:19:27.000Z</time>
      </trkpt>
      <trkpt lat="45.58542" lon="2.7884">
        <ele>1024.9</ele>
        <time>2021-09-07T11:19:35.000Z</time>
      </trkpt>
      <trkpt lat="45.58546" lon="2.78832">
        <ele>1022.5</ele>
        <time>2021-09-07T11:19:53.000Z</time>
      </trkpt>
      <trkpt lat="45.58545" lon="2.78822">
        <ele>1022.2</ele>
        <time>2021-09-07T11:19:59.000Z</time>
      </trkpt>
      <trkpt lat="45.58545" lon="2.78811">
        <ele>1021.5</ele>
        <time>2021-09-07T11:20:04.000Z</time>
      </trkpt>
      <trkpt lat="45.58552" lon="2.78809">
        <ele>1019.2</ele>
        <time>2021-09-07T11:20:10.000Z</time>
      </trkpt>
      <trkpt lat="45.58554" lon="2.788">
        <ele>1018.1</ele>
        <time>2021-09-07T11:20:19.000Z</time>
      </trkpt>
      <trkpt lat="45.58552" lon="2.7879">
        <ele>1018.1</ele>
        <time>2021-09-07T11:20:42.000Z</time>
      </trkpt>
      <trkpt lat="45.58546" lon="2.78781">
        <ele>1019.3</ele>
        <time>2021-09-07T11:20:46.000Z</time>
      </trkpt>
      <trkpt lat="45.58539" lon="2.78772">
        <ele>1020.7</ele>
        <time>2021-09-07T11:20:51.000Z</time>
      </trkpt>
      <trkpt lat="45.58532" lon="2.7877">
        <ele>1022.5</ele>
        <time>2021-09-07T11:20:59.000Z</time>
      </trkpt>
      <trkpt lat="45.58522" lon="2.78747">
        <ele>1023.4</ele>
        <time>2021-09-07T11:21:03.000Z</time>
      </trkpt>
      <trkpt lat="45.58517" lon="2.78739">
        <ele>1024.5</ele>
        <time>2021-09-07T11:21:09.000Z</time>
      </trkpt>
      <trkpt lat="45.5852" lon="2.7873">
        <ele>1023.6</ele>
        <time>2021-09-07T11:21:27.000Z</time>
      </trkpt>
      <trkpt lat="45.58514" lon="2.78728">
        <ele>1025.1</ele>
        <time>2021-09-07T11:21:37.000Z</time>
      </trkpt>
      <trkpt lat="45.58507" lon="2.78726">
        <ele>1026.9</ele>
        <time>2021-09-07T11:21:44.000Z</time>
      </trkpt>
      <trkpt lat="45.58501" lon="2.78718">
        <ele>1028.4</ele>
        <time>2021-09-07T11:21:50.000Z</time>
      </trkpt>
      <trkpt lat="45.58496" lon="2.78712">
        <ele>1030.8</ele>
        <time>2021-09-07T11:21:59.000Z</time>
      </trkpt>
      <trkpt lat="45.58489" lon="2.78707">
        <ele>1034.5</ele>
        <time>2021-09-07T11:22:05.000Z</time>
      </trkpt>
      <trkpt lat="45.58483" lon="2.78702">
        <ele>1037.6</ele>
        <time>2021-09-07T11:22:09.000Z</time>
      </trkpt>
      <trkpt lat="45.58478" lon="2.78689">
        <ele>1039.4</ele>
        <time>2021-09-07T11:22:35.000Z</time>
      </trkpt>
      <trkpt lat="45.5848" lon="2.7868">
        <ele>1037.9</ele>
        <time>2021-09-07T11:22:43.000Z</time>
      </trkpt>
      <trkpt lat="45.58477" lon="2.78671">
        <ele>1038.8</ele>
        <time>2021-09-07T11:22:58.000Z</time>
      </trkpt>
      <trkpt lat="45.58471" lon="2.78667">
        <ele>1041.3</ele>
        <time>2021-09-07T11:23:04.000Z</time>
      </trkpt>
      <trkpt lat="45.58466" lon="2.78661">
        <ele>1042.9</ele>
        <time>2021-09-07T11:23:09.000Z</time>
      </trkpt>
      <trkpt lat="45.58463" lon="2.78652">
        <ele>1043.3</ele>
        <time>2021-09-07T11:23:16.000Z</time>
      </trkpt>
      <trkpt lat="45.5846" lon="2.78643">
        <ele>1043.6</ele>
        <time>2021-09-07T11:23:25.000Z</time>
      </trkpt>
      <trkpt lat="45.58454" lon="2.78636">
        <ele>1045.3</ele>
        <time>2021-09-07T11:23:32.000Z</time>
      </trkpt>
      <trkpt lat="45.58456" lon="2.78626">
        <ele>1043.3</ele>
        <time>2021-09-07T11:23:39.000Z</time>
      </trkpt>
      <trkpt lat="45.58457" lon="2.78616">
        <ele>1041.7</ele>
        <time>2021-09-07T11:23:46.000Z</time>
      </trkpt>
      <trkpt lat="45.58458" lon="2.78606">
        <ele>1040.2</ele>
        <time>2021-09-07T11:23:53.000Z</time>
      </trkpt>
      <trkpt lat="45.58456" lon="2.78597">
        <ele>1039.9</ele>
        <time>2021-09-07T11:24:00.000Z</time>
      </trkpt>
      <trkpt lat="45.58454" lon="2.78587">
        <ele>1039.3</ele>
        <time>2021-09-07T11:24:07.000Z</time>
      </trkpt>
      <trkpt lat="45.58454" lon="2.78578">
        <ele>1038.6</ele>
        <time>2021-09-07T11:24:15.000Z</time>
      </trkpt>
      <trkpt lat="45.58457" lon="2.78567">
        <ele>1037.1</ele>
        <time>2021-09-07T11:24:23.000Z</time>
      </trkpt>
      <trkpt lat="45.58462" lon="2.78561">
        <ele>1035.2</ele>
        <time>2021-09-07T11:24:29.000Z</time>
      </trkpt>
      <trkpt lat="45.58467" lon="2.78555">
        <ele>1033.3</ele>
        <time>2021-09-07T11:24:39.000Z</time>
      </trkpt>
      <trkpt lat="45.58465" lon="2.78544">
        <ele>1033.5</ele>
        <time>2021-09-07T11:24:46.000Z</time>
      </trkpt>
      <trkpt lat="45.58461" lon="2.78536">
        <ele>1034.4</ele>
        <time>2021-09-07T11:24:51.000Z</time>
      </trkpt>
      <trkpt lat="45.58454" lon="2.78529">
        <ele>1036.3</ele>
        <time>2021-09-07T11:24:57.000Z</time>
      </trkpt>
      <trkpt lat="45.58446" lon="2.78515">
        <ele>1038.2</ele>
        <time>2021-09-07T11:25:03.000Z</time>
      </trkpt>
      <trkpt lat="45.58437" lon="2.78503">
        <ele>1040.6</ele>
        <time>2021-09-07T11:25:09.000Z</time>
      </trkpt>
      <trkpt lat="45.58432" lon="2.7849">
        <ele>1044.7</ele>
        <time>2021-09-07T11:25:15.000Z</time>
      </trkpt>
      <trkpt lat="45.58424" lon="2.78476">
        <ele>1051.4</ele>
        <time>2021-09-07T11:25:21.000Z</time>
      </trkpt>
      <trkpt lat="45.58417" lon="2.78462">
        <ele>1058.3</ele>
        <time>2021-09-07T11:25:27.000Z</time>
      </trkpt>
      <trkpt lat="45.58413" lon="2.78454">
        <ele>1063.9</ele>
        <time>2021-09-07T11:25:33.000Z</time>
      </trkpt>
      <trkpt lat="45.58417" lon="2.78447">
        <ele>1062.7</ele>
        <time>2021-09-07T11:25:55.000Z</time>
      </trkpt>
      <trkpt lat="45.58419" lon="2.78437">
        <ele>1064.8</ele>
        <time>2021-09-07T11:26:05.000Z</time>
      </trkpt>
      <trkpt lat="45.58421" lon="2.78428">
        <ele>1066.4</ele>
        <time>2021-09-07T11:26:14.000Z</time>
      </trkpt>
      <trkpt lat="45.58427" lon="2.78422">
        <ele>1065.1</ele>
        <time>2021-09-07T11:26:31.000Z</time>
      </trkpt>
      <trkpt lat="45.58433" lon="2.78418">
        <ele>1063</ele>
        <time>2021-09-07T11:26:45.000Z</time>
      </trkpt>
      <trkpt lat="45.58439" lon="2.78411">
        <ele>1061.5</ele>
        <time>2021-09-07T11:26:54.000Z</time>
      </trkpt>
      <trkpt lat="45.58442" lon="2.78402">
        <ele>1062.1</ele>
        <time>2021-09-07T11:27:04.000Z</time>
      </trkpt>
      <trkpt lat="45.58449" lon="2.78397">
        <ele>1059.7</ele>
        <time>2021-09-07T11:27:14.000Z</time>
      </trkpt>
      <trkpt lat="45.58453" lon="2.78389">
        <ele>1059.7</ele>
        <time>2021-09-07T11:27:22.000Z</time>
      </trkpt>
      <trkpt lat="45.58455" lon="2.7838">
        <ele>1060.9</ele>
        <time>2021-09-07T11:27:30.000Z</time>
      </trkpt>
      <trkpt lat="45.58461" lon="2.78373">
        <ele>1059.7</ele>
        <time>2021-09-07T11:27:36.000Z</time>
      </trkpt>
      <trkpt lat="45.58463" lon="2.78364">
        <ele>1061</ele>
        <time>2021-09-07T11:27:42.000Z</time>
      </trkpt>
      <trkpt lat="45.58464" lon="2.78354">
        <ele>1063.1</ele>
        <time>2021-09-07T11:27:51.000Z</time>
      </trkpt>
      <trkpt lat="45.58462" lon="2.78345">
        <ele>1066.4</ele>
        <time>2021-09-07T11:27:58.000Z</time>
      </trkpt>
      <trkpt lat="45.58462" lon="2.78336">
        <ele>1068.6</ele>
        <time>2021-09-07T11:28:06.000Z</time>
      </trkpt>
      <trkpt lat="45.58469" lon="2.7833">
        <ele>1066.6</ele>
        <time>2021-09-07T11:28:11.000Z</time>
      </trkpt>
      <trkpt lat="45.58475" lon="2.78326">
        <ele>1064.5</ele>
        <time>2021-09-07T11:28:17.000Z</time>
      </trkpt>
      <trkpt lat="45.58481" lon="2.78322">
        <ele>1062.5</ele>
        <time>2021-09-07T11:28:23.000Z</time>
      </trkpt>
      <trkpt lat="45.58479" lon="2.78313">
        <ele>1064.8</ele>
        <time>2021-09-07T11:28:33.000Z</time>
      </trkpt>
      <trkpt lat="45.58481" lon="2.78303">
        <ele>1065.5</ele>
        <time>2021-09-07T11:28:39.000Z</time>
      </trkpt>
      <trkpt lat="45.58484" lon="2.78294">
        <ele>1065.7</ele>
        <time>2021-09-07T11:28:51.000Z</time>
      </trkpt>
      <trkpt lat="45.58482" lon="2.78284">
        <ele>1068.2</ele>
        <time>2021-09-07T11:28:57.000Z</time>
      </trkpt>
      <trkpt lat="45.58483" lon="2.78275">
        <ele>1069.3</ele>
        <time>2021-09-07T11:29:03.000Z</time>
      </trkpt>
      <trkpt lat="45.58483" lon="2.78265">
        <ele>1070.9</ele>
        <time>2021-09-07T11:29:10.000Z</time>
      </trkpt>
      <trkpt lat="45.58469" lon="2.78263">
        <ele>1076.6</ele>
        <time>2021-09-07T11:29:15.000Z</time>
      </trkpt>
      <trkpt lat="45.58476" lon="2.78261">
        <ele>1074.2</ele>
        <time>2021-09-07T11:29:23.000Z</time>
      </trkpt>
      <trkpt lat="45.58483" lon="2.78258">
        <ele>1072</ele>
        <time>2021-09-07T11:29:27.000Z</time>
      </trkpt>
      <trkpt lat="45.58482" lon="2.78249">
        <ele>1073.7</ele>
        <time>2021-09-07T11:29:37.000Z</time>
      </trkpt>
      <trkpt lat="45.58484" lon="2.7824">
        <ele>1073</ele>
        <time>2021-09-07T11:29:48.000Z</time>
      </trkpt>
      <trkpt lat="45.58487" lon="2.78232">
        <ele>1072.1</ele>
        <time>2021-09-07T11:30:04.000Z</time>
      </trkpt>
      <trkpt lat="45.58485" lon="2.78222">
        <ele>1072.9</ele>
        <time>2021-09-07T11:30:14.000Z</time>
      </trkpt>
      <trkpt lat="45.58485" lon="2.78213">
        <ele>1073</ele>
        <time>2021-09-07T11:30:31.000Z</time>
      </trkpt>
      <trkpt lat="45.58483" lon="2.78204">
        <ele>1073.6</ele>
        <time>2021-09-07T11:30:40.000Z</time>
      </trkpt>
      <trkpt lat="45.58479" lon="2.78195">
        <ele>1074.8</ele>
        <time>2021-09-07T11:30:48.000Z</time>
      </trkpt>
      <trkpt lat="45.58474" lon="2.78189">
        <ele>1076.1</ele>
        <time>2021-09-07T11:30:58.000Z</time>
      </trkpt>
      <trkpt lat="45.5847" lon="2.78181">
        <ele>1077.1</ele>
        <time>2021-09-07T11:31:06.000Z</time>
      </trkpt>
      <trkpt lat="45.58469" lon="2.78171">
        <ele>1077.1</ele>
        <time>2021-09-07T11:31:14.000Z</time>
      </trkpt>
      <trkpt lat="45.58468" lon="2.78162">
        <ele>1077</ele>
        <time>2021-09-07T11:31:29.000Z</time>
      </trkpt>
      <trkpt lat="45.58466" lon="2.78153">
        <ele>1077</ele>
        <time>2021-09-07T11:31:45.000Z</time>
      </trkpt>
      <trkpt lat="45.58459" lon="2.78146">
        <ele>1078.1</ele>
        <time>2021-09-07T11:31:57.000Z</time>
      </trkpt>
      <trkpt lat="45.58455" lon="2.78135">
        <ele>1078.3</ele>
        <time>2021-09-07T11:32:10.000Z</time>
      </trkpt>
      <trkpt lat="45.58448" lon="2.78121">
        <ele>1078.8</ele>
        <time>2021-09-07T11:32:30.000Z</time>
      </trkpt>
      <trkpt lat="45.58446" lon="2.7811">
        <ele>1078.5</ele>
        <time>2021-09-07T11:33:03.000Z</time>
      </trkpt>
      <trkpt lat="45.58442" lon="2.78101">
        <ele>1078.7</ele>
        <time>2021-09-07T11:33:28.000Z</time>
      </trkpt>
      <trkpt lat="45.58437" lon="2.78094">
        <ele>1079.1</ele>
        <time>2021-09-07T11:33:33.000Z</time>
      </trkpt>
      <trkpt lat="45.58431" lon="2.78086">
        <ele>1079.6</ele>
        <time>2021-09-07T11:33:39.000Z</time>
      </trkpt>
      <trkpt lat="45.58427" lon="2.78077">
        <ele>1079.6</ele>
        <time>2021-09-07T11:33:45.000Z</time>
      </trkpt>
      <trkpt lat="45.58419" lon="2.78068">
        <ele>1080.1</ele>
        <time>2021-09-07T11:33:51.000Z</time>
      </trkpt>
      <trkpt lat="45.58417" lon="2.78058">
        <ele>1079.5</ele>
        <time>2021-09-07T11:34:06.000Z</time>
      </trkpt>
      <trkpt lat="45.58411" lon="2.78053">
        <ele>1080.2</ele>
        <time>2021-09-07T11:34:21.000Z</time>
      </trkpt>
      <trkpt lat="45.58408" lon="2.78044">
        <ele>1079.9</ele>
        <time>2021-09-07T11:34:45.000Z</time>
      </trkpt>
      <trkpt lat="45.584" lon="2.78041">
        <ele>1081.1</ele>
        <time>2021-09-07T11:34:55.000Z</time>
      </trkpt>
      <trkpt lat="45.58393" lon="2.78039">
        <ele>1082.3</ele>
        <time>2021-09-07T11:35:02.000Z</time>
      </trkpt>
      <trkpt lat="45.58389" lon="2.78047">
        <ele>1083.8</ele>
        <time>2021-09-07T11:35:11.000Z</time>
      </trkpt>
      <trkpt lat="45.58382" lon="2.78051">
        <ele>1085.5</ele>
        <time>2021-09-07T11:35:19.000Z</time>
      </trkpt>
      <trkpt lat="45.58376" lon="2.78049">
        <ele>1086.4</ele>
        <time>2021-09-07T11:35:29.000Z</time>
      </trkpt>
      <trkpt lat="45.58369" lon="2.78046">
        <ele>1087.5</ele>
        <time>2021-09-07T11:35:35.000Z</time>
      </trkpt>
      <trkpt lat="45.58363" lon="2.78043">
        <ele>1088.4</ele>
        <time>2021-09-07T11:35:41.000Z</time>
      </trkpt>
      <trkpt lat="45.58357" lon="2.78039">
        <ele>1089.2</ele>
        <time>2021-09-07T11:35:48.000Z</time>
      </trkpt>
      <trkpt lat="45.58349" lon="2.78037">
        <ele>1090.6</ele>
        <time>2021-09-07T11:35:55.000Z</time>
      </trkpt>
      <trkpt lat="45.58343" lon="2.78041">
        <ele>1092.1</ele>
        <time>2021-09-07T11:36:04.000Z</time>
      </trkpt>
      <trkpt lat="45.58336" lon="2.78038">
        <ele>1093.2</ele>
        <time>2021-09-07T11:36:15.000Z</time>
      </trkpt>
      <trkpt lat="45.58331" lon="2.78032">
        <ele>1093.3</ele>
        <time>2021-09-07T11:36:21.000Z</time>
      </trkpt>
      <trkpt lat="45.58327" lon="2.78023">
        <ele>1092.7</ele>
        <time>2021-09-07T11:36:27.000Z</time>
      </trkpt>
      <trkpt lat="45.58324" lon="2.78011">
        <ele>1091.9</ele>
        <time>2021-09-07T11:36:33.000Z</time>
      </trkpt>
      <trkpt lat="45.58322" lon="2.78001">
        <ele>1091.2</ele>
        <time>2021-09-07T11:36:43.000Z</time>
      </trkpt>
      <trkpt lat="45.58318" lon="2.77992">
        <ele>1090.5</ele>
        <time>2021-09-07T11:36:49.000Z</time>
      </trkpt>
      <trkpt lat="45.58312" lon="2.77985">
        <ele>1089.9</ele>
        <time>2021-09-07T11:36:53.000Z</time>
      </trkpt>
      <trkpt lat="45.58307" lon="2.77976">
        <ele>1089.2</ele>
        <time>2021-09-07T11:36:59.000Z</time>
      </trkpt>
      <trkpt lat="45.58302" lon="2.7797">
        <ele>1088.7</ele>
        <time>2021-09-07T11:37:08.000Z</time>
      </trkpt>
      <trkpt lat="45.58297" lon="2.77961">
        <ele>1088</ele>
        <time>2021-09-07T11:37:18.000Z</time>
      </trkpt>
      <trkpt lat="45.58293" lon="2.77952">
        <ele>1087.2</ele>
        <time>2021-09-07T11:37:21.000Z</time>
      </trkpt>
      <trkpt lat="45.58288" lon="2.7794">
        <ele>1086.1</ele>
        <time>2021-09-07T11:37:27.000Z</time>
      </trkpt>
      <trkpt lat="45.58285" lon="2.7793">
        <ele>1085.2</ele>
        <time>2021-09-07T11:37:33.000Z</time>
      </trkpt>
      <trkpt lat="45.58282" lon="2.77922">
        <ele>1084.5</ele>
        <time>2021-09-07T11:37:40.000Z</time>
      </trkpt>
      <trkpt lat="45.58281" lon="2.77912">
        <ele>1083.3</ele>
        <time>2021-09-07T11:37:48.000Z</time>
      </trkpt>
      <trkpt lat="45.58278" lon="2.77904">
        <ele>1082</ele>
        <time>2021-09-07T11:37:53.000Z</time>
      </trkpt>
      <trkpt lat="45.58274" lon="2.77896">
        <ele>1080.6</ele>
        <time>2021-09-07T11:37:59.000Z</time>
      </trkpt>
      <trkpt lat="45.5828" lon="2.77891">
        <ele>1079.9</ele>
        <time>2021-09-07T11:38:14.000Z</time>
      </trkpt>
      <trkpt lat="45.58284" lon="2.77884">
        <ele>1078.9</ele>
        <time>2021-09-07T11:38:20.000Z</time>
      </trkpt>
      <trkpt lat="45.58285" lon="2.77874">
        <ele>1077.4</ele>
        <time>2021-09-07T11:38:26.000Z</time>
      </trkpt>
      <trkpt lat="45.58291" lon="2.77867">
        <ele>1076.5</ele>
        <time>2021-09-07T11:38:30.000Z</time>
      </trkpt>
      <trkpt lat="45.58295" lon="2.77858">
        <ele>1075.3</ele>
        <time>2021-09-07T11:38:34.000Z</time>
      </trkpt>
      <trkpt lat="45.583" lon="2.77849">
        <ele>1074.3</ele>
        <time>2021-09-07T11:38:39.000Z</time>
      </trkpt>
      <trkpt lat="45.58304" lon="2.77838">
        <ele>1072.9</ele>
        <time>2021-09-07T11:38:45.000Z</time>
      </trkpt>
      <trkpt lat="45.58307" lon="2.7783">
        <ele>1072</ele>
        <time>2021-09-07T11:38:51.000Z</time>
      </trkpt>
      <trkpt lat="45.58309" lon="2.77818">
        <ele>1070.5</ele>
        <time>2021-09-07T11:38:57.000Z</time>
      </trkpt>
      <trkpt lat="45.58312" lon="2.77804">
        <ele>1068.8</ele>
        <time>2021-09-07T11:39:03.000Z</time>
      </trkpt>
      <trkpt lat="45.58316" lon="2.77796">
        <ele>1068.2</ele>
        <time>2021-09-07T11:39:09.000Z</time>
      </trkpt>
      <trkpt lat="45.58319" lon="2.77786">
        <ele>1067.2</ele>
        <time>2021-09-07T11:39:24.000Z</time>
      </trkpt>
      <trkpt lat="45.58323" lon="2.77777">
        <ele>1066.6</ele>
        <time>2021-09-07T11:39:31.000Z</time>
      </trkpt>
      <trkpt lat="45.58325" lon="2.77767">
        <ele>1065.7</ele>
        <time>2021-09-07T11:39:35.000Z</time>
      </trkpt>
      <trkpt lat="45.58328" lon="2.77758">
        <ele>1065.1</ele>
        <time>2021-09-07T11:39:40.000Z</time>
      </trkpt>
      <trkpt lat="45.5833" lon="2.77749">
        <ele>1064.3</ele>
        <time>2021-09-07T11:39:45.000Z</time>
      </trkpt>
      <trkpt lat="45.58332" lon="2.77736">
        <ele>1062.9</ele>
        <time>2021-09-07T11:39:51.000Z</time>
      </trkpt>
      <trkpt lat="45.58332" lon="2.77724">
        <ele>1061.3</ele>
        <time>2021-09-07T11:39:57.000Z</time>
      </trkpt>
      <trkpt lat="45.58335" lon="2.77715">
        <ele>1060.5</ele>
        <time>2021-09-07T11:40:03.000Z</time>
      </trkpt>
      <trkpt lat="45.58337" lon="2.77703">
        <ele>1059.1</ele>
        <time>2021-09-07T11:40:09.000Z</time>
      </trkpt>
      <trkpt lat="45.58339" lon="2.77693">
        <ele>1058</ele>
        <time>2021-09-07T11:40:15.000Z</time>
      </trkpt>
      <trkpt lat="45.5834" lon="2.77682">
        <ele>1056.7</ele>
        <time>2021-09-07T11:40:21.000Z</time>
      </trkpt>
      <trkpt lat="45.58344" lon="2.77673">
        <ele>1056</ele>
        <time>2021-09-07T11:40:28.000Z</time>
      </trkpt>
      <trkpt lat="45.58349" lon="2.77664">
        <ele>1055.6</ele>
        <time>2021-09-07T11:40:35.000Z</time>
      </trkpt>
      <trkpt lat="45.58351" lon="2.77652">
        <ele>1054.5</ele>
        <time>2021-09-07T11:40:39.000Z</time>
      </trkpt>
      <trkpt lat="45.5836" lon="2.77643">
        <ele>1054.8</ele>
        <time>2021-09-07T11:40:45.000Z</time>
      </trkpt>
      <trkpt lat="45.58365" lon="2.77633">
        <ele>1054.6</ele>
        <time>2021-09-07T11:40:51.000Z</time>
      </trkpt>
      <trkpt lat="45.58369" lon="2.77621">
        <ele>1054.1</ele>
        <time>2021-09-07T11:40:57.000Z</time>
      </trkpt>
      <trkpt lat="45.58373" lon="2.77611">
        <ele>1054</ele>
        <time>2021-09-07T11:41:03.000Z</time>
      </trkpt>
      <trkpt lat="45.58379" lon="2.77606">
        <ele>1054.7</ele>
        <time>2021-09-07T11:41:10.000Z</time>
      </trkpt>
      <trkpt lat="45.58381" lon="2.77597">
        <ele>1054.3</ele>
        <time>2021-09-07T11:41:15.000Z</time>
      </trkpt>
      <trkpt lat="45.58387" lon="2.77588">
        <ele>1054.9</ele>
        <time>2021-09-07T11:41:21.000Z</time>
      </trkpt>
      <trkpt lat="45.58394" lon="2.7758">
        <ele>1055.6</ele>
        <time>2021-09-07T11:41:27.000Z</time>
      </trkpt>
      <trkpt lat="45.58401" lon="2.77575">
        <ele>1056.5</ele>
        <time>2021-09-07T11:41:33.000Z</time>
      </trkpt>
      <trkpt lat="45.58406" lon="2.77566">
        <ele>1056.4</ele>
        <time>2021-09-07T11:41:39.000Z</time>
      </trkpt>
      <trkpt lat="45.58412" lon="2.77561">
        <ele>1057.2</ele>
        <time>2021-09-07T11:41:45.000Z</time>
      </trkpt>
      <trkpt lat="45.58415" lon="2.7755">
        <ele>1056.6</ele>
        <time>2021-09-07T11:41:51.000Z</time>
      </trkpt>
      <trkpt lat="45.58419" lon="2.77537">
        <ele>1055.6</ele>
        <time>2021-09-07T11:41:57.000Z</time>
      </trkpt>
      <trkpt lat="45.58424" lon="2.7753">
        <ele>1055</ele>
        <time>2021-09-07T11:42:03.000Z</time>
      </trkpt>
      <trkpt lat="45.58428" lon="2.77517">
        <ele>1053.9</ele>
        <time>2021-09-07T11:42:09.000Z</time>
      </trkpt>
      <trkpt lat="45.58432" lon="2.77505">
        <ele>1053</ele>
        <time>2021-09-07T11:42:15.000Z</time>
      </trkpt>
      <trkpt lat="45.58437" lon="2.77498">
        <ele>1052.5</ele>
        <time>2021-09-07T11:42:27.000Z</time>
      </trkpt>
      <trkpt lat="45.58442" lon="2.77493">
        <ele>1051.8</ele>
        <time>2021-09-07T11:42:33.000Z</time>
      </trkpt>
      <trkpt lat="45.58446" lon="2.77481">
        <ele>1049.6</ele>
        <time>2021-09-07T11:42:39.000Z</time>
      </trkpt>
      <trkpt lat="45.5845" lon="2.77475">
        <ele>1048.8</ele>
        <time>2021-09-07T11:42:45.000Z</time>
      </trkpt>
      <trkpt lat="45.58452" lon="2.77465">
        <ele>1046.9</ele>
        <time>2021-09-07T11:42:51.000Z</time>
      </trkpt>
      <trkpt lat="45.58443" lon="2.77447">
        <ele>1041.5</ele>
        <time>2021-09-07T11:42:57.000Z</time>
      </trkpt>
      <trkpt lat="45.58436" lon="2.77442">
        <ele>1039.2</ele>
        <time>2021-09-07T11:43:03.000Z</time>
      </trkpt>
      <trkpt lat="45.58442" lon="2.77436">
        <ele>1038.9</ele>
        <time>2021-09-07T11:43:31.000Z</time>
      </trkpt>
      <trkpt lat="45.5845" lon="2.77432">
        <ele>1039.5</ele>
        <time>2021-09-07T11:43:37.000Z</time>
      </trkpt>
      <trkpt lat="45.58456" lon="2.77428">
        <ele>1039.8</ele>
        <time>2021-09-07T11:43:41.000Z</time>
      </trkpt>
      <trkpt lat="45.58463" lon="2.77424">
        <ele>1040.5</ele>
        <time>2021-09-07T11:43:45.000Z</time>
      </trkpt>
      <trkpt lat="45.58469" lon="2.77417">
        <ele>1040.4</ele>
        <time>2021-09-07T11:43:51.000Z</time>
      </trkpt>
      <trkpt lat="45.58474" lon="2.77407">
        <ele>1038.8</ele>
        <time>2021-09-07T11:43:57.000Z</time>
      </trkpt>
      <trkpt lat="45.58481" lon="2.77404">
        <ele>1039.5</ele>
        <time>2021-09-07T11:44:04.000Z</time>
      </trkpt>
      <trkpt lat="45.58488" lon="2.77399">
        <ele>1039.7</ele>
        <time>2021-09-07T11:44:11.000Z</time>
      </trkpt>
      <trkpt lat="45.58494" lon="2.77394">
        <ele>1039.7</ele>
        <time>2021-09-07T11:44:20.000Z</time>
      </trkpt>
      <trkpt lat="45.58499" lon="2.77389">
        <ele>1039.5</ele>
        <time>2021-09-07T11:44:25.000Z</time>
      </trkpt>
      <trkpt lat="45.58504" lon="2.7738">
        <ele>1037.8</ele>
        <time>2021-09-07T11:44:30.000Z</time>
      </trkpt>
      <trkpt lat="45.58505" lon="2.7737">
        <ele>1035.4</ele>
        <time>2021-09-07T11:44:36.000Z</time>
      </trkpt>
      <trkpt lat="45.58512" lon="2.77368">
        <ele>1035.9</ele>
        <time>2021-09-07T11:44:42.000Z</time>
      </trkpt>
      <trkpt lat="45.58518" lon="2.77364">
        <ele>1035.8</ele>
        <time>2021-09-07T11:44:49.000Z</time>
      </trkpt>
      <trkpt lat="45.58525" lon="2.77359">
        <ele>1035.7</ele>
        <time>2021-09-07T11:44:55.000Z</time>
      </trkpt>
      <trkpt lat="45.58531" lon="2.77355">
        <ele>1035.7</ele>
        <time>2021-09-07T11:45:00.000Z</time>
      </trkpt>
      <trkpt lat="45.58538" lon="2.77353">
        <ele>1036.4</ele>
        <time>2021-09-07T11:45:07.000Z</time>
      </trkpt>
      <trkpt lat="45.58545" lon="2.77354">
        <ele>1037.8</ele>
        <time>2021-09-07T11:45:13.000Z</time>
      </trkpt>
      <trkpt lat="45.58552" lon="2.77353">
        <ele>1038.7</ele>
        <time>2021-09-07T11:45:20.000Z</time>
      </trkpt>
      <trkpt lat="45.58558" lon="2.77347">
        <ele>1038.6</ele>
        <time>2021-09-07T11:45:28.000Z</time>
      </trkpt>
      <trkpt lat="45.58552" lon="2.77341">
        <ele>1036.4</ele>
        <time>2021-09-07T11:45:51.000Z</time>
      </trkpt>
      <trkpt lat="45.58546" lon="2.77338">
        <ele>1034.8</ele>
        <time>2021-09-07T11:45:59.000Z</time>
      </trkpt>
      <trkpt lat="45.58539" lon="2.7734">
        <ele>1033.9</ele>
        <time>2021-09-07T11:46:48.000Z</time>
      </trkpt>
      <trkpt lat="45.58533" lon="2.77335">
        <ele>1031.7</ele>
        <time>2021-09-07T11:47:05.000Z</time>
      </trkpt>
      <trkpt lat="45.58533" lon="2.77325">
        <ele>1029.5</ele>
        <time>2021-09-07T11:47:19.000Z</time>
      </trkpt>
      <trkpt lat="45.58534" lon="2.77315">
        <ele>1027.5</ele>
        <time>2021-09-07T11:47:26.000Z</time>
      </trkpt>
      <trkpt lat="45.58539" lon="2.77308">
        <ele>1026.9</ele>
        <time>2021-09-07T11:47:33.000Z</time>
      </trkpt>
      <trkpt lat="45.58542" lon="2.77298">
        <ele>1025.2</ele>
        <time>2021-09-07T11:47:42.000Z</time>
      </trkpt>
      <trkpt lat="45.58549" lon="2.77292">
        <ele>1025.1</ele>
        <time>2021-09-07T11:48:08.000Z</time>
      </trkpt>
      <trkpt lat="45.58553" lon="2.77284">
        <ele>1024</ele>
        <time>2021-09-07T11:48:14.000Z</time>
      </trkpt>
      <trkpt lat="45.58558" lon="2.77277">
        <ele>1023.2</ele>
        <time>2021-09-07T11:48:21.000Z</time>
      </trkpt>
      <trkpt lat="45.58558" lon="2.77268">
        <ele>1021.2</ele>
        <time>2021-09-07T11:48:29.000Z</time>
      </trkpt>
      <trkpt lat="45.58561" lon="2.77259">
        <ele>1019.6</ele>
        <time>2021-09-07T11:48:39.000Z</time>
      </trkpt>
      <trkpt lat="45.58563" lon="2.77249">
        <ele>1017.5</ele>
        <time>2021-09-07T11:48:46.000Z</time>
      </trkpt>
      <trkpt lat="45.58563" lon="2.77239">
        <ele>1014.5</ele>
        <time>2021-09-07T11:48:59.000Z</time>
      </trkpt>
      <trkpt lat="45.58563" lon="2.7723">
        <ele>1011.8</ele>
        <time>2021-09-07T11:49:08.000Z</time>
      </trkpt>
      <trkpt lat="45.58566" lon="2.77221">
        <ele>1009.6</ele>
        <time>2021-09-07T11:49:15.000Z</time>
      </trkpt>
      <trkpt lat="45.5857" lon="2.77213">
        <ele>1007.8</ele>
        <time>2021-09-07T11:49:22.000Z</time>
      </trkpt>
      <trkpt lat="45.58574" lon="2.77206">
        <ele>1006.3</ele>
        <time>2021-09-07T11:49:43.000Z</time>
      </trkpt>
      <trkpt lat="45.58578" lon="2.77196">
        <ele>1004</ele>
        <time>2021-09-07T11:49:51.000Z</time>
      </trkpt>
      <trkpt lat="45.58583" lon="2.77188">
        <ele>1002.3</ele>
        <time>2021-09-07T11:49:57.000Z</time>
      </trkpt>
      <trkpt lat="45.58585" lon="2.77179">
        <ele>999.9</ele>
        <time>2021-09-07T11:50:04.000Z</time>
      </trkpt>
      <trkpt lat="45.58587" lon="2.77169">
        <ele>997.1</ele>
        <time>2021-09-07T11:50:13.000Z</time>
      </trkpt>
      <trkpt lat="45.5859" lon="2.77162">
        <ele>995.4</ele>
        <time>2021-09-07T11:50:19.000Z</time>
      </trkpt>
      <trkpt lat="45.58594" lon="2.77153">
        <ele>993.3</ele>
        <time>2021-09-07T11:50:25.000Z</time>
      </trkpt>
      <trkpt lat="45.586" lon="2.77146">
        <ele>991.9</ele>
        <time>2021-09-07T11:50:32.000Z</time>
      </trkpt>
      <trkpt lat="45.58607" lon="2.77145">
        <ele>992.4</ele>
        <time>2021-09-07T11:50:39.000Z</time>
      </trkpt>
      <trkpt lat="45.58604" lon="2.77134">
        <ele>988.8</ele>
        <time>2021-09-07T11:50:47.000Z</time>
      </trkpt>
      <trkpt lat="45.58605" lon="2.77123">
        <ele>985.6</ele>
        <time>2021-09-07T11:50:57.000Z</time>
      </trkpt>
      <trkpt lat="45.58609" lon="2.77114">
        <ele>983.3</ele>
        <time>2021-09-07T11:51:04.000Z</time>
      </trkpt>
      <trkpt lat="45.58613" lon="2.77107">
        <ele>981.6</ele>
        <time>2021-09-07T11:51:10.000Z</time>
      </trkpt>
      <trkpt lat="45.5861" lon="2.77099">
        <ele>978.9</ele>
        <time>2021-09-07T11:51:19.000Z</time>
      </trkpt>
      <trkpt lat="45.58603" lon="2.77095">
        <ele>977.1</ele>
        <time>2021-09-07T11:51:28.000Z</time>
      </trkpt>
      <trkpt lat="45.58596" lon="2.77096">
        <ele>976.8</ele>
        <time>2021-09-07T11:51:35.000Z</time>
      </trkpt>
      <trkpt lat="45.5859" lon="2.77102">
        <ele>978</ele>
        <time>2021-09-07T11:51:40.000Z</time>
      </trkpt>
      <trkpt lat="45.58583" lon="2.77105">
        <ele>978.2</ele>
        <time>2021-09-07T11:51:46.000Z</time>
      </trkpt>
      <trkpt lat="45.58576" lon="2.77104">
        <ele>977.6</ele>
        <time>2021-09-07T11:51:53.000Z</time>
      </trkpt>
      <trkpt lat="45.58569" lon="2.77106">
        <ele>977.8</ele>
        <time>2021-09-07T11:52:07.000Z</time>
      </trkpt>
      <trkpt lat="45.58563" lon="2.77109">
        <ele>978.2</ele>
        <time>2021-09-07T11:52:24.000Z</time>
      </trkpt>
      <trkpt lat="45.58567" lon="2.77117">
        <ele>980.5</ele>
        <time>2021-09-07T11:52:48.000Z</time>
      </trkpt>
      <trkpt lat="45.58573" lon="2.77118">
        <ele>981.2</ele>
        <time>2021-09-07T11:52:55.000Z</time>
      </trkpt>
      <trkpt lat="45.58577" lon="2.77111">
        <ele>979.6</ele>
        <time>2021-09-07T11:53:05.000Z</time>
      </trkpt>
      <trkpt lat="45.58584" lon="2.7711">
        <ele>979.7</ele>
        <time>2021-09-07T11:53:13.000Z</time>
      </trkpt>
      <trkpt lat="45.5859" lon="2.77105">
        <ele>978.9</ele>
        <time>2021-09-07T11:53:20.000Z</time>
      </trkpt>
      <trkpt lat="45.58597" lon="2.77103">
        <ele>978.9</ele>
        <time>2021-09-07T11:53:29.000Z</time>
      </trkpt>
      <trkpt lat="45.58603" lon="2.77104">
        <ele>979.8</ele>
        <time>2021-09-07T11:53:36.000Z</time>
      </trkpt>
      <trkpt lat="45.5861" lon="2.77099">
        <ele>978.9</ele>
        <time>2021-09-07T11:53:44.000Z</time>
      </trkpt>
      <trkpt lat="45.58616" lon="2.77095">
        <ele>978.3</ele>
        <time>2021-09-07T11:53:48.000Z</time>
      </trkpt>
      <trkpt lat="45.58623" lon="2.77092">
        <ele>978</ele>
        <time>2021-09-07T11:53:51.000Z</time>
      </trkpt>
      <trkpt lat="45.58632" lon="2.77089">
        <ele>977.8</ele>
        <time>2021-09-07T11:53:57.000Z</time>
      </trkpt>
      <trkpt lat="45.58639" lon="2.77087">
        <ele>977.8</ele>
        <time>2021-09-07T11:54:03.000Z</time>
      </trkpt>
      <trkpt lat="45.58646" lon="2.77087">
        <ele>978.4</ele>
        <time>2021-09-07T11:54:09.000Z</time>
      </trkpt>
      <trkpt lat="45.58652" lon="2.77084">
        <ele>978</ele>
        <time>2021-09-07T11:54:20.000Z</time>
      </trkpt>
      <trkpt lat="45.58659" lon="2.77083">
        <ele>978.3</ele>
        <time>2021-09-07T11:54:33.000Z</time>
      </trkpt>
      <trkpt lat="45.58666" lon="2.7708">
        <ele>977.8</ele>
        <time>2021-09-07T11:54:42.000Z</time>
      </trkpt>
      <trkpt lat="45.58671" lon="2.77074">
        <ele>976.2</ele>
        <time>2021-09-07T11:54:48.000Z</time>
      </trkpt>
      <trkpt lat="45.58678" lon="2.77072">
        <ele>976</ele>
        <time>2021-09-07T11:54:54.000Z</time>
      </trkpt>
      <trkpt lat="45.58683" lon="2.77064">
        <ele>973.8</ele>
        <time>2021-09-07T11:55:02.000Z</time>
      </trkpt>
      <trkpt lat="45.58688" lon="2.77059">
        <ele>972.5</ele>
        <time>2021-09-07T11:55:08.000Z</time>
      </trkpt>
      <trkpt lat="45.58694" lon="2.77052">
        <ele>970.7</ele>
        <time>2021-09-07T11:55:12.000Z</time>
      </trkpt>
      <trkpt lat="45.58698" lon="2.77044">
        <ele>968.4</ele>
        <time>2021-09-07T11:55:21.000Z</time>
      </trkpt>
      <trkpt lat="45.58704" lon="2.77037">
        <ele>966.6</ele>
        <time>2021-09-07T11:55:31.000Z</time>
      </trkpt>
      <trkpt lat="45.58709" lon="2.77032">
        <ele>965.4</ele>
        <time>2021-09-07T11:55:36.000Z</time>
      </trkpt>
      <trkpt lat="45.58711" lon="2.77023">
        <ele>962.7</ele>
        <time>2021-09-07T11:55:41.000Z</time>
      </trkpt>
      <trkpt lat="45.58715" lon="2.77014">
        <ele>960.1</ele>
        <time>2021-09-07T11:55:51.000Z</time>
      </trkpt>
      <trkpt lat="45.58722" lon="2.77011">
        <ele>959.8</ele>
        <time>2021-09-07T11:55:58.000Z</time>
      </trkpt>
      <trkpt lat="45.58729" lon="2.77009">
        <ele>959.8</ele>
        <time>2021-09-07T11:56:12.000Z</time>
      </trkpt>
      <trkpt lat="45.58728" lon="2.76999">
        <ele>956.6</ele>
        <time>2021-09-07T11:56:22.000Z</time>
      </trkpt>
      <trkpt lat="45.58732" lon="2.76992">
        <ele>954.9</ele>
        <time>2021-09-07T11:56:32.000Z</time>
      </trkpt>
      <trkpt lat="45.58739" lon="2.76989">
        <ele>954.5</ele>
        <time>2021-09-07T11:56:40.000Z</time>
      </trkpt>
      <trkpt lat="45.58743" lon="2.76981">
        <ele>952.3</ele>
        <time>2021-09-07T11:56:50.000Z</time>
      </trkpt>
      <trkpt lat="45.58739" lon="2.76974">
        <ele>949.9</ele>
        <time>2021-09-07T11:56:56.000Z</time>
      </trkpt>
      <trkpt lat="45.58745" lon="2.76969">
        <ele>948.5</ele>
        <time>2021-09-07T11:57:06.000Z</time>
      </trkpt>
      <trkpt lat="45.58751" lon="2.76963">
        <ele>946.6</ele>
        <time>2021-09-07T11:57:18.000Z</time>
      </trkpt>
      <trkpt lat="45.58756" lon="2.76956">
        <ele>944.7</ele>
        <time>2021-09-07T11:57:22.000Z</time>
      </trkpt>
      <trkpt lat="45.58761" lon="2.7695">
        <ele>943.1</ele>
        <time>2021-09-07T11:57:31.000Z</time>
      </trkpt>
      <trkpt lat="45.58766" lon="2.76943">
        <ele>941.4</ele>
        <time>2021-09-07T11:57:35.000Z</time>
      </trkpt>
      <trkpt lat="45.58762" lon="2.76934">
        <ele>938.1</ele>
        <time>2021-09-07T11:57:42.000Z</time>
      </trkpt>
      <trkpt lat="45.58762" lon="2.76924">
        <ele>934.9</ele>
        <time>2021-09-07T11:57:52.000Z</time>
      </trkpt>
      <trkpt lat="45.58768" lon="2.76919">
        <ele>934.1</ele>
        <time>2021-09-07T11:58:01.000Z</time>
      </trkpt>
      <trkpt lat="45.58769" lon="2.7691">
        <ele>932.8</ele>
        <time>2021-09-07T11:58:23.000Z</time>
      </trkpt>
      <trkpt lat="45.58768" lon="2.769">
        <ele>931.6</ele>
        <time>2021-09-07T11:58:49.000Z</time>
      </trkpt>
      <trkpt lat="45.58764" lon="2.76893">
        <ele>930.5</ele>
        <time>2021-09-07T11:58:58.000Z</time>
      </trkpt>
      <trkpt lat="45.58763" lon="2.76883">
        <ele>929.4</ele>
        <time>2021-09-07T11:59:03.000Z</time>
      </trkpt>
      <trkpt lat="45.58763" lon="2.76871">
        <ele>928.2</ele>
        <time>2021-09-07T11:59:09.000Z</time>
      </trkpt>
      <trkpt lat="45.58761" lon="2.76855">
        <ele>926.5</ele>
        <time>2021-09-07T11:59:15.000Z</time>
      </trkpt>
      <trkpt lat="45.58756" lon="2.76862">
        <ele>926.8</ele>
        <time>2021-09-07T11:59:29.000Z</time>
      </trkpt>
      <trkpt lat="45.58759" lon="2.7687">
        <ele>927.8</ele>
        <time>2021-09-07T11:59:43.000Z</time>
      </trkpt>
      <trkpt lat="45.58752" lon="2.76877">
        <ele>927.8</ele>
        <time>2021-09-07T11:59:52.000Z</time>
      </trkpt>
      <trkpt lat="45.58745" lon="2.76878">
        <ele>928.7</ele>
        <time>2021-09-07T11:59:58.000Z</time>
      </trkpt>
      <trkpt lat="45.58739" lon="2.76883">
        <ele>930.2</ele>
        <time>2021-09-07T12:00:12.000Z</time>
      </trkpt>
      <trkpt lat="45.58736" lon="2.76893">
        <ele>931.2</ele>
        <time>2021-09-07T12:00:26.000Z</time>
      </trkpt>
      <trkpt lat="45.58729" lon="2.76896">
        <ele>932.4</ele>
        <time>2021-09-07T12:00:37.000Z</time>
      </trkpt>
      <trkpt lat="45.58722" lon="2.76901">
        <ele>933.5</ele>
        <time>2021-09-07T12:00:43.000Z</time>
      </trkpt>
      <trkpt lat="45.58716" lon="2.76906">
        <ele>934.3</ele>
        <time>2021-09-07T12:00:48.000Z</time>
      </trkpt>
      <trkpt lat="45.5871" lon="2.76913">
        <ele>934.9</ele>
        <time>2021-09-07T12:00:54.000Z</time>
      </trkpt>
      <trkpt lat="45.58703" lon="2.76919">
        <ele>936</ele>
        <time>2021-09-07T12:00:59.000Z</time>
      </trkpt>
      <trkpt lat="45.58695" lon="2.76924">
        <ele>937.8</ele>
        <time>2021-09-07T12:01:03.000Z</time>
      </trkpt>
      <trkpt lat="45.58686" lon="2.76933">
        <ele>940.2</ele>
        <time>2021-09-07T12:01:09.000Z</time>
      </trkpt>
      <trkpt lat="45.58681" lon="2.76939">
        <ele>941.6</ele>
        <time>2021-09-07T12:01:15.000Z</time>
      </trkpt>
      <trkpt lat="45.58673" lon="2.76944">
        <ele>942.7</ele>
        <time>2021-09-07T12:01:21.000Z</time>
      </trkpt>
      <trkpt lat="45.58666" lon="2.76945">
        <ele>943.3</ele>
        <time>2021-09-07T12:01:27.000Z</time>
      </trkpt>
      <trkpt lat="45.58659" lon="2.76945">
        <ele>945.9</ele>
        <time>2021-09-07T12:01:32.000Z</time>
      </trkpt>
      <trkpt lat="45.58655" lon="2.76953">
        <ele>948.2</ele>
        <time>2021-09-07T12:01:41.000Z</time>
      </trkpt>
      <trkpt lat="45.58648" lon="2.76946">
        <ele>950.1</ele>
        <time>2021-09-07T12:01:48.000Z</time>
      </trkpt>
      <trkpt lat="45.58641" lon="2.76947">
        <ele>952.7</ele>
        <time>2021-09-07T12:01:53.000Z</time>
      </trkpt>
      <trkpt lat="45.58634" lon="2.76947">
        <ele>955.2</ele>
        <time>2021-09-07T12:02:09.000Z</time>
      </trkpt>
      <trkpt lat="45.58628" lon="2.76952">
        <ele>957.5</ele>
        <time>2021-09-07T12:02:16.000Z</time>
      </trkpt>
      <trkpt lat="45.58621" lon="2.76953">
        <ele>959.9</ele>
        <time>2021-09-07T12:02:22.000Z</time>
      </trkpt>
      <trkpt lat="45.58614" lon="2.76951">
        <ele>962.3</ele>
        <time>2021-09-07T12:02:27.000Z</time>
      </trkpt>
      <trkpt lat="45.58607" lon="2.76952">
        <ele>964.7</ele>
        <time>2021-09-07T12:02:33.000Z</time>
      </trkpt>
      <trkpt lat="45.58601" lon="2.7695">
        <ele>967</ele>
        <time>2021-09-07T12:02:42.000Z</time>
      </trkpt>
      <trkpt lat="45.58592" lon="2.76948">
        <ele>970.4</ele>
        <time>2021-09-07T12:03:00.000Z</time>
      </trkpt>
      <trkpt lat="45.58585" lon="2.7695">
        <ele>972.6</ele>
        <time>2021-09-07T12:03:21.000Z</time>
      </trkpt>
      <trkpt lat="45.58574" lon="2.76952">
        <ele>975.6</ele>
        <time>2021-09-07T12:03:43.000Z</time>
      </trkpt>
      <trkpt lat="45.58563" lon="2.76955">
        <ele>978.2</ele>
        <time>2021-09-07T12:04:15.000Z</time>
      </trkpt>
      <trkpt lat="45.5857" lon="2.76957">
        <ele>976</ele>
        <time>2021-09-07T12:04:49.000Z</time>
      </trkpt>
      <trkpt lat="45.58566" lon="2.76948">
        <ele>978.5</ele>
        <time>2021-09-07T12:04:58.000Z</time>
      </trkpt>
      <trkpt lat="45.58567" lon="2.76964">
        <ele>975.8</ele>
        <time>2021-09-07T12:05:44.000Z</time>
      </trkpt>
      <trkpt lat="45.58561" lon="2.76965">
        <ele>977.3</ele>
        <time>2021-09-07T12:06:35.000Z</time>
      </trkpt>
      <trkpt lat="45.58556" lon="2.76971">
        <ele>977.7</ele>
        <time>2021-09-07T12:06:44.000Z</time>
      </trkpt>
      <trkpt lat="45.58551" lon="2.76981">
        <ele>977.5</ele>
        <time>2021-09-07T12:06:52.000Z</time>
      </trkpt>
      <trkpt lat="45.58544" lon="2.76976">
        <ele>980.2</ele>
        <time>2021-09-07T12:07:03.000Z</time>
      </trkpt>
      <trkpt lat="45.58532" lon="2.76986">
        <ele>981.9</ele>
        <time>2021-09-07T12:07:50.000Z</time>
      </trkpt>
      <trkpt lat="45.58525" lon="2.76986">
        <ele>983.8</ele>
        <time>2021-09-07T12:07:59.000Z</time>
      </trkpt>
      <trkpt lat="45.58531" lon="2.76978">
        <ele>983.5</ele>
        <time>2021-09-07T12:08:30.000Z</time>
      </trkpt>
      <trkpt lat="45.58535" lon="2.7697">
        <ele>983.7</ele>
        <time>2021-09-07T12:08:36.000Z</time>
      </trkpt>
      <trkpt lat="45.58546" lon="2.76978">
        <ele>979.4</ele>
        <time>2021-09-07T12:08:57.000Z</time>
      </trkpt>
      <trkpt lat="45.5855" lon="2.76985">
        <ele>977.2</ele>
        <time>2021-09-07T12:09:22.000Z</time>
      </trkpt>
      <trkpt lat="45.58556" lon="2.7698">
        <ele>976.3</ele>
        <time>2021-09-07T12:09:34.000Z</time>
      </trkpt>
      <trkpt lat="45.58558" lon="2.7699">
        <ele>974.2</ele>
        <time>2021-09-07T12:10:14.000Z</time>
      </trkpt>
      <trkpt lat="45.58556" lon="2.76981">
        <ele>976.2</ele>
        <time>2021-09-07T12:10:28.000Z</time>
      </trkpt>
      <trkpt lat="45.58559" lon="2.76972">
        <ele>976.8</ele>
        <time>2021-09-07T12:10:48.000Z</time>
      </trkpt>
      <trkpt lat="45.5855" lon="2.76969">
        <ele>979.7</ele>
        <time>2021-09-07T12:10:58.000Z</time>
      </trkpt>
      <trkpt lat="45.58555" lon="2.76978">
        <ele>976.9</ele>
        <time>2021-09-07T12:11:03.000Z</time>
      </trkpt>
      <trkpt lat="45.58564" lon="2.76991">
        <ele>972.5</ele>
        <time>2021-09-07T12:11:07.000Z</time>
      </trkpt>
      <trkpt lat="45.58566" lon="2.76982">
        <ele>973.3</ele>
        <time>2021-09-07T12:11:18.000Z</time>
      </trkpt>
      <trkpt lat="45.58562" lon="2.76975">
        <ele>975.5</ele>
        <time>2021-09-07T12:11:28.000Z</time>
      </trkpt>
      <trkpt lat="45.58556" lon="2.76969">
        <ele>978</ele>
        <time>2021-09-07T12:11:40.000Z</time>
      </trkpt>
      <trkpt lat="45.58558" lon="2.76979">
        <ele>975.9</ele>
        <time>2021-09-07T12:11:57.000Z</time>
      </trkpt>
      <trkpt lat="45.58551" lon="2.76992">
        <ele>975.8</ele>
        <time>2021-09-07T12:12:19.000Z</time>
      </trkpt>
      <trkpt lat="45.58544" lon="2.76987">
        <ele>978.5</ele>
        <time>2021-09-07T12:12:31.000Z</time>
      </trkpt>
      <trkpt lat="45.5855" lon="2.76981">
        <ele>977.8</ele>
        <time>2021-09-07T12:12:51.000Z</time>
      </trkpt>
      <trkpt lat="45.58554" lon="2.76973">
        <ele>978</ele>
        <time>2021-09-07T12:12:56.000Z</time>
      </trkpt>
      <trkpt lat="45.58561" lon="2.76968">
        <ele>976.8</ele>
        <time>2021-09-07T12:13:01.000Z</time>
      </trkpt>
      <trkpt lat="45.58568" lon="2.76965">
        <ele>975.3</ele>
        <time>2021-09-07T12:13:07.000Z</time>
      </trkpt>
      <trkpt lat="45.58565" lon="2.76957">
        <ele>977.4</ele>
        <time>2021-09-07T12:13:35.000Z</time>
      </trkpt>
      <trkpt lat="45.58558" lon="2.76946">
        <ele>981.1</ele>
        <time>2021-09-07T12:13:38.000Z</time>
      </trkpt>
      <trkpt lat="45.58553" lon="2.76937">
        <ele>983.9</ele>
        <time>2021-09-07T12:13:43.000Z</time>
      </trkpt>
      <trkpt lat="45.58564" lon="2.76954">
        <ele>978.1</ele>
        <time>2021-09-07T12:13:49.000Z</time>
      </trkpt>
      <trkpt lat="45.58569" lon="2.76963">
        <ele>975.3</ele>
        <time>2021-09-07T12:13:57.000Z</time>
      </trkpt>
      <trkpt lat="45.58572" lon="2.76973">
        <ele>973</ele>
        <time>2021-09-07T12:14:01.000Z</time>
      </trkpt>
      <trkpt lat="45.58561" lon="2.76977">
        <ele>975.4</ele>
        <time>2021-09-07T12:14:07.000Z</time>
      </trkpt>
      <trkpt lat="45.58565" lon="2.76968">
        <ele>975.7</ele>
        <time>2021-09-07T12:14:36.000Z</time>
      </trkpt>
      <trkpt lat="45.58572" lon="2.76965">
        <ele>974.2</ele>
        <time>2021-09-07T12:14:50.000Z</time>
      </trkpt>
      <trkpt lat="45.58565" lon="2.76958">
        <ele>977.2</ele>
        <time>2021-09-07T12:15:20.000Z</time>
      </trkpt>
      <trkpt lat="45.58557" lon="2.76957">
        <ele>979.6</ele>
        <time>2021-09-07T12:15:39.000Z</time>
      </trkpt>
      <trkpt lat="45.58553" lon="2.76947">
        <ele>982.3</ele>
        <time>2021-09-07T12:16:00.000Z</time>
      </trkpt>
      <trkpt lat="45.58549" lon="2.76939">
        <ele>984.8</ele>
        <time>2021-09-07T12:16:12.000Z</time>
      </trkpt>
      <trkpt lat="45.58555" lon="2.76934">
        <ele>983.8</ele>
        <time>2021-09-07T12:16:20.000Z</time>
      </trkpt>
      <trkpt lat="45.58561" lon="2.76939">
        <ele>981.3</ele>
        <time>2021-09-07T12:16:54.000Z</time>
      </trkpt>
      <trkpt lat="45.58572" lon="2.76949">
        <ele>976.6</ele>
        <time>2021-09-07T12:17:07.000Z</time>
      </trkpt>
      <trkpt lat="45.5858" lon="2.76955">
        <ele>973.4</ele>
        <time>2021-09-07T12:18:32.000Z</time>
      </trkpt>
      <trkpt lat="45.58573" lon="2.76953">
        <ele>975.7</ele>
        <time>2021-09-07T12:18:58.000Z</time>
      </trkpt>
      <trkpt lat="45.58578" lon="2.76947">
        <ele>975.2</ele>
        <time>2021-09-07T12:19:19.000Z</time>
      </trkpt>
      <trkpt lat="45.58574" lon="2.76939">
        <ele>977.5</ele>
        <time>2021-09-07T12:19:27.000Z</time>
      </trkpt>
      <trkpt lat="45.5857" lon="2.76932">
        <ele>979.7</ele>
        <time>2021-09-07T12:19:43.000Z</time>
      </trkpt>
      <trkpt lat="45.58574" lon="2.7694">
        <ele>977.3</ele>
        <time>2021-09-07T12:19:50.000Z</time>
      </trkpt>
      <trkpt lat="45.58576" lon="2.76949">
        <ele>975.4</ele>
        <time>2021-09-07T12:19:59.000Z</time>
      </trkpt>
      <trkpt lat="45.58582" lon="2.76943">
        <ele>974.6</ele>
        <time>2021-09-07T12:20:13.000Z</time>
      </trkpt>
      <trkpt lat="45.58589" lon="2.76943">
        <ele>972.1</ele>
        <time>2021-09-07T12:20:32.000Z</time>
      </trkpt>
      <trkpt lat="45.58596" lon="2.76946">
        <ele>969.1</ele>
        <time>2021-09-07T12:20:41.000Z</time>
      </trkpt>
      <trkpt lat="45.58602" lon="2.76943">
        <ele>967.2</ele>
        <time>2021-09-07T12:20:59.000Z</time>
      </trkpt>
      <trkpt lat="45.58605" lon="2.76952">
        <ele>965.4</ele>
        <time>2021-09-07T12:21:11.000Z</time>
      </trkpt>
      <trkpt lat="45.58611" lon="2.76957">
        <ele>963.1</ele>
        <time>2021-09-07T12:21:18.000Z</time>
      </trkpt>
      <trkpt lat="45.58618" lon="2.76958">
        <ele>960.8</ele>
        <time>2021-09-07T12:21:25.000Z</time>
      </trkpt>
      <trkpt lat="45.58624" lon="2.76953">
        <ele>958.8</ele>
        <time>2021-09-07T12:21:35.000Z</time>
      </trkpt>
      <trkpt lat="45.58637" lon="2.76949">
        <ele>954.2</ele>
        <time>2021-09-07T12:21:56.000Z</time>
      </trkpt>
      <trkpt lat="45.58646" lon="2.76953">
        <ele>951.3</ele>
        <time>2021-09-07T12:22:17.000Z</time>
      </trkpt>
      <trkpt lat="45.58653" lon="2.76953">
        <ele>948.9</ele>
        <time>2021-09-07T12:22:25.000Z</time>
      </trkpt>
      <trkpt lat="45.58656" lon="2.76944">
        <ele>946.9</ele>
        <time>2021-09-07T12:22:33.000Z</time>
      </trkpt>
      <trkpt lat="45.58662" lon="2.76941">
        <ele>944.3</ele>
        <time>2021-09-07T12:22:39.000Z</time>
      </trkpt>
      <trkpt lat="45.58669" lon="2.76944">
        <ele>942.9</ele>
        <time>2021-09-07T12:22:45.000Z</time>
      </trkpt>
      <trkpt lat="45.58674" lon="2.76938">
        <ele>941.7</ele>
        <time>2021-09-07T12:22:54.000Z</time>
      </trkpt>
      <trkpt lat="45.58682" lon="2.76935">
        <ele>940.8</ele>
        <time>2021-09-07T12:23:00.000Z</time>
      </trkpt>
      <trkpt lat="45.58689" lon="2.76931">
        <ele>939.7</ele>
        <time>2021-09-07T12:23:06.000Z</time>
      </trkpt>
      <trkpt lat="45.58694" lon="2.76924">
        <ele>937.9</ele>
        <time>2021-09-07T12:23:12.000Z</time>
      </trkpt>
      <trkpt lat="45.587" lon="2.76919">
        <ele>936.3</ele>
        <time>2021-09-07T12:23:19.000Z</time>
      </trkpt>
      <trkpt lat="45.58705" lon="2.76915">
        <ele>935.4</ele>
        <time>2021-09-07T12:23:29.000Z</time>
      </trkpt>
      <trkpt lat="45.58711" lon="2.76909">
        <ele>934.9</ele>
        <time>2021-09-07T12:23:38.000Z</time>
      </trkpt>
      <trkpt lat="45.58716" lon="2.76904">
        <ele>934.3</ele>
        <time>2021-09-07T12:23:50.000Z</time>
      </trkpt>
      <trkpt lat="45.58723" lon="2.769">
        <ele>933.4</ele>
        <time>2021-09-07T12:24:00.000Z</time>
      </trkpt>
      <trkpt lat="45.58727" lon="2.76893">
        <ele>932.6</ele>
        <time>2021-09-07T12:24:06.000Z</time>
      </trkpt>
      <trkpt lat="45.58729" lon="2.76883">
        <ele>932</ele>
        <time>2021-09-07T12:24:19.000Z</time>
      </trkpt>
      <trkpt lat="45.58735" lon="2.76879">
        <ele>930.7</ele>
        <time>2021-09-07T12:24:30.000Z</time>
      </trkpt>
      <trkpt lat="45.58743" lon="2.76869">
        <ele>928.5</ele>
        <time>2021-09-07T12:24:42.000Z</time>
      </trkpt>
      <trkpt lat="45.58749" lon="2.76865">
        <ele>926.9</ele>
        <time>2021-09-07T12:25:03.000Z</time>
      </trkpt>
      <trkpt lat="45.58755" lon="2.76859">
        <ele>926.5</ele>
        <time>2021-09-07T12:25:13.000Z</time>
      </trkpt>
      <trkpt lat="45.5876" lon="2.76866">
        <ele>927.5</ele>
        <time>2021-09-07T12:25:18.000Z</time>
      </trkpt>
      <trkpt lat="45.58763" lon="2.76857">
        <ele>926.8</ele>
        <time>2021-09-07T12:25:32.000Z</time>
      </trkpt>
      <trkpt lat="45.58764" lon="2.76867">
        <ele>927.9</ele>
        <time>2021-09-07T12:25:51.000Z</time>
      </trkpt>
      <trkpt lat="45.58769" lon="2.76878">
        <ele>929.4</ele>
        <time>2021-09-07T12:26:05.000Z</time>
      </trkpt>
      <trkpt lat="45.58769" lon="2.76866">
        <ele>928.1</ele>
        <time>2021-09-07T12:26:19.000Z</time>
      </trkpt>
      <trkpt lat="45.58767" lon="2.76854">
        <ele>926.8</ele>
        <time>2021-09-07T12:26:24.000Z</time>
      </trkpt>
      <trkpt lat="45.58768" lon="2.76843">
        <ele>925.7</ele>
        <time>2021-09-07T12:26:30.000Z</time>
      </trkpt>
      <trkpt lat="45.58769" lon="2.76833">
        <ele>924.7</ele>
        <time>2021-09-07T12:26:40.000Z</time>
      </trkpt>
      <trkpt lat="45.58768" lon="2.76821">
        <ele>925.2</ele>
        <time>2021-09-07T12:26:53.000Z</time>
      </trkpt>
      <trkpt lat="45.58761" lon="2.76818">
        <ele>925.4</ele>
        <time>2021-09-07T12:27:02.000Z</time>
      </trkpt>
      <trkpt lat="45.58767" lon="2.76814">
        <ele>925.5</ele>
        <time>2021-09-07T12:27:15.000Z</time>
      </trkpt>
      <trkpt lat="45.58774" lon="2.76811">
        <ele>925.5</ele>
        <time>2021-09-07T12:27:22.000Z</time>
      </trkpt>
      <trkpt lat="45.58767" lon="2.76806">
        <ele>925.9</ele>
        <time>2021-09-07T12:27:30.000Z</time>
      </trkpt>
      <trkpt lat="45.58773" lon="2.76811">
        <ele>925.5</ele>
        <time>2021-09-07T12:27:55.000Z</time>
      </trkpt>
      <trkpt lat="45.58774" lon="2.76797">
        <ele>925.8</ele>
        <time>2021-09-07T12:28:22.000Z</time>
      </trkpt>
      <trkpt lat="45.5878" lon="2.76787">
        <ele>925.5</ele>
        <time>2021-09-07T12:28:46.000Z</time>
      </trkpt>
      <trkpt lat="45.58778" lon="2.76777">
        <ele>925.9</ele>
        <time>2021-09-07T12:28:50.000Z</time>
      </trkpt>
      <trkpt lat="45.58782" lon="2.76767">
        <ele>925.4</ele>
        <time>2021-09-07T12:28:55.000Z</time>
      </trkpt>
      <trkpt lat="45.58782" lon="2.76757">
        <ele>925.4</ele>
        <time>2021-09-07T12:29:03.000Z</time>
      </trkpt>
      <trkpt lat="45.58782" lon="2.76748">
        <ele>925.5</ele>
        <time>2021-09-07T12:29:12.000Z</time>
      </trkpt>
      <trkpt lat="45.58779" lon="2.76739">
        <ele>926.1</ele>
        <time>2021-09-07T12:29:18.000Z</time>
      </trkpt>
      <trkpt lat="45.58778" lon="2.76727">
        <ele>926.4</ele>
        <time>2021-09-07T12:29:29.000Z</time>
      </trkpt>
      <trkpt lat="45.5878" lon="2.76718">
        <ele>925.9</ele>
        <time>2021-09-07T12:29:34.000Z</time>
      </trkpt>
      <trkpt lat="45.58784" lon="2.76709">
        <ele>924.9</ele>
        <time>2021-09-07T12:29:39.000Z</time>
      </trkpt>
      <trkpt lat="45.58788" lon="2.76701">
        <ele>923.9</ele>
        <time>2021-09-07T12:29:45.000Z</time>
      </trkpt>
      <trkpt lat="45.58793" lon="2.76694">
        <ele>922.5</ele>
        <time>2021-09-07T12:29:50.000Z</time>
      </trkpt>
      <trkpt lat="45.58799" lon="2.7669">
        <ele>920.8</ele>
        <time>2021-09-07T12:29:58.000Z</time>
      </trkpt>
      <trkpt lat="45.58807" lon="2.76687">
        <ele>918.5</ele>
        <time>2021-09-07T12:30:06.000Z</time>
      </trkpt>
      <trkpt lat="45.5881" lon="2.76694">
        <ele>917.9</ele>
        <time>2021-09-07T12:30:18.000Z</time>
      </trkpt>
      <trkpt lat="45.58818" lon="2.76692">
        <ele>915.7</ele>
        <time>2021-09-07T12:30:25.000Z</time>
      </trkpt>
      <trkpt lat="45.58824" lon="2.76693">
        <ele>914.1</ele>
        <time>2021-09-07T12:30:30.000Z</time>
      </trkpt>
      <trkpt lat="45.58833" lon="2.76696">
        <ele>911.8</ele>
        <time>2021-09-07T12:30:36.000Z</time>
      </trkpt>
      <trkpt lat="45.58846" lon="2.76697">
        <ele>910.7</ele>
        <time>2021-09-07T12:30:42.000Z</time>
      </trkpt>
      <trkpt lat="45.58855" lon="2.76704">
        <ele>910.4</ele>
        <time>2021-09-07T12:30:48.000Z</time>
      </trkpt>
      <trkpt lat="45.58865" lon="2.76706">
        <ele>909.7</ele>
        <time>2021-09-07T12:30:54.000Z</time>
      </trkpt>
      <trkpt lat="45.58871" lon="2.76699">
        <ele>908.6</ele>
        <time>2021-09-07T12:31:00.000Z</time>
      </trkpt>
      <trkpt lat="45.58879" lon="2.76693">
        <ele>907.3</ele>
        <time>2021-09-07T12:31:06.000Z</time>
      </trkpt>
      <trkpt lat="45.58884" lon="2.76686">
        <ele>906.3</ele>
        <time>2021-09-07T12:31:13.000Z</time>
      </trkpt>
      <trkpt lat="45.58889" lon="2.76679">
        <ele>905.1</ele>
        <time>2021-09-07T12:31:18.000Z</time>
      </trkpt>
      <trkpt lat="45.58894" lon="2.7667">
        <ele>903.8</ele>
        <time>2021-09-07T12:31:24.000Z</time>
      </trkpt>
      <trkpt lat="45.58897" lon="2.7666">
        <ele>903.4</ele>
        <time>2021-09-07T12:31:29.000Z</time>
      </trkpt>
      <trkpt lat="45.58901" lon="2.76648">
        <ele>903.3</ele>
        <time>2021-09-07T12:31:35.000Z</time>
      </trkpt>
      <trkpt lat="45.58911" lon="2.76643">
        <ele>902.1</ele>
        <time>2021-09-07T12:31:41.000Z</time>
      </trkpt>
      <trkpt lat="45.58919" lon="2.76647">
        <ele>901.1</ele>
        <time>2021-09-07T12:31:47.000Z</time>
      </trkpt>
      <trkpt lat="45.58924" lon="2.76641">
        <ele>900.8</ele>
        <time>2021-09-07T12:31:53.000Z</time>
      </trkpt>
      <trkpt lat="45.5893" lon="2.76637">
        <ele>900.3</ele>
        <time>2021-09-07T12:32:02.000Z</time>
      </trkpt>
      <trkpt lat="45.58936" lon="2.76633">
        <ele>899.9</ele>
        <time>2021-09-07T12:32:09.000Z</time>
      </trkpt>
      <trkpt lat="45.58943" lon="2.76633">
        <ele>899.4</ele>
        <time>2021-09-07T12:32:16.000Z</time>
      </trkpt>
      <trkpt lat="45.5895" lon="2.76636">
        <ele>898.8</ele>
        <time>2021-09-07T12:32:22.000Z</time>
      </trkpt>
      <trkpt lat="45.58952" lon="2.76625">
        <ele>898.7</ele>
        <time>2021-09-07T12:32:29.000Z</time>
      </trkpt>
      <trkpt lat="45.58953" lon="2.76616">
        <ele>898.7</ele>
        <time>2021-09-07T12:32:34.000Z</time>
      </trkpt>
      <trkpt lat="45.58955" lon="2.76606">
        <ele>898.6</ele>
        <time>2021-09-07T12:32:39.000Z</time>
      </trkpt>
      <trkpt lat="45.58958" lon="2.76596">
        <ele>898.5</ele>
        <time>2021-09-07T12:32:46.000Z</time>
      </trkpt>
      <trkpt lat="45.58961" lon="2.76587">
        <ele>898.3</ele>
        <time>2021-09-07T12:32:51.000Z</time>
      </trkpt>
      <trkpt lat="45.58964" lon="2.76574">
        <ele>898.3</ele>
        <time>2021-09-07T12:32:57.000Z</time>
      </trkpt>
      <trkpt lat="45.58968" lon="2.76563">
        <ele>898.2</ele>
        <time>2021-09-07T12:33:03.000Z</time>
      </trkpt>
      <trkpt lat="45.58971" lon="2.76555">
        <ele>898.1</ele>
        <time>2021-09-07T12:33:09.000Z</time>
      </trkpt>
      <trkpt lat="45.58973" lon="2.76543">
        <ele>898.2</ele>
        <time>2021-09-07T12:33:15.000Z</time>
      </trkpt>
      <trkpt lat="45.58976" lon="2.76533">
        <ele>898.1</ele>
        <time>2021-09-07T12:33:21.000Z</time>
      </trkpt>
      <trkpt lat="45.58979" lon="2.76523">
        <ele>898</ele>
        <time>2021-09-07T12:33:27.000Z</time>
      </trkpt>
      <trkpt lat="45.58982" lon="2.76514">
        <ele>897.9</ele>
        <time>2021-09-07T12:33:33.000Z</time>
      </trkpt>
      <trkpt lat="45.58985" lon="2.76503">
        <ele>897.7</ele>
        <time>2021-09-07T12:33:39.000Z</time>
      </trkpt>
      <trkpt lat="45.58986" lon="2.76492">
        <ele>897.5</ele>
        <time>2021-09-07T12:33:45.000Z</time>
      </trkpt>
      <trkpt lat="45.58988" lon="2.76482">
        <ele>897.1</ele>
        <time>2021-09-07T12:33:52.000Z</time>
      </trkpt>
      <trkpt lat="45.58991" lon="2.76473">
        <ele>896.5</ele>
        <time>2021-09-07T12:33:57.000Z</time>
      </trkpt>
      <trkpt lat="45.58994" lon="2.76461">
        <ele>895.9</ele>
        <time>2021-09-07T12:34:03.000Z</time>
      </trkpt>
      <trkpt lat="45.58998" lon="2.76453">
        <ele>895.1</ele>
        <time>2021-09-07T12:34:09.000Z</time>
      </trkpt>
      <trkpt lat="45.59001" lon="2.76439">
        <ele>894.5</ele>
        <time>2021-09-07T12:34:15.000Z</time>
      </trkpt>
      <trkpt lat="45.59003" lon="2.76423">
        <ele>893.9</ele>
        <time>2021-09-07T12:34:21.000Z</time>
      </trkpt>
      <trkpt lat="45.59006" lon="2.76412">
        <ele>893.3</ele>
        <time>2021-09-07T12:34:27.000Z</time>
      </trkpt>
      <trkpt lat="45.5901" lon="2.76403">
        <ele>892.6</ele>
        <time>2021-09-07T12:34:33.000Z</time>
      </trkpt>
      <trkpt lat="45.59011" lon="2.76388">
        <ele>891.9</ele>
        <time>2021-09-07T12:34:39.000Z</time>
      </trkpt>
      <trkpt lat="45.59013" lon="2.76376">
        <ele>891.2</ele>
        <time>2021-09-07T12:34:45.000Z</time>
      </trkpt>
      <trkpt lat="45.59017" lon="2.76364">
        <ele>890.4</ele>
        <time>2021-09-07T12:34:51.000Z</time>
      </trkpt>
      <trkpt lat="45.59018" lon="2.76348">
        <ele>889.6</ele>
        <time>2021-09-07T12:34:57.000Z</time>
      </trkpt>
      <trkpt lat="45.5902" lon="2.76336">
        <ele>888.9</ele>
        <time>2021-09-07T12:35:03.000Z</time>
      </trkpt>
      <trkpt lat="45.59022" lon="2.76323">
        <ele>888.6</ele>
        <time>2021-09-07T12:35:09.000Z</time>
      </trkpt>
      <trkpt lat="45.59024" lon="2.76311">
        <ele>888.5</ele>
        <time>2021-09-07T12:35:15.000Z</time>
      </trkpt>
      <trkpt lat="45.59027" lon="2.763">
        <ele>888.3</ele>
        <time>2021-09-07T12:35:21.000Z</time>
      </trkpt>
      <trkpt lat="45.59028" lon="2.76288">
        <ele>888.1</ele>
        <time>2021-09-07T12:35:27.000Z</time>
      </trkpt>
      <trkpt lat="45.59031" lon="2.76276">
        <ele>887.9</ele>
        <time>2021-09-07T12:35:33.000Z</time>
      </trkpt>
      <trkpt lat="45.59033" lon="2.76262">
        <ele>887.7</ele>
        <time>2021-09-07T12:35:39.000Z</time>
      </trkpt>
      <trkpt lat="45.59035" lon="2.76249">
        <ele>887.5</ele>
        <time>2021-09-07T12:35:45.000Z</time>
      </trkpt>
      <trkpt lat="45.59037" lon="2.76237">
        <ele>887.7</ele>
        <time>2021-09-07T12:35:51.000Z</time>
      </trkpt>
      <trkpt lat="45.5904" lon="2.76226">
        <ele>887.7</ele>
        <time>2021-09-07T12:35:57.000Z</time>
      </trkpt>
      <trkpt lat="45.59042" lon="2.76215">
        <ele>887.8</ele>
        <time>2021-09-07T12:36:03.000Z</time>
      </trkpt>
      <trkpt lat="45.59043" lon="2.76202">
        <ele>888</ele>
        <time>2021-09-07T12:36:09.000Z</time>
      </trkpt>
      <trkpt lat="45.59044" lon="2.76189">
        <ele>888.2</ele>
        <time>2021-09-07T12:36:15.000Z</time>
      </trkpt>
      <trkpt lat="45.59046" lon="2.76177">
        <ele>888.2</ele>
        <time>2021-09-07T12:36:21.000Z</time>
      </trkpt>
      <trkpt lat="45.59048" lon="2.76167">
        <ele>888.1</ele>
        <time>2021-09-07T12:36:27.000Z</time>
      </trkpt>
      <trkpt lat="45.5905" lon="2.76158">
        <ele>888.3</ele>
        <time>2021-09-07T12:36:33.000Z</time>
      </trkpt>
      <trkpt lat="45.59053" lon="2.76148">
        <ele>888.4</ele>
        <time>2021-09-07T12:36:39.000Z</time>
      </trkpt>
      <trkpt lat="45.59054" lon="2.76137">
        <ele>888.9</ele>
        <time>2021-09-07T12:36:45.000Z</time>
      </trkpt>
      <trkpt lat="45.59053" lon="2.76124">
        <ele>889.8</ele>
        <time>2021-09-07T12:36:51.000Z</time>
      </trkpt>
      <trkpt lat="45.59053" lon="2.76106">
        <ele>890.9</ele>
        <time>2021-09-07T12:36:57.000Z</time>
      </trkpt>
      <trkpt lat="45.59054" lon="2.76091">
        <ele>891.5</ele>
        <time>2021-09-07T12:37:03.000Z</time>
      </trkpt>
      <trkpt lat="45.59054" lon="2.7608">
        <ele>892.2</ele>
        <time>2021-09-07T12:37:09.000Z</time>
      </trkpt>
      <trkpt lat="45.59055" lon="2.76071">
        <ele>892.5</ele>
        <time>2021-09-07T12:37:15.000Z</time>
      </trkpt>
      <trkpt lat="45.59055" lon="2.76059">
        <ele>893.2</ele>
        <time>2021-09-07T12:37:21.000Z</time>
      </trkpt>
      <trkpt lat="45.59054" lon="2.76046">
        <ele>894.1</ele>
        <time>2021-09-07T12:37:27.000Z</time>
      </trkpt>
      <trkpt lat="45.59053" lon="2.76035">
        <ele>895</ele>
        <time>2021-09-07T12:37:34.000Z</time>
      </trkpt>
      <trkpt lat="45.59051" lon="2.76025">
        <ele>896.1</ele>
        <time>2021-09-07T12:37:39.000Z</time>
      </trkpt>
      <trkpt lat="45.5905" lon="2.7601">
        <ele>897.2</ele>
        <time>2021-09-07T12:37:45.000Z</time>
      </trkpt>
      <trkpt lat="45.59048" lon="2.75997">
        <ele>898.2</ele>
        <time>2021-09-07T12:37:51.000Z</time>
      </trkpt>
      <trkpt lat="45.59045" lon="2.75984">
        <ele>898.4</ele>
        <time>2021-09-07T12:37:57.000Z</time>
      </trkpt>
      <trkpt lat="45.59044" lon="2.75974">
        <ele>898.3</ele>
        <time>2021-09-07T12:38:04.000Z</time>
      </trkpt>
      <trkpt lat="45.59045" lon="2.75961">
        <ele>897.4</ele>
        <time>2021-09-07T12:38:09.000Z</time>
      </trkpt>
      <trkpt lat="45.59044" lon="2.75952">
        <ele>897.3</ele>
        <time>2021-09-07T12:38:15.000Z</time>
      </trkpt>
      <trkpt lat="45.59048" lon="2.75944">
        <ele>895.8</ele>
        <time>2021-09-07T12:38:21.000Z</time>
      </trkpt>
      <trkpt lat="45.59044" lon="2.75936">
        <ele>896.6</ele>
        <time>2021-09-07T12:38:30.000Z</time>
      </trkpt>
      <trkpt lat="45.59041" lon="2.75927">
        <ele>897.1</ele>
        <time>2021-09-07T12:38:37.000Z</time>
      </trkpt>
      <trkpt lat="45.5904" lon="2.75914">
        <ele>896.8</ele>
        <time>2021-09-07T12:38:46.000Z</time>
      </trkpt>
      <trkpt lat="45.59037" lon="2.75902">
        <ele>896.7</ele>
        <time>2021-09-07T12:38:51.000Z</time>
      </trkpt>
      <trkpt lat="45.59036" lon="2.7589">
        <ele>896</ele>
        <time>2021-09-07T12:38:58.000Z</time>
      </trkpt>
      <trkpt lat="45.59033" lon="2.75879">
        <ele>895.9</ele>
        <time>2021-09-07T12:39:03.000Z</time>
      </trkpt>
      <trkpt lat="45.5903" lon="2.75862">
        <ele>895.4</ele>
        <time>2021-09-07T12:39:09.000Z</time>
      </trkpt>
      <trkpt lat="45.59029" lon="2.7585">
        <ele>894.7</ele>
        <time>2021-09-07T12:39:15.000Z</time>
      </trkpt>
      <trkpt lat="45.5903" lon="2.75839">
        <ele>893.5</ele>
        <time>2021-09-07T12:39:21.000Z</time>
      </trkpt>
      <trkpt lat="45.59027" lon="2.75829">
        <ele>893.6</ele>
        <time>2021-09-07T12:39:28.000Z</time>
      </trkpt>
      <trkpt lat="45.59024" lon="2.7582">
        <ele>893.9</ele>
        <time>2021-09-07T12:39:33.000Z</time>
      </trkpt>
      <trkpt lat="45.59022" lon="2.75808">
        <ele>893.7</ele>
        <time>2021-09-07T12:39:39.000Z</time>
      </trkpt>
      <trkpt lat="45.59021" lon="2.75794">
        <ele>893</ele>
        <time>2021-09-07T12:39:45.000Z</time>
      </trkpt>
      <trkpt lat="45.5902" lon="2.75784">
        <ele>892.6</ele>
        <time>2021-09-07T12:39:51.000Z</time>
      </trkpt>
      <trkpt lat="45.59017" lon="2.75775">
        <ele>892.7</ele>
        <time>2021-09-07T12:40:19.000Z</time>
      </trkpt>
      <trkpt lat="45.59018" lon="2.75765">
        <ele>891.7</ele>
        <time>2021-09-07T12:40:24.000Z</time>
      </trkpt>
      <trkpt lat="45.59018" lon="2.75754">
        <ele>891</ele>
        <time>2021-09-07T12:40:30.000Z</time>
      </trkpt>
      <trkpt lat="45.59018" lon="2.75745">
        <ele>890.3</ele>
        <time>2021-09-07T12:40:35.000Z</time>
      </trkpt>
      <trkpt lat="45.59018" lon="2.75733">
        <ele>889.4</ele>
        <time>2021-09-07T12:40:40.000Z</time>
      </trkpt>
      <trkpt lat="45.5902" lon="2.75724">
        <ele>888.3</ele>
        <time>2021-09-07T12:40:46.000Z</time>
      </trkpt>
      <trkpt lat="45.59021" lon="2.75714">
        <ele>887.4</ele>
        <time>2021-09-07T12:40:51.000Z</time>
      </trkpt>
      <trkpt lat="45.59018" lon="2.75697">
        <ele>886.7</ele>
        <time>2021-09-07T12:40:57.000Z</time>
      </trkpt>
      <trkpt lat="45.59018" lon="2.75683">
        <ele>885.6</ele>
        <time>2021-09-07T12:41:03.000Z</time>
      </trkpt>
      <trkpt lat="45.59018" lon="2.75669">
        <ele>884.6</ele>
        <time>2021-09-07T12:41:09.000Z</time>
      </trkpt>
      <trkpt lat="45.59017" lon="2.75657">
        <ele>884</ele>
        <time>2021-09-07T12:41:15.000Z</time>
      </trkpt>
      <trkpt lat="45.59018" lon="2.75648">
        <ele>883.3</ele>
        <time>2021-09-07T12:41:22.000Z</time>
      </trkpt>
      <trkpt lat="45.59018" lon="2.75637">
        <ele>882.6</ele>
        <time>2021-09-07T12:41:27.000Z</time>
      </trkpt>
      <trkpt lat="45.59018" lon="2.75624">
        <ele>881.8</ele>
        <time>2021-09-07T12:41:33.000Z</time>
      </trkpt>
      <trkpt lat="45.59018" lon="2.75614">
        <ele>881.2</ele>
        <time>2021-09-07T12:41:39.000Z</time>
      </trkpt>
      <trkpt lat="45.59019" lon="2.75602">
        <ele>880.3</ele>
        <time>2021-09-07T12:41:45.000Z</time>
      </trkpt>
      <trkpt lat="45.59018" lon="2.75589">
        <ele>879.6</ele>
        <time>2021-09-07T12:41:51.000Z</time>
      </trkpt>
      <trkpt lat="45.59018" lon="2.75579">
        <ele>879.1</ele>
        <time>2021-09-07T12:41:57.000Z</time>
      </trkpt>
      <trkpt lat="45.59018" lon="2.75568">
        <ele>878.7</ele>
        <time>2021-09-07T12:42:03.000Z</time>
      </trkpt>
      <trkpt lat="45.59018" lon="2.75555">
        <ele>878.1</ele>
        <time>2021-09-07T12:42:09.000Z</time>
      </trkpt>
      <trkpt lat="45.59018" lon="2.75542">
        <ele>877.6</ele>
        <time>2021-09-07T12:42:15.000Z</time>
      </trkpt>
      <trkpt lat="45.59018" lon="2.7553">
        <ele>877.1</ele>
        <time>2021-09-07T12:42:21.000Z</time>
      </trkpt>
      <trkpt lat="45.59018" lon="2.75518">
        <ele>876.6</ele>
        <time>2021-09-07T12:42:27.000Z</time>
      </trkpt>
      <trkpt lat="45.59019" lon="2.75508">
        <ele>876.2</ele>
        <time>2021-09-07T12:42:33.000Z</time>
      </trkpt>
      <trkpt lat="45.59019" lon="2.75495">
        <ele>875.6</ele>
        <time>2021-09-07T12:42:39.000Z</time>
      </trkpt>
      <trkpt lat="45.59018" lon="2.75481">
        <ele>875.1</ele>
        <time>2021-09-07T12:42:45.000Z</time>
      </trkpt>
      <trkpt lat="45.59018" lon="2.75469">
        <ele>874.6</ele>
        <time>2021-09-07T12:42:51.000Z</time>
      </trkpt>
      <trkpt lat="45.59019" lon="2.75456">
        <ele>874</ele>
        <time>2021-09-07T12:42:57.000Z</time>
      </trkpt>
      <trkpt lat="45.59019" lon="2.75446">
        <ele>873.6</ele>
        <time>2021-09-07T12:43:04.000Z</time>
      </trkpt>
      <trkpt lat="45.59019" lon="2.75435">
        <ele>873.1</ele>
        <time>2021-09-07T12:43:09.000Z</time>
      </trkpt>
      <trkpt lat="45.59019" lon="2.75422">
        <ele>872.5</ele>
        <time>2021-09-07T12:43:15.000Z</time>
      </trkpt>
      <trkpt lat="45.59019" lon="2.75409">
        <ele>872.3</ele>
        <time>2021-09-07T12:43:21.000Z</time>
      </trkpt>
      <trkpt lat="45.59019" lon="2.75399">
        <ele>872.2</ele>
        <time>2021-09-07T12:43:27.000Z</time>
      </trkpt>
      <trkpt lat="45.59019" lon="2.75389">
        <ele>872.2</ele>
        <time>2021-09-07T12:43:34.000Z</time>
      </trkpt>
      <trkpt lat="45.59019" lon="2.75379">
        <ele>872.1</ele>
        <time>2021-09-07T12:43:39.000Z</time>
      </trkpt>
      <trkpt lat="45.59019" lon="2.75364">
        <ele>872</ele>
        <time>2021-09-07T12:43:45.000Z</time>
      </trkpt>
      <trkpt lat="45.59018" lon="2.75348">
        <ele>872</ele>
        <time>2021-09-07T12:43:51.000Z</time>
      </trkpt>
      <trkpt lat="45.59016" lon="2.75334">
        <ele>872</ele>
        <time>2021-09-07T12:43:57.000Z</time>
      </trkpt>
      <trkpt lat="45.59017" lon="2.75323">
        <ele>871.9</ele>
        <time>2021-09-07T12:44:04.000Z</time>
      </trkpt>
      <trkpt lat="45.59016" lon="2.75313">
        <ele>871.8</ele>
        <time>2021-09-07T12:44:09.000Z</time>
      </trkpt>
      <trkpt lat="45.59017" lon="2.75301">
        <ele>871.6</ele>
        <time>2021-09-07T12:44:15.000Z</time>
      </trkpt>
      <trkpt lat="45.59017" lon="2.75288">
        <ele>871.4</ele>
        <time>2021-09-07T12:44:21.000Z</time>
      </trkpt>
      <trkpt lat="45.59016" lon="2.75277">
        <ele>871.4</ele>
        <time>2021-09-07T12:44:27.000Z</time>
      </trkpt>
      <trkpt lat="45.59017" lon="2.75268">
        <ele>871.2</ele>
        <time>2021-09-07T12:44:34.000Z</time>
      </trkpt>
      <trkpt lat="45.59017" lon="2.75256">
        <ele>871.1</ele>
        <time>2021-09-07T12:44:40.000Z</time>
      </trkpt>
      <trkpt lat="45.59017" lon="2.75246">
        <ele>870.8</ele>
        <time>2021-09-07T12:44:45.000Z</time>
      </trkpt>
      <trkpt lat="45.59017" lon="2.75234">
        <ele>870.4</ele>
        <time>2021-09-07T12:44:51.000Z</time>
      </trkpt>
      <trkpt lat="45.59017" lon="2.75223">
        <ele>870.1</ele>
        <time>2021-09-07T12:44:57.000Z</time>
      </trkpt>
      <trkpt lat="45.59017" lon="2.7521">
        <ele>869.6</ele>
        <time>2021-09-07T12:45:03.000Z</time>
      </trkpt>
      <trkpt lat="45.59017" lon="2.75195">
        <ele>869.1</ele>
        <time>2021-09-07T12:45:09.000Z</time>
      </trkpt>
      <trkpt lat="45.59016" lon="2.75181">
        <ele>868.7</ele>
        <time>2021-09-07T12:45:15.000Z</time>
      </trkpt>
      <trkpt lat="45.59016" lon="2.75168">
        <ele>868.3</ele>
        <time>2021-09-07T12:45:21.000Z</time>
      </trkpt>
      <trkpt lat="45.59016" lon="2.75157">
        <ele>868</ele>
        <time>2021-09-07T12:45:27.000Z</time>
      </trkpt>
      <trkpt lat="45.59015" lon="2.75147">
        <ele>867.7</ele>
        <time>2021-09-07T12:45:33.000Z</time>
      </trkpt>
      <trkpt lat="45.59016" lon="2.75136">
        <ele>867.3</ele>
        <time>2021-09-07T12:45:39.000Z</time>
      </trkpt>
      <trkpt lat="45.59015" lon="2.75123">
        <ele>867</ele>
        <time>2021-09-07T12:45:45.000Z</time>
      </trkpt>
      <trkpt lat="45.59014" lon="2.75111">
        <ele>866.7</ele>
        <time>2021-09-07T12:45:51.000Z</time>
      </trkpt>
      <trkpt lat="45.59013" lon="2.75096">
        <ele>866.2</ele>
        <time>2021-09-07T12:45:57.000Z</time>
      </trkpt>
      <trkpt lat="45.59015" lon="2.75085">
        <ele>865.9</ele>
        <time>2021-09-07T12:46:03.000Z</time>
      </trkpt>
      <trkpt lat="45.59015" lon="2.75075">
        <ele>865.8</ele>
        <time>2021-09-07T12:46:09.000Z</time>
      </trkpt>
      <trkpt lat="45.59014" lon="2.7506">
        <ele>865.8</ele>
        <time>2021-09-07T12:46:15.000Z</time>
      </trkpt>
      <trkpt lat="45.59013" lon="2.75048">
        <ele>865.8</ele>
        <time>2021-09-07T12:46:21.000Z</time>
      </trkpt>
      <trkpt lat="45.59013" lon="2.75036">
        <ele>865.8</ele>
        <time>2021-09-07T12:46:27.000Z</time>
      </trkpt>
      <trkpt lat="45.59018" lon="2.7503">
        <ele>865.6</ele>
        <time>2021-09-07T12:46:40.000Z</time>
      </trkpt>
      <trkpt lat="45.59025" lon="2.7503">
        <ele>865.5</ele>
        <time>2021-09-07T12:46:49.000Z</time>
      </trkpt>
      <trkpt lat="45.59018" lon="2.7503">
        <ele>865.6</ele>
        <time>2021-09-07T12:47:09.000Z</time>
      </trkpt>
      <trkpt lat="45.59013" lon="2.75022">
        <ele>865.7</ele>
        <time>2021-09-07T12:47:16.000Z</time>
      </trkpt>
      <trkpt lat="45.59013" lon="2.75013">
        <ele>865.7</ele>
        <time>2021-09-07T12:47:21.000Z</time>
      </trkpt>
      <trkpt lat="45.59014" lon="2.75002">
        <ele>865.7</ele>
        <time>2021-09-07T12:47:27.000Z</time>
      </trkpt>
      <trkpt lat="45.59014" lon="2.7499">
        <ele>865.8</ele>
        <time>2021-09-07T12:47:33.000Z</time>
      </trkpt>
      <trkpt lat="45.59013" lon="2.7498">
        <ele>866</ele>
        <time>2021-09-07T12:47:39.000Z</time>
      </trkpt>
      <trkpt lat="45.59012" lon="2.74968">
        <ele>866.3</ele>
        <time>2021-09-07T12:47:45.000Z</time>
      </trkpt>
      <trkpt lat="45.59012" lon="2.74956">
        <ele>866.5</ele>
        <time>2021-09-07T12:47:51.000Z</time>
      </trkpt>
      <trkpt lat="45.59013" lon="2.74941">
        <ele>866.7</ele>
        <time>2021-09-07T12:47:57.000Z</time>
      </trkpt>
      <trkpt lat="45.59013" lon="2.74929">
        <ele>866.9</ele>
        <time>2021-09-07T12:48:03.000Z</time>
      </trkpt>
      <trkpt lat="45.59012" lon="2.74917">
        <ele>867.1</ele>
        <time>2021-09-07T12:48:09.000Z</time>
      </trkpt>
      <trkpt lat="45.59013" lon="2.74906">
        <ele>866.7</ele>
        <time>2021-09-07T12:48:15.000Z</time>
      </trkpt>
      <trkpt lat="45.59014" lon="2.74896">
        <ele>866.3</ele>
        <time>2021-09-07T12:48:21.000Z</time>
      </trkpt>
      <trkpt lat="45.59014" lon="2.74885">
        <ele>866</ele>
        <time>2021-09-07T12:48:27.000Z</time>
      </trkpt>
      <trkpt lat="45.59013" lon="2.74871">
        <ele>865.6</ele>
        <time>2021-09-07T12:48:33.000Z</time>
      </trkpt>
      <trkpt lat="45.59011" lon="2.74859">
        <ele>865.3</ele>
        <time>2021-09-07T12:48:39.000Z</time>
      </trkpt>
      <trkpt lat="45.59013" lon="2.74849">
        <ele>864.9</ele>
        <time>2021-09-07T12:48:45.000Z</time>
      </trkpt>
      <trkpt lat="45.59013" lon="2.74839">
        <ele>864.6</ele>
        <time>2021-09-07T12:48:51.000Z</time>
      </trkpt>
      <trkpt lat="45.59012" lon="2.74824">
        <ele>864.3</ele>
        <time>2021-09-07T12:48:57.000Z</time>
      </trkpt>
      <trkpt lat="45.5901" lon="2.74807">
        <ele>864.2</ele>
        <time>2021-09-07T12:49:03.000Z</time>
      </trkpt>
      <trkpt lat="45.5901" lon="2.74794">
        <ele>864.1</ele>
        <time>2021-09-07T12:49:09.000Z</time>
      </trkpt>
      <trkpt lat="45.59009" lon="2.74781">
        <ele>864</ele>
        <time>2021-09-07T12:49:15.000Z</time>
      </trkpt>
      <trkpt lat="45.59009" lon="2.74771">
        <ele>863.9</ele>
        <time>2021-09-07T12:49:21.000Z</time>
      </trkpt>
      <trkpt lat="45.59009" lon="2.74762">
        <ele>863.8</ele>
        <time>2021-09-07T12:49:28.000Z</time>
      </trkpt>
      <trkpt lat="45.59008" lon="2.74751">
        <ele>863.7</ele>
        <time>2021-09-07T12:49:33.000Z</time>
      </trkpt>
      <trkpt lat="45.59006" lon="2.74739">
        <ele>863.7</ele>
        <time>2021-09-07T12:49:39.000Z</time>
      </trkpt>
      <trkpt lat="45.59005" lon="2.74726">
        <ele>863.5</ele>
        <time>2021-09-07T12:49:45.000Z</time>
      </trkpt>
      <trkpt lat="45.59002" lon="2.74709">
        <ele>863.4</ele>
        <time>2021-09-07T12:49:51.000Z</time>
      </trkpt>
      <trkpt lat="45.59001" lon="2.74697">
        <ele>863.3</ele>
        <time>2021-09-07T12:49:57.000Z</time>
      </trkpt>
      <trkpt lat="45.59001" lon="2.74687">
        <ele>863.2</ele>
        <time>2021-09-07T12:50:03.000Z</time>
      </trkpt>
      <trkpt lat="45.59001" lon="2.74675">
        <ele>863.1</ele>
        <time>2021-09-07T12:50:09.000Z</time>
      </trkpt>
      <trkpt lat="45.59" lon="2.74662">
        <ele>862.8</ele>
        <time>2021-09-07T12:50:15.000Z</time>
      </trkpt>
      <trkpt lat="45.58999" lon="2.74648">
        <ele>862.4</ele>
        <time>2021-09-07T12:50:21.000Z</time>
      </trkpt>
      <trkpt lat="45.58997" lon="2.74635">
        <ele>862.1</ele>
        <time>2021-09-07T12:50:27.000Z</time>
      </trkpt>
      <trkpt lat="45.58996" lon="2.74621">
        <ele>861.6</ele>
        <time>2021-09-07T12:50:33.000Z</time>
      </trkpt>
      <trkpt lat="45.58995" lon="2.74612">
        <ele>861.4</ele>
        <time>2021-09-07T12:50:39.000Z</time>
      </trkpt>
      <trkpt lat="45.58992" lon="2.74599">
        <ele>861.1</ele>
        <time>2021-09-07T12:50:45.000Z</time>
      </trkpt>
      <trkpt lat="45.58989" lon="2.74587">
        <ele>860.9</ele>
        <time>2021-09-07T12:50:51.000Z</time>
      </trkpt>
      <trkpt lat="45.58986" lon="2.74576">
        <ele>860.8</ele>
        <time>2021-09-07T12:50:57.000Z</time>
      </trkpt>
      <trkpt lat="45.58982" lon="2.7456">
        <ele>860.6</ele>
        <time>2021-09-07T12:51:03.000Z</time>
      </trkpt>
      <trkpt lat="45.58979" lon="2.7455">
        <ele>860.5</ele>
        <time>2021-09-07T12:51:09.000Z</time>
      </trkpt>
      <trkpt lat="45.58974" lon="2.74539">
        <ele>860.6</ele>
        <time>2021-09-07T12:51:15.000Z</time>
      </trkpt>
      <trkpt lat="45.5897" lon="2.74528">
        <ele>860.6</ele>
        <time>2021-09-07T12:51:21.000Z</time>
      </trkpt>
      <trkpt lat="45.58967" lon="2.74516">
        <ele>860.6</ele>
        <time>2021-09-07T12:51:27.000Z</time>
      </trkpt>
      <trkpt lat="45.58962" lon="2.74504">
        <ele>860.7</ele>
        <time>2021-09-07T12:51:33.000Z</time>
      </trkpt>
      <trkpt lat="45.58957" lon="2.74492">
        <ele>861</ele>
        <time>2021-09-07T12:51:39.000Z</time>
      </trkpt>
      <trkpt lat="45.58953" lon="2.74482">
        <ele>861.1</ele>
        <time>2021-09-07T12:51:45.000Z</time>
      </trkpt>
      <trkpt lat="45.5895" lon="2.74472">
        <ele>861.2</ele>
        <time>2021-09-07T12:51:51.000Z</time>
      </trkpt>
      <trkpt lat="45.58946" lon="2.74461">
        <ele>861.3</ele>
        <time>2021-09-07T12:51:57.000Z</time>
      </trkpt>
      <trkpt lat="45.58942" lon="2.74451">
        <ele>861.3</ele>
        <time>2021-09-07T12:52:03.000Z</time>
      </trkpt>
      <trkpt lat="45.58938" lon="2.7444">
        <ele>861.3</ele>
        <time>2021-09-07T12:52:09.000Z</time>
      </trkpt>
      <trkpt lat="45.58933" lon="2.74429">
        <ele>861.4</ele>
        <time>2021-09-07T12:52:15.000Z</time>
      </trkpt>
      <trkpt lat="45.5893" lon="2.7442">
        <ele>861.3</ele>
        <time>2021-09-07T12:52:21.000Z</time>
      </trkpt>
      <trkpt lat="45.58927" lon="2.74408">
        <ele>861.4</ele>
        <time>2021-09-07T12:52:27.000Z</time>
      </trkpt>
      <trkpt lat="45.58923" lon="2.74396">
        <ele>861.6</ele>
        <time>2021-09-07T12:52:33.000Z</time>
      </trkpt>
      <trkpt lat="45.58919" lon="2.74383">
        <ele>861.9</ele>
        <time>2021-09-07T12:52:39.000Z</time>
      </trkpt>
      <trkpt lat="45.58914" lon="2.74371">
        <ele>862.2</ele>
        <time>2021-09-07T12:52:45.000Z</time>
      </trkpt>
      <trkpt lat="45.58913" lon="2.7436">
        <ele>862.2</ele>
        <time>2021-09-07T12:52:52.000Z</time>
      </trkpt>
      <trkpt lat="45.5891" lon="2.7435">
        <ele>862.4</ele>
        <time>2021-09-07T12:53:00.000Z</time>
      </trkpt>
      <trkpt lat="45.58906" lon="2.74341">
        <ele>862.5</ele>
        <time>2021-09-07T12:53:05.000Z</time>
      </trkpt>
      <trkpt lat="45.58904" lon="2.74332">
        <ele>862.6</ele>
        <time>2021-09-07T12:53:11.000Z</time>
      </trkpt>
      <trkpt lat="45.58898" lon="2.74326">
        <ele>862.7</ele>
        <time>2021-09-07T12:53:32.000Z</time>
      </trkpt>
      <trkpt lat="45.58895" lon="2.74316">
        <ele>862.6</ele>
        <time>2021-09-07T12:53:38.000Z</time>
      </trkpt>
      <trkpt lat="45.58892" lon="2.74307">
        <ele>862.6</ele>
        <time>2021-09-07T12:53:44.000Z</time>
      </trkpt>
      <trkpt lat="45.58887" lon="2.74299">
        <ele>862.6</ele>
        <time>2021-09-07T12:53:52.000Z</time>
      </trkpt>
      <trkpt lat="45.58883" lon="2.7429">
        <ele>862.6</ele>
        <time>2021-09-07T12:53:57.000Z</time>
      </trkpt>
      <trkpt lat="45.58877" lon="2.74278">
        <ele>862.6</ele>
        <time>2021-09-07T12:54:03.000Z</time>
      </trkpt>
      <trkpt lat="45.58874" lon="2.74266">
        <ele>862.4</ele>
        <time>2021-09-07T12:54:09.000Z</time>
      </trkpt>
      <trkpt lat="45.5887" lon="2.74258">
        <ele>862.4</ele>
        <time>2021-09-07T12:57:12.000Z</time>
      </trkpt>
      <trkpt lat="45.58868" lon="2.74249">
        <ele>862.3</ele>
        <time>2021-09-07T12:57:19.000Z</time>
      </trkpt>
      <trkpt lat="45.58866" lon="2.7424">
        <ele>862.3</ele>
        <time>2021-09-07T12:57:25.000Z</time>
      </trkpt>
      <trkpt lat="45.58864" lon="2.7423">
        <ele>862.3</ele>
        <time>2021-09-07T12:57:34.000Z</time>
      </trkpt>
      <trkpt lat="45.5886" lon="2.74221">
        <ele>862.5</ele>
        <time>2021-09-07T12:57:45.000Z</time>
      </trkpt>
      <trkpt lat="45.58857" lon="2.7421">
        <ele>862.7</ele>
        <time>2021-09-07T12:57:51.000Z</time>
      </trkpt>
      <trkpt lat="45.5885" lon="2.74207">
        <ele>863.2</ele>
        <time>2021-09-07T12:57:57.000Z</time>
      </trkpt>
      <trkpt lat="45.5885" lon="2.74195">
        <ele>863.2</ele>
        <time>2021-09-07T12:58:03.000Z</time>
      </trkpt>
      <trkpt lat="45.58847" lon="2.74185">
        <ele>863.5</ele>
        <time>2021-09-07T12:58:12.000Z</time>
      </trkpt>
      <trkpt lat="45.58844" lon="2.74177">
        <ele>863.8</ele>
        <time>2021-09-07T12:58:18.000Z</time>
      </trkpt>
      <trkpt lat="45.5884" lon="2.74167">
        <ele>864.3</ele>
        <time>2021-09-07T12:58:23.000Z</time>
      </trkpt>
      <trkpt lat="45.58836" lon="2.74156">
        <ele>864.7</ele>
        <time>2021-09-07T12:58:27.000Z</time>
      </trkpt>
      <trkpt lat="45.58834" lon="2.74137">
        <ele>864.9</ele>
        <time>2021-09-07T12:58:33.000Z</time>
      </trkpt>
      <trkpt lat="45.58837" lon="2.74129">
        <ele>864.6</ele>
        <time>2021-09-07T12:58:39.000Z</time>
      </trkpt>
      <trkpt lat="45.58844" lon="2.74129">
        <ele>863.8</ele>
        <time>2021-09-07T12:58:46.000Z</time>
      </trkpt>
      <trkpt lat="45.5885" lon="2.74124">
        <ele>863.1</ele>
        <time>2021-09-07T12:58:53.000Z</time>
      </trkpt>
      <trkpt lat="45.58856" lon="2.74118">
        <ele>862.4</ele>
        <time>2021-09-07T12:59:02.000Z</time>
      </trkpt>
      <trkpt lat="45.58863" lon="2.7412">
        <ele>861.6</ele>
        <time>2021-09-07T12:59:20.000Z</time>
      </trkpt>
      <trkpt lat="45.58869" lon="2.74126">
        <ele>860.9</ele>
        <time>2021-09-07T12:59:24.000Z</time>
      </trkpt>
      <trkpt lat="45.58875" lon="2.74132">
        <ele>860.3</ele>
        <time>2021-09-07T12:59:27.000Z</time>
      </trkpt>
      <trkpt lat="45.58874" lon="2.74147">
        <ele>860.5</ele>
        <time>2021-09-07T12:59:33.000Z</time>
      </trkpt>
      <trkpt lat="45.58876" lon="2.74175">
        <ele>860.5</ele>
        <time>2021-09-07T12:59:39.000Z</time>
      </trkpt>
      <trkpt lat="45.58859" lon="2.74185">
        <ele>862.3</ele>
        <time>2021-09-07T12:59:45.000Z</time>
      </trkpt>
      <trkpt lat="45.58873" lon="2.74099">
        <ele>860.3</ele>
        <time>2021-09-07T13:04:02.000Z</time>
      </trkpt>
      <trkpt lat="45.58879" lon="2.74121">
        <ele>859.8</ele>
        <time>2021-09-07T13:04:08.000Z</time>
      </trkpt>
      <trkpt lat="45.58887" lon="2.74124">
        <ele>858.9</ele>
        <time>2021-09-07T13:04:17.000Z</time>
      </trkpt>
      <trkpt lat="45.58894" lon="2.74126">
        <ele>858.1</ele>
        <time>2021-09-07T13:04:22.000Z</time>
      </trkpt>
      <trkpt lat="45.58905" lon="2.74125">
        <ele>856.8</ele>
        <time>2021-09-07T13:04:36.000Z</time>
      </trkpt>
      <trkpt lat="45.58907" lon="2.74116">
        <ele>856.5</ele>
        <time>2021-09-07T13:04:42.000Z</time>
      </trkpt>
      <trkpt lat="45.58906" lon="2.74105">
        <ele>856.5</ele>
        <time>2021-09-07T13:04:48.000Z</time>
      </trkpt>
      <trkpt lat="45.58907" lon="2.74095">
        <ele>856.3</ele>
        <time>2021-09-07T13:04:56.000Z</time>
      </trkpt>
      <trkpt lat="45.5891" lon="2.74087">
        <ele>855.8</ele>
        <time>2021-09-07T13:05:02.000Z</time>
      </trkpt>
      <trkpt lat="45.58911" lon="2.74076">
        <ele>855.6</ele>
        <time>2021-09-07T13:05:08.000Z</time>
      </trkpt>
      <trkpt lat="45.58909" lon="2.74064">
        <ele>855.7</ele>
        <time>2021-09-07T13:05:14.000Z</time>
      </trkpt>
      <trkpt lat="45.5891" lon="2.74055">
        <ele>855.5</ele>
        <time>2021-09-07T13:05:21.000Z</time>
      </trkpt>
      <trkpt lat="45.58902" lon="2.74041">
        <ele>856.3</ele>
        <time>2021-09-07T13:05:26.000Z</time>
      </trkpt>
      <trkpt lat="45.589" lon="2.74031">
        <ele>856.5</ele>
        <time>2021-09-07T13:05:36.000Z</time>
      </trkpt>
      <trkpt lat="45.58899" lon="2.7402">
        <ele>856.5</ele>
        <time>2021-09-07T13:05:41.000Z</time>
      </trkpt>
      <trkpt lat="45.58898" lon="2.7401">
        <ele>856.6</ele>
        <time>2021-09-07T13:05:46.000Z</time>
      </trkpt>
      <trkpt lat="45.58897" lon="2.73999">
        <ele>856.6</ele>
        <time>2021-09-07T13:05:52.000Z</time>
      </trkpt>
      <trkpt lat="45.58903" lon="2.7399">
        <ele>855.8</ele>
        <time>2021-09-07T13:05:56.000Z</time>
      </trkpt>
      <trkpt lat="45.58903" lon="2.7398">
        <ele>855.9</ele>
        <time>2021-09-07T13:06:02.000Z</time>
      </trkpt>
      <trkpt lat="45.58905" lon="2.73968">
        <ele>855.7</ele>
        <time>2021-09-07T13:06:08.000Z</time>
      </trkpt>
      <trkpt lat="45.58903" lon="2.73957">
        <ele>856</ele>
        <time>2021-09-07T13:06:14.000Z</time>
      </trkpt>
      <trkpt lat="45.58903" lon="2.73947">
        <ele>856</ele>
        <time>2021-09-07T13:06:22.000Z</time>
      </trkpt>
      <trkpt lat="45.58907" lon="2.73939">
        <ele>855.7</ele>
        <time>2021-09-07T13:06:27.000Z</time>
      </trkpt>
      <trkpt lat="45.58903" lon="2.7393">
        <ele>856.1</ele>
        <time>2021-09-07T13:06:33.000Z</time>
      </trkpt>
      <trkpt lat="45.589" lon="2.73921">
        <ele>856.4</ele>
        <time>2021-09-07T13:06:40.000Z</time>
      </trkpt>
      <trkpt lat="45.58898" lon="2.73912">
        <ele>856.4</ele>
        <time>2021-09-07T13:06:47.000Z</time>
      </trkpt>
      <trkpt lat="45.58891" lon="2.73904">
        <ele>856.6</ele>
        <time>2021-09-07T13:06:51.000Z</time>
      </trkpt>
      <trkpt lat="45.58885" lon="2.73892">
        <ele>856.4</ele>
        <time>2021-09-07T13:06:56.000Z</time>
      </trkpt>
      <trkpt lat="45.58883" lon="2.73879">
        <ele>855.9</ele>
        <time>2021-09-07T13:07:02.000Z</time>
      </trkpt>
      <trkpt lat="45.58877" lon="2.73869">
        <ele>855.8</ele>
        <time>2021-09-07T13:07:08.000Z</time>
      </trkpt>
      <trkpt lat="45.58876" lon="2.73856">
        <ele>855.2</ele>
        <time>2021-09-07T13:07:14.000Z</time>
      </trkpt>
      <trkpt lat="45.58877" lon="2.73846">
        <ele>854.6</ele>
        <time>2021-09-07T13:07:20.000Z</time>
      </trkpt>
      <trkpt lat="45.58876" lon="2.73834">
        <ele>854</ele>
        <time>2021-09-07T13:07:27.000Z</time>
      </trkpt>
      <trkpt lat="45.58874" lon="2.73823">
        <ele>853.6</ele>
        <time>2021-09-07T13:07:32.000Z</time>
      </trkpt>
      <trkpt lat="45.58872" lon="2.7381">
        <ele>853.2</ele>
        <time>2021-09-07T13:07:38.000Z</time>
      </trkpt>
      <trkpt lat="45.58874" lon="2.738">
        <ele>852.6</ele>
        <time>2021-09-07T13:07:45.000Z</time>
      </trkpt>
      <trkpt lat="45.58869" lon="2.73793">
        <ele>852.6</ele>
        <time>2021-09-07T13:07:53.000Z</time>
      </trkpt>
      <trkpt lat="45.58889" lon="2.738">
        <ele>852</ele>
        <time>2021-09-07T13:07:59.000Z</time>
      </trkpt>
      <trkpt lat="45.58871" lon="2.73778">
        <ele>851.8</ele>
        <time>2021-09-07T13:08:21.000Z</time>
      </trkpt>
      <trkpt lat="45.58863" lon="2.73774">
        <ele>852</ele>
        <time>2021-09-07T13:08:27.000Z</time>
      </trkpt>
      <trkpt lat="45.58851" lon="2.73765">
        <ele>852</ele>
        <time>2021-09-07T13:08:33.000Z</time>
      </trkpt>
      <trkpt lat="45.58848" lon="2.73757">
        <ele>851.8</ele>
        <time>2021-09-07T13:08:49.000Z</time>
      </trkpt>
      <trkpt lat="45.58846" lon="2.73746">
        <ele>851.6</ele>
        <time>2021-09-07T13:08:57.000Z</time>
      </trkpt>
      <trkpt lat="45.58851" lon="2.7374">
        <ele>851.4</ele>
        <time>2021-09-07T13:09:07.000Z</time>
      </trkpt>
      <trkpt lat="45.58858" lon="2.73739">
        <ele>851.2</ele>
        <time>2021-09-07T13:09:14.000Z</time>
      </trkpt>
      <trkpt lat="45.58863" lon="2.73745">
        <ele>851</ele>
        <time>2021-09-07T13:09:17.000Z</time>
      </trkpt>
      <trkpt lat="45.58851" lon="2.73736">
        <ele>851.4</ele>
        <time>2021-09-07T13:10:07.000Z</time>
      </trkpt>
      <trkpt lat="45.58844" lon="2.73748">
        <ele>851.6</ele>
        <time>2021-09-07T13:10:13.000Z</time>
      </trkpt>
      <trkpt lat="45.58847" lon="2.73734">
        <ele>851.5</ele>
        <time>2021-09-07T13:10:18.000Z</time>
      </trkpt>
      <trkpt lat="45.58875" lon="2.73666">
        <ele>851</ele>
        <time>2021-09-07T13:10:24.000Z</time>
      </trkpt>
      <trkpt lat="45.58871" lon="2.73707">
        <ele>850.9</ele>
        <time>2021-09-07T13:13:27.000Z</time>
      </trkpt>
      <trkpt lat="45.58876" lon="2.73688">
        <ele>850.8</ele>
        <time>2021-09-07T13:13:33.000Z</time>
      </trkpt>
      <trkpt lat="45.58896" lon="2.73659">
        <ele>851.3</ele>
        <time>2021-09-07T13:13:39.000Z</time>
      </trkpt>
      <trkpt lat="45.5891" lon="2.73658">
        <ele>851.2</ele>
        <time>2021-09-07T13:13:45.000Z</time>
      </trkpt>
      <trkpt lat="45.5891" lon="2.73672">
        <ele>850.1</ele>
        <time>2021-09-07T13:13:51.000Z</time>
      </trkpt>
      <trkpt lat="45.58903" lon="2.73685">
        <ele>850.1</ele>
        <time>2021-09-07T13:13:57.000Z</time>
      </trkpt>
      <trkpt lat="45.58884" lon="2.73683">
        <ele>850.7</ele>
        <time>2021-09-07T13:14:03.000Z</time>
      </trkpt>
      <trkpt lat="45.58855" lon="2.73734">
        <ele>851.3</ele>
        <time>2021-09-07T13:15:42.000Z</time>
      </trkpt>
      <trkpt lat="45.58844" lon="2.73737">
        <ele>851.6</ele>
        <time>2021-09-07T13:15:48.000Z</time>
      </trkpt>
      <trkpt lat="45.58838" lon="2.73743">
        <ele>851.8</ele>
        <time>2021-09-07T13:17:01.000Z</time>
      </trkpt>
      <trkpt lat="45.58831" lon="2.73743">
        <ele>852.2</ele>
        <time>2021-09-07T13:17:08.000Z</time>
      </trkpt>
      <trkpt lat="45.58824" lon="2.73741">
        <ele>852.9</ele>
        <time>2021-09-07T13:17:14.000Z</time>
      </trkpt>
      <trkpt lat="45.58818" lon="2.73736">
        <ele>853.5</ele>
        <time>2021-09-07T13:17:19.000Z</time>
      </trkpt>
      <trkpt lat="45.58811" lon="2.73736">
        <ele>854.2</ele>
        <time>2021-09-07T13:17:25.000Z</time>
      </trkpt>
      <trkpt lat="45.58804" lon="2.7374">
        <ele>854.9</ele>
        <time>2021-09-07T13:17:34.000Z</time>
      </trkpt>
      <trkpt lat="45.58797" lon="2.73737">
        <ele>855.6</ele>
        <time>2021-09-07T13:17:46.000Z</time>
      </trkpt>
      <trkpt lat="45.58791" lon="2.73734">
        <ele>856.3</ele>
        <time>2021-09-07T13:17:54.000Z</time>
      </trkpt>
      <trkpt lat="45.58786" lon="2.73728">
        <ele>856.8</ele>
        <time>2021-09-07T13:18:01.000Z</time>
      </trkpt>
      <trkpt lat="45.58779" lon="2.73729">
        <ele>857.5</ele>
        <time>2021-09-07T13:18:23.000Z</time>
      </trkpt>
      <trkpt lat="45.58773" lon="2.73735">
        <ele>858.1</ele>
        <time>2021-09-07T13:18:29.000Z</time>
      </trkpt>
      <trkpt lat="45.58769" lon="2.73744">
        <ele>858.3</ele>
        <time>2021-09-07T13:18:35.000Z</time>
      </trkpt>
      <trkpt lat="45.58769" lon="2.73753">
        <ele>858.1</ele>
        <time>2021-09-07T13:18:40.000Z</time>
      </trkpt>
      <trkpt lat="45.58769" lon="2.73763">
        <ele>857.8</ele>
        <time>2021-09-07T13:18:45.000Z</time>
      </trkpt>
      <trkpt lat="45.58768" lon="2.73774">
        <ele>857.6</ele>
        <time>2021-09-07T13:18:51.000Z</time>
      </trkpt>
      <trkpt lat="45.58768" lon="2.73786">
        <ele>857.3</ele>
        <time>2021-09-07T13:18:57.000Z</time>
      </trkpt>
      <trkpt lat="45.58766" lon="2.73796">
        <ele>857.1</ele>
        <time>2021-09-07T13:19:03.000Z</time>
      </trkpt>
      <trkpt lat="45.58765" lon="2.73806">
        <ele>856.8</ele>
        <time>2021-09-07T13:19:09.000Z</time>
      </trkpt>
      <trkpt lat="45.58764" lon="2.73816">
        <ele>856.6</ele>
        <time>2021-09-07T13:19:15.000Z</time>
      </trkpt>
      <trkpt lat="45.58766" lon="2.73826">
        <ele>856.2</ele>
        <time>2021-09-07T13:19:21.000Z</time>
      </trkpt>
      <trkpt lat="45.58767" lon="2.73836">
        <ele>856.2</ele>
        <time>2021-09-07T13:19:38.000Z</time>
      </trkpt>
      <trkpt lat="45.5877" lon="2.73845">
        <ele>856.7</ele>
        <time>2021-09-07T13:19:45.000Z</time>
      </trkpt>
      <trkpt lat="45.58771" lon="2.73855">
        <ele>857.4</ele>
        <time>2021-09-07T13:19:51.000Z</time>
      </trkpt>
      <trkpt lat="45.58773" lon="2.73867">
        <ele>858.1</ele>
        <time>2021-09-07T13:19:57.000Z</time>
      </trkpt>
      <trkpt lat="45.5878" lon="2.7388">
        <ele>859</ele>
        <time>2021-09-07T13:20:03.000Z</time>
      </trkpt>
      <trkpt lat="45.58782" lon="2.73891">
        <ele>859.7</ele>
        <time>2021-09-07T13:20:09.000Z</time>
      </trkpt>
      <trkpt lat="45.58783" lon="2.73901">
        <ele>860.4</ele>
        <time>2021-09-07T13:20:15.000Z</time>
      </trkpt>
      <trkpt lat="45.58784" lon="2.73913">
        <ele>861.2</ele>
        <time>2021-09-07T13:20:21.000Z</time>
      </trkpt>
      <trkpt lat="45.58788" lon="2.73923">
        <ele>861.8</ele>
        <time>2021-09-07T13:20:27.000Z</time>
      </trkpt>
      <trkpt lat="45.58793" lon="2.73934">
        <ele>862.5</ele>
        <time>2021-09-07T13:20:33.000Z</time>
      </trkpt>
      <trkpt lat="45.58796" lon="2.73942">
        <ele>863</ele>
        <time>2021-09-07T13:20:42.000Z</time>
      </trkpt>
      <trkpt lat="45.588" lon="2.7395">
        <ele>863.4</ele>
        <time>2021-09-07T13:20:49.000Z</time>
      </trkpt>
      <trkpt lat="45.58803" lon="2.7396">
        <ele>864</ele>
        <time>2021-09-07T13:21:03.000Z</time>
      </trkpt>
      <trkpt lat="45.58801" lon="2.73973">
        <ele>864.7</ele>
        <time>2021-09-07T13:21:09.000Z</time>
      </trkpt>
      <trkpt lat="45.58796" lon="2.7398">
        <ele>865.2</ele>
        <time>2021-09-07T13:21:16.000Z</time>
      </trkpt>
      <trkpt lat="45.58796" lon="2.7399">
        <ele>865.8</ele>
        <time>2021-09-07T13:21:22.000Z</time>
      </trkpt>
      <trkpt lat="45.58798" lon="2.74">
        <ele>866.3</ele>
        <time>2021-09-07T13:21:27.000Z</time>
      </trkpt>
      <trkpt lat="45.588" lon="2.74011">
        <ele>866.4</ele>
        <time>2021-09-07T13:21:33.000Z</time>
      </trkpt>
      <trkpt lat="45.58801" lon="2.74021">
        <ele>866.5</ele>
        <time>2021-09-07T13:21:39.000Z</time>
      </trkpt>
      <trkpt lat="45.58801" lon="2.74031">
        <ele>866.6</ele>
        <time>2021-09-07T13:21:45.000Z</time>
      </trkpt>
      <trkpt lat="45.58802" lon="2.74041">
        <ele>866.7</ele>
        <time>2021-09-07T13:21:54.000Z</time>
      </trkpt>
      <trkpt lat="45.588" lon="2.7405">
        <ele>866.9</ele>
        <time>2021-09-07T13:22:01.000Z</time>
      </trkpt>
      <trkpt lat="45.58798" lon="2.74061">
        <ele>867.2</ele>
        <time>2021-09-07T13:22:06.000Z</time>
      </trkpt>
      <trkpt lat="45.58801" lon="2.7407">
        <ele>867.1</ele>
        <time>2021-09-07T13:22:10.000Z</time>
      </trkpt>
      <trkpt lat="45.58804" lon="2.74082">
        <ele>867.1</ele>
        <time>2021-09-07T13:22:15.000Z</time>
      </trkpt>
      <trkpt lat="45.58808" lon="2.74094">
        <ele>866.9</ele>
        <time>2021-09-07T13:22:21.000Z</time>
      </trkpt>
      <trkpt lat="45.58811" lon="2.74105">
        <ele>866.8</ele>
        <time>2021-09-07T13:22:27.000Z</time>
      </trkpt>
      <trkpt lat="45.58813" lon="2.74115">
        <ele>866.7</ele>
        <time>2021-09-07T13:22:33.000Z</time>
      </trkpt>
      <trkpt lat="45.58812" lon="2.74126">
        <ele>866.9</ele>
        <time>2021-09-07T13:22:39.000Z</time>
      </trkpt>
      <trkpt lat="45.58814" lon="2.74138">
        <ele>866.8</ele>
        <time>2021-09-07T13:22:45.000Z</time>
      </trkpt>
      <trkpt lat="45.58818" lon="2.74147">
        <ele>866.5</ele>
        <time>2021-09-07T13:22:52.000Z</time>
      </trkpt>
      <trkpt lat="45.58825" lon="2.74154">
        <ele>865.9</ele>
        <time>2021-09-07T13:22:57.000Z</time>
      </trkpt>
      <trkpt lat="45.58827" lon="2.74166">
        <ele>865.7</ele>
        <time>2021-09-07T13:23:03.000Z</time>
      </trkpt>
      <trkpt lat="45.58827" lon="2.74177">
        <ele>865.6</ele>
        <time>2021-09-07T13:23:09.000Z</time>
      </trkpt>
      <trkpt lat="45.58826" lon="2.74189">
        <ele>865.6</ele>
        <time>2021-09-07T13:23:15.000Z</time>
      </trkpt>
      <trkpt lat="45.58822" lon="2.74204">
        <ele>866.1</ele>
        <time>2021-09-07T13:23:21.000Z</time>
      </trkpt>
      <trkpt lat="45.5883" lon="2.74203">
        <ele>865</ele>
        <time>2021-09-07T13:23:27.000Z</time>
      </trkpt>
      <trkpt lat="45.5883" lon="2.74212">
        <ele>864.9</ele>
        <time>2021-09-07T13:23:39.000Z</time>
      </trkpt>
      <trkpt lat="45.5883" lon="2.74225">
        <ele>864.8</ele>
        <time>2021-09-07T13:23:45.000Z</time>
      </trkpt>
      <trkpt lat="45.58834" lon="2.74239">
        <ele>864.1</ele>
        <time>2021-09-07T13:23:51.000Z</time>
      </trkpt>
      <trkpt lat="45.58839" lon="2.7425">
        <ele>863.7</ele>
        <time>2021-09-07T13:23:57.000Z</time>
      </trkpt>
      <trkpt lat="45.58843" lon="2.74261">
        <ele>863.8</ele>
        <time>2021-09-07T13:24:03.000Z</time>
      </trkpt>
      <trkpt lat="45.58849" lon="2.74273">
        <ele>863.8</ele>
        <time>2021-09-07T13:24:09.000Z</time>
      </trkpt>
      <trkpt lat="45.58854" lon="2.74285">
        <ele>863.8</ele>
        <time>2021-09-07T13:24:15.000Z</time>
      </trkpt>
      <trkpt lat="45.58861" lon="2.74299">
        <ele>863.8</ele>
        <time>2021-09-07T13:24:21.000Z</time>
      </trkpt>
      <trkpt lat="45.58867" lon="2.74302">
        <ele>863.6</ele>
        <time>2021-09-07T13:24:31.000Z</time>
      </trkpt>
      <trkpt lat="45.5887" lon="2.74313">
        <ele>863.8</ele>
        <time>2021-09-07T13:24:47.000Z</time>
      </trkpt>
      <trkpt lat="45.58864" lon="2.74322">
        <ele>864.3</ele>
        <time>2021-09-07T13:25:08.000Z</time>
      </trkpt>
      <trkpt lat="45.5886" lon="2.74333">
        <ele>864.7</ele>
        <time>2021-09-07T13:25:11.000Z</time>
      </trkpt>
      <trkpt lat="45.58855" lon="2.74347">
        <ele>865.3</ele>
        <time>2021-09-07T13:25:15.000Z</time>
      </trkpt>
      <trkpt lat="45.58857" lon="2.74376">
        <ele>866</ele>
        <time>2021-09-07T13:25:21.000Z</time>
      </trkpt>
      <trkpt lat="45.58896" lon="2.74307">
        <ele>862.4</ele>
        <time>2021-09-07T13:33:01.000Z</time>
      </trkpt>
      <trkpt lat="45.58902" lon="2.7432">
        <ele>862.4</ele>
        <time>2021-09-07T13:33:07.000Z</time>
      </trkpt>
      <trkpt lat="45.58901" lon="2.74344">
        <ele>862.8</ele>
        <time>2021-09-07T13:33:13.000Z</time>
      </trkpt>
      <trkpt lat="45.58876" lon="2.74311">
        <ele>863.4</ele>
        <time>2021-09-07T13:36:59.000Z</time>
      </trkpt>
      <trkpt lat="45.58883" lon="2.74302">
        <ele>862.9</ele>
        <time>2021-09-07T13:37:04.000Z</time>
      </trkpt>
      <trkpt lat="45.58873" lon="2.74308">
        <ele>863.5</ele>
        <time>2021-09-07T13:37:28.000Z</time>
      </trkpt>
      <trkpt lat="45.58868" lon="2.74314">
        <ele>863.9</ele>
        <time>2021-09-07T13:43:21.000Z</time>
      </trkpt>
      <trkpt lat="45.58875" lon="2.74311">
        <ele>863.5</ele>
        <time>2021-09-07T13:43:36.000Z</time>
      </trkpt>
      <trkpt lat="45.58881" lon="2.74309">
        <ele>863.1</ele>
        <time>2021-09-07T13:43:40.000Z</time>
      </trkpt>
      <trkpt lat="45.58884" lon="2.74318">
        <ele>863.2</ele>
        <time>2021-09-07T13:43:45.000Z</time>
      </trkpt>
      <trkpt lat="45.58886" lon="2.74304">
        <ele>862.8</ele>
        <time>2021-09-07T13:43:51.000Z</time>
      </trkpt>
      <trkpt lat="45.58883" lon="2.74296">
        <ele>862.7</ele>
        <time>2021-09-07T13:44:00.000Z</time>
      </trkpt>
      <trkpt lat="45.58876" lon="2.74292">
        <ele>863</ele>
        <time>2021-09-07T13:44:10.000Z</time>
      </trkpt>
      <trkpt lat="45.58874" lon="2.74282">
        <ele>862.8</ele>
        <time>2021-09-07T13:44:16.000Z</time>
      </trkpt>
      <trkpt lat="45.58871" lon="2.74272">
        <ele>862.7</ele>
        <time>2021-09-07T13:44:21.000Z</time>
      </trkpt>
      <trkpt lat="45.58866" lon="2.74261">
        <ele>862.7</ele>
        <time>2021-09-07T13:44:27.000Z</time>
      </trkpt>
      <trkpt lat="45.58861" lon="2.7425">
        <ele>862.7</ele>
        <time>2021-09-07T13:44:33.000Z</time>
      </trkpt>
      <trkpt lat="45.58858" lon="2.74239">
        <ele>862.8</ele>
        <time>2021-09-07T13:44:39.000Z</time>
      </trkpt>
      <trkpt lat="45.58855" lon="2.74227">
        <ele>862.9</ele>
        <time>2021-09-07T13:44:45.000Z</time>
      </trkpt>
      <trkpt lat="45.58851" lon="2.74214">
        <ele>863.1</ele>
        <time>2021-09-07T13:44:51.000Z</time>
      </trkpt>
      <trkpt lat="45.58848" lon="2.74204">
        <ele>863.4</ele>
        <time>2021-09-07T13:44:57.000Z</time>
      </trkpt>
      <trkpt lat="45.58843" lon="2.74197">
        <ele>863.8</ele>
        <time>2021-09-07T13:45:04.000Z</time>
      </trkpt>
      <trkpt lat="45.58839" lon="2.74189">
        <ele>864.2</ele>
        <time>2021-09-07T13:45:09.000Z</time>
      </trkpt>
      <trkpt lat="45.58835" lon="2.74178">
        <ele>864.7</ele>
        <time>2021-09-07T13:45:15.000Z</time>
      </trkpt>
      <trkpt lat="45.58832" lon="2.74166">
        <ele>865.1</ele>
        <time>2021-09-07T13:45:21.000Z</time>
      </trkpt>
      <trkpt lat="45.58829" lon="2.74154">
        <ele>865.4</ele>
        <time>2021-09-07T13:45:27.000Z</time>
      </trkpt>
      <trkpt lat="45.58832" lon="2.74144">
        <ele>865.1</ele>
        <time>2021-09-07T13:45:33.000Z</time>
      </trkpt>
      <trkpt lat="45.58839" lon="2.74133">
        <ele>864.4</ele>
        <time>2021-09-07T13:45:39.000Z</time>
      </trkpt>
      <trkpt lat="45.58845" lon="2.74126">
        <ele>863.7</ele>
        <time>2021-09-07T13:45:45.000Z</time>
      </trkpt>
      <trkpt lat="45.58851" lon="2.74119">
        <ele>863</ele>
        <time>2021-09-07T13:45:51.000Z</time>
      </trkpt>
      <trkpt lat="45.58855" lon="2.74111">
        <ele>862.5</ele>
        <time>2021-09-07T13:45:59.000Z</time>
      </trkpt>
      <trkpt lat="45.58857" lon="2.74102">
        <ele>862.2</ele>
        <time>2021-09-07T13:46:04.000Z</time>
      </trkpt>
      <trkpt lat="45.58863" lon="2.74096">
        <ele>861.5</ele>
        <time>2021-09-07T13:46:10.000Z</time>
      </trkpt>
      <trkpt lat="45.58864" lon="2.74087">
        <ele>861.3</ele>
        <time>2021-09-07T13:46:17.000Z</time>
      </trkpt>
      <trkpt lat="45.58862" lon="2.74077">
        <ele>861.5</ele>
        <time>2021-09-07T13:46:32.000Z</time>
      </trkpt>
      <trkpt lat="45.58861" lon="2.74068">
        <ele>861.6</ele>
        <time>2021-09-07T13:46:44.000Z</time>
      </trkpt>
      <trkpt lat="45.58859" lon="2.74058">
        <ele>861.8</ele>
        <time>2021-09-07T14:14:13.000Z</time>
      </trkpt>
      <trkpt lat="45.58858" lon="2.74049">
        <ele>861.9</ele>
        <time>2021-09-07T14:14:20.000Z</time>
      </trkpt>
      <trkpt lat="45.58855" lon="2.74039">
        <ele>862.3</ele>
        <time>2021-09-07T14:14:26.000Z</time>
      </trkpt>
      <trkpt lat="45.58855" lon="2.74029">
        <ele>862.2</ele>
        <time>2021-09-07T14:14:33.000Z</time>
      </trkpt>
      <trkpt lat="45.58854" lon="2.74019">
        <ele>862.3</ele>
        <time>2021-09-07T14:14:43.000Z</time>
      </trkpt>
      <trkpt lat="45.58849" lon="2.74012">
        <ele>863</ele>
        <time>2021-09-07T14:14:49.000Z</time>
      </trkpt>
      <trkpt lat="45.58847" lon="2.74002">
        <ele>863.2</ele>
        <time>2021-09-07T14:14:55.000Z</time>
      </trkpt>
      <trkpt lat="45.58846" lon="2.73991">
        <ele>863.1</ele>
        <time>2021-09-07T14:14:58.000Z</time>
      </trkpt>
      <trkpt lat="45.58843" lon="2.73983">
        <ele>863.2</ele>
        <time>2021-09-07T14:15:10.000Z</time>
      </trkpt>
      <trkpt lat="45.58841" lon="2.73974">
        <ele>863.2</ele>
        <time>2021-09-07T14:15:17.000Z</time>
      </trkpt>
      <trkpt lat="45.58834" lon="2.73971">
        <ele>863.9</ele>
        <time>2021-09-07T14:15:24.000Z</time>
      </trkpt>
      <trkpt lat="45.58827" lon="2.73968">
        <ele>864</ele>
        <time>2021-09-07T14:15:33.000Z</time>
      </trkpt>
      <trkpt lat="45.58823" lon="2.73958">
        <ele>863.6</ele>
        <time>2021-09-07T14:15:39.000Z</time>
      </trkpt>
      <trkpt lat="45.58818" lon="2.73949">
        <ele>863.3</ele>
        <time>2021-09-07T14:15:45.000Z</time>
      </trkpt>
      <trkpt lat="45.58815" lon="2.73939">
        <ele>862.8</ele>
        <time>2021-09-07T14:15:51.000Z</time>
      </trkpt>
      <trkpt lat="45.58815" lon="2.73928">
        <ele>862.3</ele>
        <time>2021-09-07T14:15:58.000Z</time>
      </trkpt>
      <trkpt lat="45.58813" lon="2.73918">
        <ele>861.8</ele>
        <time>2021-09-07T14:16:05.000Z</time>
      </trkpt>
      <trkpt lat="45.58816" lon="2.73909">
        <ele>861.3</ele>
        <time>2021-09-07T14:16:11.000Z</time>
      </trkpt>
      <trkpt lat="45.58814" lon="2.73899">
        <ele>860.5</ele>
        <time>2021-09-07T14:16:15.000Z</time>
      </trkpt>
      <trkpt lat="45.5881" lon="2.73885">
        <ele>859.5</ele>
        <time>2021-09-07T14:16:21.000Z</time>
      </trkpt>
      <trkpt lat="45.58807" lon="2.73873">
        <ele>858.7</ele>
        <time>2021-09-07T14:16:27.000Z</time>
      </trkpt>
      <trkpt lat="45.58804" lon="2.73862">
        <ele>857.9</ele>
        <time>2021-09-07T14:16:33.000Z</time>
      </trkpt>
      <trkpt lat="45.58801" lon="2.73853">
        <ele>857.3</ele>
        <time>2021-09-07T14:16:39.000Z</time>
      </trkpt>
      <trkpt lat="45.58799" lon="2.73842">
        <ele>856.6</ele>
        <time>2021-09-07T14:16:45.000Z</time>
      </trkpt>
      <trkpt lat="45.58797" lon="2.73829">
        <ele>856</ele>
        <time>2021-09-07T14:16:51.000Z</time>
      </trkpt>
      <trkpt lat="45.58793" lon="2.73821">
        <ele>856</ele>
        <time>2021-09-07T14:16:58.000Z</time>
      </trkpt>
      <trkpt lat="45.58792" lon="2.73812">
        <ele>856</ele>
        <time>2021-09-07T14:17:05.000Z</time>
      </trkpt>
      <trkpt lat="45.58793" lon="2.738">
        <ele>855.9</ele>
        <time>2021-09-07T14:17:12.000Z</time>
      </trkpt>
      <trkpt lat="45.58788" lon="2.73794">
        <ele>856.2</ele>
        <time>2021-09-07T14:17:26.000Z</time>
      </trkpt>
      <trkpt lat="45.58791" lon="2.73785">
        <ele>856</ele>
        <time>2021-09-07T14:17:33.000Z</time>
      </trkpt>
      <trkpt lat="45.58791" lon="2.73775">
        <ele>856</ele>
        <time>2021-09-07T14:17:39.000Z</time>
      </trkpt>
      <trkpt lat="45.58792" lon="2.73761">
        <ele>856</ele>
        <time>2021-09-07T14:17:45.000Z</time>
      </trkpt>
      <trkpt lat="45.58791" lon="2.7374">
        <ele>856.2</ele>
        <time>2021-09-07T14:17:51.000Z</time>
      </trkpt>
      <trkpt lat="45.5879" lon="2.73724">
        <ele>856.5</ele>
        <time>2021-09-07T14:17:57.000Z</time>
      </trkpt>
      <trkpt lat="45.58789" lon="2.73707">
        <ele>856.8</ele>
        <time>2021-09-07T14:18:03.000Z</time>
      </trkpt>
      <trkpt lat="45.58789" lon="2.73695">
        <ele>857</ele>
        <time>2021-09-07T14:18:09.000Z</time>
      </trkpt>
      <trkpt lat="45.58789" lon="2.73685">
        <ele>857.1</ele>
        <time>2021-09-07T14:18:18.000Z</time>
      </trkpt>
      <trkpt lat="45.58786" lon="2.73675">
        <ele>857.6</ele>
        <time>2021-09-07T14:18:36.000Z</time>
      </trkpt>
      <trkpt lat="45.58783" lon="2.73666">
        <ele>858</ele>
        <time>2021-09-07T14:18:41.000Z</time>
      </trkpt>
      <trkpt lat="45.58781" lon="2.73657">
        <ele>858.4</ele>
        <time>2021-09-07T14:18:55.000Z</time>
      </trkpt>
      <trkpt lat="45.58777" lon="2.73648">
        <ele>859</ele>
        <time>2021-09-07T14:19:03.000Z</time>
      </trkpt>
      <trkpt lat="45.58771" lon="2.73643">
        <ele>859.8</ele>
        <time>2021-09-07T14:19:10.000Z</time>
      </trkpt>
      <trkpt lat="45.58766" lon="2.73637">
        <ele>860.4</ele>
        <time>2021-09-07T14:19:15.000Z</time>
      </trkpt>
      <trkpt lat="45.5876" lon="2.73631">
        <ele>861.2</ele>
        <time>2021-09-07T14:19:22.000Z</time>
      </trkpt>
      <trkpt lat="45.58758" lon="2.73622">
        <ele>861.6</ele>
        <time>2021-09-07T14:19:28.000Z</time>
      </trkpt>
      <trkpt lat="45.58757" lon="2.73612">
        <ele>861.8</ele>
        <time>2021-09-07T14:19:35.000Z</time>
      </trkpt>
      <trkpt lat="45.58757" lon="2.73601">
        <ele>861.9</ele>
        <time>2021-09-07T14:19:41.000Z</time>
      </trkpt>
      <trkpt lat="45.58755" lon="2.73591">
        <ele>862.3</ele>
        <time>2021-09-07T14:19:48.000Z</time>
      </trkpt>
      <trkpt lat="45.58755" lon="2.73582">
        <ele>862.3</ele>
        <time>2021-09-07T14:19:58.000Z</time>
      </trkpt>
      <trkpt lat="45.5876" lon="2.73575">
        <ele>861.3</ele>
        <time>2021-09-07T14:20:05.000Z</time>
      </trkpt>
      <trkpt lat="45.58756" lon="2.73584">
        <ele>862.3</ele>
        <time>2021-09-07T14:20:27.000Z</time>
      </trkpt>
      <trkpt lat="45.58752" lon="2.73593">
        <ele>862.6</ele>
        <time>2021-09-07T14:20:36.000Z</time>
      </trkpt>
      <trkpt lat="45.58754" lon="2.73603">
        <ele>862.3</ele>
        <time>2021-09-07T14:20:43.000Z</time>
      </trkpt>
      <trkpt lat="45.58759" lon="2.7361">
        <ele>861.6</ele>
        <time>2021-09-07T14:20:54.000Z</time>
      </trkpt>
      <trkpt lat="45.58752" lon="2.73615">
        <ele>862.4</ele>
        <time>2021-09-07T14:21:13.000Z</time>
      </trkpt>
      <trkpt lat="45.58747" lon="2.73621">
        <ele>863</ele>
        <time>2021-09-07T14:21:21.000Z</time>
      </trkpt>
      <trkpt lat="45.58754" lon="2.73617">
        <ele>862.1</ele>
        <time>2021-09-07T14:22:15.000Z</time>
      </trkpt>
      <trkpt lat="45.58756" lon="2.73606">
        <ele>862</ele>
        <time>2021-09-07T14:22:21.000Z</time>
      </trkpt>
      <trkpt lat="45.5876" lon="2.73596">
        <ele>861.6</ele>
        <time>2021-09-07T14:22:27.000Z</time>
      </trkpt>
      <trkpt lat="45.58767" lon="2.73593">
        <ele>860.8</ele>
        <time>2021-09-07T14:22:33.000Z</time>
      </trkpt>
      <trkpt lat="45.58774" lon="2.73592">
        <ele>860</ele>
        <time>2021-09-07T14:22:39.000Z</time>
      </trkpt>
      <trkpt lat="45.5878" lon="2.73589">
        <ele>859.3</ele>
        <time>2021-09-07T14:22:55.000Z</time>
      </trkpt>
      <trkpt lat="45.58789" lon="2.73593">
        <ele>858.2</ele>
        <time>2021-09-07T14:23:01.000Z</time>
      </trkpt>
      <trkpt lat="45.58794" lon="2.73599">
        <ele>857.5</ele>
        <time>2021-09-07T14:23:07.000Z</time>
      </trkpt>
      <trkpt lat="45.58801" lon="2.73598">
        <ele>856.7</ele>
        <time>2021-09-07T14:23:11.000Z</time>
      </trkpt>
      <trkpt lat="45.58798" lon="2.73588">
        <ele>857.2</ele>
        <time>2021-09-07T14:23:19.000Z</time>
      </trkpt>
      <trkpt lat="45.58803" lon="2.73596">
        <ele>856.5</ele>
        <time>2021-09-07T14:23:29.000Z</time>
      </trkpt>
      <trkpt lat="45.58817" lon="2.73602">
        <ele>854.7</ele>
        <time>2021-09-07T14:23:33.000Z</time>
      </trkpt>
      <trkpt lat="45.5882" lon="2.73613">
        <ele>854.2</ele>
        <time>2021-09-07T14:23:39.000Z</time>
      </trkpt>
      <trkpt lat="45.58814" lon="2.73609">
        <ele>855</ele>
        <time>2021-09-07T14:23:56.000Z</time>
      </trkpt>
      <trkpt lat="45.58811" lon="2.73601">
        <ele>855.5</ele>
        <time>2021-09-07T14:24:03.000Z</time>
      </trkpt>
      <trkpt lat="45.58804" lon="2.736">
        <ele>856.3</ele>
        <time>2021-09-07T14:24:09.000Z</time>
      </trkpt>
      <trkpt lat="45.58798" lon="2.73598">
        <ele>857.1</ele>
        <time>2021-09-07T14:24:15.000Z</time>
      </trkpt>
      <trkpt lat="45.58791" lon="2.73599">
        <ele>857.9</ele>
        <time>2021-09-07T14:24:21.000Z</time>
      </trkpt>
      <trkpt lat="45.58785" lon="2.73591">
        <ele>858.7</ele>
        <time>2021-09-07T14:24:40.000Z</time>
      </trkpt>
      <trkpt lat="45.58778" lon="2.73584">
        <ele>859.6</ele>
        <time>2021-09-07T14:24:51.000Z</time>
      </trkpt>
      <trkpt lat="45.58759" lon="2.73559">
        <ele>860.4</ele>
        <time>2021-09-07T14:24:57.000Z</time>
      </trkpt>
      <trkpt lat="45.58762" lon="2.73546">
        <ele>859.3</ele>
        <time>2021-09-07T14:25:04.000Z</time>
      </trkpt>
      <trkpt lat="45.58768" lon="2.73554">
        <ele>859.3</ele>
        <time>2021-09-07T14:25:14.000Z</time>
      </trkpt>
      <trkpt lat="45.5878" lon="2.73556">
        <ele>858.3</ele>
        <time>2021-09-07T14:25:18.000Z</time>
      </trkpt>
      <trkpt lat="45.58778" lon="2.73565">
        <ele>858.8</ele>
        <time>2021-09-07T14:25:30.000Z</time>
      </trkpt>
      <trkpt lat="45.58777" lon="2.73575">
        <ele>859.4</ele>
        <time>2021-09-07T14:25:35.000Z</time>
      </trkpt>
      <trkpt lat="45.58778" lon="2.73585">
        <ele>859.6</ele>
        <time>2021-09-07T14:25:40.000Z</time>
      </trkpt>
      <trkpt lat="45.58781" lon="2.73593">
        <ele>859.2</ele>
        <time>2021-09-07T14:25:48.000Z</time>
      </trkpt>
      <trkpt lat="45.58779" lon="2.73603">
        <ele>859.3</ele>
        <time>2021-09-07T14:25:54.000Z</time>
      </trkpt>
      <trkpt lat="45.58778" lon="2.73612">
        <ele>859.3</ele>
        <time>2021-09-07T14:25:59.000Z</time>
      </trkpt>
      <trkpt lat="45.5878" lon="2.73622">
        <ele>858.9</ele>
        <time>2021-09-07T14:26:05.000Z</time>
      </trkpt>
      <trkpt lat="45.58784" lon="2.7363">
        <ele>858.4</ele>
        <time>2021-09-07T14:26:11.000Z</time>
      </trkpt>
      <trkpt lat="45.58788" lon="2.73639">
        <ele>857.8</ele>
        <time>2021-09-07T14:26:17.000Z</time>
      </trkpt>
      <trkpt lat="45.58791" lon="2.73648">
        <ele>857.3</ele>
        <time>2021-09-07T14:26:24.000Z</time>
      </trkpt>
      <trkpt lat="45.58797" lon="2.73653">
        <ele>856.5</ele>
        <time>2021-09-07T14:26:32.000Z</time>
      </trkpt>
      <trkpt lat="45.588" lon="2.73661">
        <ele>856.1</ele>
        <time>2021-09-07T14:26:41.000Z</time>
      </trkpt>
      <trkpt lat="45.58806" lon="2.73657">
        <ele>855.4</ele>
        <time>2021-09-07T14:26:51.000Z</time>
      </trkpt>
      <trkpt lat="45.58798" lon="2.73654">
        <ele>856.4</ele>
        <time>2021-09-07T14:27:23.000Z</time>
      </trkpt>
      <trkpt lat="45.58799" lon="2.73645">
        <ele>856.4</ele>
        <time>2021-09-07T14:27:48.000Z</time>
      </trkpt>
      <trkpt lat="45.58796" lon="2.73636">
        <ele>856.8</ele>
        <time>2021-09-07T14:27:54.000Z</time>
      </trkpt>
      <trkpt lat="45.58791" lon="2.73629">
        <ele>857.5</ele>
        <time>2021-09-07T14:27:59.000Z</time>
      </trkpt>
      <trkpt lat="45.58786" lon="2.73622">
        <ele>858.2</ele>
        <time>2021-09-07T14:28:05.000Z</time>
      </trkpt>
      <trkpt lat="45.58784" lon="2.73612">
        <ele>858.6</ele>
        <time>2021-09-07T14:28:12.000Z</time>
      </trkpt>
      <trkpt lat="45.58783" lon="2.73603">
        <ele>858.8</ele>
        <time>2021-09-07T14:28:19.000Z</time>
      </trkpt>
      <trkpt lat="45.58778" lon="2.73597">
        <ele>859.5</ele>
        <time>2021-09-07T14:28:28.000Z</time>
      </trkpt>
      <trkpt lat="45.58785" lon="2.73598">
        <ele>858.6</ele>
        <time>2021-09-07T14:28:41.000Z</time>
      </trkpt>
      <trkpt lat="45.5879" lon="2.73604">
        <ele>858</ele>
        <time>2021-09-07T14:28:48.000Z</time>
      </trkpt>
      <trkpt lat="45.58793" lon="2.73613">
        <ele>857.5</ele>
        <time>2021-09-07T14:28:54.000Z</time>
      </trkpt>
      <trkpt lat="45.588" lon="2.73611">
        <ele>856.7</ele>
        <time>2021-09-07T14:28:58.000Z</time>
      </trkpt>
      <trkpt lat="45.58812" lon="2.7361">
        <ele>855.2</ele>
        <time>2021-09-07T14:29:03.000Z</time>
      </trkpt>
      <trkpt lat="45.58817" lon="2.73618">
        <ele>854.5</ele>
        <time>2021-09-07T14:29:09.000Z</time>
      </trkpt>
      <trkpt lat="45.58824" lon="2.73624">
        <ele>853.6</ele>
        <time>2021-09-07T14:29:15.000Z</time>
      </trkpt>
      <trkpt lat="45.58831" lon="2.73632">
        <ele>852.7</ele>
        <time>2021-09-07T14:29:21.000Z</time>
      </trkpt>
      <trkpt lat="45.58839" lon="2.73636">
        <ele>852.5</ele>
        <time>2021-09-07T14:29:27.000Z</time>
      </trkpt>
      <trkpt lat="45.58845" lon="2.73641">
        <ele>852.5</ele>
        <time>2021-09-07T14:29:34.000Z</time>
      </trkpt>
      <trkpt lat="45.5885" lon="2.73649">
        <ele>852.2</ele>
        <time>2021-09-07T14:29:40.000Z</time>
      </trkpt>
      <trkpt lat="45.58842" lon="2.73651">
        <ele>852.2</ele>
        <time>2021-09-07T14:29:46.000Z</time>
      </trkpt>
      <trkpt lat="45.5883" lon="2.73635">
        <ele>852.8</ele>
        <time>2021-09-07T14:29:51.000Z</time>
      </trkpt>
      <trkpt lat="45.58823" lon="2.73635">
        <ele>853.6</ele>
        <time>2021-09-07T14:39:09.000Z</time>
      </trkpt>
    </trkseg>
  </trk>
</gpx>